<
# Wetter Temperatur Luftdruck Luftfeuchtigkeit Sichtweite Windgeschwindigkeit Windrichtung Zeit
1 Clear 4 1022 60 10000 4.12 290 07:30 02.10.2022
2 Clouds 6 1019 56 10000 10.8 240 02:55 02.10.2022
3 Clouds 7 1018 53 10000 11.83 240 00:46 02.10.2022
4 Clouds 7 1018 53 10000 11.83 240 00:20 02.10.2022
5 Clouds 8 1016 53 10000 12.86 230 22:37 01.10.2022
6 Clouds 7 1016 61 10000 11.83 240 20:34 01.10.2022
7 Clouds 8 1015 57 10000 11.83 230 18:40 01.10.2022
8 Clouds 3 1013 87 10000 12.86 240 16:36 01.10.2022
9 Clouds 3 1010 87 10000 13.38 240 14:35 01.10.2022
10 Clouds 3 1008 81 10000 11.32 250 13:31 01.10.2022
11 Drizzle 3 1007 81 8000 12.86 240 12:32 01.10.2022
12 Rain 3 1006 95 9736 3.45 207 11:20 01.10.2022
13 Rain 3 1006 95 9736 3.45 207 10:32 01.10.2022
14 Clouds 2 1002 98 4025 1.88 278 09:28 01.10.2022
15 Clouds 2 1002 98 4025 1.88 278 08:58 01.10.2022
16 Clouds 8 1000 53 10000 1.54 0 04:27 01.10.2022
17 Clouds 8 1001 53 10000 4.12 300 03:31 01.10.2022
18 Clouds 9 1001 46 10000 5.14 330 00:18 01.10.2022
19 Clouds 10 1002 40 10000 6.17 320 22:37 30.09.2022
20 Clear 9 1002 40 10000 6.69 320 21:29 30.09.2022
21 Clear 9 1002 40 10000 7.2 320 20:44 30.09.2022
22 Clear 9 1002 40 10000 7.2 320 20:18 30.09.2022
23 Clear 8 1003 46 10000 4.63 340 17:38 30.09.2022
24 Clear 6 1004 61 10000 1.54 0 15:56 30.09.2022
25 Clear 3 1004 75 10000 1.54 310 13:34 30.09.2022
26 Clear 3 1005 81 10000 1.54 230 11:58 30.09.2022
27 Clear 3 1005 81 10000 1.54 230 11:28 30.09.2022
28 Clouds 1 1007 95 10000 2.65 333 08:37 30.09.2022
29 Clouds 3 1006 97 10000 1.75 313 06:26 30.09.2022
30 Clouds 6 1002 75 10000 8.75 230 02:42 30.09.2022
31 Clouds 12 1000 35 10000 5.14 280 23:35 29.09.2022
32 Clouds 13 999 41 10000 6.17 300 21:29 29.09.2022
33 Clouds 13 999 35 10000 3.09 300 20:57 29.09.2022
34 Clouds 12 1000 37 10000 4.63 280 18:45 29.09.2022
35 Clouds 14 1001 35 10000 5.14 280 17:32 29.09.2022
36 Clear 11 1001 40 10000 4.12 250 16:28 29.09.2022
37 Clear 12 1001 37 10000 6.17 290 15:36 29.09.2022
38 Clear 10 1002 43 10000 6.69 310 14:35 29.09.2022
39 Clear 9 1003 49 10000 4.12 20 11:48 29.09.2022
40 Clouds 3 1007 92 10000 2.89 345 07:26 29.09.2022
41 Clouds 11 1004 54 10000 6.17 300 02:52 29.09.2022
42 Clouds 13 1003 44 10000 7.2 310 00:28 29.09.2022
43 Clouds 14 1002 44 10000 8.75 300 23:19 28.09.2022
44 Clouds 15 1002 38 10000 3.6 360 21:30 28.09.2022
45 Clouds 13 1002 47 10000 3.6 0 20:31 28.09.2022
46 Clouds 12 1003 47 10000 4.12 20 18:42 28.09.2022
47 Clear 8 1004 66 10000 1.03 0 15:34 28.09.2022
48 Clear 5 1005 81 10000 2.06 270 13:28 28.09.2022
49 Clear 6 1006 70 10000 2.06 90 11:23 28.09.2022
50 Clear 7 1006 65 10000 1.03 0 09:25 28.09.2022
51 Clouds 4 1008 96 10000 2.76 342 07:40 28.09.2022
52 Clouds 8 1006 66 10000 2.06 0 04:41 28.09.2022
53 Clouds 7 1005 76 10000 12.35 230 01:38 28.09.2022
54 Rain 7 1003 76 10000 13.38 230 23:30 27.09.2022
55 Clouds 9 1001 66 10000 15.95 230 21:55 27.09.2022
56 Clouds 9 998 66 10000 18.01 230 20:49 27.09.2022
57 Clouds 9 998 66 10000 18.01 230 20:19 27.09.2022
58 Clouds 9 998 71 10000 16.98 230 19:36 27.09.2022
59 Rain 7 997 81 10000 12.86 230 17:46 27.09.2022
60 Rain 8 996 76 10000 13.38 240 16:20 27.09.2022
61 Rain 5 995 93 10000 10.29 230 14:59 27.09.2022
62 Rain 5 994 87 10000 9.77 240 13:32 27.09.2022
63 Rain 5 993 87 10000 9.26 230 12:23 27.09.2022
64 Clouds 4 991 70 10000 1.03 0 09:49 27.09.2022
65 Clouds 0 993 92 10000 2.79 334 07:41 27.09.2022
66 Clouds 5 992 70 10000 9.77 240 03:51 27.09.2022
67 Clouds 5 991 75 10000 10.8 240 01:36 27.09.2022
68 Drizzle 5 989 81 10000 13.38 230 23:45 26.09.2022
69 Drizzle 5 989 81 10000 13.38 230 23:21 26.09.2022
70 Drizzle 6 986 81 10000 11.32 240 20:58 26.09.2022
71 Drizzle 6 985 75 10000 11.32 230 19:42 26.09.2022
72 Drizzle 6 984 75 10000 11.83 230 18:39 26.09.2022
73 Clouds 6 982 75 10000 9.77 230 17:24 26.09.2022
74 Clouds 5 981 87 10000 1.03 20 14:57 26.09.2022
75 Drizzle 5 981 81 10000 3.09 240 12:30 26.09.2022
76 Clouds 6 981 75 10000 0.51 0 10:42 26.09.2022
77 Clouds 6 981 75 10000 0.51 0 10:22 26.09.2022
78 Clouds 6 981 75 10000 2.06 300 09:56 26.09.2022
79 Rain 6 981 75 10000 2.06 300 09:27 26.09.2022
80 Rain 3 984 95 10000 3.5 355 08:59 26.09.2022
81 Clouds 8 986 61 10000 1.54 0 05:30 26.09.2022
82 Clouds 8 991 53 10000 3.6 40 01:57 26.09.2022
83 Clouds 9 992 46 10000 4.63 320 23:23 25.09.2022
84 Clouds 10 993 46 10000 6.17 300 21:44 25.09.2022
85 Clouds 9 994 49 10000 5.66 330 20:57 25.09.2022
86 Clouds 9 994 49 10000 5.66 330 20:33 25.09.2022
87 Clouds 9 995 49 10000 4.63 10 18:44 25.09.2022
88 Clouds 10 995 46 10000 6.17 280 18:24 25.09.2022
89 Clouds 5 996 70 10000 3.6 50 17:22 25.09.2022
90 Clouds 6 997 56 10000 5.14 50 15:50 25.09.2022
91 Clouds 6 998 52 10000 7.2 40 14:35 25.09.2022
92 Clouds 5 998 60 10000 7.72 30 13:45 25.09.2022
93 Clear 5 1001 52 10000 5.66 10 10:37 25.09.2022
94 Clear 6 1001 49 10000 6.17 330 09:37 25.09.2022
95 Clouds 0 1005 91 10000 2.74 360 06:53 25.09.2022
96 Clouds 3 1005 65 10000 0.51 0 04:28 25.09.2022
97 Clouds 5 1005 70 10000 7.72 230 23:36 24.09.2022
98 Rain 6 1004 65 10000 6.69 230 21:19 24.09.2022
99 Clouds 5 1003 70 10000 9.26 240 19:33 24.09.2022
100 Clouds 5 1003 75 10000 9.26 240 18:44 24.09.2022
101 Clouds 4 1002 75 10000 5.14 220 16:43 24.09.2022
102 Clouds 4 1001 75 10000 7.72 240 15:23 24.09.2022
103 Clouds 3 1000 87 10000 8.23 250 14:27 24.09.2022
104 Rain 3 997 87 10000 9.26 250 12:59 24.09.2022
105 Rain 3 997 87 10000 9.26 250 12:22 24.09.2022
106 Clouds 7 994 61 10000 4.63 250 09:58 24.09.2022
107 Clouds 1 996 93 10000 2.36 3 08:51 24.09.2022
108 Fog -2 988 93 200 13.89 340 07:40 24.09.2022
109 Clouds 7 996 65 10000 2.57 270 04:52 24.09.2022
110 Clouds 9 996 53 10000 4.63 30 03:48 24.09.2022
111 Clouds 11 997 43 10000 6.69 330 22:54 23.09.2022
112 Clouds 12 997 40 10000 4.63 330 21:33 23.09.2022
113 Clouds 12 998 37 10000 5.14 340 20:57 23.09.2022
114 Clouds 12 998 37 10000 5.14 340 20:26 23.09.2022
115 Clouds 12 998 40 10000 6.17 320 19:19 23.09.2022
116 Clear 10 1000 43 10000 4.12 350 15:31 23.09.2022
117 Clouds 8 1002 53 10000 1.54 0 11:47 23.09.2022
118 Clouds 9 1002 49 10000 2.57 0 09:36 23.09.2022
119 Clouds 7 1004 53 10000 3.6 10 06:51 23.09.2022
120 Clouds 9 1004 46 10000 4.12 10 00:42 23.09.2022
121 Clouds 10 1004 40 10000 7.2 330 23:23 22.09.2022
122 Clouds 10 1003 40 10000 5.66 330 22:27 22.09.2022
123 Clouds 11 1003 32 10000 5.14 280 21:23 22.09.2022
124 Clouds 12 1001 35 10000 5.66 310 19:58 22.09.2022
125 Clouds 13 1001 38 10000 6.17 330 17:41 22.09.2022
126 Clouds 8 999 57 10000 3.09 10 13:38 22.09.2022
127 Clouds 9 998 57 10000 3.09 30 10:37 22.09.2022
128 Clouds 9 998 57 10000 3.09 30 10:18 22.09.2022
129 Clouds 8 998 66 10000 3.09 30 07:36 22.09.2022
130 Clouds 9 998 57 10000 6.17 20 04:37 22.09.2022
131 Clouds 10 1001 50 10000 6.17 10 23:46 21.09.2022
132 Clouds 9 1003 57 10000 5.14 20 22:26 21.09.2022
133 Clouds 10 1006 53 10000 4.63 350 20:54 21.09.2022
134 Clouds 10 1008 50 10000 5.14 10 18:30 21.09.2022
135 Clouds 10 1009 46 10000 6.17 360 17:22 21.09.2022
136 Clouds 8 1011 57 10000 7.2 30 15:29 21.09.2022
137 Clouds 7 1012 57 10000 2.06 0 13:39 21.09.2022
138 Clouds 6 1013 65 10000 6.69 30 11:34 21.09.2022
139 Clouds 7 1013 61 10000 5.14 360 10:50 21.09.2022
140 Clear 7 1014 61 10000 5.14 10 09:38 21.09.2022
141 Clear 7 1014 61 10000 5.14 10 08:23 21.09.2022
142 Clouds 7 1018 65 10000 4.63 10 02:54 21.09.2022
143 Clouds 7 1018 65 10000 4.63 10 02:34 21.09.2022
144 Clouds 9 1019 49 10000 3.09 330 01:50 21.09.2022
145 Clouds 9 1019 43 10000 4.12 360 23:58 20.09.2022
146 Clear 9 1020 49 10000 4.63 360 21:40 20.09.2022
147 Clear 9 1021 43 10000 4.63 360 20:26 20.09.2022
148 Clear 12 1021 22 10000 4.12 10 17:53 20.09.2022
149 Clear 8 1022 36 10000 3.6 150 15:18 20.09.2022
150 Clear 5 1022 48 10000 0.51 0 13:59 20.09.2022
151 Clear 6 1022 52 10000 1.54 270 11:28 20.09.2022
152 Clear 4 1024 81 10000 1.03 0 08:30 20.09.2022
153 Clear 3 1024 81 10000 1.54 230 07:32 20.09.2022
154 Clear 7 1024 45 10000 2.06 100 04:33 20.09.2022
155 Clear 8 1024 42 10000 1.03 0 01:29 20.09.2022
156 Clear 11 1024 40 10000 2.06 70 22:41 19.09.2022
157 Clear 9 1025 53 10000 2.06 90 21:28 19.09.2022
158 Clear 8 1025 53 10000 1.03 0 20:39 19.09.2022
159 Clear 6 1026 65 10000 1.54 80 18:43 19.09.2022
160 Clear 6 1026 65 10000 1.54 80 18:43 19.09.2022
161 Clear 4 1027 75 10000 1.03 0 16:37 19.09.2022
162 Clear 0 1027 86 10000 1.03 360 13:47 19.09.2022
163 Clear 0 1027 86 10000 1.54 290 11:57 19.09.2022
164 Clear 1 1028 80 10000 2.06 360 09:38 19.09.2022
165 Clear 1 1028 80 10000 1.03 0 08:20 19.09.2022
166 Clear 4 1029 65 10000 2.57 350 03:28 19.09.2022
167 Clear 6 1028 65 10000 4.12 250 00:44 19.09.2022
168 Clear 7 1028 65 10000 6.17 240 22:32 18.09.2022
169 Clear 8 1028 61 10000 4.63 220 20:47 18.09.2022
170 Clear 8 1028 57 10000 5.14 220 19:33 18.09.2022
171 Clear 8 1028 49 10000 4.63 230 17:51 18.09.2022
172 Clear 7 1028 57 10000 7.2 250 16:46 18.09.2022
173 Clear 3 1028 75 10000 3.6 350 14:44 18.09.2022
174 Clear 3 1028 65 10000 2.57 290 13:34 18.09.2022
175 Clouds 3 1027 70 10000 3.6 280 11:55 18.09.2022
176 Clouds 4 1025 75 10000 6.69 250 07:46 18.09.2022
177 Clouds 5 1022 75 10000 11.83 240 01:41 18.09.2022
178 Clouds 5 1022 75 10000 11.83 240 01:19 18.09.2022
179 Clouds 5 1019 70 10000 11.83 230 22:56 17.09.2022
180 Clouds 7 1018 65 10000 11.83 240 20:53 17.09.2022
181 Clouds 5 1018 70 10000 11.83 230 19:37 17.09.2022
182 Clouds 5 1016 70 10000 14.92 230 17:44 17.09.2022
183 Drizzle 3 1013 75 10000 12.86 240 14:22 17.09.2022
184 Drizzle 2 1010 87 10000 11.83 250 12:46 17.09.2022
185 Drizzle 2 1006 87 10000 12.35 240 10:49 17.09.2022
186 Clouds 5 1001 75 10000 6.69 220 06:53 17.09.2022
187 Drizzle 5 1001 65 10000 1.03 0 05:49 17.09.2022
188 Clouds 6 1000 52 10000 5.66 310 23:39 16.09.2022
189 Clouds 6 1001 49 10000 3.09 330 21:57 16.09.2022
190 Clouds 6 1001 49 10000 4.63 330 20:44 16.09.2022
191 Clear 5 1002 45 10000 3.6 310 18:43 16.09.2022
192 Clouds 4 1003 48 10000 2.57 170 16:22 16.09.2022
193 Clear 0 1003 69 10000 1.54 270 14:51 16.09.2022
194 Snow 1 1002 80 10000 5.14 250 12:52 16.09.2022
195 Clouds 1 1000 69 10000 8.23 240 09:55 16.09.2022
196 Clouds 1 999 75 10000 9.26 230 07:23 16.09.2022
197 Clouds 1 998 75 10000 11.32 230 06:48 16.09.2022
198 Clouds 2 998 75 10000 9.26 230 05:55 16.09.2022
199 Clouds 3 994 81 10000 10.8 230 01:45 16.09.2022
200 Clouds 6 990 61 10000 6.69 230 21:34 15.09.2022
201 Clouds 7 990 61 10000 7.72 240 20:33 15.09.2022
202 Clouds 8 990 42 10000 5.14 270 19:24 15.09.2022
203 Clouds 7 989 45 10000 6.17 300 17:40 15.09.2022
204 Clouds 7 989 45 10000 6.17 300 17:22 15.09.2022
205 Clouds 7 989 42 10000 8.75 310 15:38 15.09.2022
206 Clear 6 988 45 10000 6.69 300 12:50 15.09.2022
207 Clear 6 988 45 10000 5.14 310 11:47 15.09.2022
208 Clouds 7 988 45 10000 6.69 300 09:44 15.09.2022
209 Clear 9 987 40 10000 5.66 310 06:45 15.09.2022
210 Clouds 7 989 53 10000 5.14 30 03:29 15.09.2022
211 Clouds 8 994 42 10000 4.12 360 22:51 14.09.2022
212 Clouds 8 996 36 10000 4.63 340 20:30 14.09.2022
213 Clear 8 997 34 10000 6.17 20 19:32 14.09.2022
214 Clear 8 998 31 10000 2.06 0 17:37 14.09.2022
215 Clear 7 999 39 10000 7.72 30 16:36 14.09.2022
216 Clear 5 1001 48 10000 1.03 0 14:50 14.09.2022
217 Clear 2 1001 69 10000 3.09 350 12:34 14.09.2022
218 Clear 3 1001 70 10000 3.09 350 09:52 14.09.2022
219 Clear 3 1000 75 10000 3.09 330 08:21 14.09.2022
220 Clouds 5 998 65 10000 7.72 240 06:49 14.09.2022
221 Clouds 5 998 65 10000 7.72 240 06:25 14.09.2022
222 Clouds 6 992 81 10000 3.6 70 02:25 14.09.2022
223 Clouds 6 991 75 10000 1.54 0 01:32 14.09.2022
224 Rain 7 990 70 10000 2.06 270 00:52 14.09.2022
225 Rain 7 990 70 10000 2.06 270 00:52 14.09.2022
226 Rain 7 990 70 10000 4.63 340 23:54 13.09.2022
227 Rain 7 990 70 10000 4.63 340 23:36 13.09.2022
228 Rain 7 990 70 10000 4.63 340 23:18 13.09.2022
229 Rain 7 991 70 10000 7.72 20 22:26 13.09.2022
230 Clouds 9 994 57 10000 7.2 20 20:45 13.09.2022
231 Clouds 8 998 61 10000 7.72 20 18:54 13.09.2022
232 Clouds 8 1002 57 10000 6.69 20 16:34 13.09.2022
233 Clear 8 1004 49 10000 5.14 30 15:18 13.09.2022
234 Clouds 8 1006 49 10000 5.66 20 13:31 13.09.2022
235 Clouds 5 1010 60 10000 4.12 40 10:20 13.09.2022
236 Clouds 6 1013 56 10000 3.6 0 07:54 13.09.2022
237 Clouds 5 1016 65 10000 2.57 350 02:20 13.09.2022
238 Clouds 8 1015 53 10000 2.06 220 23:22 12.09.2022
239 Clouds 8 1015 61 10000 2.06 220 22:37 12.09.2022
240 Clouds 8 1016 49 10000 1.54 170 20:54 12.09.2022
241 Clear 8 1016 53 10000 1.54 140 19:58 12.09.2022
242 Clear 8 1016 53 10000 2.06 160 18:22 12.09.2022
243 Clouds 6 1016 61 10000 3.09 360 15:48 12.09.2022
244 Clear 3 1014 70 10000 4.12 360 12:26 12.09.2022
245 Clear 3 1014 70 10000 3.6 360 10:30 12.09.2022
246 Clear 6 1012 56 10000 2.57 260 07:33 12.09.2022
247 Clouds 5 1010 75 10000 10.8 250 04:35 12.09.2022
248 Clouds 6 1007 61 10000 10.29 230 01:53 12.09.2022
249 Clouds 5 1004 70 10000 13.89 230 22:46 11.09.2022
250 Clouds 7 1003 49 10000 9.26 230 21:25 11.09.2022
251 Clouds 7 1002 53 10000 12.86 230 20:44 11.09.2022
252 Clouds 6 1001 75 10000 10.29 240 19:39 11.09.2022
253 Clouds 6 1001 75 10000 10.29 240 19:18 11.09.2022
254 Clouds 10 997 46 10000 7.72 300 17:28 11.09.2022
255 Clouds 8 998 46 10000 5.14 300 15:51 11.09.2022
256 Clouds 7 999 42 10000 6.17 340 13:22 11.09.2022
257 Clouds 6 1000 56 10000 2.57 0 11:25 11.09.2022
258 Clouds 3 1002 70 10000 0.51 0 08:25 11.09.2022
259 Clouds 3 1004 60 10000 2.06 240 05:30 11.09.2022
260 Clear 7 1004 53 10000 4.63 250 00:23 11.09.2022
261 Clouds 8 1003 49 10000 8.23 250 22:23 10.09.2022
262 Clouds 8 1002 49 10000 11.32 240 20:34 10.09.2022
263 Clouds 9 1002 49 10000 10.29 240 19:44 10.09.2022
264 Clouds 9 1002 49 10000 10.29 240 19:25 10.09.2022
265 Clouds 8 1001 53 10000 11.32 240 17:51 10.09.2022
266 Clouds 6 1000 61 10000 10.8 230 15:37 10.09.2022
267 Clouds 5 998 65 10000 11.32 240 13:55 10.09.2022
268 Clouds 4 997 81 10000 10.29 240 12:52 10.09.2022
269 Clouds 4 996 81 10000 5.66 220 10:34 10.09.2022
270 Clouds 5 993 75 10000 2.06 300 08:42 10.09.2022
271 Clouds 5 993 75 10000 2.06 300 08:22 10.09.2022
272 Rain 5 995 93 10000 7.2 230 04:55 10.09.2022
273 Clouds 10 995 50 10000 1.03 0 23:38 09.09.2022
274 Clouds 10 996 50 10000 2.57 350 22:36 09.09.2022
275 Clouds 12 996 35 10000 3.6 280 21:21 09.09.2022
276 Clouds 11 996 50 10000 7.2 220 20:22 09.09.2022
277 Clouds 9 996 66 10000 8.23 230 19:23 09.09.2022
278 Clouds 9 996 66 10000 8.23 240 18:18 09.09.2022
279 Clouds 9 996 53 10000 1.54 0 15:45 09.09.2022
280 Clouds 6 996 70 10000 2.06 190 13:43 09.09.2022
281 Clouds 7 995 65 10000 3.6 120 11:38 09.09.2022
282 Clouds 5 996 75 10000 1.03 0 08:19 09.09.2022
283 Clouds 5 1000 70 10000 1.54 350 03:43 09.09.2022
284 Clouds 5 1000 75 10000 3.09 130 00:39 09.09.2022
285 Clouds 5 1002 81 10000 1.54 200 21:52 08.09.2022
286 Clouds 5 1003 70 10000 1.03 0 20:49 08.09.2022
287 Clouds 5 1003 70 10000 1.03 0 20:29 08.09.2022
288 Clouds 5 1004 65 10000 2.06 70 19:28 08.09.2022
289 Clouds 3 1005 87 10000 2.57 70 17:35 08.09.2022
290 Clouds 3 1006 81 10000 2.57 80 16:18 08.09.2022
291 Clear 2 1007 69 10000 2.57 350 13:56 08.09.2022
292 Clear 2 1007 75 10000 2.57 350 12:50 08.09.2022
293 Clear 2 1007 75 10000 1.54 360 11:32 08.09.2022
294 Clouds 1 1006 75 10000 1.54 280 09:58 08.09.2022
295 Clouds 2 1006 75 10000 1.03 0 07:45 08.09.2022
296 Clouds 2 1006 80 10000 0.51 0 05:30 08.09.2022
297 Clouds 4 1006 65 10000 1.54 190 02:36 08.09.2022
298 Clouds 4 1006 65 10000 1.54 190 02:18 08.09.2022
299 Clouds 3 1006 70 10000 1.54 40 00:21 08.09.2022
300 Clouds 4 1007 65 10000 1.54 200 22:19 07.09.2022
301 Clouds 4 1007 60 10000 3.09 200 21:39 07.09.2022
302 Clouds 4 1007 60 10000 1.03 150 20:31 07.09.2022
303 Clouds 3 1007 70 10000 2.06 220 19:26 07.09.2022
304 Clouds 4 1008 56 10000 0 0 17:22 07.09.2022
305 Clouds 0 1007 74 10000 2.57 360 11:32 07.09.2022
306 Clouds 0 1007 74 10000 2.57 290 10:45 07.09.2022
307 Snow 0 1007 86 10000 4.63 250 08:33 07.09.2022
308 Clouds 0 1006 74 10000 6.69 250 06:50 07.09.2022
309 Snow -1 1004 86 1500 9.77 250 00:53 07.09.2022
310 Snow -1 1004 74 10000 4.45 231 22:28 06.09.2022
311 Snow -1 1004 74 10000 4.45 231 21:38 06.09.2022
312 Snow 0 1000 80 1000 6.69 240 19:40 06.09.2022
313 Snow -1 1000 93 8000 7.2 250 18:42 06.09.2022
314 Snow 0 999 74 1200 8.23 250 17:51 06.09.2022
315 Clouds 0 998 86 10000 5.66 240 16:53 06.09.2022
316 Clouds 0 998 86 10000 5.66 240 16:26 06.09.2022
317 Snow -1 997 86 10000 6.17 240 14:54 06.09.2022
318 Snow -2 996 93 8000 6.69 270 13:44 06.09.2022
319 Snow -2 996 93 8000 6.69 270 13:44 06.09.2022
320 Snow -2 996 93 8000 6.69 270 13:20 06.09.2022
321 Snow 0 993 93 4000 5.14 240 10:57 06.09.2022
322 Snow 0 992 86 8000 3.6 250 09:56 06.09.2022
323 Snow 0 991 80 8000 4.63 250 08:27 06.09.2022
324 Snow 0 990 86 8000 4.12 250 06:58 06.09.2022
325 Clouds 1 989 86 10000 6.17 260 01:23 06.09.2022
326 Clouds 1 987 93 2000 11.32 230 23:19 05.09.2022
327 Clouds 4 986 81 10000 7.72 230 21:50 05.09.2022
328 Clouds 4 986 87 9000 10.29 230 20:32 05.09.2022
329 Clouds 7 985 53 10000 6.69 240 18:59 05.09.2022
330 Clouds 7 985 53 10000 6.69 240 18:38 05.09.2022
331 Clouds 7 985 53 10000 6.69 240 18:19 05.09.2022
332 Clouds 5 985 70 10000 6.17 240 16:25 05.09.2022
333 Clouds 4 985 81 10000 12.35 240 15:23 05.09.2022
334 Clear 9 982 37 10000 7.2 300 12:56 05.09.2022
335 Clear 9 981 40 10000 8.75 310 11:53 05.09.2022
336 Clear 9 982 46 10000 7.72 290 08:58 05.09.2022
337 Clouds 9 982 57 10000 7.72 310 06:38 05.09.2022
338 Rain 6 988 65 10000 2.57 0 01:56 05.09.2022
339 Clouds 7 996 49 10000 4.63 10 22:39 04.09.2022
340 Clouds 7 996 49 10000 4.63 10 22:19 04.09.2022
341 Clouds 7 999 49 10000 7.72 350 20:37 04.09.2022
342 Clouds 7 1002 49 10000 3.6 360 18:55 04.09.2022
343 Clouds 4 1003 73 10000 3.47 353 17:43 04.09.2022
344 Clouds 3 1004 81 10000 2.88 356 16:28 04.09.2022
345 Clouds -1 1007 94 10000 3.11 345 14:26 04.09.2022
346 Clouds 2 1005 93 10000 3.09 100 12:57 04.09.2022
347 Clouds 2 1006 87 10000 2.57 110 11:37 04.09.2022
348 Clouds 1 1006 80 10000 1.54 360 09:50 04.09.2022
349 Clouds -1 1008 93 10000 3.37 353 06:51 04.09.2022
350 Clouds 1 1006 93 10000 2.06 300 03:31 04.09.2022
351 Clouds 3 1003 87 10000 1.54 250 23:33 03.09.2022
352 Rain 3 1003 93 10000 3.09 260 22:20 03.09.2022
353 Rain 2 1002 93 7000 3.6 240 21:22 03.09.2022
354 Drizzle 3 1000 87 8000 1.03 0 18:57 03.09.2022
355 Drizzle 3 999 87 8000 1.03 0 17:25 03.09.2022
356 Drizzle 3 999 81 8000 2.57 130 16:20 03.09.2022
357 Drizzle 3 998 87 10000 3.6 140 14:43 03.09.2022
358 Drizzle 3 997 93 10000 2.57 150 13:50 03.09.2022
359 Drizzle 3 996 100 5000 1.54 210 11:37 03.09.2022
360 Drizzle 3 995 100 6000 1.03 0 09:51 03.09.2022
361 Drizzle 3 994 93 10000 3.09 250 07:57 03.09.2022
362 Clouds 4 993 93 10000 3.6 240 04:56 03.09.2022
363 Clouds 4 993 93 10000 2.06 250 03:57 03.09.2022
364 Drizzle 6 993 75 10000 2.06 160 23:49 02.09.2022
365 Drizzle 6 993 75 10000 1.54 140 22:34 02.09.2022
366 Clouds 7 994 65 10000 2.06 140 20:57 02.09.2022
367 Clouds 7 994 65 10000 2.06 140 20:23 02.09.2022
368 Clouds 6 997 65 10000 1.54 80 18:59 02.09.2022
369 Clouds 6 997 65 10000 1.54 80 18:27 02.09.2022
370 Clouds 6 998 65 10000 2.57 130 17:36 02.09.2022
371 Clouds 4 999 75 10000 4.63 110 16:45 02.09.2022
372 Clouds 2 1001 80 10000 2.06 50 13:51 02.09.2022
373 Clear 1 1001 64 10000 2.06 280 11:47 02.09.2022
374 Clear 2 1001 69 10000 3.09 60 09:49 02.09.2022
375 Clouds 2 1001 69 10000 2.06 330 08:55 02.09.2022
376 Clouds 2 1001 69 10000 2.57 320 07:24 02.09.2022
377 Clouds 2 1001 80 10000 3.6 270 06:35 02.09.2022
378 Clouds 3 1000 87 10000 3.09 250 02:37 02.09.2022
379 Clouds 6 999 70 10000 4.12 220 22:26 01.09.2022
380 Clouds 5 999 70 10000 6.69 230 21:40 01.09.2022
381 Clouds 5 999 70 10000 6.69 230 21:21 01.09.2022
382 Clouds 5 999 70 10000 9.26 230 20:37 01.09.2022
383 Clouds 7 998 57 10000 6.17 250 18:38 01.09.2022
384 Clouds 8 997 49 10000 6.17 290 16:59 01.09.2022
385 Clouds 6 997 52 10000 7.2 300 15:34 01.09.2022
386 Clouds 4 997 75 10000 3.09 150 13:48 01.09.2022
387 Clouds 3 997 87 10000 1.54 230 12:57 01.09.2022
388 Clear 3 997 87 10000 2.06 330 11:52 01.09.2022
389 Clear 3 997 87 10000 2.06 330 11:29 01.09.2022
390 Clouds 2 998 93 10000 2.06 250 09:49 01.09.2022
391 Clouds 5 997 65 10000 4.12 280 07:50 01.09.2022
392 Clouds 6 997 70 10000 5.66 240 05:58 01.09.2022
393 Clouds 6 1001 81 10000 11.32 240 01:31 01.09.2022
394 Clouds 6 1001 81 10000 11.32 240 01:31 01.09.2022
395 Clouds 8 994 66 10000 3.09 190 23:19 31.08.2022
396 Clouds 10 995 53 10000 2.57 150 20:48 31.08.2022
397 Clouds 9 996 61 10000 4.12 10 19:23 31.08.2022
398 Drizzle 8 998 61 10000 5.14 340 16:49 31.08.2022
399 Clouds 8 999 61 10000 4.63 360 15:28 31.08.2022
400 Clouds 7 999 61 10000 3.6 20 13:38 31.08.2022
401 Clear 5 999 70 10000 1.03 0 12:18 31.08.2022
402 Clouds 6 999 70 10000 2.57 260 09:36 31.08.2022
403 Clouds 6 999 70 10000 1.03 0 08:31 31.08.2022
404 Clouds 5 1000 81 10000 1.03 0 02:59 31.08.2022
405 Clouds 10 1000 53 10000 2.06 150 22:29 30.08.2022
406 Clouds 10 1000 53 10000 2.06 150 22:29 30.08.2022
407 Clouds 9 1000 66 10000 3.09 150 21:30 30.08.2022
408 Clouds 10 1000 57 10000 2.57 130 20:35 30.08.2022
409 Clouds 9 1000 61 10000 1.54 160 17:24 30.08.2022
410 Clouds 4 1001 93 10000 2.06 0 13:53 30.08.2022
411 Clouds 3 1002 100 10000 1.54 0 12:25 30.08.2022
412 Clouds 1 1002 93 10000 1.03 0 11:20 30.08.2022
413 Clear 2 1003 93 10000 1.03 0 09:58 30.08.2022
414 Clear 5 1003 81 10000 1.03 0 06:49 30.08.2022
415 Clouds 6 1004 75 10000 3.09 20 01:26 30.08.2022
416 Clouds 10 1003 62 10000 3.6 240 22:39 29.08.2022
417 Clouds 9 1002 71 10000 4.63 230 21:54 29.08.2022
418 Clouds 10 1002 66 10000 3.09 220 20:47 29.08.2022
419 Clouds 9 1002 66 10000 0.51 0 19:35 29.08.2022
420 Clear 6 1002 87 10000 3.09 70 17:33 29.08.2022
421 Clouds 6 1001 81 10000 1.03 0 16:59 29.08.2022
422 Clouds 6 1001 81 10000 1.03 0 15:20 29.08.2022
423 Clouds 4 1001 93 10000 2.06 70 13:55 29.08.2022
424 Clouds 7 1000 65 10000 2.57 20 12:24 29.08.2022
425 Clear 6 1000 70 10000 2.57 340 10:48 29.08.2022
426 Clear 5 1000 75 10000 3.09 10 09:19 29.08.2022
427 Clear 6 1000 70 10000 1.03 270 07:20 29.08.2022
428 Clouds 7 1001 70 10000 2.06 160 02:33 29.08.2022
429 Clouds 7 1001 76 10000 3.6 110 23:36 28.08.2022
430 Clouds 8 1002 66 10000 3.09 160 21:48 28.08.2022
431 Clouds 8 1002 66 10000 3.09 160 21:27 28.08.2022
432 Clouds 8 1003 66 10000 1.54 170 20:19 28.08.2022
433 Clouds 6 1005 75 10000 3.09 140 18:22 28.08.2022
434 Clouds 5 1006 81 10000 2.57 150 17:59 28.08.2022
435 Clouds 6 1007 65 10000 3.09 190 16:49 28.08.2022
436 Clouds 5 1008 65 10000 2.06 40 15:34 28.08.2022
437 Clouds 3 1010 81 10000 4.12 10 13:32 28.08.2022
438 Clouds 4 1010 75 10000 2.57 310 11:59 28.08.2022
439 Clouds 4 1010 81 10000 9.26 250 10:22 28.08.2022
440 Clouds 5 1009 75 10000 13.38 250 09:24 28.08.2022
441 Clouds 5 1009 75 10000 13.38 230 07:56 28.08.2022
442 Clouds 5 1009 75 10000 13.38 230 07:27 28.08.2022
443 Clouds 2 1008 87 10000 6.69 250 00:45 28.08.2022
444 Snow 2 1008 87 10000 9.77 230 23:28 27.08.2022
445 Snow 2 1009 80 10000 12.35 230 22:27 27.08.2022
446 Snow 2 1008 80 7000 14.92 240 20:35 27.08.2022
447 Snow 1 1007 86 5000 14.4 240 19:29 27.08.2022
448 Clouds 0 1006 86 10000 13.38 240 16:30 27.08.2022
449 Snow 0 1005 80 5000 7.72 250 15:31 27.08.2022
450 Snow -1 1002 93 500 9.26 250 13:30 27.08.2022
451 Snow -1 1000 93 5000 9.77 240 12:20 27.08.2022
452 Snow -1 997 100 300 9.26 250 10:30 27.08.2022
453 Snow -1 996 100 200 10.29 250 09:36 27.08.2022
454 Snow 0 993 100 600 8.23 250 06:54 27.08.2022
455 Snow -1 986 100 800 8.75 240 02:24 27.08.2022
456 Snow -1 982 86 1800 8.75 250 23:49 26.08.2022
457 Snow -1 979 100 1500 5.66 250 21:53 26.08.2022
458 Snow 0 979 93 500 8.75 220 20:22 26.08.2022
459 Snow -1 977 93 1000 8.75 250 18:19 26.08.2022
460 Snow -1 976 100 600 10.8 230 16:36 26.08.2022
461 Snow 0 975 93 6000 7.2 230 15:25 26.08.2022
462 Snow -1 975 96 305 1.74 299 13:20 26.08.2022
463 Snow 1 973 93 4500 7.72 230 11:48 26.08.2022
464 Snow 1 973 93 4500 7.72 230 11:22 26.08.2022
465 Snow 1 973 80 8000 6.17 300 09:53 26.08.2022
466 Drizzle 3 975 87 10000 6.69 240 04:56 26.08.2022
467 Rain 5 977 70 10000 6.69 340 00:55 26.08.2022
468 Clouds 8 979 46 10000 10.8 300 22:45 25.08.2022
469 Clouds 8 980 42 10000 8.23 300 20:57 25.08.2022
470 Clouds 8 981 42 10000 10.8 310 19:47 25.08.2022
471 Clouds 8 983 46 10000 6.69 290 18:36 25.08.2022
472 Clouds 7 983 45 10000 7.72 290 17:32 25.08.2022
473 Clouds 4 986 75 10000 4.63 240 16:46 25.08.2022
474 Drizzle 4 987 70 10000 3.6 270 15:37 25.08.2022
475 Drizzle 2 987 80 10000 3.09 280 14:30 25.08.2022
476 Clouds 2 986 75 10000 6.69 320 11:34 25.08.2022
477 Clouds 2 986 80 10000 1.54 0 10:45 25.08.2022
478 Rain 2 983 93 8000 11.32 230 07:55 25.08.2022
479 Clouds 5 982 45 10000 2.57 300 03:54 25.08.2022
480 Clouds 5 984 52 10000 4.12 310 23:56 24.08.2022
481 Clouds 5 984 52 10000 4.12 310 23:25 24.08.2022
482 Clouds 7 985 45 10000 5.14 330 21:59 24.08.2022
483 Clouds 7 985 45 10000 5.14 330 21:31 24.08.2022
484 Clouds 8 985 39 10000 5.66 320 20:18 24.08.2022
485 Clouds 7 986 61 10000 1.03 0 17:32 24.08.2022
486 Clouds 5 987 70 10000 2.57 230 15:55 24.08.2022
487 Clouds 5 987 70 10000 2.57 230 15:35 24.08.2022
488 Clouds 3 987 87 10000 1.03 0 12:52 24.08.2022
489 Clouds 3 987 87 10000 2.57 290 11:22 24.08.2022
490 Clouds 4 987 87 10000 9.77 240 09:19 24.08.2022
491 Clouds 7 986 57 10000 2.57 340 06:52 24.08.2022
492 Clouds 5 989 81 10000 2.06 150 01:20 24.08.2022
493 Clouds 7 990 70 10000 9.77 240 22:49 23.08.2022
494 Clouds 7 990 70 10000 9.77 240 22:18 23.08.2022
495 Clouds 10 989 46 10000 7.2 290 21:21 23.08.2022
496 Clouds 9 988 49 10000 6.17 320 19:28 23.08.2022
497 Clouds 8 989 53 10000 8.23 320 18:21 23.08.2022
498 Clouds 8 989 49 10000 10.29 320 17:31 23.08.2022
499 Clouds 8 988 49 10000 9.26 320 16:31 23.08.2022
500 Clouds 7 990 53 10000 7.72 340 14:54 23.08.2022
501 Clouds 5 992 56 10000 5.66 350 12:46 23.08.2022
502 Clear 6 992 49 10000 5.66 330 11:19 23.08.2022
503 Clear 6 993 49 10000 4.63 360 10:33 23.08.2022
504 Clear 5 994 52 10000 4.63 330 09:38 23.08.2022
505 Clear 1 995 80 10000 1.54 0 08:47 23.08.2022
506 Clear 1 995 80 10000 1.54 0 08:19 23.08.2022
507 Clear 1 996 80 10000 2.06 270 07:33 23.08.2022
508 Clear 2 997 75 10000 1.54 0 06:25 23.08.2022
509 Clear 3 999 65 10000 2.57 350 01:52 23.08.2022
510 Clear 3 998 65 10000 1.03 0 00:27 23.08.2022
511 Clear 5 998 70 10000 1.54 360 23:32 22.08.2022
512 Clear 5 998 70 10000 2.06 80 22:25 22.08.2022
513 Clear 6 999 61 10000 1.54 140 20:53 22.08.2022
514 Clear 5 1000 70 10000 1.54 170 19:46 22.08.2022
515 Clear 4 1000 81 10000 2.06 60 18:37 22.08.2022
516 Clear 3 1000 75 10000 1.54 320 16:23 22.08.2022
517 Clear 3 1001 75 10000 1.54 360 15:22 22.08.2022
518 Clear 3 1000 70 10000 1.03 0 12:55 22.08.2022
519 Clear 3 1000 65 10000 1.54 310 09:57 22.08.2022
520 Clear 3 999 81 10000 3.09 360 07:20 22.08.2022
521 Clouds 4 997 81 10000 7.2 260 02:42 22.08.2022
522 Rain 4 995 87 4000 12.35 240 00:37 22.08.2022
523 Rain 6 994 81 8000 13.89 230 23:34 21.08.2022
524 Clouds 9 993 66 10000 2.57 210 21:56 21.08.2022
525 Clouds 9 993 66 10000 2.57 210 21:21 21.08.2022
526 Clouds 8 994 71 10000 4.63 220 20:21 21.08.2022
527 Clouds 8 996 66 10000 4.63 220 18:59 21.08.2022
528 Clouds 7 999 65 10000 4.12 240 16:52 21.08.2022
529 Clouds 7 1000 65 10000 3.6 40 15:52 21.08.2022
530 Drizzle 7 1001 65 10000 4.63 30 14:59 21.08.2022
531 Drizzle 6 1003 65 10000 8.23 30 13:51 21.08.2022
532 Drizzle 7 1004 57 10000 4.63 360 12:56 21.08.2022
533 Clear 7 1005 49 10000 3.09 300 10:48 21.08.2022
534 Clouds 6 1007 56 10000 3.09 0 09:21 21.08.2022
535 Clouds 6 1017 56 10000 4.63 50 08:56 21.08.2022
536 Clouds 6 1017 56 10000 4.63 50 08:38 21.08.2022
537 Clouds 6 1013 52 10000 5.14 20 06:59 21.08.2022
538 Clear 2 1017 69 10000 1.54 230 02:52 21.08.2022
539 Clouds 5 1018 70 10000 1.03 0 23:44 20.08.2022
540 Clouds 5 1018 75 10000 2.06 70 22:23 20.08.2022
541 Clouds 6 1018 70 10000 1.03 0 21:22 20.08.2022
542 Clouds 5 1018 65 10000 1.03 0 19:49 20.08.2022
543 Clouds 5 1018 65 10000 1.03 0 19:21 20.08.2022
544 Clear 5 1018 48 10000 2.57 30 18:27 20.08.2022
545 Clear 4 1017 56 10000 2.06 310 17:25 20.08.2022
546 Clear 3 1017 60 10000 3.09 10 16:23 20.08.2022
547 Clear 2 1016 69 10000 4.12 10 14:35 20.08.2022
548 Clear 1 1014 75 10000 3.6 340 12:19 20.08.2022
549 Clouds 1 1014 69 10000 3.09 340 11:42 20.08.2022
550 Clouds 2 1013 75 10000 2.06 310 09:20 20.08.2022
551 Clouds 3 1011 81 10000 8.75 240 07:31 20.08.2022
552 Clouds 3 1008 81 10000 8.75 250 05:48 20.08.2022
553 Rain 2 1001 93 3500 12.35 240 00:58 20.08.2022
554 Clouds 2 999 93 3500 12.86 250 23:51 19.08.2022
555 Clouds 1 997 100 3000 13.38 250 22:48 19.08.2022
556 Clouds 2 996 87 4000 12.35 240 21:34 19.08.2022
557 Rain 3 992 87 7000 13.38 230 19:40 19.08.2022
558 Drizzle 3 989 81 10000 10.8 240 16:28 19.08.2022
559 Drizzle 4 987 75 10000 10.29 230 14:22 19.08.2022
560 Clouds 4 986 81 10000 11.83 240 12:19 19.08.2022
561 Clouds 5 984 70 10000 11.83 230 10:39 19.08.2022
562 Clouds 5 982 65 10000 7.72 220 09:36 19.08.2022
563 Drizzle 4 987 75 10000 3.09 10 04:56 19.08.2022
564 Clouds 5 996 56 10000 4.12 10 00:43 19.08.2022
565 Clouds 5 996 56 10000 4.12 10 00:19 19.08.2022
566 Clouds 5 999 65 10000 1.54 60 22:58 18.08.2022
567 Clouds 5 999 65 10000 1.54 60 22:26 18.08.2022
568 Clouds 6 1000 61 10000 2.57 240 21:51 18.08.2022
569 Clouds 6 1000 65 10000 7.2 250 20:56 18.08.2022
570 Clouds 6 1001 65 10000 8.75 250 19:40 18.08.2022
571 Clouds 6 1001 65 10000 8.75 250 19:20 18.08.2022
572 Drizzle 4 1001 87 10000 8.23 220 17:41 18.08.2022
573 Clouds 4 1000 75 10000 5.66 230 16:19 18.08.2022
574 Clouds 4 999 65 10000 2.06 0 14:22 18.08.2022
575 Clouds 4 999 65 10000 2.06 0 14:22 18.08.2022
576 Clouds 4 998 60 10000 2.06 0 13:44 18.08.2022
577 Clouds 4 998 56 10000 4.63 20 12:30 18.08.2022
578 Clouds 4 998 56 10000 2.06 10 11:21 18.08.2022
579 Clouds 3 999 75 10000 5.66 40 09:43 18.08.2022
580 Clouds 4 1001 60 10000 5.66 30 07:57 18.08.2022
581 Clouds 4 1002 60 10000 5.66 30 06:43 18.08.2022
582 Clouds 4 1005 60 10000 5.66 10 02:32 18.08.2022
583 Clouds 4 1006 65 10000 1.54 30 22:51 17.08.2022
584 Clouds 5 1006 65 10000 2.06 20 21:26 17.08.2022
585 Clouds 3 1007 75 10000 2.57 80 19:59 17.08.2022
586 Clouds 3 1006 81 10000 3.09 60 18:39 17.08.2022
587 Clouds 3 1006 81 10000 2.06 60 17:27 17.08.2022
588 Clouds 3 1005 81 10000 4.63 80 16:21 17.08.2022
589 Clouds 2 1003 80 10000 3.09 60 14:48 17.08.2022
590 Drizzle 2 1001 87 10000 1.54 220 12:50 17.08.2022
591 Rain 3 1000 75 10000 2.57 110 11:36 17.08.2022
592 Clouds 3 997 81 10000 4.63 70 09:30 17.08.2022
593 Rain 3 995 87 8000 5.66 70 07:28 17.08.2022
594 Clouds 2 990 87 10000 0 0 02:21 17.08.2022
595 Clouds 3 986 87 10000 2.57 50 23:45 16.08.2022
596 Clouds 4 984 81 10000 3.6 90 21:52 16.08.2022
597 Clouds 4 984 81 10000 4.12 80 20:26 16.08.2022
598 Clouds 4 983 81 10000 3.6 80 19:50 16.08.2022
599 Clouds 3 983 70 10000 1.54 30 18:23 16.08.2022
600 Clouds 3 983 75 10000 1.54 10 17:40 16.08.2022
601 Clouds 1 981 80 10000 3.6 10 15:46 16.08.2022
602 Clouds 1 981 80 10000 2.57 10 14:55 16.08.2022
603 Clouds 1 981 80 10000 2.57 10 14:37 16.08.2022
604 Clouds 1 979 80 10000 1.54 340 12:43 16.08.2022
605 Clouds 2 978 80 10000 3.09 10 10:35 16.08.2022
606 Clouds 2 977 75 10000 2.06 290 09:43 16.08.2022
607 Clouds 2 977 75 10000 0.51 0 08:43 16.08.2022
608 Clouds 3 977 70 10000 1.54 360 07:23 16.08.2022
609 Clouds 4 974 70 10000 4.12 30 01:41 16.08.2022
610 Clouds 4 975 70 10000 6.69 30 22:29 15.08.2022
611 Clouds 5 976 60 10000 5.14 20 21:53 15.08.2022
612 Clouds 5 976 65 10000 0 0 20:48 15.08.2022
613 Clouds 5 976 65 10000 0 0 20:19 15.08.2022
614 Clouds 3 979 81 10000 2.57 40 18:41 15.08.2022
615 Clouds 3 980 81 10000 3.09 50 17:23 15.08.2022
616 Clouds 2 980 80 10000 3.6 50 16:21 15.08.2022
617 Rain 2 982 87 7000 2.06 360 13:56 15.08.2022
618 Rain 2 982 93 6000 2.57 50 12:37 15.08.2022
619 Clouds 2 983 93 10000 2.57 80 10:18 15.08.2022
620 Rain 2 983 93 10000 2.57 230 08:27 15.08.2022
621 Rain 2 983 93 10000 4.12 240 06:27 15.08.2022
622 Rain 3 982 87 8000 5.66 190 02:40 15.08.2022
623 Clouds 4 978 87 10000 8.23 240 22:40 14.08.2022
624 Clouds 4 978 87 10000 9.26 240 21:39 14.08.2022
625 Clouds 4 977 81 10000 9.26 240 20:24 14.08.2022
626 Clouds 3 977 87 10000 9.26 250 19:31 14.08.2022
627 Rain 3 977 87 8000 8.75 250 18:20 14.08.2022
628 Drizzle 3 976 81 10000 7.2 240 16:55 14.08.2022
629 Clouds 3 975 81 10000 7.2 240 15:51 14.08.2022
630 Drizzle 3 975 81 10000 7.72 240 14:38 14.08.2022
631 Clouds 2 974 87 10000 6.17 240 13:50 14.08.2022
632 Clouds 2 974 87 10000 6.17 240 13:24 14.08.2022
633 Rain 1 974 100 8000 5.14 240 12:34 14.08.2022
634 Clouds 1 975 93 6000 5.14 240 11:18 14.08.2022
635 Drizzle 2 975 93 8000 1.54 70 08:56 14.08.2022
636 Drizzle 3 976 93 8000 7.2 80 06:23 14.08.2022
637 Drizzle 3 976 93 8000 7.2 80 06:23 14.08.2022
638 Clouds 3 977 81 10000 6.69 80 04:21 14.08.2022
639 Clouds 3 981 56 10000 5.14 20 00:42 14.08.2022
640 Clear 6 982 31 10000 3.6 0 22:56 13.08.2022
641 Clear 5 983 38 10000 4.63 30 21:59 13.08.2022
642 Clear 4 984 38 10000 1.54 0 20:49 13.08.2022
643 Clear 4 985 56 10000 1.54 180 19:47 13.08.2022
644 Clear 4 986 56 10000 2.06 50 18:47 13.08.2022
645 Clouds 3 987 65 10000 4.63 50 17:21 13.08.2022
646 Clouds 0 989 80 10000 2.57 270 14:42 13.08.2022
647 Clouds 2 989 69 10000 4.12 280 13:49 13.08.2022
648 Clouds 2 989 69 10000 4.12 280 13:25 13.08.2022
649 Clear 2 990 69 10000 3.09 290 11:27 13.08.2022
650 Clouds 3 990 70 10000 2.06 0 09:23 13.08.2022
651 Clouds 2 990 80 10000 7.72 250 06:44 13.08.2022
652 Clouds 3 990 70 10000 5.14 250 01:51 13.08.2022
653 Clear 2 990 80 10000 4.12 250 23:32 12.08.2022
654 Clear 4 990 60 10000 1.03 120 21:37 12.08.2022
655 Clear 4 990 60 10000 1.03 120 19:48 12.08.2022
656 Clear 4 990 60 10000 1.03 120 19:23 12.08.2022
657 Clear 4 990 56 10000 2.57 150 18:21 12.08.2022
658 Clear 3 990 56 10000 2.57 170 16:27 12.08.2022
659 Clear 3 990 52 10000 2.57 0 15:19 12.08.2022
660 Clear 3 991 56 10000 4.63 330 13:43 12.08.2022
661 Clouds -2 991 80 10000 3.09 280 12:32 12.08.2022
662 Clouds 0 993 74 10000 1.03 0 08:52 12.08.2022
663 Clouds 1 993 69 10000 1.54 330 07:46 12.08.2022
664 Clouds 2 994 64 10000 1.03 270 06:23 12.08.2022
665 Clouds 2 998 87 10000 0 0 00:32 12.08.2022
666 Clouds 3 998 87 10000 1.54 350 23:58 11.08.2022
667 Clouds 3 998 87 10000 1.54 350 23:25 11.08.2022
668 Clouds 3 1000 87 10000 1.03 0 21:53 11.08.2022
669 Clouds 3 1000 87 10000 1.03 0 21:28 11.08.2022
670 Clouds 3 1000 87 10000 1.03 0 21:28 11.08.2022
671 Clouds 3 1001 87 10000 1.03 150 20:31 11.08.2022
672 Clouds 3 1001 87 10000 1.03 150 20:31 11.08.2022
673 Clouds 3 1002 87 10000 1.03 0 19:33 11.08.2022
674 Rain 3 1003 87 10000 0.51 0 18:56 11.08.2022
675 Clouds 2 1003 93 10000 0 0 17:22 11.08.2022
676 Clouds 1 1005 93 10000 1.03 260 15:48 11.08.2022
677 Clouds 1 1005 93 10000 1.03 270 14:40 11.08.2022
678 Clouds 1 1005 93 10000 0.51 340 11:59 11.08.2022
679 Rain 2 1005 93 10000 1.03 310 09:22 11.08.2022
680 Rain 1 1005 100 9000 0.51 0 06:52 11.08.2022
681 Clouds 2 1005 93 4500 1.03 0 02:49 11.08.2022
682 Clouds 5 1001 87 10000 9.26 250 23:57 10.08.2022
683 Clear 6 999 81 10000 1.54 200 21:49 10.08.2022
684 Clear 6 999 81 10000 1.54 200 21:19 10.08.2022
685 Clear 7 999 70 10000 1.03 0 20:36 10.08.2022
686 Clear 6 999 81 10000 1.03 0 18:53 10.08.2022
687 Clear 6 999 81 10000 1.03 0 17:28 10.08.2022
688 Clear 4 998 93 10000 3.09 70 14:57 10.08.2022
689 Clear 5 998 87 10000 2.57 60 13:34 10.08.2022
690 Clear 5 998 75 10000 1.54 0 11:47 10.08.2022
691 Clouds 5 999 75 10000 1.03 0 08:44 10.08.2022
692 Clouds 5 999 81 10000 3.09 360 07:36 10.08.2022
693 Clouds 4 999 75 10000 2.57 270 05:46 10.08.2022
694 Clouds 4 1000 65 10000 1.54 260 02:22 10.08.2022
695 Clear 4 1002 75 10000 1.03 0 23:33 09.08.2022
696 Clear 5 1002 75 10000 1.03 0 22:48 09.08.2022
697 Clear 6 1002 65 10000 2.06 40 21:34 09.08.2022
698 Clear 5 1003 75 10000 2.57 80 19:33 09.08.2022
699 Clear 5 1004 65 10000 1.54 10 17:59 09.08.2022
700 Clear 5 1004 65 10000 1.54 10 17:26 09.08.2022
701 Clear 5 1004 70 10000 1.03 0 16:40 09.08.2022
702 Clear 2 1004 75 10000 2.06 260 15:31 09.08.2022
703 Clouds 4 1003 70 10000 1.54 130 12:20 09.08.2022
704 Clouds 4 1005 70 10000 2.06 0 08:55 09.08.2022
705 Clouds 4 1005 70 10000 2.06 0 08:26 09.08.2022
706 Clouds 4 1005 65 10000 2.57 10 07:18 09.08.2022
707 Clouds 4 1009 56 10000 3.6 0 02:54 09.08.2022
708 Clouds 4 1011 60 10000 4.12 20 23:26 08.08.2022
709 Clouds 5 1012 52 10000 4.63 360 22:53 08.08.2022
710 Clouds 5 1012 52 10000 4.12 360 21:48 08.08.2022
711 Clouds 5 1013 56 10000 4.12 340 20:52 08.08.2022
712 Clouds 5 1015 52 10000 5.14 360 19:50 08.08.2022
713 Clouds 5 1016 52 10000 1.54 0 18:19 08.08.2022
714 Clouds 3 1018 65 10000 1.54 130 16:34 08.08.2022
715 Clouds 2 1019 64 10000 2.06 0 15:38 08.08.2022
716 Clouds 3 1021 60 10000 1.54 0 12:50 08.08.2022
717 Clouds 3 1021 52 10000 1.03 0 11:48 08.08.2022
718 Clouds 1 1023 64 10000 0.51 0 09:29 08.08.2022
719 Clouds 3 1024 65 10000 1.54 80 05:37 08.08.2022
720 Clear 3 1025 65 10000 2.57 310 02:24 08.08.2022
721 Clear 5 1027 56 10000 2.57 250 22:20 07.08.2022
722 Clear 7 1027 45 10000 1.54 190 21:38 07.08.2022
723 Clear 7 1027 49 10000 2.06 40 20:25 07.08.2022
724 Clear 6 1028 61 10000 1.54 120 19:54 07.08.2022
725 Clear 6 1028 61 10000 1.54 120 19:29 07.08.2022
726 Clear 4 1029 81 10000 2.06 90 18:22 07.08.2022
727 Clear 1 1030 86 10000 1.03 220 16:54 07.08.2022
728 Clear 0 1030 93 10000 0.51 0 15:54 07.08.2022
729 Clear 1 1030 86 10000 3.6 70 14:39 07.08.2022
730 Clear 0 1030 86 10000 1.03 0 13:22 07.08.2022
731 Clear -1 1031 93 10000 0.51 0 10:59 07.08.2022
732 Clear -1 1031 93 10000 0.51 0 10:33 07.08.2022
733 Clear -1 1032 86 10000 1.03 0 05:48 07.08.2022
734 Clear 1 1032 80 10000 1.03 0 03:19 07.08.2022
735 Clear 2 1032 80 10000 1.03 0 23:37 06.08.2022
736 Clear 3 1032 75 10000 1.03 130 22:20 06.08.2022
737 Clear 3 1031 81 10000 1.03 0 20:26 06.08.2022
738 Clear 2 1032 80 10000 1.54 40 19:41 06.08.2022
739 Clear 2 1032 80 10000 1.54 40 19:41 06.08.2022
740 Clear 2 1032 80 10000 0.51 0 18:25 06.08.2022
741 Clouds 2 1032 80 10000 1.03 0 17:28 06.08.2022
742 Clear -1 1031 93 10000 2.06 350 14:31 06.08.2022
743 Clear -1 1030 86 10000 1.54 310 13:40 06.08.2022
744 Clear -1 1029 86 10000 1.03 0 11:24 06.08.2022
745 Clear -2 1029 93 10000 1.54 320 09:51 06.08.2022
746 Clear 1 1028 86 10000 2.06 350 08:28 06.08.2022
747 Clouds 2 1026 80 10000 1.03 0 03:51 06.08.2022
748 Clouds 4 1023 81 10000 4.12 250 23:34 05.08.2022
749 Clouds 5 1022 75 10000 4.12 240 22:22 05.08.2022
750 Rain 5 1021 81 10000 5.66 240 19:32 05.08.2022
751 Clouds 5 1020 81 10000 6.17 230 18:44 05.08.2022
752 Rain 5 1020 87 10000 7.2 230 17:54 05.08.2022
753 Clouds 5 1019 87 10000 7.72 230 16:49 05.08.2022
754 Clouds 5 1019 87 10000 7.72 230 16:48 05.08.2022
755 Rain 5 1018 81 10000 6.17 240 15:22 05.08.2022
756 Rain 4 1018 87 10000 7.2 250 14:19 05.08.2022
757 Drizzle 4 1017 81 10000 2.57 10 13:23 05.08.2022
758 Drizzle 3 1017 87 10000 1.03 320 12:28 05.08.2022
759 Clouds 3 1016 81 10000 1.03 0 10:49 05.08.2022
760 Clouds 3 1015 81 10000 1.54 360 08:25 05.08.2022
761 Clouds 3 1014 81 10000 1.03 0 06:41 05.08.2022
762 Clouds 5 1013 75 10000 1.03 0 00:34 05.08.2022
763 Clouds 6 1011 65 10000 1.54 170 22:29 04.08.2022
764 Clouds 7 1011 57 10000 1.03 0 21:26 04.08.2022
765 Clouds 6 1011 56 10000 0.51 0 20:43 04.08.2022
766 Clouds 6 1011 65 10000 0 0 19:46 04.08.2022
767 Clouds 5 1012 70 10000 1.54 70 18:37 04.08.2022
768 Clouds 5 1012 70 10000 1.54 70 18:18 04.08.2022
769 Clouds 2 1012 80 10000 1.54 350 14:23 04.08.2022
770 Clouds 3 1011 75 10000 1.03 280 12:57 04.08.2022
771 Clouds 3 1011 81 10000 2.57 40 11:18 04.08.2022
772 Clouds 3 1012 75 10000 3.09 290 07:54 04.08.2022
773 Clouds 4 1012 75 10000 2.57 320 06:40 04.08.2022
774 Clouds 3 1012 87 10000 1.03 0 02:33 04.08.2022
775 Clouds 4 1013 81 10000 1.03 0 23:45 03.08.2022
776 Clouds 5 1013 75 10000 0.51 0 22:55 03.08.2022
777 Clouds 5 1014 81 10000 0.51 0 20:50 03.08.2022
778 Clouds 4 1014 87 10000 0 0 19:46 03.08.2022
779 Clouds 4 1015 87 10000 1.03 0 18:37 03.08.2022
780 Clouds 2 1015 93 10000 1.54 360 16:26 03.08.2022
781 Clouds 1 1016 100 10000 1.54 360 15:32 03.08.2022
782 Clouds 2 1016 87 10000 1.54 300 12:41 03.08.2022
783 Clouds 2 1016 93 10000 1.03 10 09:46 03.08.2022
784 Mist 1 1016 100 3500 1.03 290 04:51 03.08.2022
785 Drizzle 2 1016 93 4000 0 0 03:52 03.08.2022
786 Rain 2 1015 100 4000 2.57 120 01:45 03.08.2022
787 Rain 3 1014 87 10000 4.12 130 23:41 02.08.2022
788 Rain 4 1012 81 10000 5.14 150 21:59 02.08.2022
789 Rain 4 1012 81 10000 5.14 150 21:40 02.08.2022
790 Drizzle 5 1011 87 10000 4.12 80 19:39 02.08.2022
791 Clouds 5 1009 87 10000 4.63 240 16:49 02.08.2022
792 Clouds 6 1006 81 10000 5.66 230 13:40 02.08.2022
793 Clouds 9 1004 53 10000 3.6 320 10:34 02.08.2022
794 Clouds 8 1004 61 10000 3.6 340 08:27 02.08.2022
795 Clouds 8 1003 61 10000 3.6 310 07:50 02.08.2022
796 Clouds 9 1003 57 10000 5.14 310 04:56 02.08.2022
797 Clouds 7 1002 70 10000 3.6 160 02:20 02.08.2022
798 Clouds 9 1002 57 10000 4.12 340 23:23 01.08.2022
799 Clouds 8 1003 66 10000 2.06 80 21:37 01.08.2022
800 Clouds 6 1003 81 10000 4.12 90 19:45 01.08.2022
801 Clouds 6 1004 81 10000 1.54 150 18:53 01.08.2022
802 Clouds 3 1004 93 10000 0 0 16:56 01.08.2022
803 Clouds 3 1004 93 10000 0 0 16:33 01.08.2022
804 Clear 4 1004 87 10000 2.06 70 15:44 01.08.2022
805 Clear 4 1004 93 10000 3.09 70 14:45 01.08.2022
806 Clear 5 1004 81 10000 1.54 120 13:32 01.08.2022
807 Clouds 4 1003 87 10000 1.54 130 10:48 01.08.2022
808 Clouds 3 1004 93 10000 2.57 70 08:55 01.08.2022
809 Clouds 3 1004 93 10000 3.09 90 07:23 01.08.2022
810 Clouds 3 1004 93 10000 2.57 70 04:32 01.08.2022
811 Clouds 4 1005 93 10000 3.6 50 01:23 01.08.2022
812 Clouds 4 1005 87 10000 2.57 50 22:44 31.07.2022
813 Clouds 4 1005 87 10000 2.57 50 22:25 31.07.2022
814 Clouds 5 1005 81 10000 1.54 70 20:28 31.07.2022
815 Drizzle 5 1005 70 10000 1.03 0 18:39 31.07.2022
816 Drizzle 4 1004 81 10000 7.72 250 16:55 31.07.2022
817 Clouds 4 1002 75 10000 9.77 250 14:37 31.07.2022
818 Drizzle 4 998 87 10000 11.32 240 12:58 31.07.2022
819 Rain 5 997 81 10000 11.83 230 11:38 31.07.2022
820 Clouds 6 994 75 10000 10.29 240 08:47 31.07.2022
821 Clouds 6 992 70 10000 8.75 240 05:38 31.07.2022
822 Clouds 6 991 70 10000 10.29 230 01:21 31.07.2022
823 Clouds 8 990 53 10000 5.66 260 22:46 30.07.2022
824 Clouds 7 990 65 10000 9.26 240 21:52 30.07.2022
825 Clouds 7 990 65 10000 9.26 240 21:33 30.07.2022
826 Clouds 7 990 65 10000 8.75 230 20:33 30.07.2022
827 Clouds 6 990 75 10000 11.32 240 19:50 30.07.2022
828 Clouds 7 990 57 10000 7.2 240 18:19 30.07.2022
829 Clouds 6 990 70 10000 10.29 240 16:38 30.07.2022
830 Clouds 5 989 75 10000 14.4 240 15:33 30.07.2022
831 Clouds 5 988 75 10000 11.32 240 13:23 30.07.2022
832 Clouds 5 988 75 10000 11.83 230 12:32 30.07.2022
833 Clouds 6 988 56 10000 8.23 260 11:53 30.07.2022
834 Clouds 5 988 65 10000 7.2 250 10:20 30.07.2022
835 Rain 5 988 70 10000 8.23 310 08:55 30.07.2022
836 Clouds 5 988 65 10000 4.63 260 07:33 30.07.2022
837 Clouds 3 983 70 7000 5.14 310 02:33 30.07.2022
838 Rain 4 983 56 10000 10.29 260 00:30 30.07.2022
839 Drizzle 6 981 56 10000 7.2 300 21:38 29.07.2022
840 Clouds 6 982 52 10000 7.72 310 20:51 29.07.2022
841 Clouds 6 983 56 10000 4.63 310 19:47 29.07.2022
842 Clouds 3 985 81 10000 5.14 250 17:34 29.07.2022
843 Clouds 2 985 80 10000 4.12 10 14:51 29.07.2022
844 Clouds 2 986 87 10000 4.12 280 12:55 29.07.2022
845 Clouds 1 985 100 5000 10.8 240 09:34 29.07.2022
846 Rain 4 984 81 4000 8.75 240 08:41 29.07.2022
847 Clouds 4 984 81 10000 1.54 240 06:40 29.07.2022
848 Clouds 5 983 81 10000 8.23 230 01:46 29.07.2022
849 Clouds 8 978 53 10000 7.72 250 21:54 28.07.2022
850 Clear 8 978 57 10000 6.17 260 20:54 28.07.2022
851 Clear 8 978 57 10000 6.17 260 20:21 28.07.2022
852 Clouds 8 978 53 10000 4.63 280 19:40 28.07.2022
853 Clouds 8 979 53 10000 8.23 300 18:25 28.07.2022
854 Clouds 7 981 57 10000 6.17 320 17:42 28.07.2022
855 Clouds 7 983 65 10000 4.12 10 16:41 28.07.2022
856 Clear 5 986 60 10000 1.54 280 14:30 28.07.2022
857 Clear 5 991 65 10000 4.63 20 12:41 28.07.2022
858 Clouds 6 994 70 10000 9.77 230 09:34 28.07.2022
859 Rain 5 995 81 10000 8.23 230 05:45 28.07.2022
860 Rain 5 995 81 10000 8.23 230 05:24 28.07.2022
861 Rain 6 993 65 10000 3.6 260 00:29 28.07.2022
862 Clouds 7 992 53 10000 1.54 0 22:26 27.07.2022
863 Clouds 6 995 56 10000 1.03 0 20:20 27.07.2022
864 Clouds 5 996 60 10000 1.54 0 19:32 27.07.2022
865 Clouds 4 1000 70 10000 1.54 0 16:54 27.07.2022
866 Clouds 4 1002 65 10000 3.09 160 15:51 27.07.2022
867 Clouds 3 1002 65 10000 1.03 0 14:46 27.07.2022
868 Clouds 3 1002 65 10000 1.03 0 14:27 27.07.2022
869 Clear 3 1005 60 10000 1.03 0 12:19 27.07.2022
870 Clear 2 1010 69 10000 2.06 350 07:53 27.07.2022
871 Clear 2 1012 55 10000 2.06 300 05:33 27.07.2022
872 Clear 2 1016 60 10000 3.6 340 00:46 27.07.2022
873 Clouds 2 1017 64 10000 3.09 310 22:24 26.07.2022
874 Clouds 3 1017 60 10000 4.12 270 21:19 26.07.2022
875 Clouds 4 1018 52 10000 2.06 280 19:40 26.07.2022
876 Clouds 3 1019 56 10000 2.57 320 18:41 26.07.2022
877 Clouds 2 1019 64 10000 3.6 360 17:57 26.07.2022
878 Clouds 1 1019 64 10000 3.09 350 15:50 26.07.2022
879 Clouds 0 1020 74 10000 3.09 360 14:49 26.07.2022
880 Clouds 0 1020 64 10000 4.63 360 12:50 26.07.2022
881 Clouds 2 1019 60 10000 2.57 0 10:58 26.07.2022
882 Clear 0 1020 74 10000 4.12 350 08:43 26.07.2022
883 Clouds 1 1019 64 10000 3.09 280 05:30 26.07.2022
884 Snow 1 1016 86 5000 12.86 240 00:27 26.07.2022
885 Snow 2 1014 69 5000 6.69 240 22:51 25.07.2022
886 Clouds 2 1013 64 10000 6.69 250 22:22 25.07.2022
887 Snow 1 1011 75 7000 10.8 240 21:38 25.07.2022
888 Clouds 2 1011 75 10000 6.69 260 20:40 25.07.2022
889 Clouds 2 1010 80 10000 6.69 260 19:27 25.07.2022
890 Clouds 1 1008 93 8000 10.29 250 18:18 25.07.2022
891 Snow 1 1006 93 1800 12.35 240 17:27 25.07.2022
892 Clouds 4 999 65 10000 2.57 60 14:32 25.07.2022
893 Clear 0 1001 80 10000 3.09 290 11:50 25.07.2022
894 Clear 2 1004 64 10000 1.54 200 08:32 25.07.2022
895 Clear 2 1009 60 10000 2.57 350 03:23 25.07.2022
896 Clouds 2 1011 69 10000 3.6 350 23:53 24.07.2022
897 Clouds 2 1011 69 10000 3.6 360 22:56 24.07.2022
898 Clouds 2 1011 69 10000 3.6 360 22:29 24.07.2022
899 Clouds 2 1012 75 10000 3.6 10 21:19 24.07.2022
900 Clear 2 1013 64 10000 3.09 340 20:50 24.07.2022
901 Clear 2 1013 64 10000 3.09 340 20:19 24.07.2022
902 Clear 2 1014 64 10000 3.09 360 18:38 24.07.2022
903 Clear 1 1015 69 10000 4.12 350 16:29 24.07.2022
904 Clear 1 1015 64 10000 3.6 330 15:45 24.07.2022
905 Clear 1 1015 69 10000 3.09 330 14:29 24.07.2022
906 Clear -1 1016 74 10000 3.6 300 12:54 24.07.2022
907 Clouds 0 1016 74 10000 2.06 340 11:40 24.07.2022
908 Clouds -6 1018 90 10000 2.52 333 11:00 24.07.2022
909 Clouds 2 1016 75 10000 5.14 260 08:33 24.07.2022
910 Clouds 2 1016 75 10000 7.2 250 07:52 24.07.2022
911 Snow 2 1016 69 10000 6.69 260 05:49 24.07.2022
912 Snow 1 1013 86 2500 8.23 250 00:29 24.07.2022
913 Snow 0 1011 100 1000 9.26 230 22:21 23.07.2022
914 Clouds 3 1009 75 10000 5.66 270 20:28 23.07.2022
915 Clouds 3 1011 75 10000 8.23 250 18:50 23.07.2022
916 Clouds 2 1011 75 10000 4.63 270 17:29 23.07.2022
917 Clouds 1 1011 75 10000 4.12 270 16:35 23.07.2022
918 Clouds 2 1011 75 10000 8.23 250 15:31 23.07.2022
919 Clouds 2 1011 75 10000 6.69 250 14:59 23.07.2022
920 Clouds 2 1011 75 10000 6.69 250 14:30 23.07.2022
921 Clouds 2 1010 80 10000 9.77 240 13:36 23.07.2022
922 Drizzle 1 1009 93 10000 9.26 240 11:18 23.07.2022
923 Clouds 2 1009 87 10000 10.8 240 10:22 23.07.2022
924 Clouds 2 1008 87 10000 10.8 240 08:50 23.07.2022
925 Rain 2 1005 87 10000 9.77 250 03:40 23.07.2022
926 Rain 2 1004 87 10000 7.2 250 01:33 23.07.2022
927 Clouds 1 1002 93 10000 7.2 250 23:19 22.07.2022
928 Snow 1 999 100 3000 8.75 240 20:57 22.07.2022
929 Snow 2 998 93 3000 13.38 240 19:46 22.07.2022
930 Rain 2 1000 80 10000 8.22 226 18:28 22.07.2022
931 Clouds 1 996 100 4000 15.95 240 17:28 22.07.2022
932 Clouds 1 994 100 4000 13.89 240 14:55 22.07.2022
933 Snow 1 993 86 800 14.4 240 11:49 22.07.2022
934 Snow 1 993 80 5000 13.38 240 09:27 22.07.2022
935 Snow 0 993 86 6000 12.35 240 08:43 22.07.2022
936 Snow 0 993 93 3000 11.83 250 07:20 22.07.2022
937 Snow 0 991 86 7000 12.86 240 03:43 22.07.2022
938 Snow 0 990 86 4000 7.72 250 22:53 21.07.2022
939 Snow 0 989 86 1500 10.29 240 21:34 21.07.2022
940 Snow 0 989 86 1500 11.32 250 19:30 21.07.2022
941 Snow -1 988 93 1500 5.66 240 17:45 21.07.2022
942 Snow -1 988 93 800 8.75 250 17:19 21.07.2022
943 Snow -1 987 86 2500 7.72 240 15:39 21.07.2022
944 Clouds -2 986 86 10000 3.09 340 14:39 21.07.2022
945 Clouds -2 986 86 10000 3.09 340 14:39 21.07.2022
946 Snow -2 986 93 8000 1.54 290 12:46 21.07.2022
947 Snow -1 986 80 1200 2.06 260 11:19 21.07.2022
948 Snow -1 985 80 6000 5.66 240 09:41 21.07.2022
949 Snow -1 985 80 6000 6.17 230 08:52 21.07.2022
950 Snow -1 985 80 10000 6.69 240 07:50 21.07.2022
951 Snow -1 984 86 6000 8.23 240 06:24 21.07.2022
952 Clouds 0 981 74 10000 6.69 250 01:42 21.07.2022
953 Snow 0 977 93 2000 9.77 240 22:22 20.07.2022
954 Snow 0 976 93 1000 8.23 240 21:30 20.07.2022
955 Snow 1 973 93 4000 10.8 240 19:54 20.07.2022
956 Snow 1 973 93 4000 10.8 240 19:25 20.07.2022
957 Snow 1 971 86 6000 9.26 240 18:52 20.07.2022
958 Snow 1 971 86 6000 9.26 240 18:27 20.07.2022
959 Drizzle 2 966 93 6000 13.89 240 16:46 20.07.2022
960 Drizzle 3 963 81 10000 7.72 200 15:32 20.07.2022
961 Drizzle 3 961 93 8000 8.75 230 14:26 20.07.2022
962 Snow 3 957 87 10000 8.23 240 11:55 20.07.2022
963 Clouds 2 956 93 10000 7.2 240 10:24 20.07.2022
964 Clouds 4 954 81 10000 2.57 190 04:50 20.07.2022
965 Clouds 4 957 75 10000 1.54 340 00:54 20.07.2022
966 Clouds 4 957 75 10000 1.54 340 00:36 20.07.2022
967 Clouds 6 959 61 10000 4.63 20 22:34 19.07.2022
968 Clouds 5 960 65 10000 1.03 0 21:53 19.07.2022
969 Clouds 5 961 70 10000 0.51 0 20:49 19.07.2022
970 Clouds 6 962 61 10000 2.06 330 19:22 19.07.2022
971 Clouds 4 963 81 10000 3.09 140 18:35 19.07.2022
972 Clouds 3 964 87 10000 3.09 130 17:51 19.07.2022
973 Drizzle 3 968 87 8000 2.06 20 15:21 19.07.2022
974 Clouds 5 974 70 10000 6.17 30 12:44 19.07.2022
975 Clouds 3 976 81 10000 2.06 340 11:32 19.07.2022
976 Clouds 1 978 86 10000 2.57 110 09:51 19.07.2022
977 Clear 0 980 93 10000 1.03 0 08:42 19.07.2022
978 Clouds 2 981 80 10000 1.54 280 07:19 19.07.2022
979 Clouds 0 982 93 10000 3.09 280 06:27 19.07.2022
980 Clouds 2 982 87 10000 4.12 260 05:18 19.07.2022
981 Rain 3 983 87 10000 2.57 330 02:37 19.07.2022
982 Clouds 7 979 53 10000 5.14 290 23:52 18.07.2022
983 Clouds 7 979 53 10000 5.14 290 23:19 18.07.2022
984 Clouds 7 979 49 10000 4.63 0 22:26 18.07.2022
985 Clouds 6 980 52 10000 5.14 330 21:20 18.07.2022
986 Clouds 6 981 52 10000 5.66 320 20:22 18.07.2022
987 Clouds 6 983 49 10000 5.66 290 18:29 18.07.2022
988 Clouds 4 986 52 10000 3.6 20 16:30 18.07.2022
989 Clouds 1 988 64 10000 1.03 0 15:28 18.07.2022
990 Clear 2 988 60 10000 3.6 80 13:32 18.07.2022
991 Clouds 1 987 69 10000 1.54 30 11:43 18.07.2022
992 Clear 0 986 74 10000 2.06 310 09:55 18.07.2022
993 Clouds 1 987 69 10000 3.6 250 07:58 18.07.2022
994 Clouds 3 986 75 10000 7.72 230 05:25 18.07.2022
995 Clouds 4 983 52 10000 2.57 10 22:57 17.07.2022
996 Clouds 4 983 52 10000 2.57 10 22:32 17.07.2022
997 Clouds 4 983 56 10000 2.06 200 21:40 17.07.2022
998 Clouds 6 984 52 10000 1.54 10 20:46 17.07.2022
999 Clouds 6 984 52 10000 2.57 20 19:50 17.07.2022
1000 Clouds 6 984 52 10000 2.57 20 19:24 17.07.2022
1001 Clouds 5 986 60 10000 5.14 20 17:54 17.07.2022
1002 Clouds 5 986 60 10000 5.14 20 17:36 17.07.2022
1003 Clouds 0 988 90 10000 4.59 4 16:45 17.07.2022
1004 Clouds 0 988 92 10000 4.42 5 16:22 17.07.2022
1005 Clouds 6 988 61 10000 4.63 30 13:58 17.07.2022
1006 Clouds 6 988 61 10000 4.63 20 12:56 17.07.2022
1007 Clouds 5 989 65 10000 5.14 20 10:23 17.07.2022
1008 Clouds 6 992 52 10000 4.12 350 07:55 17.07.2022
1009 Clouds 4 996 70 10000 2.06 160 02:36 17.07.2022
1010 Clouds 4 998 65 10000 3.6 310 00:33 17.07.2022
1011 Clouds 5 999 60 10000 1.54 0 22:43 16.07.2022
1012 Clouds 5 999 56 10000 2.06 360 20:53 16.07.2022
1013 Clouds 4 1000 65 10000 2.06 140 18:59 16.07.2022
1014 Clouds 5 1001 56 10000 1.03 0 17:48 16.07.2022
1015 Clouds 3 1002 70 10000 5.14 170 16:23 16.07.2022
1016 Clouds 4 1003 45 10000 6.69 20 13:35 16.07.2022
1017 Clouds 3 1005 48 10000 7.2 20 10:34 16.07.2022
1018 Clouds 3 1007 48 10000 7.2 20 09:28 16.07.2022
1019 Clouds 2 1008 51 10000 5.66 360 08:41 16.07.2022
1020 Clouds 2 1009 55 10000 6.17 360 07:40 16.07.2022
1021 Clouds 3 1013 52 10000 9.26 330 03:39 16.07.2022
1022 Clouds 2 1016 60 10000 4.12 360 01:39 16.07.2022
1023 Clouds 2 1018 60 10000 3.6 30 23:21 15.07.2022
1024 Clouds 2 1019 60 10000 4.63 360 22:37 15.07.2022
1025 Clouds 3 1020 52 10000 4.12 30 20:47 15.07.2022
1026 Clouds 3 1021 52 10000 3.6 10 19:49 15.07.2022
1027 Clouds 3 1023 48 10000 2.06 50 18:30 15.07.2022
1028 Clouds 2 1023 55 10000 3.6 20 17:25 15.07.2022
1029 Clear -2 1025 80 10000 0 0 14:35 15.07.2022
1030 Clear -2 1027 80 10000 0.51 0 12:43 15.07.2022
1031 Clear -2 1028 86 10000 1.54 280 10:53 15.07.2022
1032 Clear -4 1029 86 10000 1.03 0 08:42 15.07.2022
1033 Clear -3 1029 80 10000 1.03 0 05:55 15.07.2022
1034 Clear -2 1030 80 10000 1.03 270 00:51 15.07.2022
1035 Clear -2 1030 80 10000 1.54 280 23:35 14.07.2022
1036 Clear -1 1030 80 10000 1.03 0 22:42 14.07.2022
1037 Clear 2 1030 69 10000 0 0 21:43 14.07.2022
1038 Clear 2 1030 69 10000 0 0 21:24 14.07.2022
1039 Clear 1 1030 75 10000 1.03 0 20:43 14.07.2022
1040 Clear 1 1030 75 10000 1.03 0 20:19 14.07.2022
1041 Clouds 0 1030 74 10000 2.06 20 18:42 14.07.2022
1042 Clouds -1 1030 80 10000 1.54 360 16:22 14.07.2022
1043 Clouds -2 1030 80 10000 3.09 360 15:29 14.07.2022
1044 Clear -1 1029 80 10000 3.09 350 13:53 14.07.2022
1045 Clear -1 1028 80 10000 1.54 330 12:48 14.07.2022
1046 Clear -2 1028 80 10000 2.57 310 11:43 14.07.2022
1047 Clear -2 1028 80 10000 2.57 310 11:22 14.07.2022
1048 Clouds -2 1028 86 10000 1.03 0 09:49 14.07.2022
1049 Clouds 1 1026 80 10000 2.06 20 06:54 14.07.2022
1050 Clouds 2 1022 69 10000 2.57 40 01:24 14.07.2022
1051 Clouds 2 1022 64 10000 1.03 0 00:53 14.07.2022
1052 Clouds 3 1020 56 10000 3.6 40 22:33 13.07.2022
1053 Clouds 2 1019 69 10000 3.09 50 21:55 13.07.2022
1054 Clouds 3 1018 70 10000 4.12 50 20:53 13.07.2022
1055 Clouds 3 1018 75 10000 4.63 70 19:30 13.07.2022
1056 Clouds 3 1017 75 10000 6.17 80 17:51 13.07.2022
1057 Clouds 2 1016 80 10000 1.54 40 16:40 13.07.2022
1058 Clouds 2 1015 87 10000 3.6 50 15:24 13.07.2022
1059 Clouds 2 1012 80 10000 4.63 70 12:55 13.07.2022
1060 Clouds 3 1010 75 10000 3.09 60 10:46 13.07.2022
1061 Clouds 3 1010 75 10000 3.09 60 10:46 13.07.2022
1062 Clouds 3 1010 75 10000 3.09 60 10:24 13.07.2022
1063 Clouds 3 1010 75 10000 4.63 60 09:25 13.07.2022
1064 Clouds 3 1007 81 10000 3.6 50 06:46 13.07.2022
1065 Drizzle 4 1005 81 10000 4.63 60 02:38 13.07.2022
1066 Rain 4 1002 81 10000 7.2 70 23:52 12.07.2022
1067 Drizzle 4 1001 81 10000 4.12 90 22:18 12.07.2022
1068 Drizzle 4 1001 81 10000 4.63 70 21:34 12.07.2022
1069 Drizzle 4 1000 87 10000 4.63 70 20:42 12.07.2022
1070 Drizzle 4 1000 81 10000 5.14 80 19:36 12.07.2022
1071 Rain 3 1000 93 10000 8.23 80 17:54 12.07.2022
1072 Rain 3 1000 87 10000 6.17 90 16:20 12.07.2022
1073 Clouds 3 999 81 10000 5.66 80 14:31 12.07.2022
1074 Clouds 3 999 81 10000 6.69 70 13:20 12.07.2022
1075 Clouds 3 999 75 10000 4.63 50 11:42 12.07.2022
1076 Clouds 4 999 70 10000 4.12 30 10:18 12.07.2022
1077 Clouds 4 1000 56 10000 2.06 350 08:26 12.07.2022
1078 Clouds 3 1001 60 10000 1.54 360 07:38 12.07.2022
1079 Clouds 3 1002 56 10000 3.09 20 05:42 12.07.2022
1080 Clouds 1 1004 55 10000 4.12 320 03:29 12.07.2022
1081 Clouds 1 1005 55 10000 6.69 330 23:43 11.07.2022
1082 Clouds 1 1006 47 10000 4.12 300 22:36 11.07.2022
1083 Clouds 1 1007 51 10000 4.63 320 20:54 11.07.2022
1084 Clouds 1 1007 51 10000 4.63 320 20:26 11.07.2022
1085 Clouds 1 1009 51 10000 7.72 340 18:39 11.07.2022
1086 Clouds -1 1009 64 10000 5.14 300 17:55 11.07.2022
1087 Clouds -2 1010 64 10000 2.06 270 16:22 11.07.2022
1088 Clear 0 1011 51 10000 1.03 0 14:52 11.07.2022
1089 Clear 0 1012 59 10000 2.06 310 12:28 11.07.2022
1090 Clear -4 1014 74 10000 2.57 290 10:54 11.07.2022
1091 Clear -4 1015 80 10000 2.06 240 09:54 11.07.2022
1092 Clear -4 1015 80 10000 2.06 240 09:21 11.07.2022
1093 Clear -4 1016 86 10000 1.54 330 07:52 11.07.2022
1094 Clouds 0 1020 74 10000 1.54 330 00:54 11.07.2022
1095 Clouds 1 1020 69 10000 1.54 330 23:53 10.07.2022
1096 Clouds -1 1020 74 10000 3.6 250 22:34 10.07.2022
1097 Clouds 2 1020 69 10000 5.66 250 20:55 10.07.2022
1098 Clouds 2 1020 69 10000 5.66 250 20:24 10.07.2022
1099 Clouds 2 1020 69 10000 5.66 250 19:21 10.07.2022
1100 Clouds 2 1020 69 10000 5.66 260 17:59 10.07.2022
1101 Clouds 2 1020 75 10000 6.17 250 16:59 10.07.2022
1102 Clouds 2 1020 75 10000 6.17 250 16:20 10.07.2022
1103 Snow 1 1018 80 10000 7.2 240 14:44 10.07.2022
1104 Snow 1 1018 75 10000 8.75 240 13:18 10.07.2022
1105 Snow 1 1017 80 7000 8.75 250 11:36 10.07.2022
1106 Snow 0 1016 86 3500 9.26 250 09:45 10.07.2022
1107 Snow 0 1015 80 7000 7.2 250 08:43 10.07.2022
1108 Clouds -1 1013 80 10000 7.2 250 06:39 10.07.2022
1109 Clouds -2 1006 74 7000 8.75 240 23:47 09.07.2022
1110 Snow -1 1004 74 8000 8.23 250 22:26 09.07.2022
1111 Snow -2 1003 93 1300 9.26 230 21:41 09.07.2022
1112 Snow -1 1001 80 1000 8.75 230 19:44 09.07.2022
1113 Snow -1 1001 80 1000 8.75 230 19:44 09.07.2022
1114 Snow -2 1000 86 10000 8.23 250 18:26 09.07.2022
1115 Snow -2 1000 86 10000 8.23 250 18:26 09.07.2022
1116 Snow -2 1000 86 1300 8.23 220 17:27 09.07.2022
1117 Snow -2 999 86 5000 8.75 240 16:34 09.07.2022
1118 Snow -2 998 93 10000 10.29 250 15:39 09.07.2022
1119 Snow -1 997 93 8000 4.12 220 14:23 09.07.2022
1120 Snow -1 996 86 1200 10.8 250 13:48 09.07.2022
1121 Snow -1 993 86 1000 7.2 250 11:54 09.07.2022
1122 Snow 0 991 93 4000 8.75 230 10:27 09.07.2022
1123 Clouds -1 990 80 10000 5.66 270 09:56 09.07.2022
1124 Snow 0 989 80 10000 7.2 250 07:44 09.07.2022
1125 Clouds 0 988 80 10000 6.17 240 04:49 09.07.2022
1126 Snow -1 989 93 5000 1.54 280 00:38 09.07.2022
1127 Snow -1 991 86 1500 1.03 20 22:41 08.07.2022
1128 Snow 3 991 93 3000 1.54 270 21:27 08.07.2022
1129 Clouds -1 992 86 10000 2.06 290 20:40 08.07.2022
1130 Clouds -1 993 80 10000 1.03 0 19:48 08.07.2022
1131 Clouds -2 995 80 10000 2.57 350 17:56 08.07.2022
1132 Clouds -3 995 74 10000 2.57 340 16:37 08.07.2022
1133 Clear -3 997 74 10000 3.6 360 14:51 08.07.2022
1134 Clear -3 998 74 10000 3.6 10 12:42 08.07.2022
1135 Clear -3 998 80 10000 3.09 360 11:24 08.07.2022
1136 Clear -2 998 74 10000 4.12 360 10:26 08.07.2022
1137 Clear -2 999 80 10000 4.12 10 08:24 08.07.2022
1138 Clouds -2 999 80 10000 2.57 330 06:47 08.07.2022
1139 Clouds -1 999 69 10000 2.06 280 01:19 08.07.2022
1140 Clouds 1 998 64 10000 2.06 270 22:57 07.07.2022
1141 Clouds 1 998 64 10000 2.57 310 21:57 07.07.2022
1142 Clouds 1 997 69 10000 1.54 340 19:47 07.07.2022
1143 Snow 0 998 80 10000 3.6 250 17:56 07.07.2022
1144 Clouds -1 997 80 10000 3.09 250 16:32 07.07.2022
1145 Clouds -1 997 74 10000 2.57 330 14:32 07.07.2022
1146 Clouds -2 996 80 10000 3.09 260 12:46 07.07.2022
1147 Clouds -2 996 80 10000 3.09 260 12:23 07.07.2022
1148 Clear -2 996 80 10000 3.09 350 11:34 07.07.2022
1149 Clear -2 996 80 10000 3.6 360 10:46 07.07.2022
1150 Clear -2 996 80 10000 3.6 360 10:28 07.07.2022
1151 Clear -1 996 69 10000 3.6 10 09:32 07.07.2022
1152 Clear -2 996 74 10000 3.6 360 06:31 07.07.2022
1153 Clouds -5 996 84 10000 2.29 326 00:31 07.07.2022
1154 Clouds -5 996 87 10000 2.25 331 23:36 06.07.2022
1155 Clouds -5 995 89 10000 2.47 342 23:18 06.07.2022
1156 Clouds -2 994 80 10000 2.06 280 22:52 06.07.2022
1157 Clouds -2 994 80 10000 2.06 280 22:33 06.07.2022
1158 Clouds -2 994 80 10000 2.06 280 22:33 06.07.2022
1159 Clear 0 994 64 10000 1.54 350 20:30 06.07.2022
1160 Clear -1 994 74 10000 2.57 10 19:32 06.07.2022
1161 Clear -2 995 74 10000 3.09 10 17:21 06.07.2022
1162 Clear -3 995 80 10000 3.09 360 15:57 06.07.2022
1163 Clear -3 994 80 10000 2.06 300 12:57 06.07.2022
1164 Clear -3 994 80 10000 2.06 300 12:21 06.07.2022
1165 Clear -2 994 80 10000 3.6 10 10:55 06.07.2022
1166 Clear -2 995 86 10000 3.09 10 09:27 06.07.2022
1167 Clear -2 995 86 10000 3.09 10 09:27 06.07.2022
1168 Clear -2 995 86 10000 3.09 10 07:44 06.07.2022
1169 Clouds -2 995 86 10000 2.06 360 06:49 06.07.2022
1170 Clouds 0 994 80 10000 2.06 320 00:38 06.07.2022
1171 Clouds 1 993 75 10000 2.06 10 22:43 05.07.2022
1172 Clouds 2 993 69 10000 0.51 300 20:49 05.07.2022
1173 Clouds 2 993 69 10000 0.51 300 20:31 05.07.2022
1174 Clouds 2 993 75 10000 1.03 0 19:38 05.07.2022
1175 Clouds 0 993 74 10000 1.03 0 17:51 05.07.2022
1176 Clouds 0 993 74 10000 1.03 0 17:25 05.07.2022
1177 Clouds -1 993 80 10000 2.06 290 16:32 05.07.2022
1178 Clouds -1 992 86 10000 2.06 340 14:54 05.07.2022
1179 Clear 0 992 80 10000 1.54 340 13:36 05.07.2022
1180 Clear 0 992 74 10000 2.06 360 12:24 05.07.2022
1181 Clear -1 992 80 10000 3.6 300 10:46 05.07.2022
1182 Clear 0 992 74 10000 4.12 290 09:58 05.07.2022
1183 Clear -1 991 80 10000 3.09 280 08:23 05.07.2022
1184 Clear 0 992 80 10000 5.14 290 06:59 05.07.2022
1185 Clear 1 992 75 10000 1.54 300 04:37 05.07.2022
1186 Clouds 1 992 80 10000 3.09 260 01:33 05.07.2022
1187 Clouds 2 992 87 10000 5.14 250 23:37 04.07.2022
1188 Clouds 2 992 87 10000 3.6 250 22:57 04.07.2022
1189 Clouds 2 992 87 10000 3.6 250 22:19 04.07.2022
1190 Drizzle 3 992 81 10000 3.09 260 20:57 04.07.2022
1191 Drizzle 3 992 81 10000 3.09 260 20:36 04.07.2022
1192 Clouds 3 992 87 10000 1.54 350 19:57 04.07.2022
1193 Clouds 3 992 87 10000 1.54 350 19:37 04.07.2022
1194 Clouds 2 992 87 10000 2.06 350 18:51 04.07.2022
1195 Clouds 1 992 93 10000 2.57 250 16:54 04.07.2022
1196 Clouds 1 992 93 10000 1.54 250 15:35 04.07.2022
1197 Clouds 2 991 87 10000 3.09 40 13:47 04.07.2022
1198 Clouds 2 991 80 10000 1.54 0 12:55 04.07.2022
1199 Clouds 1 992 80 10000 1.03 290 10:57 04.07.2022
1200 Clouds 1 992 80 10000 1.03 290 10:27 04.07.2022
1201 Clouds 1 992 86 10000 1.54 300 09:21 04.07.2022
1202 Clouds 1 993 80 10000 1.54 260 06:27 04.07.2022
1203 Clear 2 994 64 10000 2.57 330 01:49 04.07.2022
1204 Clouds 1 994 93 10000 2.06 310 23:39 03.07.2022
1205 Clouds 2 994 93 10000 1.54 0 22:29 03.07.2022
1206 Clouds 3 993 87 10000 0 0 20:45 03.07.2022
1207 Clouds 4 992 81 10000 1.54 360 19:43 03.07.2022
1208 Clouds 4 992 81 10000 1.54 360 19:24 03.07.2022
1209 Clouds 3 992 93 10000 2.57 350 18:27 03.07.2022
1210 Clouds 3 992 87 10000 4.12 260 17:38 03.07.2022
1211 Clouds 2 990 93 10000 2.06 280 15:27 03.07.2022
1212 Rain 2 989 93 10000 2.06 280 14:53 03.07.2022
1213 Rain 2 989 93 5000 1.54 10 13:50 03.07.2022
1214 Rain 3 989 93 5000 2.57 20 12:44 03.07.2022
1215 Drizzle 3 990 93 10000 4.63 70 11:47 03.07.2022
1216 Drizzle 4 990 87 10000 7.2 80 10:52 03.07.2022
1217 Drizzle 4 990 87 10000 7.2 80 10:33 03.07.2022
1218 Drizzle 3 991 87 10000 4.12 40 07:38 03.07.2022
1219 Drizzle 4 991 81 10000 6.17 30 06:34 03.07.2022
1220 Clouds 5 992 56 10000 4.63 30 00:38 03.07.2022
1221 Clouds 5 992 52 10000 4.63 30 23:36 02.07.2022
1222 Clouds 5 992 52 10000 3.09 10 22:31 02.07.2022
1223 Clouds 5 993 52 10000 4.12 10 20:26 02.07.2022
1224 Clouds 5 993 52 10000 5.66 20 19:49 02.07.2022
1225 Clouds 5 993 45 10000 4.63 30 18:20 02.07.2022
1226 Clear 5 993 45 10000 6.69 30 17:38 02.07.2022
1227 Clear 5 993 38 10000 7.72 30 15:56 02.07.2022
1228 Clouds 5 993 48 10000 7.2 30 13:35 02.07.2022
1229 Clear 5 993 45 10000 5.14 40 11:48 02.07.2022
1230 Clear 5 993 42 10000 6.69 40 10:50 02.07.2022
1231 Clear 5 994 42 10000 6.69 30 09:49 02.07.2022
1232 Clear 3 994 60 10000 1.54 0 08:37 02.07.2022
1233 Clear 3 994 60 10000 1.54 0 08:19 02.07.2022
1234 Clouds 5 995 52 10000 3.09 360 02:53 02.07.2022
1235 Clouds 5 995 52 10000 3.09 360 00:28 02.07.2022
1236 Clouds 2 995 69 10000 1.03 0 23:21 01.07.2022
1237 Clouds 4 995 60 10000 2.06 0 22:29 01.07.2022
1238 Clouds 2 995 75 10000 2.06 90 21:37 01.07.2022
1239 Clouds 2 995 75 10000 1.54 80 20:58 01.07.2022
1240 Clouds 2 995 75 10000 1.54 80 20:32 01.07.2022
1241 Clouds 2 996 75 10000 1.03 0 19:36 01.07.2022
1242 Clear 0 996 80 10000 2.06 350 16:42 01.07.2022
1243 Clear -1 996 80 10000 0.51 0 14:32 01.07.2022
1244 Clear 0 996 69 10000 1.03 270 13:51 01.07.2022
1245 Clear -2 996 80 10000 1.54 350 11:22 01.07.2022
1246 Clear -1 996 74 10000 3.09 360 10:19 01.07.2022
1247 Clear -1 997 80 10000 2.06 350 07:32 01.07.2022
1248 Clear -2 997 80 10000 2.06 290 02:43 01.07.2022
1249 Clear 0 998 74 10000 2.06 10 23:52 30.06.2022
1250 Clear 0 997 74 10000 2.57 330 22:51 30.06.2022
1251 Clear 0 997 74 10000 2.57 330 22:32 30.06.2022
1252 Clear 0 997 74 10000 2.57 330 22:32 30.06.2022
1253 Clear 0 997 74 10000 2.57 330 22:32 30.06.2022
1254 Clear 0 997 74 10000 2.57 330 22:32 30.06.2022
1255 Clear 1 997 69 10000 1.54 30 21:54 30.06.2022
1256 Clear 2 998 64 10000 1.03 0 20:53 30.06.2022
1257 Clear 2 998 64 10000 1.03 0 20:21 30.06.2022
1258 Clear 1 997 69 10000 2.57 280 19:48 30.06.2022
1259 Clear 1 998 64 10000 2.57 10 18:56 30.06.2022
1260 Clear 1 998 64 10000 2.57 10 18:22 30.06.2022
1261 Clear 0 998 69 10000 3.09 10 17:34 30.06.2022
1262 Clear 0 998 69 10000 3.09 10 16:22 30.06.2022
1263 Clear -1 998 74 10000 3.6 360 14:20 30.06.2022
1264 Clear -1 998 80 10000 2.06 350 13:29 30.06.2022
1265 Clear 0 998 69 10000 4.12 10 12:34 30.06.2022
1266 Clouds 0 998 69 10000 4.12 10 11:21 30.06.2022
1267 Clear 0 998 74 10000 3.09 350 09:52 30.06.2022
1268 Clear 0 998 74 10000 3.09 350 09:26 30.06.2022
1269 Clear -1 997 80 10000 1.54 310 07:41 30.06.2022
1270 Clouds 0 997 74 10000 3.6 360 05:46 30.06.2022
1271 Snow 1 996 75 10000 2.57 290 00:27 30.06.2022
1272 Clouds 1 996 64 10000 2.57 320 22:58 29.06.2022
1273 Clouds 1 996 64 10000 2.57 320 22:37 29.06.2022
1274 Clouds 2 995 69 10000 1.54 350 21:31 29.06.2022
1275 Clouds 3 995 65 10000 4.63 250 20:33 29.06.2022
1276 Clouds 3 995 65 10000 4.63 250 20:33 29.06.2022
1277 Clouds 3 994 60 10000 1.03 340 19:34 29.06.2022
1278 Clouds 2 995 64 10000 3.6 280 17:40 29.06.2022
1279 Clouds 1 994 69 10000 1.54 0 16:35 29.06.2022
1280 Clouds 2 993 75 10000 4.63 250 14:50 29.06.2022
1281 Clouds 1 992 69 10000 2.06 330 12:39 29.06.2022
1282 Clear 0 992 80 10000 3.6 360 10:25 29.06.2022
1283 Clear 1 991 69 10000 2.06 300 09:31 29.06.2022
1284 Clear 0 991 80 10000 3.6 290 07:36 29.06.2022
1285 Clouds 2 990 80 10000 6.17 260 04:50 29.06.2022
1286 Clouds 3 988 87 10000 6.69 240 00:56 29.06.2022
1287 Clouds 3 988 87 10000 6.69 240 00:35 29.06.2022
1288 Clouds 2 986 87 10000 2.06 250 22:53 28.06.2022
1289 Clouds 2 986 87 10000 2.06 250 22:23 28.06.2022
1290 Clouds 4 986 75 10000 2.06 290 21:53 28.06.2022
1291 Clouds 4 986 75 10000 2.06 290 21:31 28.06.2022
1292 Clouds 5 986 60 10000 0.51 270 20:27 28.06.2022
1293 Clear 4 986 70 10000 2.06 30 19:32 28.06.2022
1294 Clear 4 986 70 10000 2.06 30 19:32 28.06.2022
1295 Clouds 4 986 75 10000 0.51 0 18:45 28.06.2022
1296 Clouds 4 986 75 10000 0.51 0 18:45 28.06.2022
1297 Clear 4 986 75 10000 2.57 60 17:39 28.06.2022
1298 Clear 2 985 75 10000 1.54 280 15:57 28.06.2022
1299 Clear 2 985 75 10000 1.54 280 15:21 28.06.2022
1300 Clear 2 985 75 10000 1.54 280 14:20 28.06.2022
1301 Clear 5 985 56 10000 1.54 70 13:50 28.06.2022
1302 Clear 6 986 49 10000 1.03 310 12:54 28.06.2022
1303 Clear 6 986 52 10000 1.54 0 10:57 28.06.2022
1304 Clouds 7 987 49 10000 4.63 10 09:28 28.06.2022
1305 Clouds 7 988 45 10000 5.66 20 08:43 28.06.2022
1306 Clouds 7 989 45 10000 5.66 10 07:42 28.06.2022
1307 Clouds 7 990 49 10000 6.17 20 05:58 28.06.2022
1308 Clouds 1 994 91 10000 3.4 2 00:00 28.06.2022
1309 Clouds 6 992 52 10000 4.63 330 23:36 27.06.2022
1310 Clouds 2 992 87 10000 1.54 360 22:52 27.06.2022
1311 Clouds 4 992 81 10000 1.03 0 21:34 27.06.2022
1312 Clouds 5 992 70 10000 0 0 20:48 27.06.2022
1313 Clouds 4 993 81 10000 1.54 330 18:59 27.06.2022
1314 Clouds 4 993 81 10000 1.54 330 18:24 27.06.2022
1315 Clouds 4 992 81 10000 5.66 230 16:19 27.06.2022
1316 Rain 4 991 75 10000 4.63 220 14:45 27.06.2022
1317 Clouds 3 990 87 10000 2.06 360 13:35 27.06.2022
1318 Clouds 3 990 87 10000 3.09 280 12:52 27.06.2022
1319 Clouds 4 989 81 10000 4.12 280 10:34 27.06.2022
1320 Clouds 3 988 87 10000 3.09 270 09:18 27.06.2022
1321 Clouds 5 987 81 10000 8.75 240 08:19 27.06.2022
1322 Clouds 5 985 81 10000 7.72 240 06:38 27.06.2022
1323 Rain 6 983 93 10000 9.77 250 02:28 27.06.2022
1324 Clouds 7 981 81 10000 6.17 240 23:55 26.06.2022
1325 Clouds 8 980 76 10000 7.72 240 21:59 26.06.2022
1326 Clouds 8 979 81 10000 7.2 240 20:44 26.06.2022
1327 Clouds 9 979 76 10000 7.2 250 19:32 26.06.2022
1328 Clouds 9 979 76 10000 6.17 260 18:30 26.06.2022
1329 Clouds 9 979 76 10000 6.69 240 16:45 26.06.2022
1330 Clouds 10 979 62 10000 3.6 20 14:42 26.06.2022
1331 Clouds 8 979 71 10000 1.54 0 13:38 26.06.2022
1332 Clouds 8 979 71 10000 1.54 0 13:18 26.06.2022
1333 Clouds 6 981 75 10000 2.06 250 11:26 26.06.2022
1334 Clouds 8 983 66 10000 3.09 150 10:26 26.06.2022
1335 Clouds 7 984 70 10000 4.12 110 09:22 26.06.2022
1336 Clouds 6 987 75 10000 2.57 100 07:41 26.06.2022
1337 Rain 5 999 87 10000 2.57 30 01:54 26.06.2022
1338 Rain 5 1000 81 10000 1.03 0 00:21 26.06.2022
1339 Rain 5 1002 81 10000 2.06 40 23:49 25.06.2022
1340 Rain 5 1002 81 10000 2.06 40 23:20 25.06.2022
1341 Clouds 5 1003 81 10000 1.03 10 22:27 25.06.2022
1342 Clouds 5 1004 81 10000 0.51 0 21:40 25.06.2022
1343 Clouds 5 1004 81 10000 0.51 0 21:18 25.06.2022
1344 Clouds 5 1005 81 10000 2.57 30 20:27 25.06.2022
1345 Clouds 6 1007 70 10000 2.06 330 19:21 25.06.2022
1346 Clear 5 1010 75 10000 2.67 333 17:56 25.06.2022
1347 Clear 5 1010 75 10000 2.5 334 17:22 25.06.2022
1348 Clear 5 1012 75 10000 2.57 0 15:36 25.06.2022
1349 Clouds 5 1015 70 10000 4.12 350 13:34 25.06.2022
1350 Clouds 7 1015 65 10000 8.23 270 12:38 25.06.2022
1351 Clouds 6 1017 70 10000 5.14 270 10:35 25.06.2022
1352 Clouds 7 1018 70 10000 8.23 250 08:59 25.06.2022
1353 Clouds 7 1018 70 10000 8.23 250 08:37 25.06.2022
1354 Clouds 7 1018 70 10000 8.23 250 08:18 25.06.2022
1355 Clouds 3 1020 95 10000 1.87 331 03:34 25.06.2022
1356 Clouds 3 1021 97 6034 1.59 301 00:35 25.06.2022
1357 Clouds 5 1019 87 10000 11.83 250 22:54 24.06.2022
1358 Clouds 5 1019 81 10000 9.26 260 21:42 24.06.2022
1359 Clouds 6 1019 75 10000 11.83 260 20:48 24.06.2022
1360 Clouds 6 1019 75 10000 11.83 260 20:19 24.06.2022
1361 Clouds 6 1019 70 10000 12.86 250 19:21 24.06.2022
1362 Clouds 6 1020 70 10000 13.89 250 18:49 24.06.2022
1363 Clouds 6 1020 70 10000 13.89 250 18:30 24.06.2022
1364 Clouds 5 1020 75 10000 10.8 250 17:20 24.06.2022
1365 Clouds 4 1021 70 10000 13.38 260 15:29 24.06.2022
1366 Clouds 4 1022 75 10000 13.38 250 14:27 24.06.2022
1367 Clouds 4 1022 75 10000 11.32 240 13:55 24.06.2022
1368 Clear 4 1022 75 10000 11.83 250 11:44 24.06.2022
1369 Clear 4 1022 75 10000 11.83 250 11:18 24.06.2022
1370 Clouds 4 1022 75 10000 12.35 250 09:55 24.06.2022
1371 Clouds 4 1022 75 10000 8.75 250 09:29 24.06.2022
1372 Clouds 4 1022 75 10000 10.29 250 08:52 24.06.2022
1373 Clouds 4 1022 75 10000 10.8 250 06:48 24.06.2022
1374 Clouds 4 1022 75 10000 10.8 250 06:30 24.06.2022
1375 Clouds 4 1022 81 10000 9.77 250 05:52 24.06.2022
1376 Rain 4 1020 81 10000 9.26 240 01:28 24.06.2022
1377 Rain 4 1019 81 10000 9.26 240 22:44 23.06.2022
1378 Rain 4 1019 81 10000 9.26 240 22:18 23.06.2022
1379 Clouds 4 1017 81 10000 7.2 250 20:54 23.06.2022
1380 Clouds 4 1017 81 10000 7.2 250 20:32 23.06.2022
1381 Clouds 4 1016 87 10000 7.2 240 18:49 23.06.2022
1382 Rain 3 1016 93 10000 7.72 250 17:45 23.06.2022
1383 Rain 3 1015 93 8000 9.77 240 16:42 23.06.2022
1384 Rain 3 1015 93 5000 8.75 240 15:43 23.06.2022
1385 Rain 3 1015 93 5000 8.75 240 15:23 23.06.2022
1386 Rain 2 1013 93 7000 8.75 240 12:43 23.06.2022
1387 Rain 2 1013 100 7000 9.26 250 11:20 23.06.2022
1388 Rain 2 1013 93 5000 9.77 250 09:30 23.06.2022
1389 Rain 2 1013 93 10000 8.23 240 07:51 23.06.2022
1390 Rain 3 1012 93 10000 10.29 240 02:19 23.06.2022
1391 Clouds 3 1011 87 10000 12.35 240 00:25 23.06.2022
1392 Clouds 3 1011 87 10000 12.86 250 23:27 22.06.2022
1393 Clouds 4 1011 81 10000 14.4 240 22:24 22.06.2022
1394 Clouds 5 1011 75 10000 15.43 240 20:57 22.06.2022
1395 Clouds 5 1011 75 10000 15.43 240 20:21 22.06.2022
1396 Clouds 4 1011 81 10000 15.95 240 19:48 22.06.2022
1397 Clouds 4 1011 81 10000 15.43 240 18:21 22.06.2022
1398 Drizzle 4 1012 81 10000 14.4 240 17:24 22.06.2022
1399 Drizzle 4 1012 81 10000 13.89 230 16:18 22.06.2022
1400 Drizzle 4 1013 81 10000 13.38 240 15:25 22.06.2022
1401 Clouds 4 1013 87 10000 12.35 240 13:52 22.06.2022
1402 Clouds 4 1013 87 10000 12.35 240 13:26 22.06.2022
1403 Clouds 4 1014 81 10000 11.83 240 12:56 22.06.2022
1404 Clouds 3 1014 81 10000 10.8 240 11:47 22.06.2022
1405 Clouds 3 1014 87 10000 11.83 250 10:54 22.06.2022
1406 Clouds 3 1015 81 10000 11.32 250 09:54 22.06.2022
1407 Clouds 2 1016 87 10000 11.32 250 07:56 22.06.2022
1408 Clouds 2 1016 87 10000 15.43 250 03:30 22.06.2022
1409 Clouds 3 1017 81 10000 12.86 240 01:22 22.06.2022
1410 Clouds 3 1017 81 10000 13.38 240 23:41 21.06.2022
1411 Clouds 4 1017 65 10000 13.38 240 21:32 21.06.2022
1412 Clouds 4 1018 65 10000 12.35 250 19:47 21.06.2022
1413 Clouds 4 1018 65 10000 13.38 250 18:30 21.06.2022
1414 Clouds 3 1018 70 10000 13.38 250 17:25 21.06.2022
1415 Clouds 3 1018 81 10000 10.8 250 13:33 21.06.2022
1416 Clouds 3 1017 75 10000 11.83 250 11:30 21.06.2022
1417 Clouds 3 1017 81 10000 14.4 250 09:48 21.06.2022
1418 Clouds 3 1016 81 10000 14.4 250 08:22 21.06.2022
1419 Clouds 1 1018 86 10000 10.29 250 05:41 21.06.2022
1420 Snow 0 1019 80 7000 9.77 250 00:43 21.06.2022
1421 Clouds 0 1019 74 10000 9.26 240 23:18 20.06.2022
1422 Snow 0 1018 74 8000 8.23 240 21:52 20.06.2022
1423 Snow 0 1018 80 8000 9.77 250 20:47 20.06.2022
1424 Clouds 0 1018 80 10000 7.72 240 19:39 20.06.2022
1425 Snow 0 1018 80 10000 7.2 230 18:45 20.06.2022
1426 Snow 0 1017 80 5000 7.72 240 17:52 20.06.2022
1427 Clouds 0 1017 80 10000 7.72 240 17:29 20.06.2022
1428 Snow 0 1015 80 7000 6.17 240 15:56 20.06.2022
1429 Snow 1 1013 80 5000 6.17 150 12:54 20.06.2022
1430 Clouds 1 1011 80 8000 6.17 160 10:58 20.06.2022
1431 Snow 1 1010 80 7000 7.2 180 09:41 20.06.2022
1432 Snow 1 1009 86 6000 6.17 210 08:44 20.06.2022
1433 Clouds 0 1007 93 7000 4.12 250 06:19 20.06.2022
1434 Snow 0 1003 93 4000 1.03 300 02:29 20.06.2022
1435 Snow -1 1001 100 1000 1.54 280 00:32 20.06.2022
1436 Snow -1 1001 100 1000 1.54 290 23:18 19.06.2022
1437 Snow -1 999 100 1000 1.03 360 21:59 19.06.2022
1438 Snow -1 999 100 1000 1.03 360 21:40 19.06.2022
1439 Snow -1 999 93 1000 1.54 40 20:44 19.06.2022
1440 Snow -1 999 93 1000 1.03 300 19:48 19.06.2022
1441 Snow -1 999 93 1000 1.03 300 19:20 19.06.2022
1442 Snow 0 999 80 2000 2.06 40 18:30 19.06.2022
1443 Clouds -2 1000 80 10000 2.39 1 17:22 19.06.2022
1444 Snow -1 999 80 7000 0.51 240 16:36 19.06.2022
1445 Clouds -2 999 80 10000 2.06 280 15:44 19.06.2022
1446 Clouds -2 999 80 10000 2.06 280 15:25 19.06.2022
1447 Clouds -1 1000 74 10000 1.54 290 14:20 19.06.2022
1448 Clouds -2 1001 74 10000 2.06 310 13:43 19.06.2022
1449 Clouds -1 1002 74 10000 2.57 20 11:52 19.06.2022
1450 Clouds 0 1003 74 10000 3.6 20 10:49 19.06.2022
1451 Snow -2 1004 93 5000 4.12 280 08:54 19.06.2022
1452 Snow -2 1004 93 5000 4.12 280 08:30 19.06.2022
1453 Snow 0 1004 80 5000 8.23 250 05:59 19.06.2022
1454 Clouds -1 1005 80 10000 8.75 250 03:19 19.06.2022
1455 Clouds -1 1005 80 10000 7.72 250 00:26 19.06.2022
1456 Clouds -1 1005 86 10000 9.77 250 23:37 18.06.2022
1457 Clouds -1 1005 86 10000 9.77 250 23:19 18.06.2022
1458 Clouds 0 1004 74 5000 6.69 250 21:52 18.06.2022
1459 Snow -1 1004 86 2000 8.23 240 20:50 18.06.2022
1460 Snow -1 1004 86 10000 8.75 240 19:50 18.06.2022
1461 Snow -1 1003 93 10000 11.32 230 18:54 18.06.2022
1462 Clouds -1 1004 93 10000 9.26 230 17:54 18.06.2022
1463 Clouds -1 1004 93 10000 9.26 230 17:23 18.06.2022
1464 Clouds -1 1003 86 10000 8.75 230 15:39 18.06.2022
1465 Clouds -1 1003 86 10000 7.2 230 14:50 18.06.2022
1466 Clouds -2 1003 93 10000 6.17 230 13:54 18.06.2022
1467 Clouds -2 1003 93 10000 6.17 230 12:25 18.06.2022
1468 Snow -2 1002 93 10000 5.14 230 10:59 18.06.2022
1469 Snow -2 1002 93 10000 4.63 230 09:29 18.06.2022
1470 Snow -2 1002 93 10000 2.57 320 08:37 18.06.2022
1471 Snow -2 1002 93 1000 0.51 0 07:33 18.06.2022
1472 Snow -2 1001 93 10000 3.6 200 04:43 18.06.2022
1473 Clouds -1 993 80 10000 9.77 230 01:27 18.06.2022
1474 Clouds -1 992 80 10000 6.69 200 00:55 18.06.2022
1475 Clouds -1 992 80 10000 6.69 200 00:22 18.06.2022
1476 Snow -1 998 86 6000 9.26 230 23:33 17.06.2022
1477 Snow 0 994 86 500 15.43 230 21:57 17.06.2022
1478 Snow 1 994 86 10000 10.29 230 20:29 17.06.2022
1479 Snow 1 994 86 10000 11.32 230 19:20 17.06.2022
1480 Snow 0 992 100 2000 6.17 230 17:47 17.06.2022
1481 Snow 1 991 100 500 7.72 230 16:44 17.06.2022
1482 Snow 1 991 86 1000 9.26 230 16:25 17.06.2022
1483 Snow 0 991 100 5000 8.75 180 15:37 17.06.2022
1484 Snow 1 990 86 5000 9.77 230 14:23 17.06.2022
1485 Snow 1 990 86 5000 9.77 230 14:23 17.06.2022
1486 Snow 1 986 86 4000 13.38 230 13:58 17.06.2022
1487 Snow 1 986 86 4000 13.38 230 13:38 17.06.2022
1488 Snow -1 986 100 1000 1.09 343 12:24 17.06.2022
1489 Snow -1 986 100 4000 2.06 180 11:55 17.06.2022
1490 Snow -1 986 100 1000 2.06 180 11:33 17.06.2022
1491 Snow 0 990 80 10000 2.57 160 08:58 17.06.2022
1492 Snow 0 990 80 10000 2.57 160 08:25 17.06.2022
1493 Clouds -1 993 86 10000 2.57 360 06:44 17.06.2022
1494 Snow 0 997 80 8000 6.17 230 03:59 17.06.2022
1495 Snow 0 998 80 6000 9.26 230 01:56 17.06.2022
1496 Snow 0 997 93 5000 3.29 208 23:47 16.06.2022
1497 Clouds 0 996 86 10000 8.75 230 22:42 16.06.2022
1498 Clouds 1 996 86 10000 8.23 230 21:22 16.06.2022
1499 Clouds 1 995 93 10000 7.2 230 20:52 16.06.2022
1500 Clouds 1 995 93 10000 7.2 230 20:33 16.06.2022
1501 Clouds 2 994 93 9000 7.72 230 19:32 16.06.2022
1502 Clouds 2 994 93 9000 5.66 200 18:24 16.06.2022
1503 Clouds 2 993 93 7000 6.17 180 17:42 16.06.2022
1504 Drizzle 2 992 93 10000 9.26 230 16:33 16.06.2022
1505 Clouds 3 991 87 10000 8.75 230 15:22 16.06.2022
1506 Drizzle 3 991 93 10000 8.75 230 14:36 16.06.2022
1507 Rain 3 990 93 10000 7.72 230 13:20 16.06.2022
1508 Rain 4 989 87 10000 6.69 140 12:36 16.06.2022
1509 Drizzle 5 988 93 10000 7.72 220 11:49 16.06.2022
1510 Clouds 6 988 75 10000 2.06 0 10:54 16.06.2022
1511 Clouds 7 989 61 10000 1.03 0 09:53 16.06.2022
1512 Clouds 7 989 61 10000 1.03 0 09:21 16.06.2022
1513 Clouds 7 989 57 10000 5.66 300 08:28 16.06.2022
1514 Clouds 7 990 57 10000 6.17 300 07:24 16.06.2022
1515 Clear 8 992 49 10000 5.14 320 04:42 16.06.2022
1516 Clouds 6 993 70 10000 3.09 70 02:19 16.06.2022
1517 Clouds 5 995 74 10000 5.12 329 01:35 16.06.2022
1518 Clouds 6 994 75 10000 5.14 90 00:39 16.06.2022
1519 Clouds 6 994 70 10000 3.09 70 23:33 15.06.2022
1520 Clouds 6 994 75 10000 4.12 70 22:35 15.06.2022
1521 Clouds 6 994 75 10000 3.6 70 21:22 15.06.2022
1522 Clouds 6 994 75 10000 3.09 50 20:42 15.06.2022
1523 Clouds 6 994 75 10000 3.09 50 20:23 15.06.2022
1524 Clouds 7 995 70 10000 5.14 90 19:20 15.06.2022
1525 Clouds 6 996 70 10000 2.57 230 17:56 15.06.2022
1526 Clouds 5 997 75 10000 2.57 230 16:55 15.06.2022
1527 Clouds 6 997 70 10000 3.6 345 15:37 15.06.2022
1528 Clear 6 998 93 10000 1.03 90 14:18 15.06.2022
1529 Clouds 5 999 70 10000 3.6 90 12:54 15.06.2022
1530 Clouds 5 999 70 10000 2.06 140 11:53 15.06.2022
1531 Clouds 5 1000 70 10000 3.6 180 10:24 15.06.2022
1532 Clouds 4 1001 70 10000 1.54 90 09:43 15.06.2022
1533 Clouds 4 1001 70 10000 3.09 20 08:40 15.06.2022
1534 Clouds 3 1003 70 10000 3.6 320 06:34 15.06.2022
1535 Clouds 4 1004 65 10000 5.66 320 04:34 15.06.2022
1536 Clouds 3 1005 81 10000 4.12 320 01:54 15.06.2022
1537 Clouds 3 1005 70 10000 2.06 290 00:50 15.06.2022
1538 Clouds 3 1007 88 10000 2.01 327 23:39 14.06.2022
1539 Clouds 3 1007 88 10000 1.8 317 23:21 14.06.2022
1540 Clear 4 1006 70 10000 3.6 290 22:23 14.06.2022
1541 Clear 3 1007 81 10000 4.12 340 21:38 14.06.2022
1542 Clear 4 1007 75 10000 1.54 230 20:54 14.06.2022
1543 Clear 4 1007 75 10000 1.54 230 20:28 14.06.2022
1544 Clear 4 1006 75 10000 2.57 340 19:18 14.06.2022
1545 Clear 3 1007 81 10000 2.06 0 18:20 14.06.2022
1546 Clear 2 1007 87 10000 2.57 320 16:47 14.06.2022
1547 Clouds 4 1006 70 10000 3.09 270 15:50 14.06.2022
1548 Clouds 4 1006 70 10000 3.09 270 15:28 14.06.2022
1549 Clouds 4 1006 75 10000 5.14 230 14:37 14.06.2022
1550 Clouds 4 1006 81 10000 6.17 230 13:46 14.06.2022
1551 Clouds 4 1005 87 10000 7.2 240 12:45 14.06.2022
1552 Clouds 4 1004 81 10000 6.17 240 11:41 14.06.2022
1553 Clouds 5 1004 75 10000 6.17 240 10:48 14.06.2022
1554 Clouds 5 1004 75 10000 6.17 240 10:22 14.06.2022
1555 Clouds 5 1002 81 10000 7.2 240 08:49 14.06.2022
1556 Clouds 5 1002 81 10000 6.69 240 07:49 14.06.2022
1557 Clouds 5 1008 87 10000 6.17 230 05:46 14.06.2022
1558 Clouds 5 998 81 10000 11.32 230 03:20 14.06.2022
1559 Clouds 6 996 70 10000 6.69 230 00:54 14.06.2022
1560 Clouds 6 995 75 10000 9.77 230 23:48 13.06.2022
1561 Clouds 6 995 75 10000 10.29 230 22:26 13.06.2022
1562 Clouds 7 994 76 10000 9.26 230 21:54 13.06.2022
1563 Clouds 6 994 87 10000 8.75 230 20:42 13.06.2022
1564 Drizzle 6 994 100 10000 8.23 230 19:35 13.06.2022
1565 Clouds 6 994 100 10000 7.2 230 18:36 13.06.2022
1566 Clouds 6 994 100 10000 4.12 230 17:48 13.06.2022
1567 Clouds 6 994 100 10000 4.63 230 16:54 13.06.2022
1568 Clouds 6 994 100 10000 2.06 360 15:41 13.06.2022
1569 Clouds 5 993 100 10000 3.09 230 14:47 13.06.2022
1570 Clouds 3 993 100 10000 2.06 360 13:55 13.06.2022
1571 Clouds 3 993 100 10000 0 0 12:59 13.06.2022
1572 Fog 2 993 100 200 1.54 270 11:38 13.06.2022
1573 Fog 1 993 100 100 1.54 360 10:28 13.06.2022
1574 Fog 2 993 100 150 1.03 0 09:42 13.06.2022
1575 Clouds 6 995 93 10000 2.34 329 08:27 13.06.2022
1576 Fog 3 994 100 100 0.51 0 06:34 13.06.2022
1577 Fog 5 994 93 400 1.03 0 04:18 13.06.2022
1578 Fog 5 996 100 500 5.66 70 01:39 13.06.2022
1579 Clouds 6 996 93 10000 5.14 70 00:59 13.06.2022
1580 Clouds 6 996 93 10000 5.14 50 23:33 12.06.2022
1581 Clouds 6 996 100 10000 5.14 50 22:23 12.06.2022
1582 Clouds 7 996 93 10000 4.63 50 21:40 12.06.2022
1583 Clouds 8 996 87 10000 5.14 50 20:43 12.06.2022
1584 Clouds 8 996 81 10000 5.14 50 19:42 12.06.2022
1585 Clouds 7 996 87 10000 3.6 50 18:44 12.06.2022
1586 Clear 8 996 76 10000 0 0 16:57 12.06.2022
1587 Clear 8 995 71 10000 2.57 320 15:33 12.06.2022
1588 Clear 10 994 71 10000 0 0 14:41 12.06.2022
1589 Clear 10 994 71 10000 0 0 14:18 12.06.2022
1590 Clear 10 994 66 10000 2.06 360 13:43 12.06.2022
1591 Clear 10 993 66 10000 1.54 310 11:58 12.06.2022
1592 Clear 10 993 66 10000 2.06 80 10:46 12.06.2022
1593 Clouds 12 993 58 10000 2.06 120 09:36 12.06.2022
1594 Clouds 11 992 62 10000 1.54 190 08:49 12.06.2022
1595 Clouds 12 993 62 10000 2.57 150 07:49 12.06.2022
1596 Clouds 14 993 54 10000 4.12 320 06:21 12.06.2022
1597 Clouds 10 994 71 10000 3.09 0 03:38 12.06.2022
1598 Clouds 4 997 96 9942 3.76 344 01:49 12.06.2022
1599 Clouds 5 998 95 10000 3.93 347 01:22 12.06.2022
1600 Drizzle 10 997 66 10000 3.6 320 00:36 12.06.2022
1601 Drizzle 10 997 66 10000 3.6 320 00:18 12.06.2022
1602 Clouds 9 998 66 10000 2.06 140 22:58 11.06.2022
1603 Clouds 9 998 66 10000 2.06 140 22:31 11.06.2022
1604 Clouds 6 999 87 10000 3.6 360 21:18 11.06.2022
1605 Drizzle 5 1000 87 10000 2.57 90 20:26 11.06.2022
1606 Drizzle 5 1000 87 10000 2.57 90 19:33 11.06.2022
1607 Rain 5 1002 97 10000 3.44 3 18:42 11.06.2022
1608 Rain 5 1003 95 10000 3.24 358 18:24 11.06.2022
1609 Clouds 4 1003 93 10000 4.63 90 17:38 11.06.2022
1610 Clouds 4 1003 93 10000 4.63 90 17:19 11.06.2022
1611 Clear 4 1004 93 10000 2.06 360 16:42 11.06.2022
1612 Clear 4 1004 87 10000 2.57 90 15:47 11.06.2022
1613 Clear 4 1004 75 10000 2.57 360 14:23 11.06.2022
1614 Clear 3 1004 81 10000 0 0 13:47 11.06.2022
1615 Clear 4 1004 75 10000 5.14 320 11:46 11.06.2022
1616 Clear 5 1003 65 10000 3.09 320 10:30 11.06.2022
1617 Clouds 5 1003 70 10000 1.54 320 09:41 11.06.2022
1618 Clouds 5 1002 70 10000 3.09 320 08:37 11.06.2022
1619 Clear 7 1000 61 10000 5.14 250 06:32 11.06.2022
1620 Clear 6 999 65 10000 4.63 250 05:26 11.06.2022
1621 Clouds 8 997 61 10000 2.06 0 02:42 11.06.2022
1622 Clouds 8 996 57 10000 3.6 0 01:41 11.06.2022
1623 Clouds 8 995 57 10000 6.69 290 00:54 11.06.2022
1624 Clouds 8 995 57 10000 9.26 360 23:25 10.06.2022
1625 Clouds 6 995 61 10000 13.89 360 22:20 10.06.2022
1626 Clouds 7 996 57 10000 13.38 360 21:22 10.06.2022
1627 Clouds 6 998 56 10000 11.83 360 20:37 10.06.2022
1628 Clouds 6 998 56 10000 11.83 360 20:19 10.06.2022
1629 Clouds 5 999 65 10000 12.35 360 19:19 10.06.2022
1630 Clouds 5 1001 60 10000 13.38 360 18:29 10.06.2022
1631 Clouds 4 1002 70 10000 13.89 360 17:42 10.06.2022
1632 Clouds 4 1002 70 10000 13.89 360 17:21 10.06.2022
1633 Clouds 4 1004 65 10000 11.32 320 16:25 10.06.2022
1634 Clouds 5 1005 70 10000 12.35 320 15:37 10.06.2022
1635 Clouds 5 1008 52 10000 7.72 310 13:57 10.06.2022
1636 Clouds 5 1009 52 10000 7.72 320 12:50 10.06.2022
1637 Clouds 4 1011 60 10000 10.8 350 11:53 10.06.2022
1638 Clouds 0 1011 87 10000 5.24 4 10:45 10.06.2022
1639 Clouds 2 1013 69 10000 4.12 350 09:54 10.06.2022
1640 Clear 0 1015 86 10000 2.57 280 08:42 10.06.2022
1641 Clear 0 1016 86 10000 2.57 270 07:26 10.06.2022
1642 Clear 0 1017 80 10000 3.09 10 06:44 10.06.2022
1643 Clear 0 1017 80 10000 3.09 10 06:25 10.06.2022
1644 Clear 0 1019 80 10000 4.63 320 03:56 10.06.2022
1645 Clear 1 1019 80 10000 3.6 290 01:41 10.06.2022
1646 Clouds 1 1019 86 10000 4.12 270 00:32 10.06.2022
1647 Clouds 2 1018 75 10000 5.14 250 23:47 09.06.2022
1648 Clouds 3 1018 75 10000 7.72 230 22:18 09.06.2022
1649 Clouds 3 1018 75 10000 9.26 230 21:33 09.06.2022
1650 Clouds 3 1017 75 10000 8.23 230 20:54 09.06.2022
1651 Clouds 3 1017 75 10000 8.23 230 20:21 09.06.2022
1652 Clouds 3 1016 75 10000 10.29 230 19:21 09.06.2022
1653 Clouds 3 1015 70 10000 7.72 230 18:34 09.06.2022
1654 Clouds 1 1014 86 10000 11.32 230 16:56 09.06.2022
1655 Snow 1 1012 86 8000 8.75 230 15:49 09.06.2022
1656 Snow 1 1012 80 8000 10.8 230 14:35 09.06.2022
1657 Snow 0 1011 100 8000 7.72 230 13:54 09.06.2022
1658 Snow 0 1011 100 8000 7.72 230 13:28 09.06.2022
1659 Clouds 1 1008 80 10000 6.17 230 11:54 09.06.2022
1660 Clouds 1 1008 80 10000 6.17 230 11:19 09.06.2022
1661 Clouds 1 1006 86 10000 10.29 230 09:45 09.06.2022
1662 Clouds 1 1006 86 10000 10.29 230 09:24 09.06.2022
1663 Clouds 1 1002 100 8000 8.23 230 07:52 09.06.2022
1664 Clouds 1 1001 93 7000 10.29 230 06:41 09.06.2022
1665 Rain 2 996 80 8000 14.4 230 03:19 09.06.2022
1666 Drizzle 2 992 93 8000 11.32 230 23:48 08.06.2022
1667 Drizzle 2 991 93 8000 8.75 230 22:58 08.06.2022
1668 Drizzle 2 991 93 8000 8.75 230 22:27 08.06.2022
1669 Snow 1 989 100 1500 13.38 230 21:56 08.06.2022
1670 Snow 1 989 100 1500 13.38 230 21:23 08.06.2022
1671 Rain 5 986 93 2600 4.12 230 20:22 08.06.2022
1672 Drizzle 5 986 93 5000 1.03 230 19:39 08.06.2022
1673 Drizzle 5 986 87 3700 2.06 180 18:47 08.06.2022
1674 Clouds 5 985 87 10000 2.57 90 17:25 08.06.2022
1675 Clouds 6 985 81 10000 4.12 140 15:48 08.06.2022
1676 Clouds 6 983 81 10000 2.57 180 13:52 08.06.2022
1677 Clouds 6 982 81 10000 2.06 270 12:22 08.06.2022
1678 Clouds 6 983 75 10000 6.69 220 11:33 08.06.2022
1679 Clouds 8 982 61 10000 3.6 190 10:20 08.06.2022
1680 Clouds 8 982 61 10000 6.69 200 09:22 08.06.2022
1681 Clouds 8 982 66 10000 3.09 160 08:40 08.06.2022
1682 Drizzle 8 983 61 10000 4.63 220 06:35 08.06.2022
1683 Drizzle 10 986 43 10000 7.2 360 03:58 08.06.2022
1684 Clouds 7 989 57 10000 5.66 320 00:45 08.06.2022
1685 Clouds 7 989 57 10000 6.17 360 23:29 07.06.2022
1686 Clouds 7 989 57 10000 5.66 340 22:45 07.06.2022
1687 Clouds 7 989 57 10000 5.66 340 22:26 07.06.2022
1688 Clouds 7 989 57 10000 4.12 320 21:35 07.06.2022
1689 Clouds 9 989 53 10000 6.69 360 20:59 07.06.2022
1690 Clouds 9 989 53 10000 6.69 360 20:33 07.06.2022
1691 Clouds 9 989 53 10000 6.17 360 19:45 07.06.2022
1692 Clouds 8 989 57 10000 7.72 360 18:24 07.06.2022
1693 Clouds 8 989 53 10000 8.23 360 17:27 07.06.2022
1694 Clouds 7 990 61 10000 7.2 360 16:43 07.06.2022
1695 Clouds 7 989 53 10000 6.69 360 15:54 07.06.2022
1696 Clouds 7 989 53 10000 6.69 360 15:26 07.06.2022
1697 Clouds 7 988 53 10000 5.66 360 14:52 07.06.2022
1698 Clouds 7 988 53 10000 5.66 360 14:32 07.06.2022
1699 Clouds 1 991 85 10000 4.81 5 13:32 07.06.2022
1700 Clouds 1 991 85 10000 5.06 9 12:52 07.06.2022
1701 Clouds 7 989 53 10000 6.17 320 11:47 07.06.2022
1702 Clouds 7 988 49 10000 7.72 320 10:27 07.06.2022
1703 Clouds 6 989 52 10000 6.17 340 08:50 07.06.2022
1704 Clouds 6 989 56 10000 7.2 320 07:34 07.06.2022
1705 Clouds 6 989 56 10000 6.17 20 06:22 07.06.2022
1706 Clouds 4 991 48 10000 5.66 320 03:32 07.06.2022
1707 Clouds 1 990 75 10000 2.57 320 01:26 07.06.2022
1708 Clouds 2 989 75 10000 5.14 230 23:46 06.06.2022
1709 Clouds 3 988 70 10000 4.63 200 22:54 06.06.2022
1710 Clouds 3 988 70 10000 4.63 200 22:28 06.06.2022
1711 Clouds 3 988 75 10000 2.57 200 20:42 06.06.2022
1712 Clouds 2 984 80 10000 1.03 0 19:24 06.06.2022
1713 Snow 1 983 93 10000 5.66 230 18:48 06.06.2022
1714 Snow 2 982 87 5000 6.17 230 17:59 06.06.2022
1715 Clouds 3 980 56 10000 4.12 270 16:57 06.06.2022
1716 Clouds 2 978 80 10000 0 0 15:57 06.06.2022
1717 Clouds 2 977 80 10000 8.75 230 14:59 06.06.2022
1718 Clouds 2 977 80 10000 8.75 230 14:59 06.06.2022
1719 Clouds 2 977 80 10000 8.75 230 14:26 06.06.2022
1720 Drizzle 3 976 87 10000 11.32 230 13:20 06.06.2022
1721 Drizzle 4 974 65 10000 13.89 230 12:35 06.06.2022
1722 Rain 4 970 87 10000 15.43 220 11:49 06.06.2022
1723 Rain 4 968 87 9000 17.49 230 10:21 06.06.2022
1724 Clouds 4 965 93 9000 18.52 220 09:23 06.06.2022
1725 Clouds 8 965 61 10000 1.54 250 08:31 06.06.2022
1726 Clouds 7 964 65 10000 9.26 180 07:24 06.06.2022
1727 Clouds 9 966 49 10000 7.72 320 04:42 06.06.2022
1728 Clouds 10 968 43 10000 9.26 360 02:27 06.06.2022
1729 Clouds 1 973 86 10000 5.66 5 00:57 06.06.2022
1730 Clouds 1 973 86 10000 5.66 5 00:35 06.06.2022
1731 Drizzle 10 974 43 10000 8.75 320 23:28 05.06.2022
1732 Drizzle 10 976 43 10000 9.77 360 22:33 05.06.2022
1733 Clouds 9 979 37 10000 4.12 230 20:40 05.06.2022
1734 Clouds 6 984 65 10000 4.12 360 19:26 05.06.2022
1735 Clouds 6 982 61 10000 9.26 360 18:26 05.06.2022
1736 Clouds 6 984 65 10000 4.12 360 17:50 05.06.2022
1737 Clouds 6 984 65 10000 4.12 360 17:23 05.06.2022
1738 Clouds 6 984 65 10000 8.75 360 16:49 05.06.2022
1739 Clouds 6 985 61 10000 9.26 360 15:50 05.06.2022
1740 Clouds 6 986 61 10000 11.32 360 14:22 05.06.2022
1741 Clouds 6 988 65 10000 10.29 360 12:43 05.06.2022
1742 Clouds 7 988 53 10000 7.2 340 11:35 05.06.2022
1743 Clouds 7 989 53 10000 6.69 360 10:25 05.06.2022
1744 Clouds 7 990 53 10000 8.23 340 09:58 05.06.2022
1745 Clouds 7 990 53 10000 6.69 320 08:28 05.06.2022
1746 Clouds 6 990 56 10000 9.77 340 07:41 05.06.2022
1747 Clouds 6 991 56 10000 6.17 320 05:21 05.06.2022
1748 Clouds 4 991 52 10000 5.66 270 03:43 05.06.2022
1749 Clouds 3 992 60 10000 5.14 320 01:32 05.06.2022
1750 Clouds 3 992 60 10000 4.12 290 00:29 05.06.2022
1751 Clouds 3 993 60 10000 1.54 90 21:58 04.06.2022
1752 Clouds 3 993 65 10000 1.03 0 20:21 04.06.2022
1753 Clouds 2 993 75 10000 3.09 200 18:18 04.06.2022
1754 Clouds 2 993 69 10000 2.06 230 16:43 04.06.2022
1755 Clouds 1 995 88 10000 1.67 351 16:18 04.06.2022
1756 Clouds 1 990 86 10000 11.32 230 14:47 04.06.2022
1757 Drizzle 2 987 80 10000 14.92 230 12:28 04.06.2022
1758 Clouds 2 986 80 10000 12.86 230 11:18 04.06.2022
1759 Rain 2 985 93 10000 11.32 230 10:43 04.06.2022
1760 Rain 3 984 93 10000 6.17 230 09:42 04.06.2022
1761 Clouds 4 983 87 10000 11.32 220 08:41 04.06.2022
1762 Clouds 5 983 60 10000 4.12 220 07:40 04.06.2022
1763 Clouds 6 983 49 10000 8.23 320 04:57 04.06.2022
1764 Clouds 6 986 49 10000 6.69 360 01:27 04.06.2022
1765 Clouds 6 987 49 10000 9.77 320 23:59 03.06.2022
1766 Clouds 7 988 45 10000 11.32 320 22:40 03.06.2022
1767 Clouds 7 990 49 10000 9.26 320 21:30 03.06.2022
1768 Clouds 7 991 49 10000 9.77 320 20:37 03.06.2022
1769 Clouds 7 994 53 10000 6.17 340 18:27 03.06.2022
1770 Clouds 6 996 56 10000 6.69 320 16:47 03.06.2022
1771 Clouds 6 996 56 10000 5.66 320 15:23 03.06.2022
1772 Clouds 5 998 52 10000 6.17 320 13:22 03.06.2022
1773 Clouds 5 998 56 10000 1.03 230 11:40 03.06.2022
1774 Clouds 4 1000 60 10000 5.14 340 09:45 03.06.2022
1775 Clouds 4 1000 60 10000 5.14 340 09:24 03.06.2022
1776 Clear 2 1001 64 10000 1.03 90 07:27 03.06.2022
1777 Clear 2 1002 64 10000 1.54 140 06:35 03.06.2022
1778 Clear 2 1002 55 10000 2.06 270 05:52 03.06.2022
1779 Clear 1 1005 64 10000 1.03 320 00:41 03.06.2022
1780 Clear 1 1006 69 10000 2.57 320 22:47 02.06.2022
1781 Clear 2 1007 69 10000 0.51 0 21:51 02.06.2022
1782 Clear 3 1008 65 10000 0.51 0 20:22 02.06.2022
1783 Clear 3 1008 65 10000 0.51 0 20:22 02.06.2022
1784 Clear 3 1008 65 10000 1.54 360 19:50 02.06.2022
1785 Clear 3 1008 65 10000 1.54 360 19:32 02.06.2022
1786 Clear 1 1010 69 10000 3.09 360 17:35 02.06.2022
1787 Clear 1 1010 75 10000 5.66 360 16:28 02.06.2022
1788 Clear 1 1011 75 10000 5.14 360 14:22 02.06.2022
1789 Clear 0 1011 80 10000 6.17 360 13:30 02.06.2022
1790 Clear 0 1011 80 10000 6.17 360 13:30 02.06.2022
1791 Clear 0 1011 80 10000 4.12 320 12:21 02.06.2022
1792 Clouds 2 1011 75 10000 3.09 330 10:20 02.06.2022
1793 Clouds 3 1011 75 10000 4.12 280 09:28 02.06.2022
1794 Clouds 2 1011 75 10000 3.6 290 08:27 02.06.2022
1795 Clouds 2 1011 75 10000 2.57 330 07:33 02.06.2022
1796 Clear 2 1012 75 10000 2.06 320 05:29 02.06.2022
1797 Clear 1 1012 86 10000 2.06 360 03:45 02.06.2022
1798 Clouds 2 1014 87 10000 3.6 360 23:52 01.06.2022
1799 Clouds 2 1014 87 10000 3.09 360 22:54 01.06.2022
1800 Clouds 3 1014 75 10000 1.03 360 21:39 01.06.2022
1801 Clouds 3 1014 75 10000 1.03 360 21:19 01.06.2022
1802 Clouds 3 1015 75 10000 2.57 360 20:37 01.06.2022
1803 Clouds 3 1015 82 10000 0.65 237 19:31 01.06.2022
1804 Clouds 2 1017 87 10000 4.63 180 17:46 01.06.2022
1805 Clouds 2 1017 80 10000 2.06 270 16:40 01.06.2022
1806 Clouds 2 1017 80 10000 2.06 270 15:18 01.06.2022
1807 Clouds 2 1017 80 10000 2.06 270 13:54 01.06.2022
1808 Clouds 2 1018 80 10000 2.57 320 12:29 01.06.2022
1809 Clouds 2 1018 80 10000 3.09 270 10:37 01.06.2022
1810 Clear 2 1018 80 10000 2.06 290 09:25 01.06.2022
1811 Clear 2 1019 87 10000 2.57 320 07:25 01.06.2022
1812 Clear 2 1019 80 10000 2.06 320 06:40 01.06.2022
1813 Clouds 4 1018 81 10000 7.2 230 01:29 01.06.2022
1814 Clouds 5 1018 81 10000 8.23 230 23:41 31.05.2022
1815 Clouds 5 1018 81 10000 7.2 230 22:37 31.05.2022
1816 Clouds 6 1017 75 10000 8.23 230 21:46 31.05.2022
1817 Clouds 6 1017 70 10000 9.77 230 20:52 31.05.2022
1818 Clouds 6 1017 70 10000 9.77 230 20:31 31.05.2022
1819 Clouds 6 1018 75 10000 8.75 230 18:54 31.05.2022
1820 Clouds 5 1018 87 10000 7.72 230 17:51 31.05.2022
1821 Clouds 5 1018 87 10000 7.72 230 17:20 31.05.2022
1822 Drizzle 5 1018 93 10000 10.8 230 15:42 31.05.2022
1823 Drizzle 5 1017 93 10000 10.29 230 14:33 31.05.2022
1824 Clouds 5 1017 87 10000 9.77 230 12:22 31.05.2022
1825 Clouds 5 1017 87 10000 9.77 230 11:42 31.05.2022
1826 Clouds 5 1017 87 10000 10.29 230 09:49 31.05.2022
1827 Clouds 5 1016 87 10000 11.83 230 07:36 31.05.2022
1828 Clouds 6 1015 81 10000 12.35 230 05:24 31.05.2022
1829 Drizzle 6 1016 81 10000 11.83 230 02:33 31.05.2022
1830 Clouds 6 1016 81 10000 11.83 230 23:29 30.05.2022
1831 Clouds 6 1016 81 10000 11.32 230 22:59 30.05.2022
1832 Clouds 6 1016 81 10000 11.32 230 22:24 30.05.2022
1833 Drizzle 7 1016 81 10000 11.32 230 21:35 30.05.2022
1834 Drizzle 6 1016 93 10000 11.83 230 20:22 30.05.2022
1835 Drizzle 6 1015 87 10000 12.35 230 18:58 30.05.2022
1836 Drizzle 6 1016 87 10000 11.83 230 17:43 30.05.2022
1837 Drizzle 6 1016 87 10000 11.32 230 16:45 30.05.2022
1838 Drizzle 6 1015 81 10000 11.83 230 15:22 30.05.2022
1839 Clouds 6 1014 75 10000 11.32 230 12:44 30.05.2022
1840 Drizzle 6 1014 75 10000 12.35 230 10:57 30.05.2022
1841 Drizzle 5 1014 81 10000 11.32 230 09:39 30.05.2022
1842 Clouds 5 1015 87 10000 12.35 230 07:24 30.05.2022
1843 Clouds 5 1015 81 10000 8.75 230 05:50 30.05.2022
1844 Drizzle 4 1016 93 10000 11.83 230 02:33 30.05.2022
1845 Drizzle 4 1016 81 10000 8.23 230 23:24 29.05.2022
1846 Clouds 5 1015 75 10000 9.26 230 22:39 29.05.2022
1847 Clouds 4 1015 81 10000 10.29 230 21:19 29.05.2022
1848 Drizzle 4 1016 81 8000 10.8 230 19:48 29.05.2022
1849 Drizzle 4 1016 81 8000 10.8 230 19:27 29.05.2022
1850 Drizzle 3 1015 81 10000 11.83 230 17:41 29.05.2022
1851 Clouds 3 1015 75 10000 9.77 230 15:49 29.05.2022
1852 Clouds 3 1015 75 10000 9.77 230 15:28 29.05.2022
1853 Clouds 3 1015 75 10000 9.26 240 14:23 29.05.2022
1854 Clouds 3 1013 87 10000 9.77 230 11:55 29.05.2022
1855 Clouds 3 1012 87 10000 9.26 230 10:44 29.05.2022
1856 Rain 3 1011 87 8000 11.83 230 09:52 29.05.2022
1857 Drizzle 3 1009 81 8000 11.32 230 06:56 29.05.2022
1858 Drizzle 3 1008 81 10000 12.86 230 04:49 29.05.2022
1859 Drizzle 3 1008 81 10000 12.86 230 04:24 29.05.2022
1860 Clouds 3 1008 81 10000 9.77 230 23:59 28.05.2022
1861 Clouds 3 1008 81 10000 9.77 230 23:39 28.05.2022
1862 Clouds 3 1007 81 10000 9.26 230 22:40 28.05.2022
1863 Clouds 3 1007 81 10000 9.77 230 21:42 28.05.2022
1864 Drizzle 3 1008 81 10000 10.8 230 19:52 28.05.2022
1865 Drizzle 3 1008 81 10000 10.8 230 19:18 28.05.2022
1866 Snow 2 1008 87 10000 11.83 230 17:44 28.05.2022
1867 Snow 2 1008 87 10000 11.32 230 16:53 28.05.2022
1868 Snow 2 1008 87 8000 9.77 230 15:44 28.05.2022
1869 Snow 2 1008 87 10000 11.83 230 14:37 28.05.2022
1870 Snow 1 1008 89 1770 7.49 211 13:21 28.05.2022
1871 Snow 2 1007 80 6000 9.77 230 12:40 28.05.2022
1872 Clouds 2 1007 80 8000 9.26 230 11:27 28.05.2022
1873 Clouds 1 1006 93 5000 10.8 230 10:25 28.05.2022
1874 Clouds 1 1006 93 8000 8.75 230 09:30 28.05.2022
1875 Clouds 1 1006 93 5000 12.35 230 07:47 28.05.2022
1876 Snow 2 1006 80 7000 11.32 230 06:32 28.05.2022
1877 Clouds 1 1006 86 7000 0 0 04:21 28.05.2022
1878 Snow 1 1005 93 4500 11.32 230 00:50 28.05.2022
1879 Clouds 2 1005 87 7000 12.35 230 23:42 27.05.2022
1880 Clouds 2 1004 87 8000 12.35 230 22:24 27.05.2022
1881 Clouds 2 1004 93 7000 13.38 230 20:58 27.05.2022
1882 Rain 3 1004 87 10000 13.38 230 20:31 27.05.2022
1883 Clouds 3 1003 93 10000 12.35 230 19:56 27.05.2022
1884 Clouds 3 1003 93 10000 12.35 230 19:34 27.05.2022
1885 Clouds 3 1003 87 10000 11.83 230 18:37 27.05.2022
1886 Rain 3 1003 81 8000 7.72 230 16:42 27.05.2022
1887 Rain 2 1003 87 8000 9.26 230 15:46 27.05.2022
1888 Snow 1 1003 86 3500 5.14 250 14:45 27.05.2022
1889 Snow 1 1004 93 2800 7.72 230 13:35 27.05.2022
1890 Snow 2 1005 93 5000 13.38 230 11:43 27.05.2022
1891 Rain 2 1005 93 8000 11.83 230 11:25 27.05.2022
1892 Rain 2 1005 93 8000 12.35 230 10:35 27.05.2022
1893 Rain 2 1006 87 8000 14.4 230 09:42 27.05.2022
1894 Rain 1 1007 93 8000 13.89 230 08:48 27.05.2022
1895 Snow 1 1008 86 7000 11.83 230 06:50 27.05.2022
1896 Snow 1 1006 93 6000 10.8 230 02:56 27.05.2022
1897 Snow 1 1005 93 1800 11.83 240 00:53 27.05.2022
1898 Snow 2 1004 80 4000 14.4 230 22:50 26.05.2022
1899 Snow 2 1003 93 5000 14.4 230 21:45 26.05.2022
1900 Snow 2 1003 87 7000 13.89 230 20:59 26.05.2022
1901 Snow 2 1003 87 4000 13.38 240 19:29 26.05.2022
1902 Snow 1 1004 100 5000 11.32 240 18:24 26.05.2022
1903 Snow 2 1004 87 8000 12.86 230 16:59 26.05.2022
1904 Snow 2 1004 87 6000 13.38 230 15:52 26.05.2022
1905 Snow 2 1004 87 6000 13.38 230 15:18 26.05.2022
1906 Drizzle 2 1004 93 10000 10.8 230 13:46 26.05.2022
1907 Rain 3 1003 87 10000 14.4 230 11:47 26.05.2022
1908 Rain 3 1002 87 10000 16.46 230 10:39 26.05.2022
1909 Rain 4 1003 81 10000 16.46 230 09:37 26.05.2022
1910 Clouds 4 1003 87 10000 16.98 230 08:38 26.05.2022
1911 Clouds 4 1005 81 10000 15.95 230 05:25 26.05.2022
1912 Clouds 5 1005 81 10000 15.95 230 01:26 26.05.2022
1913 Clouds 5 1005 75 10000 16.46 230 23:41 25.05.2022
1914 Clouds 5 1005 81 10000 16.98 230 22:51 25.05.2022
1915 Clouds 5 1005 81 10000 17.49 230 21:39 25.05.2022
1916 Clouds 6 1004 75 10000 18.01 230 20:43 25.05.2022
1917 Clouds 6 1005 75 10000 18.52 230 19:32 25.05.2022
1918 Clouds 5 1004 75 10000 18.52 230 18:23 25.05.2022
1919 Clouds 5 1005 81 10000 18.52 230 16:42 25.05.2022
1920 Clouds 5 1005 81 10000 18.52 230 16:21 25.05.2022
1921 Clouds 5 1005 75 10000 16.98 230 15:24 25.05.2022
1922 Clouds 5 1004 81 10000 15.95 230 14:38 25.05.2022
1923 Clouds 5 1004 81 10000 15.95 230 14:19 25.05.2022
1924 Clouds 5 1004 81 10000 14.92 230 12:52 25.05.2022
1925 Clouds 2 1005 92 10000 4.35 229 11:31 25.05.2022
1926 Clouds 5 1003 81 5132 14.4 230 10:22 25.05.2022
1927 Clouds 2 1005 96 1683 3.52 227 08:53 25.05.2022
1928 Clouds 0 1005 90 4019 1.58 276 07:23 25.05.2022
1929 Clouds 0 1005 90 4019 1.58 276 07:23 25.05.2022
1930 Clouds 4 1002 81 10000 14.92 230 05:23 25.05.2022
1931 Clouds 3 1004 60 10000 0 320 00:38 25.05.2022
1932 Clouds 3 1004 75 10000 14.4 230 23:47 24.05.2022
1933 Clouds 3 1004 65 10000 12.86 230 22:53 24.05.2022
1934 Clouds 3 1003 70 10000 13.89 230 21:46 24.05.2022
1935 Clouds 3 1004 70 10000 11.32 230 21:22 24.05.2022
1936 Clouds 3 1004 75 10000 10.29 230 20:44 24.05.2022
1937 Clouds 3 1004 70 10000 10.8 230 19:20 24.05.2022
1938 Clouds 2 1004 87 10000 7.72 230 17:50 24.05.2022
1939 Clouds 2 1004 87 10000 7.2 230 16:36 24.05.2022
1940 Drizzle 2 1002 87 10000 9.77 230 15:31 24.05.2022
1941 Rain 3 1002 81 10000 11.83 230 14:37 24.05.2022
1942 Clouds 2 1001 87 8000 8.23 230 13:35 24.05.2022
1943 Clouds 3 1000 75 8000 8.23 230 12:19 24.05.2022
1944 Clouds 2 997 69 10000 7.72 230 09:51 24.05.2022
1945 Clouds 2 996 69 10000 6.69 230 08:51 24.05.2022
1946 Clouds 2 995 69 10000 6.17 230 07:44 24.05.2022
1947 Clouds 2 994 75 10000 5.66 230 06:34 24.05.2022
1948 Clouds 1 991 80 10000 5.14 250 03:32 24.05.2022
1949 Clouds 1 989 80 10000 3.6 280 01:46 24.05.2022
1950 Clouds 1 988 69 10000 3.09 280 00:21 24.05.2022
1951 Clouds 2 986 69 10000 2.57 350 22:24 23.05.2022
1952 Clouds 2 986 69 10000 2.06 360 21:50 23.05.2022
1953 Clouds 2 986 69 10000 2.06 360 20:46 23.05.2022
1954 Clouds 2 986 64 10000 1.54 310 19:51 23.05.2022
1955 Clouds 2 986 64 10000 1.54 310 19:22 23.05.2022
1956 Clouds 1 986 75 10000 1.03 230 18:40 23.05.2022
1957 Clouds 2 987 66 10000 2.91 3 17:56 23.05.2022
1958 Clear 1 986 69 10000 1.54 320 16:29 23.05.2022
1959 Clear 1 987 64 10000 2.57 320 14:18 23.05.2022
1960 Clear 1 987 69 10000 2.06 320 11:53 23.05.2022
1961 Clear 1 987 64 10000 3.6 360 10:49 23.05.2022
1962 Clear 1 987 69 10000 1.54 320 09:48 23.05.2022
1963 Clear 1 987 69 10000 0.51 320 08:47 23.05.2022
1964 Clear 2 987 60 10000 3.6 320 07:37 23.05.2022
1965 Clouds 2 987 64 10000 2.57 270 06:41 23.05.2022
1966 Clear 1 988 80 10000 0 0 03:52 23.05.2022
1967 Clear 2 987 75 10000 2.06 340 02:18 23.05.2022
1968 Clear 1 987 80 10000 0 0 01:32 23.05.2022
1969 Clouds 2 987 75 10000 3.6 340 23:22 22.05.2022
1970 Clouds 3 987 70 10000 2.06 320 22:33 22.05.2022
1971 Clouds 3 987 81 10000 2.57 320 21:53 22.05.2022
1972 Clouds 4 987 81 10000 1.03 0 20:50 22.05.2022
1973 Clouds 4 987 81 10000 1.03 0 20:23 22.05.2022
1974 Clear 4 987 87 10000 2.06 20 19:42 22.05.2022
1975 Clouds 3 988 93 10000 1.03 0 18:52 22.05.2022
1976 Clouds 3 988 93 10000 1.03 0 18:22 22.05.2022
1977 Clouds 1 988 100 10000 0 0 17:26 22.05.2022
1978 Clouds 1 989 93 10000 0 0 15:59 22.05.2022
1979 Snow 1 989 100 10000 2.06 360 14:48 22.05.2022
1980 Snow 3 989 65 5000 2.57 270 13:27 22.05.2022
1981 Clouds 3 989 65 10000 1.54 230 12:50 22.05.2022
1982 Clouds 3 989 70 10000 1.03 0 11:32 22.05.2022
1983 Clear 4 991 65 10000 6.69 20 09:41 22.05.2022
1984 Clear 3 992 70 10000 3.6 30 08:21 22.05.2022
1985 Clear 3 992 81 10000 3.09 320 07:21 22.05.2022
1986 Clear 3 993 81 10000 1.03 220 05:22 22.05.2022
1987 Clear 3 993 75 10000 1.03 290 01:26 22.05.2022
1988 Clear 4 993 81 10000 2.57 10 00:43 22.05.2022
1989 Clear 5 993 70 10000 2.57 320 23:52 21.05.2022
1990 Clear 6 993 70 10000 1.03 0 22:28 21.05.2022
1991 Clear 6 993 70 10000 3.09 250 21:42 21.05.2022
1992 Clouds 6 993 65 10000 5.14 270 20:51 21.05.2022
1993 Clouds 6 993 65 10000 5.14 270 20:21 21.05.2022
1994 Clouds 6 993 70 10000 8.23 230 19:27 21.05.2022
1995 Clouds 6 993 75 10000 7.72 230 17:48 21.05.2022
1996 Clouds 5 994 81 10000 3.6 270 15:54 21.05.2022
1997 Clouds 6 993 75 10000 8.23 230 14:37 21.05.2022
1998 Rain 6 993 81 10000 9.26 230 13:42 21.05.2022
1999 Rain 6 993 81 8000 6.17 230 12:49 21.05.2022
2000 Rain 6 993 81 8000 6.17 230 12:25 21.05.2022
2001 Rain 6 992 81 10000 9.26 230 10:24 21.05.2022
2002 Rain 7 992 76 10000 2.06 180 09:43 21.05.2022
2003 Rain 7 992 70 10000 2.57 250 08:57 21.05.2022
2004 Clear 7 992 76 10000 1.03 180 07:53 21.05.2022
2005 Clouds 7 993 70 10000 2.57 270 03:58 21.05.2022
2006 Clouds 7 993 65 10000 2.57 20 23:53 20.05.2022
2007 Clouds 8 994 61 10000 3.09 180 22:57 20.05.2022
2008 Clouds 8 994 61 10000 3.09 180 22:23 20.05.2022
2009 Clouds 9 994 57 10000 4.63 290 21:41 20.05.2022
2010 Clouds 9 994 57 10000 5.66 180 20:54 20.05.2022
2011 Clouds 9 996 57 10000 2.57 200 19:59 20.05.2022
2012 Clouds 9 996 57 10000 2.57 200 19:26 20.05.2022
2013 Clouds 9 997 61 10000 2.06 90 18:44 20.05.2022
2014 Clouds 7 999 70 10000 3.09 230 16:54 20.05.2022
2015 Clouds 7 999 70 10000 3.09 230 16:19 20.05.2022
2016 Clouds 7 1000 76 10000 0 0 15:44 20.05.2022
2017 Clouds 7 1000 76 10000 4.63 320 14:30 20.05.2022
2018 Clouds 8 1001 71 10000 0 0 13:55 20.05.2022
2019 Clouds 7 1002 81 10000 3.6 0 11:34 20.05.2022
2020 Clouds 9 1005 76 10000 1.54 0 09:52 20.05.2022
2021 Clouds 9 1005 71 10000 1.54 230 08:44 20.05.2022
2022 Clouds 9 1006 71 10000 2.06 360 06:50 20.05.2022
2023 Clouds 9 1006 71 10000 2.06 360 06:31 20.05.2022
2024 Clear 11 1006 66 10000 2.06 290 04:31 20.05.2022
2025 Clouds 12 1007 58 10000 2.06 320 00:43 20.05.2022
2026 Clouds 13 1007 62 10000 3.6 340 22:46 19.05.2022
2027 Clouds 13 1007 62 10000 4.12 360 21:59 19.05.2022
2028 Clouds 13 1007 62 10000 4.12 360 21:40 19.05.2022
2029 Clouds 13 1007 62 10000 4.12 360 21:22 19.05.2022
2030 Clouds 14 1008 62 10000 1.03 0 20:25 19.05.2022
2031 Clouds 12 1007 76 10000 1.03 0 19:40 19.05.2022
2032 Clouds 10 1008 76 10000 1.03 0 18:19 19.05.2022
2033 Clear 8 1008 81 10000 3.09 90 16:32 19.05.2022
2034 Clear 6 1008 87 10000 2.06 90 14:52 19.05.2022
2035 Clear 6 1008 87 10000 2.06 90 14:23 19.05.2022
2036 Clear 5 1009 93 10000 1.54 320 13:20 19.05.2022
2037 Clear 6 1009 87 10000 1.54 50 11:25 19.05.2022
2038 Clear 6 1010 81 10000 0.51 230 09:19 19.05.2022
2039 Clear 6 1010 87 10000 1.03 360 07:48 19.05.2022
2040 Clouds 6 1011 81 10000 1.03 360 05:32 19.05.2022
2041 Clouds 5 1011 81 10000 2.06 0 01:59 19.05.2022
2042 Clouds 7 1012 70 10000 0.51 0 23:55 18.05.2022
2043 Clouds 7 1012 70 10000 1.03 0 22:47 18.05.2022
2044 Clear 7 1011 76 10000 2.57 360 21:50 18.05.2022
2045 Clear 7 1011 76 10000 2.57 360 21:29 18.05.2022
2046 Clear 8 1011 76 10000 0 0 20:41 18.05.2022
2047 Clear 8 1011 76 10000 0 0 20:18 18.05.2022
2048 Clouds 8 1012 71 10000 0 0 18:28 18.05.2022
2049 Clear 7 1012 70 10000 0 0 17:41 18.05.2022
2050 Clear 7 1012 70 10000 0 0 17:23 18.05.2022
2051 Clouds 6 1012 70 10000 0 0 16:31 18.05.2022
2052 Clouds 6 1012 70 10000 0 0 15:41 18.05.2022
2053 Clouds 6 1012 75 10000 0 0 14:35 18.05.2022
2054 Clouds 6 1011 70 10000 1.54 230 13:35 18.05.2022
2055 Clear 6 1011 75 10000 2.06 360 12:42 18.05.2022
2056 Clear 6 1011 75 10000 1.03 180 11:34 18.05.2022
2057 Clear 7 1011 70 10000 1.03 20 10:56 18.05.2022
2058 Clear 7 1011 70 10000 1.03 20 10:56 18.05.2022
2059 Clear 7 1012 65 10000 2.57 70 09:31 18.05.2022
2060 Clear 8 1012 61 10000 2.06 360 07:36 18.05.2022
2061 Clouds 8 1013 61 10000 2.57 360 05:56 18.05.2022
2062 Clear 8 1017 61 10000 2.06 0 01:20 18.05.2022
2063 Clear 6 1018 75 10000 3.09 20 00:22 18.05.2022
2064 Clouds 8 1021 66 10000 2.06 300 21:56 17.05.2022
2065 Clouds 8 1021 66 10000 2.06 300 21:20 17.05.2022
2066 Clouds 8 1022 66 10000 3.09 310 20:19 17.05.2022
2067 Clouds 8 1023 66 10000 1.54 0 19:28 17.05.2022
2068 Clouds 7 1024 76 10000 2.06 320 17:51 17.05.2022
2069 Clouds 6 1025 81 10000 3.6 360 16:59 17.05.2022
2070 Clouds 6 1025 81 10000 3.6 360 16:30 17.05.2022
2071 Clouds 5 1025 81 10000 1.03 120 15:32 17.05.2022
2072 Clouds 5 1026 87 10000 1.54 270 14:30 17.05.2022
2073 Clouds 4 1026 87 10000 3.6 60 13:35 17.05.2022
2074 Clouds 5 1027 87 10000 5.14 70 11:46 17.05.2022
2075 Clouds 5 1027 87 10000 5.14 90 09:35 17.05.2022
2076 Clouds 5 1027 87 10000 3.6 90 08:33 17.05.2022
2077 Rain 5 1027 87 10000 4.12 70 06:48 17.05.2022
2078 Rain 5 1025 87 10000 4.63 230 03:45 17.05.2022
2079 Drizzle 6 1023 87 8000 6.17 230 00:45 17.05.2022
2080 Clouds 7 1021 76 10000 5.14 130 22:44 16.05.2022
2081 Clouds 7 1021 81 10000 4.12 70 21:45 16.05.2022
2082 Clouds 9 1020 76 10000 3.6 70 20:47 16.05.2022
2083 Clouds 9 1018 66 10000 6.69 230 19:46 16.05.2022
2084 Clear 9 1018 61 10000 2.57 60 18:21 16.05.2022
2085 Clear 11 1016 43 10000 2.57 320 15:53 16.05.2022
2086 Clear 11 1015 43 10000 1.54 320 14:26 16.05.2022
2087 Clear 11 1015 35 10000 0 0 13:23 16.05.2022
2088 Clouds 4 1018 86 10000 4.93 358 11:25 16.05.2022
2089 Clear 8 1016 57 10000 2.06 140 09:47 16.05.2022
2090 Clear 9 1017 57 10000 2.06 270 06:58 16.05.2022
2091 Clear 11 1018 43 10000 0 0 03:58 16.05.2022
2092 Clouds 10 1019 50 10000 4.63 320 23:38 15.05.2022
2093 Clouds 10 1020 50 10000 5.66 290 22:32 15.05.2022
2094 Clouds 10 1020 53 10000 8.23 320 21:47 15.05.2022
2095 Clouds 9 1020 66 10000 1.54 0 20:57 15.05.2022
2096 Clouds 8 1021 66 10000 1.54 0 19:53 15.05.2022
2097 Clear 5 1022 87 10000 4.12 90 17:52 15.05.2022
2098 Clear 4 1023 93 10000 3.6 90 16:31 15.05.2022
2099 Clear 3 1024 75 10000 3.09 360 13:59 15.05.2022
2100 Clear 3 1024 70 10000 4.63 320 12:57 15.05.2022
2101 Clear 3 1024 70 10000 3.6 340 11:40 15.05.2022
2102 Clear 4 1024 87 10000 3.09 320 10:29 15.05.2022
2103 Clear 4 1023 81 10000 5.14 340 08:46 15.05.2022
2104 Clouds 6 1022 75 10000 6.17 250 06:58 15.05.2022
2105 Clouds 6 1022 75 10000 3.6 290 05:52 15.05.2022
2106 Clouds 7 1018 70 10000 4.63 270 00:57 15.05.2022
2107 Clouds 8 1016 71 10000 6.69 260 23:47 14.05.2022
2108 Clouds 8 1016 71 10000 6.69 260 23:29 14.05.2022
2109 Clouds 8 1015 71 10000 2.57 300 21:29 14.05.2022
2110 Clouds 8 1014 71 10000 5.66 240 20:53 14.05.2022
2111 Clouds 7 1013 76 10000 2.57 210 19:40 14.05.2022
2112 Clouds 7 1013 76 10000 2.57 210 19:20 14.05.2022
2113 Clouds 6 1012 87 10000 3.09 340 18:46 14.05.2022
2114 Clouds 4 1011 93 10000 1.54 80 16:56 14.05.2022
2115 Clouds 3 1011 87 10000 4.12 80 15:34 14.05.2022
2116 Clouds 3 1010 93 10000 2.57 350 14:34 14.05.2022
2117 Clear 4 1011 87 10000 3.09 340 12:49 14.05.2022
2118 Clear 4 1010 87 10000 2.57 290 11:37 14.05.2022
2119 Clouds 4 1010 93 10000 2.57 320 10:22 14.05.2022
2120 Clouds 6 1010 81 10000 3.6 290 09:54 14.05.2022
2121 Clouds 6 1009 75 10000 7.2 230 08:56 14.05.2022
2122 Clouds 5 1008 100 10000 2.57 320 06:52 14.05.2022
2123 Clouds 6 1007 93 10000 1.54 320 03:27 14.05.2022
2124 Clouds 7 1005 87 10000 3.6 250 23:45 13.05.2022
2125 Clouds 7 1005 87 10000 3.6 250 23:22 13.05.2022
2126 Clouds 6 1004 93 10000 4.63 250 22:51 13.05.2022
2127 Clouds 6 1004 93 10000 4.63 250 22:19 13.05.2022
2128 Clouds 7 1004 87 10000 3.09 230 20:49 13.05.2022
2129 Clouds 7 1004 87 10000 3.09 230 20:27 13.05.2022
2130 Clouds 7 1004 93 10000 2.57 230 19:34 13.05.2022
2131 Clouds 6 1004 100 10000 2.57 230 17:53 13.05.2022
2132 Clouds 6 1004 100 10000 2.57 230 17:29 13.05.2022
2133 Clouds 6 1004 93 10000 3.09 230 16:23 13.05.2022
2134 Clouds 5 1004 100 10000 3.09 230 15:39 13.05.2022
2135 Clouds 5 1004 100 10000 2.57 270 13:54 13.05.2022
2136 Clouds 5 1004 100 10000 0.51 360 12:32 13.05.2022
2137 Rain 6 1005 98 5312 0.62 39 11:23 13.05.2022
2138 Rain 6 1005 98 5312 0.62 39 11:23 13.05.2022
2139 Clouds 5 1005 100 10000 1.03 230 09:35 13.05.2022
2140 Clouds 5 1006 100 10000 0 0 08:49 13.05.2022
2141 Clouds 6 1006 93 10000 0 0 07:48 13.05.2022
2142 Clouds 6 1006 93 10000 1.03 90 06:34 13.05.2022
2143 Clouds 6 1008 93 10000 1.54 50 03:34 13.05.2022
2144 Clouds 6 1009 93 10000 2.57 70 00:39 13.05.2022
2145 Clouds 7 1009 93 10000 1.03 0 22:46 12.05.2022
2146 Clouds 7 1010 93 10000 2.06 360 21:58 12.05.2022
2147 Clouds 7 1010 93 10000 0.51 0 20:37 12.05.2022
2148 Clouds 6 1011 100 10000 1.54 70 19:18 12.05.2022
2149 Drizzle 6 1012 93 2500 1.03 70 17:27 12.05.2022
2150 Mist 6 1012 93 5000 2.06 20 16:23 12.05.2022
2151 Clouds 6 1011 87 8000 1.54 70 14:42 12.05.2022
2152 Clouds 6 1011 93 10000 4.12 110 13:47 12.05.2022
2153 Clouds 6 1010 87 10000 1.54 140 11:23 12.05.2022
2154 Drizzle 7 1009 70 10000 5.14 140 09:31 12.05.2022
2155 Clear 7 1009 70 10000 0 0 08:51 12.05.2022
2156 Clear 7 1008 76 10000 7.2 230 07:41 12.05.2022
2157 Clear 8 1007 71 10000 0 0 06:39 12.05.2022
2158 Clouds 9 1006 61 10000 2.57 270 02:59 12.05.2022
2159 Clouds 10 1006 57 10000 6.69 360 00:39 12.05.2022
2160 Clouds 10 1006 57 10000 7.2 360 22:39 11.05.2022
2161 Clouds 12 1006 50 10000 7.2 360 21:55 11.05.2022
2162 Clouds 12 1006 50 10000 7.2 360 21:24 11.05.2022
2163 Clouds 13 1007 50 10000 6.17 350 19:36 11.05.2022
2164 Clouds 12 1008 47 10000 8.23 360 16:59 11.05.2022
2165 Clouds 11 1008 54 10000 5.66 360 15:50 11.05.2022
2166 Clouds 11 1008 54 10000 0 360 14:39 11.05.2022
2167 Clouds 11 1008 54 10000 0 360 14:19 11.05.2022
2168 Clouds 11 1008 58 10000 8.75 340 11:55 11.05.2022
2169 Clouds 11 1008 58 10000 8.75 340 11:30 11.05.2022
2170 Clouds 11 1009 54 10000 11.32 360 08:55 11.05.2022
2171 Clouds 8 1010 66 10000 1.03 90 05:45 11.05.2022
2172 Clear 5 1012 75 10000 2.57 160 01:28 11.05.2022
2173 Clouds 7 1013 70 10000 2.57 360 22:32 10.05.2022
2174 Clouds 7 1013 70 10000 2.06 90 21:58 10.05.2022
2175 Clouds 8 1013 66 10000 2.06 50 20:59 10.05.2022
2176 Clouds 8 1013 66 10000 2.06 50 20:21 10.05.2022
2177 Clouds 7 1013 65 10000 2.06 90 18:35 10.05.2022
2178 Clouds 6 1013 75 10000 2.57 90 17:37 10.05.2022
2179 Clear 5 1013 65 10000 0 0 15:43 10.05.2022
2180 Clouds 5 1013 65 10000 2.06 320 12:48 10.05.2022
2181 Clouds 4 1012 87 10000 2.57 140 11:53 10.05.2022
2182 Clouds 4 1012 87 10000 2.57 140 11:21 10.05.2022
2183 Clouds 4 1012 70 10000 1.54 90 10:54 10.05.2022
2184 Clouds 3 1012 81 10000 1.03 180 09:27 10.05.2022
2185 Clouds 4 1012 70 10000 2.57 320 07:47 10.05.2022
2186 Clouds 6 1010 75 10000 5.14 230 04:35 10.05.2022
2187 Clouds 6 1007 75 10000 9.26 230 01:36 10.05.2022
2188 Clouds 6 1004 75 10000 9.77 230 23:37 09.05.2022
2189 Clouds 6 1003 81 10000 8.75 230 22:30 09.05.2022
2190 Clouds 6 1002 81 10000 9.77 230 21:25 09.05.2022
2191 Clouds 7 1000 81 10000 7.72 230 19:52 09.05.2022
2192 Clouds 7 998 70 10000 5.14 220 17:59 09.05.2022
2193 Clouds 7 998 70 10000 4.12 220 16:55 09.05.2022
2194 Clouds 7 998 70 10000 4.12 220 16:55 09.05.2022
2195 Clouds 6 997 70 10000 5.66 200 15:54 09.05.2022
2196 Clouds 6 997 70 10000 5.66 200 15:34 09.05.2022
2197 Clouds 7 996 61 10000 7.2 240 14:33 09.05.2022
2198 Clear 5 996 65 10000 2.57 10 13:51 09.05.2022
2199 Clear 6 996 61 10000 4.63 240 12:32 09.05.2022
2200 Clear 6 995 65 10000 3.09 230 11:43 09.05.2022
2201 Clear 6 994 75 10000 11.83 230 10:45 09.05.2022
2202 Clear 6 994 70 10000 9.26 230 09:59 09.05.2022
2203 Clouds 7 993 65 10000 10.29 230 07:56 09.05.2022
2204 Clouds 6 991 81 10000 7.2 200 04:33 09.05.2022
2205 Clouds 6 991 81 10000 7.2 200 04:33 09.05.2022
2206 Drizzle 7 989 65 10000 5.66 230 00:22 09.05.2022
2207 Clouds 6 988 75 10000 14.4 220 22:58 08.05.2022
2208 Clouds 6 988 75 10000 14.4 220 22:27 08.05.2022
2209 Clouds 7 986 53 10000 18.01 220 20:41 08.05.2022
2210 Clouds 7 986 53 10000 18.01 220 20:18 08.05.2022
2211 Drizzle 7 984 61 10000 18.52 210 19:27 08.05.2022
2212 Drizzle 7 984 61 10000 18.52 210 19:27 08.05.2022
2213 Drizzle 5 983 81 10000 15.95 220 18:25 08.05.2022
2214 Drizzle 5 982 87 10000 15.95 230 17:22 08.05.2022
2215 Clouds 5 980 75 10000 14.4 230 15:44 08.05.2022
2216 Clouds 5 980 75 10000 14.4 230 15:20 08.05.2022
2217 Drizzle 7 978 65 10000 13.38 230 12:45 08.05.2022
2218 Clouds 8 977 57 10000 4.12 270 10:56 08.05.2022
2219 Clouds 8 977 57 10000 4.12 270 10:22 08.05.2022
2220 Clouds 8 977 57 10000 2.06 270 09:51 08.05.2022
2221 Clouds 9 978 46 10000 3.09 270 07:41 08.05.2022
2222 Clear 9 980 43 10000 7.2 290 04:56 08.05.2022
2223 Clouds 9 979 46 10000 7.72 320 03:20 08.05.2022
2224 Clouds 10 979 50 10000 9.26 320 00:31 08.05.2022
2225 Clouds 10 979 46 10000 9.77 320 23:54 07.05.2022
2226 Clouds 10 978 53 10000 9.77 320 22:58 07.05.2022
2227 Clouds 10 978 53 10000 9.77 320 22:34 07.05.2022
2228 Clouds 12 978 47 10000 10.8 320 21:44 07.05.2022
2229 Clouds 12 977 50 10000 8.23 270 20:56 07.05.2022
2230 Clouds 13 976 47 10000 7.2 270 19:59 07.05.2022
2231 Clouds 13 976 47 10000 3.09 250 18:38 07.05.2022
2232 Clouds 7 975 87 10000 4.12 140 15:58 07.05.2022
2233 Clouds 6 975 87 10000 4.12 180 14:44 07.05.2022
2234 Drizzle 7 979 81 10000 3.6 360 11:19 07.05.2022
2235 Drizzle 6 985 75 10000 2.06 140 09:39 07.05.2022
2236 Clouds 6 987 81 10000 2.06 140 07:54 07.05.2022
2237 Drizzle 6 989 81 10000 3.6 140 06:44 07.05.2022
2238 Clouds 6 991 81 10000 2.57 140 05:34 07.05.2022
2239 Clouds 6 995 75 10000 3.09 180 03:32 07.05.2022
2240 Clouds 7 1000 53 10000 6.17 360 23:38 06.05.2022
2241 Clouds 6 1000 56 10000 4.63 320 22:33 06.05.2022
2242 Clouds 6 1001 61 10000 2.06 320 21:47 06.05.2022
2243 Clouds 6 1001 56 10000 2.06 360 20:37 06.05.2022
2244 Clouds 6 1002 61 10000 1.54 360 19:42 06.05.2022
2245 Clouds 6 1002 61 10000 1.54 360 19:19 06.05.2022
2246 Clouds 5 1003 65 10000 2.06 320 18:24 06.05.2022
2247 Clouds 4 1002 75 10000 4.12 340 16:57 06.05.2022
2248 Clouds 3 1002 75 10000 3.09 320 15:47 06.05.2022
2249 Clouds 3 1001 75 10000 5.66 250 14:54 06.05.2022
2250 Clouds 3 1001 75 10000 7.2 230 13:26 06.05.2022
2251 Clouds 3 1000 75 10000 3.09 290 12:40 06.05.2022
2252 Clouds 3 999 75 10000 3.6 250 11:45 06.05.2022
2253 Clouds 0 1001 86 10000 1.85 330 10:30 06.05.2022
2254 Clouds 1 1000 85 10000 1.99 320 09:46 06.05.2022
2255 Clouds 1 999 86 10000 1.88 288 08:33 06.05.2022
2256 Rain 3 995 82 10000 4.33 239 06:50 06.05.2022
2257 Rain 2 993 95 625 3.81 226 05:37 06.05.2022
2258 Rain 8 982 66 10000 18.01 230 02:50 06.05.2022
2259 Drizzle 8 983 66 10000 1.03 0 00:26 06.05.2022
2260 Clouds 9 985 57 10000 5.66 320 22:32 05.05.2022
2261 Clouds 9 985 49 10000 7.2 320 21:22 05.05.2022
2262 Clouds 9 986 53 10000 8.23 320 19:55 05.05.2022
2263 Clouds 9 987 53 10000 0 0 18:34 05.05.2022
2264 Clouds 8 988 61 10000 0 0 16:35 05.05.2022
2265 Clouds 4 989 75 10000 2.57 180 14:51 05.05.2022
2266 Clouds 4 990 75 10000 2.06 270 13:24 05.05.2022
2267 Clouds 5 990 75 10000 2.57 320 12:49 05.05.2022
2268 Clouds 5 989 70 10000 1.54 90 10:48 05.05.2022
2269 Clouds 6 988 52 10000 4.63 320 09:40 05.05.2022
2270 Clear 4 990 75 10000 1.03 50 07:35 05.05.2022
2271 Clouds 4 990 75 10000 1.54 90 05:19 05.05.2022
2272 Clear 4 989 70 10000 2.06 290 01:56 05.05.2022
2273 Clear 4 989 70 10000 2.06 290 01:27 05.05.2022
2274 Clouds 6 988 61 10000 1.54 230 23:52 04.05.2022
2275 Clouds 6 988 65 10000 1.54 250 22:42 04.05.2022
2276 Clouds 6 988 65 10000 4.12 230 21:50 04.05.2022
2277 Clouds 6 988 65 10000 4.12 230 21:29 04.05.2022
2278 Clouds 6 988 65 10000 5.14 230 20:27 04.05.2022
2279 Clouds 5 987 65 10000 6.17 230 19:53 04.05.2022
2280 Clouds 5 987 65 10000 6.17 230 19:18 04.05.2022
2281 Clouds 5 986 70 10000 9.77 230 18:22 04.05.2022
2282 Clouds 5 986 65 10000 9.26 230 17:51 04.05.2022
2283 Clouds 4 986 87 10000 4.63 230 15:42 04.05.2022
2284 Clouds 4 986 87 10000 4.63 230 15:23 04.05.2022
2285 Clouds 3 985 87 10000 8.23 230 14:21 04.05.2022
2286 Clouds 3 984 81 10000 4.63 230 13:49 04.05.2022
2287 Clouds 3 983 87 10000 4.63 230 12:33 04.05.2022
2288 Drizzle 4 983 81 10000 4.63 230 10:43 04.05.2022
2289 Clouds 1 984 91 10000 2.3 311 09:44 04.05.2022
2290 Rain 3 982 81 10000 10.8 230 08:48 04.05.2022
2291 Rain 4 980 75 10000 11.32 230 06:49 04.05.2022
2292 Clouds 4 979 81 10000 10.8 230 02:59 04.05.2022
2293 Clouds 5 979 70 10000 11.83 230 01:24 04.05.2022
2294 Drizzle 5 979 81 10000 12.35 230 22:50 03.05.2022
2295 Clouds 7 978 65 10000 11.83 250 21:47 03.05.2022
2296 Clouds 7 978 65 10000 11.83 250 21:20 03.05.2022
2297 Clouds 6 977 75 10000 9.26 230 20:31 03.05.2022
2298 Rain 6 976 75 10000 6.69 230 18:54 03.05.2022
2299 Rain 6 976 75 10000 6.69 230 18:34 03.05.2022
2300 Rain 6 976 65 10000 2.57 180 17:19 03.05.2022
2301 Clouds 4 977 81 10000 2.06 250 15:43 03.05.2022
2302 Rain 6 980 65 8000 6.17 360 13:32 03.05.2022
2303 Clouds 6 981 61 10000 5.66 20 12:30 03.05.2022
2304 Clouds 6 983 56 10000 7.72 340 11:23 03.05.2022
2305 Clouds 4 987 81 10000 4.12 320 09:58 03.05.2022
2306 Clear 3 991 81 10000 3.6 90 07:59 03.05.2022
2307 Clear 3 992 65 10000 1.54 180 06:45 03.05.2022
2308 Clouds 2 998 86 10000 2.79 336 01:53 03.05.2022
2309 Rain 5 996 75 8000 9.26 250 22:45 02.05.2022
2310 Rain 5 996 75 8000 9.26 250 22:25 02.05.2022
2311 Rain 5 995 81 10000 9.26 230 21:26 02.05.2022
2312 Clouds 10 994 46 10000 4.63 290 18:57 02.05.2022
2313 Clouds 10 994 46 10000 4.63 290 18:25 02.05.2022
2314 Clouds 9 994 49 10000 7.2 270 17:38 02.05.2022
2315 Clouds 9 995 49 10000 5.14 270 16:25 02.05.2022
2316 Clouds 8 995 53 10000 2.06 320 15:40 02.05.2022
2317 Clouds 8 997 53 10000 7.72 360 14:20 02.05.2022
2318 Clear 8 998 49 10000 0 0 12:52 02.05.2022
2319 Clear 6 1000 56 10000 7.72 360 11:24 02.05.2022
2320 Clear 5 1003 75 10000 1.54 140 09:32 02.05.2022
2321 Clear 4 1006 87 10000 2.57 70 07:57 02.05.2022
2322 Clear 4 1008 81 10000 0 0 05:59 02.05.2022
2323 Clouds 6 1010 75 10000 6.17 230 00:40 02.05.2022
2324 Clouds 6 1010 75 10000 6.17 230 00:21 02.05.2022
2325 Clouds 7 1010 70 10000 8.75 230 22:53 01.05.2022
2326 Clouds 7 1010 70 10000 9.26 230 21:41 01.05.2022
2327 Clouds 7 1009 81 10000 10.29 230 20:29 01.05.2022
2328 Clouds 8 1009 76 10000 9.26 230 19:20 01.05.2022
2329 Clouds 8 1008 71 10000 4.63 230 18:52 01.05.2022
2330 Clouds 9 1008 66 10000 2.57 230 17:47 01.05.2022
2331 Clouds 9 1007 66 10000 4.12 140 16:29 01.05.2022
2332 Clouds 8 1007 71 10000 4.63 180 15:45 01.05.2022
2333 Clouds 8 1007 71 10000 2.06 360 14:45 01.05.2022
2334 Clouds 8 1007 61 10000 8.23 360 12:24 01.05.2022
2335 Clouds 7 1008 70 10000 8.75 360 10:22 01.05.2022
2336 Clouds 7 1009 61 10000 10.29 320 08:49 01.05.2022
2337 Clouds 3 1012 91 10000 3.47 0 06:31 01.05.2022
2338 Clouds 4 1012 70 10000 2.06 300 01:56 01.05.2022
2339 Clear 6 1012 81 10000 0 0 22:18 30.04.2022
2340 Clear 5 1012 87 10000 1.54 20 21:32 30.04.2022
2341 Clear 5 1013 81 10000 2.06 50 19:53 30.04.2022
2342 Clear 4 1013 87 10000 2.06 50 18:53 30.04.2022
2343 Clear 4 1013 81 10000 2.57 360 17:26 30.04.2022
2344 Clear 1 1013 86 10000 2.57 340 15:51 30.04.2022
2345 Clear 1 1013 86 10000 2.57 340 15:18 30.04.2022
2346 Clear 1 1013 86 10000 0 0 13:52 30.04.2022
2347 Clear 1 1013 86 10000 3.09 340 11:41 30.04.2022
2348 Clear 2 1013 80 10000 3.6 340 10:56 30.04.2022
2349 Clear 2 1012 80 10000 1.03 340 09:57 30.04.2022
2350 Clear 3 1013 75 10000 2.06 320 07:47 30.04.2022
2351 Clouds 2 1015 93 10000 1.04 329 03:58 30.04.2022
2352 Clouds 6 1014 65 10000 7.2 250 23:55 29.04.2022
2353 Clouds 7 1014 70 10000 6.69 240 22:51 29.04.2022
2354 Clouds 7 1014 70 10000 8.23 230 21:56 29.04.2022
2355 Clouds 7 1014 70 10000 8.23 230 21:24 29.04.2022
2356 Clouds 7 1014 70 10000 8.23 240 20:18 29.04.2022
2357 Clouds 7 1014 70 10000 9.26 230 19:27 29.04.2022
2358 Clouds 6 1014 75 10000 12.35 230 17:34 29.04.2022
2359 Clouds 6 1014 70 10000 13.89 230 16:36 29.04.2022
2360 Clouds 6 1013 70 10000 14.4 230 14:36 29.04.2022
2361 Clouds 6 1014 70 10000 11.83 230 13:36 29.04.2022
2362 Clouds 6 1014 70 10000 12.86 230 12:36 29.04.2022
2363 Clouds 6 1013 75 10000 13.38 230 10:29 29.04.2022
2364 Clouds 6 1012 75 10000 12.35 230 07:52 29.04.2022
2365 Clouds 6 1012 75 10000 12.35 230 07:25 29.04.2022
2366 Rain 3 1014 98 44 1.45 265 06:30 29.04.2022
2367 Clouds 5 1009 87 10000 11.32 230 01:47 29.04.2022
2368 Clouds 5 1008 87 10000 14.4 230 23:55 28.04.2022
2369 Clouds 5 1008 87 10000 14.4 230 23:25 28.04.2022
2370 Clouds 6 1007 81 10000 15.43 220 22:24 28.04.2022
2371 Clouds 7 1005 70 10000 16.46 210 21:41 28.04.2022
2372 Clouds 7 1005 70 10000 15.95 220 20:45 28.04.2022
2373 Clouds 7 1005 70 10000 16.98 220 19:52 28.04.2022
2374 Clouds 7 1005 70 10000 16.98 220 19:24 28.04.2022
2375 Clouds 6 1005 75 10000 16.46 220 18:51 28.04.2022
2376 Clouds 5 1005 81 10000 14.4 230 17:53 28.04.2022
2377 Clouds 5 1005 75 10000 12.35 230 16:52 28.04.2022
2378 Clouds 5 1005 75 10000 12.35 230 16:20 28.04.2022
2379 Clouds 5 1005 65 10000 9.26 230 15:48 28.04.2022
2380 Clouds 4 1006 70 10000 9.26 230 14:58 28.04.2022
2381 Clouds 3 1006 70 10000 12.35 230 13:37 28.04.2022
2382 Clouds 3 1006 70 10000 15.43 230 12:29 28.04.2022
2383 Clouds 3 1006 65 10000 15.43 230 10:59 28.04.2022
2384 Clouds 3 1006 65 10000 15.43 230 10:26 28.04.2022
2385 Clouds 2 1007 69 10000 10.29 230 09:50 28.04.2022
2386 Clouds 1 1007 86 10000 10.8 230 07:41 28.04.2022
2387 Clouds 1 1006 80 10000 8.23 230 06:43 28.04.2022
2388 Snow 1 1006 75 10000 8.75 230 05:52 28.04.2022
2389 Clouds 1 1006 75 10000 9.26 230 04:42 28.04.2022
2390 Snow -1 1006 96 665 3.21 211 01:53 28.04.2022
2391 Clouds 2 1002 64 10000 9.26 190 23:25 27.04.2022
2392 Clouds 2 1003 69 10000 7.72 170 22:20 27.04.2022
2393 Clouds 3 1001 70 10000 10.8 180 21:43 27.04.2022
2394 Snow 3 1000 81 9000 4.63 160 20:45 27.04.2022
2395 Snow 2 1000 87 9000 5.14 180 19:55 27.04.2022
2396 Snow 2 1000 87 9000 5.14 180 19:34 27.04.2022
2397 Snow 3 999 81 8000 9.77 170 18:39 27.04.2022
2398 Snow 3 999 81 8000 9.77 170 17:55 27.04.2022
2399 Clouds 2 998 93 10000 4.12 180 15:57 27.04.2022
2400 Drizzle 3 997 87 10000 4.12 180 13:18 27.04.2022
2401 Drizzle 3 995 87 10000 8.23 230 11:25 27.04.2022
2402 Clouds 3 994 81 10000 9.26 230 10:45 27.04.2022
2403 Clouds 3 994 87 10000 9.26 230 08:22 27.04.2022
2404 Clouds 3 993 81 10000 8.23 230 06:41 27.04.2022
2405 Clouds 4 991 81 10000 5.14 140 02:31 27.04.2022
2406 Clouds 4 991 87 10000 5.14 110 01:21 27.04.2022
2407 Clouds 4 991 87 10000 5.66 110 00:27 27.04.2022
2408 Drizzle 5 990 75 6000 2.06 360 23:24 26.04.2022
2409 Drizzle 5 990 75 10000 2.06 230 22:45 26.04.2022
2410 Drizzle 5 990 75 10000 2.06 230 22:19 26.04.2022
2411 Rain 5 991 93 2875 1.66 180 21:19 26.04.2022
2412 Clouds 5 989 75 10000 2.57 230 20:37 26.04.2022
2413 Clouds 5 990 75 10000 2.57 230 19:45 26.04.2022
2414 Clouds 5 990 75 10000 2.57 230 19:26 26.04.2022
2415 Clouds 5 990 75 10000 1.54 230 18:39 26.04.2022
2416 Rain 5 991 96 1265 1.34 177 17:39 26.04.2022
2417 Clouds 3 989 87 10000 34 261 15:32 26.04.2022
2418 Clouds 3 988 81 28 2.06 360 13:40 26.04.2022
2419 Clouds 3 988 81 43 2.57 360 12:57 26.04.2022
2420 Clouds 3 988 81 10000 2.06 320 11:23 26.04.2022
2421 Clouds 4 988 65 10000 2.57 320 10:30 26.04.2022
2422 Clouds 4 988 70 10000 3.09 320 08:33 26.04.2022
2423 Clouds 5 987 70 10000 7.2 230 04:53 26.04.2022
2424 Clouds 5 987 70 10000 7.2 230 04:22 26.04.2022
2425 Clouds 5 986 81 10000 8.23 230 00:46 26.04.2022
2426 Clouds 6 985 70 10000 7.72 230 23:49 25.04.2022
2427 Clouds 6 984 75 10000 7.72 230 21:51 25.04.2022
2428 Clouds 6 984 75 10000 7.72 230 21:25 25.04.2022
2429 Clouds 6 984 75 10000 7.72 230 19:47 25.04.2022
2430 Clouds 5 983 87 10000 8.75 230 18:31 25.04.2022
2431 Clouds 5 983 87 10000 7.72 180 17:39 25.04.2022
2432 Clouds 4 984 77 10000 1.47 216 16:35 25.04.2022
2433 Rain 4 983 87 10000 4.63 270 15:21 25.04.2022
2434 Rain 3 983 87 10000 1.03 360 14:23 25.04.2022
2435 Clouds 0 982 93 10000 1.03 250 12:40 25.04.2022
2436 Clouds 2 982 87 10000 2.06 290 10:42 25.04.2022
2437 Clouds 2 982 87 10000 1.54 320 09:39 25.04.2022
2438 Clouds 2 982 80 10000 1.54 290 07:38 25.04.2022
2439 Clear 3 982 81 10000 2.57 290 05:54 25.04.2022
2440 Clear 4 981 70 10000 2.57 360 01:28 25.04.2022
2441 Clear 7 981 53 10000 3.6 50 23:54 24.04.2022
2442 Clear 7 981 53 10000 3.6 50 23:22 24.04.2022
2443 Clouds 7 981 65 10000 2.57 360 22:38 24.04.2022
2444 Clouds 7 982 61 10000 2.06 360 21:55 24.04.2022
2445 Clouds 7 982 61 10000 2.06 360 21:21 24.04.2022
2446 Clouds 7 981 70 10000 3.09 50 20:44 24.04.2022
2447 Clouds 7 982 61 10000 4.63 320 19:57 24.04.2022
2448 Clouds 6 982 65 10000 5.14 90 18:37 24.04.2022
2449 Clouds 6 982 70 10000 0 0 17:42 24.04.2022
2450 Clouds 6 982 70 10000 0 0 17:20 24.04.2022
2451 Clouds 4 983 87 10000 2.06 360 16:51 24.04.2022
2452 Clouds 4 983 87 10000 2.06 360 16:23 24.04.2022
2453 Clouds 3 983 81 10000 0 0 15:39 24.04.2022
2454 Clouds 3 982 81 10000 0 0 14:31 24.04.2022
2455 Clouds 4 982 81 10000 0 0 13:26 24.04.2022
2456 Clear 4 982 81 10000 3.6 360 12:46 24.04.2022
2457 Clear 4 982 75 10000 3.6 340 11:46 24.04.2022
2458 Clear 4 982 75 10000 6.69 360 10:37 24.04.2022
2459 Clouds 4 982 87 10000 4.12 360 09:42 24.04.2022
2460 Clouds 5 982 81 10000 6.69 20 07:41 24.04.2022
2461 Clouds 5 982 81 10000 4.63 20 05:38 24.04.2022
2462 Clouds 6 981 75 10000 5.66 360 01:51 24.04.2022
2463 Clouds 6 981 81 10000 4.63 360 00:45 24.04.2022
2464 Clouds 7 981 76 10000 3.6 10 23:46 23.04.2022
2465 Clouds 7 981 76 10000 3.6 10 23:25 23.04.2022
2466 Clouds 8 980 66 10000 1.54 180 21:56 23.04.2022
2467 Clouds 8 980 66 10000 1.54 180 21:36 23.04.2022
2468 Clouds 8 980 71 10000 4.12 10 20:59 23.04.2022
2469 Clouds 8 980 66 10000 4.12 20 19:55 23.04.2022
2470 Clouds 8 980 66 10000 4.12 20 19:20 23.04.2022
2471 Clouds 8 980 66 10000 4.63 30 18:53 23.04.2022
2472 Clouds 8 980 66 10000 4.63 30 18:31 23.04.2022
2473 Drizzle 7 980 70 10000 3.6 50 17:44 23.04.2022
2474 Clouds 7 980 70 10000 6.17 360 16:44 23.04.2022
2475 Clouds 6 980 75 10000 4.12 360 15:35 23.04.2022
2476 Clouds 5 979 87 10000 4.12 360 12:59 23.04.2022
2477 Clouds 6 979 75 10000 3.6 360 11:24 23.04.2022
2478 Clouds 6 979 75 10000 1.03 340 09:38 23.04.2022
2479 Clouds 6 980 75 10000 1.03 20 07:52 23.04.2022
2480 Clouds 6 982 75 10000 1.03 0 03:56 23.04.2022
2481 Clouds 7 984 61 10000 2.06 270 01:58 23.04.2022
2482 Clouds 8 985 66 10000 5.66 360 23:34 22.04.2022
2483 Clouds 10 985 46 10000 6.17 320 22:32 22.04.2022
2484 Clouds 10 986 50 10000 6.17 320 21:44 22.04.2022
2485 Clouds 10 986 50 10000 6.17 320 21:20 22.04.2022
2486 Clouds 8 986 66 10000 5.14 360 20:28 22.04.2022
2487 Clouds 7 987 70 10000 0 0 19:23 22.04.2022
2488 Clouds 7 988 70 10000 0 0 18:52 22.04.2022
2489 Clouds 7 988 70 10000 0 0 18:20 22.04.2022
2490 Clouds 5 990 87 10000 3.09 120 16:53 22.04.2022
2491 Clear 3 992 87 10000 1.03 360 15:56 22.04.2022
2492 Clear 3 992 87 10000 1.03 360 15:22 22.04.2022
2493 Clouds 3 992 87 10000 3.09 10 14:21 22.04.2022
2494 Clouds 3 992 87 10000 3.6 360 13:27 22.04.2022
2495 Clouds 4 993 81 10000 3.6 310 12:30 22.04.2022
2496 Clouds 5 994 75 10000 3.6 270 11:23 22.04.2022
2497 Clouds 5 994 75 10000 2.57 270 10:53 22.04.2022
2498 Clouds 5 994 75 10000 2.57 270 10:32 22.04.2022
2499 Clouds 5 995 75 10000 1.54 320 09:54 22.04.2022
2500 Clouds 2 996 90 10000 1.46 320 08:56 22.04.2022
2501 Clouds 2 997 91 10000 1.72 327 08:29 22.04.2022
2502 Clouds 5 996 81 10000 4.12 250 05:31 22.04.2022
2503 Drizzle 5 996 87 10000 9.26 230 00:53 22.04.2022
2504 Drizzle 6 995 81 10000 8.75 230 23:29 21.04.2022
2505 Drizzle 6 995 81 10000 8.23 230 22:34 21.04.2022
2506 Clouds 6 995 81 10000 8.75 230 21:23 21.04.2022
2507 Clouds 6 994 87 10000 9.77 230 20:27 21.04.2022
2508 Clouds 6 995 75 10000 7.2 230 18:49 21.04.2022
2509 Clouds 6 995 75 10000 7.2 230 18:19 21.04.2022
2510 Clouds 6 994 70 10000 6.17 250 16:56 21.04.2022
2511 Clouds 5 994 75 10000 4.63 250 15:24 21.04.2022
2512 Clouds 5 994 70 10000 8.23 230 14:51 21.04.2022
2513 Clouds 5 994 70 10000 4.12 270 13:56 21.04.2022
2514 Clouds 5 994 70 10000 4.12 270 13:20 21.04.2022
2515 Clouds 5 993 75 10000 5.66 270 11:37 21.04.2022
2516 Clouds 5 993 75 10000 11.32 230 09:23 21.04.2022
2517 Clouds 6 993 70 10000 11.32 230 08:29 21.04.2022
2518 Clouds 6 992 70 10000 11.83 230 06:26 21.04.2022
2519 Rain 7 990 81 10000 9.77 230 03:39 21.04.2022
2520 Rain 7 990 81 10000 9.77 230 03:18 21.04.2022
2521 Rain 8 990 71 10000 4.63 230 02:43 21.04.2022
2522 Clouds 8 988 71 10000 6.69 230 00:27 21.04.2022
2523 Clouds 9 988 71 10000 2.06 140 23:25 20.04.2022
2524 Clouds 9 987 71 10000 4.63 140 22:58 20.04.2022
2525 Clouds 9 987 71 10000 4.63 140 22:33 20.04.2022
2526 Clouds 10 987 62 10000 4.63 0 21:35 20.04.2022
2527 Clouds 10 987 57 10000 5.66 350 20:43 20.04.2022
2528 Clouds 10 987 57 10000 5.66 350 20:21 20.04.2022
2529 Clouds 9 988 61 10000 7.2 10 19:39 20.04.2022
2530 Clouds 9 988 61 10000 8.75 350 18:45 20.04.2022
2531 Clouds 8 989 61 10000 10.29 360 17:18 20.04.2022
2532 Clouds 5 990 70 10000 6.17 320 16:39 20.04.2022
2533 Clouds 4 991 87 10000 2.06 230 14:55 20.04.2022
2534 Clear 5 991 81 10000 2.06 50 12:18 20.04.2022
2535 Clouds 5 991 81 10000 0.51 70 11:40 20.04.2022
2536 Clouds 5 990 81 10000 3.09 140 10:39 20.04.2022
2537 Clouds 5 990 87 10000 3.09 140 09:28 20.04.2022
2538 Clouds 6 990 81 10000 2.06 110 08:27 20.04.2022
2539 Clouds 6 990 75 10000 1.03 90 07:44 20.04.2022
2540 Clouds 7 990 65 10000 1.54 290 05:29 20.04.2022
2541 Clouds 9 990 66 10000 4.12 270 01:35 20.04.2022
2542 Clouds 9 990 66 10000 4.63 270 00:21 20.04.2022
2543 Clouds 12 990 43 10000 1.54 270 22:44 19.04.2022
2544 Clouds 12 990 43 10000 1.54 270 22:23 19.04.2022
2545 Clouds 12 990 47 10000 4.12 360 21:46 19.04.2022
2546 Clouds 13 990 47 10000 1.54 250 20:57 19.04.2022
2547 Clouds 13 990 47 10000 1.54 250 20:37 19.04.2022
2548 Clouds 11 991 66 10000 0 0 19:32 19.04.2022
2549 Clouds 10 992 71 10000 0 0 18:27 19.04.2022
2550 Clouds 8 993 81 10000 2.57 360 16:50 19.04.2022
2551 Clouds 8 993 81 10000 2.57 360 16:25 19.04.2022
2552 Clouds 8 993 81 10000 1.54 270 15:57 19.04.2022
2553 Clouds 8 994 81 10000 3.09 230 14:44 19.04.2022
2554 Drizzle 8 994 76 10000 4.12 140 12:53 19.04.2022
2555 Drizzle 8 994 76 10000 4.12 140 12:31 19.04.2022
2556 Clouds 8 994 76 10000 2.06 360 11:27 19.04.2022
2557 Drizzle 8 996 71 10000 4.12 320 09:31 19.04.2022
2558 Clouds 9 998 53 10000 5.66 360 07:43 19.04.2022
2559 Clouds 9 998 53 10000 5.66 360 07:43 19.04.2022
2560 Clouds 8 999 66 10000 5.14 320 04:24 19.04.2022
2561 Clouds 9 1000 61 10000 6.17 360 01:41 19.04.2022
2562 Clouds 7 1001 81 10000 1.54 0 23:49 18.04.2022
2563 Clouds 7 1001 87 10000 2.57 100 22:46 18.04.2022
2564 Clouds 7 1001 81 10000 2.57 120 21:25 18.04.2022
2565 Clouds 8 1002 71 10000 2.06 70 20:39 18.04.2022
2566 Clouds 8 1002 71 10000 2.06 70 20:19 18.04.2022
2567 Clouds 7 1003 87 10000 2.06 30 19:33 18.04.2022
2568 Clouds 7 1003 81 10000 1.03 0 18:45 18.04.2022
2569 Clear 7 1002 81 10000 1.03 50 17:49 18.04.2022
2570 Clear 7 1002 81 10000 1.03 50 17:19 18.04.2022
2571 Clear 6 1002 81 10000 1.54 360 16:39 18.04.2022
2572 Clear 4 1002 81 10000 1.54 360 15:32 18.04.2022
2573 Clear 4 1002 87 10000 5.66 360 14:27 18.04.2022
2574 Clear 4 1002 87 10000 3.6 320 13:24 18.04.2022
2575 Clear 4 1002 87 10000 5.66 320 12:27 18.04.2022
2576 Clouds 5 1002 87 10000 2.57 320 10:58 18.04.2022
2577 Clouds 7 1002 76 10000 5.14 320 09:53 18.04.2022
2578 Clouds 7 1002 76 10000 5.14 320 09:27 18.04.2022
2579 Clouds 7 1001 70 10000 6.69 230 07:25 18.04.2022
2580 Rain 8 1000 93 10000 4.63 250 03:51 18.04.2022
2581 Drizzle 10 998 76 10000 7.72 230 23:30 17.04.2022
2582 Clouds 11 998 66 10000 0 0 22:37 17.04.2022
2583 Clouds 11 999 71 10000 3.09 230 21:34 17.04.2022
2584 Clouds 11 999 66 10000 0 0 20:53 17.04.2022
2585 Clouds 11 999 66 10000 0 0 20:25 17.04.2022
2586 Clear 11 1000 62 10000 0 0 19:20 17.04.2022
2587 Clouds 9 1003 71 10000 2.57 180 17:34 17.04.2022
2588 Clouds 9 1005 66 10000 9.26 360 15:37 17.04.2022
2589 Clouds 9 1007 66 10000 4.63 320 14:53 17.04.2022
2590 Clouds 10 1007 57 10000 7.72 360 13:41 17.04.2022
2591 Clouds 10 1008 57 10000 7.2 360 12:52 17.04.2022
2592 Clouds 9 1009 61 10000 9.77 360 11:22 17.04.2022
2593 Clouds 8 1011 71 10000 9.77 360 10:30 17.04.2022
2594 Clouds 8 1012 61 10000 3.09 270 09:57 17.04.2022
2595 Clouds 8 1012 61 10000 3.09 270 09:21 17.04.2022
2596 Clouds 6 1013 75 10000 2.06 140 08:41 17.04.2022
2597 Clear 4 1015 81 10000 3.09 270 06:32 17.04.2022
2598 Clear 4 1019 70 10000 3.6 320 02:56 17.04.2022
2599 Clear 5 1020 52 10000 2.57 320 00:43 17.04.2022
2600 Clouds 7 1020 61 10000 2.06 250 23:41 16.04.2022
2601 Clouds 7 1020 61 10000 4.63 230 21:54 16.04.2022
2602 Clouds 7 1020 61 10000 4.63 230 21:19 16.04.2022
2603 Clouds 7 1020 61 10000 6.17 230 19:30 16.04.2022
2604 Clouds 6 1020 65 10000 8.23 230 18:45 16.04.2022
2605 Clouds 6 1019 65 10000 7.72 230 17:21 16.04.2022
2606 Clouds 6 1019 65 10000 9.26 230 16:30 16.04.2022
2607 Clouds 5 1016 65 10000 7.72 230 14:59 16.04.2022
2608 Clouds 5 1016 65 10000 7.72 230 14:41 16.04.2022
2609 Clouds 5 1016 65 10000 10.29 200 13:50 16.04.2022
2610 Clouds 5 1016 65 10000 10.29 200 13:24 16.04.2022
2611 Clouds 6 1013 61 10000 14.92 200 11:58 16.04.2022
2612 Clouds 5 1012 70 10000 13.38 200 10:35 16.04.2022
2613 Clouds 6 1011 61 10000 13.89 230 09:38 16.04.2022
2614 Clouds 5 1010 70 10000 12.86 230 08:52 16.04.2022
2615 Clouds 5 1009 75 10000 13.38 230 07:23 16.04.2022
2616 Clouds 5 1008 70 10000 15.43 230 06:18 16.04.2022
2617 Rain 8 1001 76 10000 12.35 230 01:53 16.04.2022
2618 Clouds 9 998 71 10000 6.69 230 23:53 15.04.2022
2619 Clouds 9 997 61 10000 8.75 230 22:51 15.04.2022
2620 Clouds 9 997 61 10000 8.75 230 22:31 15.04.2022
2621 Clouds 10 997 71 10000 8.75 230 21:35 15.04.2022
2622 Clouds 8 997 76 10000 0 0 20:44 15.04.2022
2623 Clouds 10 997 77 10000 1.02 234 19:49 15.04.2022
2624 Clouds 10 997 77 10000 1.02 234 19:30 15.04.2022
2625 Clouds 7 997 87 10000 1.54 180 18:45 15.04.2022
2626 Clouds 7 997 87 10000 1.54 180 18:23 15.04.2022
2627 Clouds 6 998 93 10000 0 0 17:28 15.04.2022
2628 Clouds 6 997 81 10000 1.03 360 16:25 15.04.2022
2629 Clouds 6 997 81 10000 1.03 360 16:25 15.04.2022
2630 Clouds 5 998 81 10000 0 0 15:54 15.04.2022
2631 Clouds 5 997 81 10000 0 0 14:22 15.04.2022
2632 Clouds 5 998 81 10000 0 0 12:53 15.04.2022
2633 Clouds 5 998 81 10000 0 0 12:28 15.04.2022
2634 Clouds 5 998 81 10000 1.54 270 11:54 15.04.2022
2635 Clear 5 998 75 10000 1.54 50 10:49 15.04.2022
2636 Clear 5 998 75 10000 1.54 50 10:21 15.04.2022
2637 Clouds 5 998 81 10000 1.54 340 09:24 15.04.2022
2638 Clear 6 998 75 10000 2.57 270 08:57 15.04.2022
2639 Clear 7 999 61 10000 0 0 06:55 15.04.2022
2640 Clear 7 999 65 10000 2.06 320 05:56 15.04.2022
2641 Clouds 9 999 57 10000 5.14 230 01:33 15.04.2022
2642 Clouds 10 997 93 10000 7.72 230 23:30 14.04.2022
2643 Clouds 10 997 62 10000 7.72 230 22:46 14.04.2022
2644 Clouds 10 997 62 10000 7.72 230 22:27 14.04.2022
2645 Clouds 10 997 62 10000 7.72 230 22:27 14.04.2022
2646 Clouds 11 997 50 10000 7.72 230 21:53 14.04.2022
2647 Clouds 11 997 46 10000 5.66 230 19:57 14.04.2022
2648 Clouds 11 997 46 10000 5.66 230 19:22 14.04.2022
2649 Clear 10 997 50 10000 3.09 270 17:58 14.04.2022
2650 Clear 10 997 50 10000 3.09 270 17:27 14.04.2022
2651 Clear 7 998 61 10000 4.12 360 16:33 14.04.2022
2652 Clouds 6 998 70 10000 4.12 320 14:23 14.04.2022
2653 Clear 7 998 61 10000 3.6 320 13:31 14.04.2022
2654 Clear 6 998 70 10000 4.12 320 12:42 14.04.2022
2655 Clear 6 998 70 10000 4.12 320 12:22 14.04.2022
2656 Clear 8 997 57 10000 5.14 270 11:23 14.04.2022
2657 Clear 9 997 53 10000 5.14 250 10:36 14.04.2022
2658 Clear 9 996 61 10000 12.35 230 09:56 14.04.2022
2659 Clouds 9 996 61 10000 14.92 230 08:40 14.04.2022
2660 Clouds 9 996 66 10000 13.38 230 06:50 14.04.2022
2661 Clouds 12 992 58 10000 13.38 230 02:53 14.04.2022
2662 Clouds 14 990 67 10000 1.54 240 22:56 13.04.2022
2663 Clouds 13 991 67 10000 7.2 230 21:44 13.04.2022
2664 Clouds 14 991 62 10000 9.26 230 20:55 13.04.2022
2665 Clouds 14 991 62 10000 9.26 230 20:22 13.04.2022
2666 Clouds 13 992 58 10000 2.57 0 19:32 13.04.2022
2667 Clouds 10 993 57 10000 5.14 320 18:20 13.04.2022
2668 Clouds 9 993 66 10000 3.09 360 17:24 13.04.2022
2669 Clouds 7 994 70 10000 2.06 50 16:34 13.04.2022
2670 Clouds 5 996 81 10000 5.14 360 15:38 13.04.2022
2671 Clouds 5 997 75 10000 4.12 320 14:50 13.04.2022
2672 Clouds 5 997 75 10000 4.12 320 14:26 13.04.2022
2673 Clouds 6 997 75 10000 9.77 230 13:28 13.04.2022
2674 Clouds 6 997 70 10000 11.83 230 12:25 13.04.2022
2675 Clouds 6 997 70 10000 11.83 230 12:25 13.04.2022
2676 Clouds 5 996 75 10000 15.95 230 10:49 13.04.2022
2677 Clouds 5 997 70 10000 8.75 230 09:44 13.04.2022
2678 Clouds 4 997 81 10000 9.77 230 08:43 13.04.2022
2679 Drizzle 4 997 81 10000 10.29 230 06:52 13.04.2022
2680 Drizzle 4 997 81 10000 10.29 230 06:26 13.04.2022
2681 Drizzle 3 996 87 10000 8.75 230 05:36 13.04.2022
2682 Drizzle 5 992 75 10000 14.4 230 00:22 13.04.2022
2683 Drizzle 6 990 70 10000 16.46 230 23:45 12.04.2022
2684 Drizzle 6 990 75 10000 16.46 230 22:19 12.04.2022
2685 Drizzle 6 988 87 10000 13.89 230 21:29 12.04.2022
2686 Drizzle 6 986 87 10000 14.4 230 20:41 12.04.2022
2687 Drizzle 7 986 87 10000 10.8 230 19:50 12.04.2022
2688 Drizzle 7 986 87 10000 10.8 230 19:31 12.04.2022
2689 Drizzle 8 986 81 10000 7.72 230 18:31 12.04.2022
2690 Drizzle 9 985 66 10000 4.63 200 17:28 12.04.2022
2691 Drizzle 9 985 66 10000 4.63 200 17:28 12.04.2022
2692 Clouds 8 985 66 10000 4.63 230 16:22 12.04.2022
2693 Clouds 8 986 57 10000 3.6 230 15:33 12.04.2022
2694 Clouds 8 985 61 10000 2.57 0 14:29 12.04.2022
2695 Clouds 9 986 53 10000 5.14 320 13:37 12.04.2022
2696 Clouds 9 987 53 10000 9.26 320 12:52 12.04.2022
2697 Clouds 8 988 61 10000 8.75 340 11:47 12.04.2022
2698 Clear 7 990 65 10000 2.06 270 10:47 12.04.2022
2699 Clear 7 991 61 10000 1.03 320 09:21 12.04.2022
2700 Clear 6 994 70 10000 2.06 140 07:56 12.04.2022
2701 Clear 6 995 70 10000 3.6 200 06:24 12.04.2022
2702 Clear 5 997 75 10000 1.54 90 05:34 12.04.2022
2703 Clouds 6 1001 70 10000 6.69 230 00:46 12.04.2022
2704 Clouds 7 1001 70 10000 9.26 230 22:47 11.04.2022
2705 Clouds 7 1000 76 10000 9.77 230 21:41 11.04.2022
2706 Clouds 8 1000 71 10000 11.32 230 20:59 11.04.2022
2707 Clouds 8 1000 71 10000 11.32 230 20:29 11.04.2022
2708 Clouds 7 1001 89 7373 1.25 193 19:55 11.04.2022
2709 Clouds 7 1000 94 3957 1.43 201 19:18 11.04.2022
2710 Clouds 6 999 81 10000 9.26 230 18:47 11.04.2022
2711 Clouds 5 998 87 10000 8.75 230 17:57 11.04.2022
2712 Drizzle 5 998 93 10000 6.17 230 16:54 11.04.2022
2713 Drizzle 5 997 93 10000 3.09 180 15:58 11.04.2022
2714 Clouds 5 996 87 10000 1.54 270 14:33 11.04.2022
2715 Drizzle 5 995 87 10000 4.12 50 12:53 11.04.2022
2716 Drizzle 5 995 87 10000 4.12 50 12:35 11.04.2022
2717 Drizzle 5 995 81 10000 2.57 70 11:37 11.04.2022
2718 Clouds 5 996 87 10000 2.57 70 10:31 11.04.2022
2719 Clouds 5 996 81 10000 1.03 180 09:20 11.04.2022
2720 Clouds 5 998 87 10000 3.09 180 06:51 11.04.2022
2721 Clouds 6 1000 70 10000 1.54 360 02:30 11.04.2022
2722 Clouds 8 1002 61 10000 3.6 230 22:39 10.04.2022
2723 Clouds 8 1003 57 10000 1.03 180 21:55 10.04.2022
2724 Clouds 8 1003 57 10000 1.03 180 21:33 10.04.2022
2725 Clouds 7 1003 61 10000 3.09 230 20:31 10.04.2022
2726 Clouds 8 1004 57 10000 1.03 180 19:45 10.04.2022
2727 Clouds 8 1004 57 10000 1.03 180 19:23 10.04.2022
2728 Clouds 7 1005 57 10000 3.09 230 18:43 10.04.2022
2729 Clear 7 1005 61 10000 1.54 320 17:55 10.04.2022
2730 Clear 7 1005 61 10000 1.54 320 17:35 10.04.2022
2731 Clear 6 1005 61 10000 2.06 320 16:25 10.04.2022
2732 Clear 6 1006 65 10000 3.6 320 15:20 10.04.2022
2733 Clear 6 1005 65 10000 7.2 230 14:25 10.04.2022
2734 Clouds 6 1005 75 10000 8.23 230 12:35 10.04.2022
2735 Clouds 6 1005 75 10000 11.32 230 11:49 10.04.2022
2736 Clouds 6 1005 75 10000 11.32 230 11:29 10.04.2022
2737 Clouds 6 1004 75 10000 8.75 230 10:54 10.04.2022
2738 Clouds 6 1004 75 10000 8.75 230 10:54 10.04.2022
2739 Clouds 7 1004 76 10000 9.26 240 09:58 10.04.2022
2740 Clouds 7 1004 76 10000 9.26 240 09:37 10.04.2022
2741 Clouds 7 1004 81 10000 9.26 240 08:22 10.04.2022
2742 Clouds 8 1004 71 10000 9.77 250 07:27 10.04.2022
2743 Clouds 8 1003 71 10000 10.8 230 05:46 10.04.2022
2744 Clouds 9 1003 71 10000 8.75 230 02:21 10.04.2022
2745 Clouds 9 1003 66 10000 1.54 60 00:27 10.04.2022
2746 Clouds 10 1003 62 10000 0 0 23:48 09.04.2022
2747 Clouds 12 1003 58 10000 0 0 22:47 09.04.2022
2748 Clouds 12 1003 58 10000 0 0 21:35 09.04.2022
2749 Clouds 10 1004 57 10000 0 0 20:48 09.04.2022
2750 Clouds 10 1004 57 10000 0 0 20:25 09.04.2022
2751 Clouds 10 1004 57 10000 1.54 160 19:41 09.04.2022
2752 Clouds 9 1005 61 10000 1.54 140 18:55 09.04.2022
2753 Clouds 9 1005 61 10000 1.54 140 18:19 09.04.2022
2754 Clouds 8 1005 66 10000 0 0 17:39 09.04.2022
2755 Clouds 6 1006 70 10000 1.03 20 16:50 09.04.2022
2756 Clear 4 1006 70 10000 0 0 15:55 09.04.2022
2757 Clear 4 1006 70 10000 0 0 15:29 09.04.2022
2758 Clear 3 1006 81 10000 0 0 14:27 09.04.2022
2759 Clear 3 1007 87 10000 2.06 320 13:54 09.04.2022
2760 Clear 3 1007 87 10000 0.51 290 12:59 09.04.2022
2761 Clear 3 1007 87 10000 0.51 290 12:34 09.04.2022
2762 Clear 2 1007 87 10000 0.51 270 11:22 09.04.2022
2763 Clear 3 1007 75 10000 2.06 290 10:21 09.04.2022
2764 Clear 4 1007 87 10000 0.51 290 09:37 09.04.2022
2765 Clear 3 1008 93 10000 2.57 290 08:51 09.04.2022
2766 Clear 4 1009 87 10000 2.06 230 06:48 09.04.2022
2767 Clear 4 1010 81 10000 4.12 230 01:31 09.04.2022
2768 Clear 6 1010 75 10000 1.54 230 23:30 08.04.2022
2769 Clear 7 1011 65 10000 1.54 230 21:58 08.04.2022
2770 Clear 6 1012 75 10000 0 0 20:48 08.04.2022
2771 Clear 6 1012 75 10000 0 0 20:23 08.04.2022
2772 Clear 5 1012 87 10000 0 0 19:18 08.04.2022
2773 Clear 5 1013 81 10000 2.06 180 18:29 08.04.2022
2774 Clouds 4 1013 81 10000 0 0 17:46 08.04.2022
2775 Clouds 4 1013 81 10000 0 0 17:22 08.04.2022
2776 Clouds 2 1014 87 10000 2.06 230 16:47 08.04.2022
2777 Clouds 1 1014 93 10000 2.06 270 15:56 08.04.2022
2778 Clouds 1 1014 93 10000 2.06 270 15:25 08.04.2022
2779 Clouds 1 1014 93 10000 2.57 270 14:26 08.04.2022
2780 Clouds 1 1014 100 10000 2.06 270 13:45 08.04.2022
2781 Clouds 1 1014 100 10000 2.06 270 13:27 08.04.2022
2782 Clear 1 1014 93 10000 1.03 280 11:54 08.04.2022
2783 Clear 1 1015 93 10000 1.54 270 10:33 08.04.2022
2784 Clear 1 1015 86 10000 2.06 320 09:38 08.04.2022
2785 Clear 1 1015 93 10000 3.09 330 08:44 08.04.2022
2786 Clear 2 1016 87 10000 3.09 350 06:55 08.04.2022
2787 Clear 2 1016 87 10000 3.6 270 05:18 08.04.2022
2788 Clouds 4 1016 70 10000 5.14 230 01:27 08.04.2022
2789 Clouds 4 1016 70 10000 5.66 230 00:25 08.04.2022
2790 Clouds 4 1016 70 10000 5.66 230 00:25 08.04.2022
2791 Clouds 6 1015 65 10000 5.66 230 22:59 07.04.2022
2792 Clouds 6 1015 65 10000 5.66 230 22:39 07.04.2022
2793 Clouds 6 1015 65 10000 5.66 230 22:21 07.04.2022
2794 Clouds 6 1015 65 10000 4.63 230 21:51 07.04.2022
2795 Clouds 6 1015 65 10000 4.63 230 21:19 07.04.2022
2796 Clouds 6 1015 61 10000 4.12 230 20:31 07.04.2022
2797 Clouds 5 1015 65 10000 5.14 230 18:34 07.04.2022
2798 Clouds 5 1015 65 10000 5.14 230 18:34 07.04.2022
2799 Clouds 5 1016 70 10000 5.66 230 17:26 07.04.2022
2800 Clouds 4 1016 75 10000 4.63 230 16:44 07.04.2022
2801 Clouds 4 1016 75 10000 4.63 230 16:22 07.04.2022
2802 Clouds 4 1016 75 10000 4.63 230 16:22 07.04.2022
2803 Clouds 2 1016 80 10000 1.03 320 14:50 07.04.2022
2804 Clouds 2 1015 80 10000 2.57 320 13:43 07.04.2022
2805 Clear 2 1015 80 10000 1.54 270 12:50 07.04.2022
2806 Clouds 2 1015 80 10000 2.06 320 11:34 07.04.2022
2807 Clouds 3 1015 75 10000 3.09 280 09:37 07.04.2022
2808 Clouds 2 1015 87 10000 2.06 330 08:38 07.04.2022
2809 Clouds 4 1014 75 10000 7.2 250 06:43 07.04.2022
2810 Clouds 5 1013 52 10000 8.75 230 02:54 07.04.2022
2811 Clouds 5 1013 52 10000 8.75 230 02:25 07.04.2022
2812 Clouds 5 1012 70 10000 10.29 230 00:28 07.04.2022
2813 Clouds 6 1011 70 10000 12.35 230 22:52 06.04.2022
2814 Clouds 6 1011 70 10000 12.35 230 22:27 06.04.2022
2815 Clouds 6 1010 75 10000 15.43 230 21:45 06.04.2022
2816 Clouds 5 1009 81 10000 13.38 230 20:40 06.04.2022
2817 Clouds 5 1009 81 10000 12.35 230 19:54 06.04.2022
2818 Clouds 5 1009 81 10000 13.38 230 18:52 06.04.2022
2819 Clouds 5 1009 81 10000 13.38 230 18:33 06.04.2022
2820 Clouds 4 1008 93 10000 12.35 230 17:35 06.04.2022
2821 Clouds 5 1008 75 10000 12.35 230 16:39 06.04.2022
2822 Clouds 4 1008 81 10000 12.35 230 15:49 06.04.2022
2823 Clouds 4 1008 81 10000 12.35 230 15:21 06.04.2022
2824 Clouds 4 1008 81 10000 12.35 230 15:21 06.04.2022
2825 Clouds 2 1007 100 10000 11.32 230 13:28 06.04.2022
2826 Clouds 4 1006 75 10000 12.35 230 12:27 06.04.2022
2827 Clouds 3 1005 81 10000 9.26 230 10:52 06.04.2022
2828 Clouds 3 1005 81 10000 9.26 230 10:30 06.04.2022
2829 Clouds 4 1005 75 10000 9.26 230 09:42 06.04.2022
2830 Drizzle 3 1005 87 10000 10.8 230 08:36 06.04.2022
2831 Clouds 3 1004 81 10000 8.75 230 07:54 06.04.2022
2832 Clouds 3 1003 81 10000 11.32 230 04:31 06.04.2022
2833 Drizzle 4 999 75 10000 13.38 230 23:56 05.04.2022
2834 Drizzle 4 999 75 10000 13.38 230 23:22 05.04.2022
2835 Clouds 4 998 81 10000 11.83 230 21:29 05.04.2022
2836 Clouds 5 997 75 10000 13.38 230 20:44 05.04.2022
2837 Clouds 5 997 75 10000 13.38 230 20:19 05.04.2022
2838 Rain 4 996 87 8000 11.83 230 18:24 05.04.2022
2839 Snow 2 995 100 10000 7.72 230 16:55 05.04.2022
2840 Snow 2 995 100 10000 7.72 230 16:35 05.04.2022
2841 Snow 2 994 87 7000 7.72 230 15:43 05.04.2022
2842 Snow 2 994 87 7000 7.72 230 15:43 05.04.2022
2843 Snow 2 994 87 7000 7.72 230 15:24 05.04.2022
2844 Snow 2 992 93 6000 10.8 230 13:42 05.04.2022
2845 Snow 2 990 87 6000 8.75 240 11:51 05.04.2022
2846 Snow 2 990 87 6000 8.75 240 11:51 05.04.2022
2847 Snow 2 990 87 6000 8.75 240 11:33 05.04.2022
2848 Snow 2 989 87 4500 7.2 250 10:57 05.04.2022
2849 Snow 1 988 93 4500 6.17 250 09:29 05.04.2022
2850 Snow 2 987 80 6000 9.26 250 07:32 05.04.2022
2851 Clouds 3 984 70 10000 8.23 230 02:58 05.04.2022
2852 Clouds 4 984 75 10000 11.32 230 23:22 04.04.2022
2853 Clouds 4 984 81 10000 11.83 230 22:32 04.04.2022
2854 Clouds 4 984 81 10000 10.29 230 21:43 04.04.2022
2855 Clouds 4 984 81 10000 10.29 230 21:18 04.04.2022
2856 Clouds 5 984 65 10000 8.23 230 20:46 04.04.2022
2857 Rain 4 984 81 10000 12.86 230 19:27 04.04.2022
2858 Clouds 5 984 70 10000 9.77 230 18:39 04.04.2022
2859 Clouds 4 984 75 10000 7.72 230 17:19 04.04.2022
2860 Clouds 3 984 81 10000 8.23 230 16:28 04.04.2022
2861 Clouds 3 985 87 10000 7.2 230 15:33 04.04.2022
2862 Clouds 3 985 87 10000 7.72 230 14:46 04.04.2022
2863 Clouds 3 986 81 10000 5.14 250 13:59 04.04.2022
2864 Clouds 3 985 87 10000 7.2 230 12:58 04.04.2022
2865 Clouds 3 985 87 10000 7.2 230 11:29 04.04.2022
2866 Clouds 4 985 70 10000 6.69 230 09:53 04.04.2022
2867 Clouds 2 987 87 10000 1.03 320 05:34 04.04.2022
2868 Rain 3 988 93 10000 9.77 230 02:59 04.04.2022
2869 Clouds 4 987 87 10000 8.75 230 23:19 03.04.2022
2870 Rain 5 987 67 7604 3.72 293 22:00 03.04.2022
2871 Rain 4 986 81 10000 13.89 230 21:31 03.04.2022
2872 Clouds 6 986 75 10000 11.83 220 20:32 03.04.2022
2873 Clouds 7 985 70 10000 8.23 210 18:47 03.04.2022
2874 Rain 5 985 81 10000 11.32 230 17:56 03.04.2022
2875 Rain 5 985 81 10000 11.32 230 17:36 03.04.2022
2876 Clouds 6 985 81 10000 2.57 210 16:50 03.04.2022
2877 Clouds 5 984 81 10000 2.06 290 15:56 03.04.2022
2878 Clouds 4 985 93 10000 2.57 270 14:25 03.04.2022
2879 Rain 4 984 93 8000 11.83 220 13:28 03.04.2022
2880 Clouds 6 982 70 10000 4.63 290 11:50 03.04.2022
2881 Clouds 5 984 75 10000 1.54 140 09:57 03.04.2022
2882 Clouds 5 984 75 10000 1.54 140 09:18 03.04.2022
2883 Clouds 4 988 81 10000 2.06 180 06:28 03.04.2022
2884 Clouds 4 993 87 10000 2.57 270 02:55 03.04.2022
2885 Clouds 5 993 93 10000 1.54 230 23:50 02.04.2022
2886 Drizzle 5 993 93 10000 2.06 230 22:51 02.04.2022
2887 Drizzle 5 993 93 10000 2.06 180 21:56 02.04.2022
2888 Drizzle 5 993 93 10000 2.06 180 21:21 02.04.2022
2889 Drizzle 5 993 87 10000 1.03 180 20:36 02.04.2022
2890 Drizzle 4 994 93 10000 3.09 230 18:49 02.04.2022
2891 Drizzle 4 994 93 10000 3.09 230 18:20 02.04.2022
2892 Clouds 4 995 93 10000 3.09 200 17:23 02.04.2022
2893 Drizzle 4 994 81 10000 1.54 180 15:55 02.04.2022
2894 Drizzle 4 994 81 10000 1.54 180 15:20 02.04.2022
2895 Clouds 3 994 87 10000 1.54 50 14:31 02.04.2022
2896 Clouds 3 994 87 10000 2.57 360 13:34 02.04.2022
2897 Clouds 3 995 81 10000 1.54 70 12:32 02.04.2022
2898 Clear 2 995 100 10000 1.03 290 10:46 02.04.2022
2899 Clear 2 996 80 10000 0.51 270 08:33 02.04.2022
2900 Clouds 4 997 81 10000 1.54 320 05:58 02.04.2022
2901 Clouds 4 998 87 10000 3.6 340 03:28 02.04.2022
2902 Clouds 7 996 70 10000 8.75 230 23:55 01.04.2022
2903 Clouds 7 996 70 10000 9.77 220 22:51 01.04.2022
2904 Drizzle 7 995 70 10000 11.83 230 21:27 01.04.2022
2905 Clouds 7 996 81 10000 8.75 230 20:49 01.04.2022
2906 Clouds 7 996 87 10000 8.75 230 19:50 01.04.2022
2907 Clouds 7 996 87 10000 8.75 230 19:26 01.04.2022
2908 Clouds 7 996 93 10000 5.66 230 18:42 01.04.2022
2909 Clouds 7 996 87 10000 2.06 200 17:45 01.04.2022
2910 Drizzle 7 996 87 10000 1.03 50 16:33 01.04.2022
2911 Drizzle 6 997 93 10000 3.09 50 15:18 01.04.2022
2912 Drizzle 6 997 87 10000 2.06 360 14:18 01.04.2022
2913 Drizzle 6 998 100 10000 6.17 250 13:32 01.04.2022
2914 Clouds 6 998 87 10000 6.17 230 12:30 01.04.2022
2915 Drizzle 6 998 93 10000 6.17 250 11:18 01.04.2022
2916 Drizzle 6 998 93 10000 7.2 230 09:53 01.04.2022
2917 Drizzle 7 998 76 10000 11.83 200 07:50 01.04.2022
2918 Drizzle 8 997 81 10000 11.32 200 06:30 01.04.2022
2919 Clouds 10 997 57 10000 2.06 90 04:45 01.04.2022
2920 Clouds 10 998 57 10000 5.14 50 03:41 01.04.2022
2921 Clouds 11 998 54 10000 7.2 320 01:53 01.04.2022
2922 Clouds 12 1000 47 10000 6.17 290 22:56 31.03.2022
2923 Clouds 12 1000 54 10000 2.57 140 21:49 31.03.2022
2924 Clouds 12 1000 54 10000 2.57 140 21:22 31.03.2022
2925 Clouds 11 1001 58 10000 5.14 220 20:28 31.03.2022
2926 Clouds 10 1002 62 10000 5.14 220 19:46 31.03.2022
2927 Clouds 10 1003 62 10000 5.66 220 18:38 31.03.2022
2928 Clouds 10 1003 57 10000 6.17 230 17:32 31.03.2022
2929 Clouds 10 1003 57 10000 4.12 270 16:18 31.03.2022
2930 Clouds 8 1003 66 10000 11.83 220 15:33 31.03.2022
2931 Clouds 8 1003 71 10000 9.77 230 14:54 31.03.2022
2932 Clouds 8 1003 71 10000 9.77 230 14:20 31.03.2022
2933 Clouds 8 1001 71 10000 8.23 230 11:32 31.03.2022
2934 Clouds 9 1001 71 10000 9.77 230 10:41 31.03.2022
2935 Rain 8 1000 81 10000 11.83 230 09:44 31.03.2022
2936 Clouds 8 1000 76 10000 3.6 110 07:49 31.03.2022
2937 Clouds 8 1001 81 10000 3.6 140 04:42 31.03.2022
2938 Rain 9 1006 66 10000 1.54 140 23:34 30.03.2022
2939 Clouds 10 1007 57 10000 2.06 200 22:23 30.03.2022
2940 Clouds 10 1008 57 10000 2.06 180 21:33 30.03.2022
2941 Clouds 10 1009 53 10000 2.57 180 20:44 30.03.2022
2942 Clouds 10 1011 62 10000 2.06 180 19:59 30.03.2022
2943 Clouds 10 1011 57 10000 2.57 360 18:50 30.03.2022
2944 Clouds 9 1011 61 10000 2.06 320 17:52 30.03.2022
2945 Clouds 9 1011 61 10000 2.06 320 17:32 30.03.2022
2946 Clouds 8 1012 66 10000 5.14 320 16:51 30.03.2022
2947 Clouds 8 1012 66 10000 5.14 320 16:30 30.03.2022
2948 Clouds 6 1012 70 10000 6.69 270 14:55 30.03.2022
2949 Clouds 6 1012 70 10000 7.72 270 13:32 30.03.2022
2950 Clouds 6 1012 75 10000 9.26 250 12:36 30.03.2022
2951 Clouds 7 1012 70 10000 8.75 230 10:48 30.03.2022
2952 Clouds 7 1012 70 10000 12.86 230 09:58 30.03.2022
2953 Clouds 7 1012 70 10000 13.89 230 08:29 30.03.2022
2954 Clouds 6 1012 75 10000 12.86 230 07:29 30.03.2022
2955 Clouds 6 1012 81 10000 12.86 230 05:40 30.03.2022
2956 Clouds 7 1012 70 10000 14.92 220 03:20 30.03.2022
2957 Clouds 7 1011 70 10000 13.89 220 22:56 29.03.2022
2958 Clouds 7 1011 70 10000 13.89 220 22:18 29.03.2022
2959 Clouds 7 1010 70 10000 13.38 220 21:40 29.03.2022
2960 Clouds 7 1010 70 10000 12.35 230 20:39 29.03.2022
2961 Clouds 7 1010 70 10000 13.38 230 19:35 29.03.2022
2962 Clouds 6 1010 70 10000 12.86 230 18:54 29.03.2022
2963 Clouds 5 1010 87 10000 11.32 230 17:57 29.03.2022
2964 Clouds 5 1010 87 10000 11.32 230 17:20 29.03.2022
2965 Drizzle 5 1009 75 10000 10.8 230 16:54 29.03.2022
2966 Drizzle 5 1008 75 10000 11.83 230 15:44 29.03.2022
2967 Drizzle 4 1007 81 10000 10.8 230 14:43 29.03.2022
2968 Drizzle 4 1007 75 10000 8.75 230 13:36 29.03.2022
2969 Clouds 4 1006 81 10000 8.75 200 12:40 29.03.2022
2970 Clouds 4 1005 81 10000 9.77 230 11:24 29.03.2022
2971 Clouds 4 1004 81 10000 8.23 230 10:23 29.03.2022
2972 Clouds 4 1002 87 10000 9.77 140 08:52 29.03.2022
2973 Rain 5 997 87 10000 9.77 230 06:53 29.03.2022
2974 Clouds 7 993 61 10000 3.6 270 02:55 29.03.2022
2975 Clouds 8 991 61 10000 9.26 230 23:40 28.03.2022
2976 Clouds 9 990 61 10000 8.75 230 22:58 28.03.2022
2977 Clouds 9 990 61 10000 8.75 230 22:35 28.03.2022
2978 Clouds 9 989 61 10000 7.2 230 21:47 28.03.2022
2979 Clouds 9 989 61 10000 6.69 230 20:37 28.03.2022
2980 Clouds 9 989 66 10000 4.12 220 19:57 28.03.2022
2981 Clouds 9 989 66 10000 4.12 220 19:38 28.03.2022
2982 Clouds 8 988 76 10000 6.17 200 18:51 28.03.2022
2983 Clouds 7 988 81 10000 4.12 220 17:41 28.03.2022
2984 Clouds 7 988 81 10000 2.06 210 16:56 28.03.2022
2985 Clouds 5 988 87 10000 2.57 230 15:22 28.03.2022
2986 Clear 4 987 87 10000 0.51 320 14:24 28.03.2022
2987 Clear 4 986 81 10000 1.54 320 13:19 28.03.2022
2988 Clouds 5 986 81 10000 2.57 70 11:52 28.03.2022
2989 Clouds 6 986 70 10000 0.51 110 09:58 28.03.2022
2990 Clouds 6 986 70 10000 0.51 110 09:21 28.03.2022
2991 Clouds 6 986 70 10000 2.06 20 08:39 28.03.2022
2992 Clouds 6 986 70 10000 2.06 20 08:18 28.03.2022
2993 Clouds 6 986 75 10000 2.57 270 06:31 28.03.2022
2994 Clouds 8 985 66 10000 3.6 230 02:20 28.03.2022
2995 Clouds 11 983 50 10000 5.66 320 22:36 27.03.2022
2996 Clouds 11 983 50 10000 6.17 320 21:47 27.03.2022
2997 Clouds 11 983 50 10000 6.17 320 21:25 27.03.2022
2998 Clouds 10 984 50 10000 6.69 360 20:24 27.03.2022
2999 Clouds 10 984 66 10000 3.09 360 19:37 27.03.2022
3000 Clouds 7 985 93 10000 1.03 180 18:44 27.03.2022
3001 Clouds 7 985 93 10000 1.03 180 18:23 27.03.2022
3002 Clouds 7 985 93 10000 1.03 180 18:23 27.03.2022
3003 Clouds 7 985 87 10000 2.57 110 17:35 27.03.2022
3004 Clouds 6 986 87 10000 3.09 360 15:51 27.03.2022
3005 Clouds 5 987 87 10000 2.57 230 13:58 27.03.2022
3006 Clouds 5 987 87 10000 2.57 230 13:21 27.03.2022
3007 Clouds 5 987 87 10000 7.2 230 11:35 27.03.2022
3008 Drizzle 5 987 93 9000 6.17 230 09:37 27.03.2022
3009 Rain 5 987 93 8000 8.23 230 07:31 27.03.2022
3010 Rain 7 987 100 8000 6.17 220 03:45 27.03.2022
3011 Rain 7 987 100 10000 5.66 130 00:26 27.03.2022
3012 Rain 8 988 93 10000 6.17 150 22:52 26.03.2022
3013 Drizzle 9 988 87 10000 6.69 140 21:57 26.03.2022
3014 Drizzle 9 988 87 10000 6.69 140 21:30 26.03.2022
3015 Drizzle 10 989 81 10000 3.6 230 19:32 26.03.2022
3016 Drizzle 10 989 81 10000 3.6 230 19:32 26.03.2022
3017 Clouds 9 989 87 10000 6.17 230 18:44 26.03.2022
3018 Clouds 10 990 81 10000 4.12 230 17:36 26.03.2022
3019 Drizzle 10 990 81 10000 4.12 230 16:34 26.03.2022
3020 Clouds 10 990 81 10000 2.57 230 15:39 26.03.2022
3021 Clouds 10 991 76 10000 5.66 230 13:56 26.03.2022
3022 Clouds 10 991 76 10000 5.66 230 13:36 26.03.2022
3023 Clouds 15 991 47 10000 2.06 70 11:50 26.03.2022
3024 Clouds 15 991 51 10000 4.63 70 10:48 26.03.2022
3025 Clouds 16 991 44 10000 11.83 290 08:50 26.03.2022
3026 Clouds 14 992 51 10000 8.75 290 06:39 26.03.2022
3027 Clouds 12 994 66 10000 3.6 180 05:30 26.03.2022
3028 Rain 10 998 81 10000 3.09 160 01:47 26.03.2022
3029 Clouds 12 1000 66 10000 5.14 250 22:30 25.03.2022
3030 Clouds 15 1001 47 10000 7.2 320 20:58 25.03.2022
3031 Clouds 15 1001 47 10000 7.2 320 20:26 25.03.2022
3032 Clouds 15 1001 47 10000 8.75 310 19:19 25.03.2022
3033 Clouds 15 1002 47 10000 7.72 300 18:34 25.03.2022
3034 Clouds 14 1002 51 10000 6.17 310 17:29 25.03.2022
3035 Clouds 14 1002 47 10000 8.23 320 16:27 25.03.2022
3036 Clouds 13 1002 50 10000 8.75 300 15:33 25.03.2022
3037 Clouds 11 1003 54 10000 6.69 320 13:28 25.03.2022
3038 Clouds 11 1003 54 10000 6.69 320 10:50 25.03.2022
3039 Clouds 11 1004 54 10000 7.72 320 09:31 25.03.2022
3040 Clouds 11 1004 50 10000 7.72 290 08:49 25.03.2022
3041 Clouds 11 1004 50 10000 4.63 320 07:35 25.03.2022
3042 Clouds 11 1005 50 10000 6.69 320 06:29 25.03.2022
3043 Clouds 9 1008 61 10000 7.2 320 02:37 25.03.2022
3044 Clouds 10 1008 57 10000 7.2 230 22:56 24.03.2022
3045 Clouds 10 1007 57 10000 6.17 230 21:56 24.03.2022
3046 Clouds 10 1007 57 10000 7.72 230 20:51 24.03.2022
3047 Clouds 10 1006 62 10000 8.23 230 19:49 24.03.2022
3048 Clouds 9 1006 61 10000 8.23 230 18:34 24.03.2022
3049 Clouds 9 1005 66 10000 9.26 230 17:33 24.03.2022
3050 Clouds 9 1005 61 10000 11.32 230 16:24 24.03.2022
3051 Clouds 8 1003 71 10000 2.06 270 14:51 24.03.2022
3052 Clouds 8 1003 71 10000 2.06 270 14:21 24.03.2022
3053 Clouds 7 1002 76 10000 6.17 230 13:31 24.03.2022
3054 Rain 8 1001 61 10000 4.12 270 12:23 24.03.2022
3055 Clouds 9 999 53 10000 8.23 290 10:48 24.03.2022
3056 Clouds 8 998 61 10000 10.29 360 09:24 24.03.2022
3057 Clouds 8 999 57 10000 9.77 340 07:42 24.03.2022
3058 Clouds 8 1001 53 10000 6.17 320 04:52 24.03.2022
3059 Clouds 8 1004 53 10000 7.2 330 23:41 23.03.2022
3060 Clouds 8 1004 53 10000 7.2 340 22:18 23.03.2022
3061 Clouds 9 1005 49 10000 7.72 340 21:21 23.03.2022
3062 Clouds 9 1006 46 10000 4.63 320 19:51 23.03.2022
3063 Clouds 9 1006 46 10000 4.63 320 19:25 23.03.2022
3064 Clouds 11 1006 59 10000 2.81 353 17:47 23.03.2022
3065 Clouds 7 1007 61 10000 2.57 180 16:55 23.03.2022
3066 Clouds 7 1007 65 10000 1.54 180 15:21 23.03.2022
3067 Clouds 5 1007 75 10000 3.09 230 14:42 23.03.2022
3068 Clouds 4 1006 75 10000 4.63 230 13:30 23.03.2022
3069 Clouds 4 1003 75 10000 6.69 230 10:50 23.03.2022
3070 Clouds 4 1000 75 10000 7.72 230 08:21 23.03.2022
3071 Drizzle 5 996 87 10000 6.17 140 05:50 23.03.2022
3072 Clouds 7 988 70 10000 10.29 230 01:59 23.03.2022
3073 Clouds 7 986 70 10000 9.77 230 00:25 23.03.2022
3074 Clouds 7 986 70 10000 9.77 230 00:25 23.03.2022
3075 Clouds 9 981 66 10000 12.35 230 21:36 22.03.2022
3076 Clouds 10 980 62 10000 11.83 230 20:59 22.03.2022
3077 Clouds 10 980 62 10000 11.83 230 20:18 22.03.2022
3078 Clouds 10 980 66 10000 8.23 230 19:26 22.03.2022
3079 Clouds 10 980 71 10000 10.29 220 18:46 22.03.2022
3080 Clouds 10 979 76 10000 9.26 230 17:43 22.03.2022
3081 Clouds 12 979 62 10000 3.09 180 16:37 22.03.2022
3082 Clouds 12 978 66 10000 3.6 150 15:40 22.03.2022
3083 Clouds 12 978 66 10000 3.6 150 15:19 22.03.2022
3084 Clouds 12 978 58 10000 3.6 330 14:42 22.03.2022
3085 Clouds 12 979 54 10000 5.66 330 13:42 22.03.2022
3086 Clouds 11 981 62 10000 8.23 340 11:53 22.03.2022
3087 Drizzle 11 981 58 10000 8.75 320 10:54 22.03.2022
3088 Clouds 11 982 58 10000 9.77 340 09:21 22.03.2022
3089 Clouds 9 984 76 10000 2.57 110 07:30 22.03.2022
3090 Clouds 10 986 71 10000 2.06 230 03:57 22.03.2022
3091 Clouds 11 986 71 10000 4.63 230 00:50 22.03.2022
3092 Clouds 14 986 47 10000 9.26 320 22:48 21.03.2022
3093 Clouds 14 986 47 10000 9.77 320 21:30 21.03.2022
3094 Clouds 14 987 51 10000 8.75 320 20:43 21.03.2022
3095 Clouds 14 987 51 10000 8.75 320 20:23 21.03.2022
3096 Clouds 12 988 66 10000 4.12 320 19:45 21.03.2022
3097 Clouds 11 988 66 10000 3.6 140 18:48 21.03.2022
3098 Clouds 10 990 71 10000 6.17 180 17:36 21.03.2022
3099 Clouds 10 990 62 10000 2.06 90 16:59 21.03.2022
3100 Clouds 10 990 62 10000 2.06 90 16:33 21.03.2022
3101 Clouds 10 991 76 10000 2.06 90 15:43 21.03.2022
3102 Clouds 9 991 76 10000 2.57 320 14:36 21.03.2022
3103 Clouds 8 993 66 10000 1.03 50 13:20 21.03.2022
3104 Clouds 8 994 61 10000 1.54 230 11:58 21.03.2022
3105 Clouds 8 994 61 10000 1.54 230 11:28 21.03.2022
3106 Clear 8 995 81 10000 2.06 230 09:51 21.03.2022
3107 Clouds 8 996 87 10000 2.06 230 07:39 21.03.2022
3108 Clouds 8 997 87 10000 6.69 230 06:18 21.03.2022
3109 Clouds 10 999 76 10000 6.17 220 02:23 21.03.2022
3110 Clouds 16 1000 55 10000 1.03 0 22:57 20.03.2022
3111 Clouds 16 1000 55 10000 1.03 0 22:29 20.03.2022
3112 Clouds 14 1000 65 10000 1.79 257 21:40 20.03.2022
3113 Clouds 15 1000 57 10000 1.84 265 20:56 20.03.2022
3114 Clouds 15 1000 57 10000 1.84 265 20:36 20.03.2022
3115 Clouds 16 1000 54 10000 1.55 277 19:54 20.03.2022
3116 Clouds 15 1000 53 10000 1.82 312 19:24 20.03.2022
3117 Clouds 15 1001 55 10000 2.1 326 17:49 20.03.2022
3118 Clouds 13 1001 58 10000 2.58 350 17:27 20.03.2022
3119 Clouds 13 1001 58 10000 2.58 350 16:38 20.03.2022
3120 Clouds 10 1003 71 10000 2.87 355 14:50 20.03.2022
3121 Clouds 7 1004 84 10000 3.53 353 13:39 20.03.2022
3122 Clouds 4 1005 95 10000 4.07 359 12:20 20.03.2022
3123 Clouds 5 1006 93 10000 4.42 360 10:28 20.03.2022
3124 Clouds 5 1007 89 10000 4.67 0 08:26 20.03.2022
3125 Clouds 4 1008 88 10000 4.7 358 06:39 20.03.2022
3126 Clouds 4 1011 82 10000 4.82 357 03:25 20.03.2022
3127 Clouds 10 1011 50 10000 5.66 320 00:54 20.03.2022
3128 Clouds 10 1011 50 10000 5.66 320 00:54 20.03.2022
3129 Clouds 10 1011 50 10000 5.66 320 00:34 20.03.2022
3130 Clouds 10 1013 50 10000 6.17 320 22:42 19.03.2022
3131 Clouds 10 1015 53 10000 4.12 250 21:27 19.03.2022
3132 Clouds 10 1016 46 10000 3.09 150 19:42 19.03.2022
3133 Clouds 9 1017 53 10000 3.09 120 18:44 19.03.2022
3134 Clouds 8 1018 57 10000 3.6 80 17:55 19.03.2022
3135 Clouds 8 1018 57 10000 3.6 80 17:33 19.03.2022
3136 Clear 5 1020 75 10000 2.57 70 15:41 19.03.2022
3137 Clear 4 1021 87 10000 0.51 80 14:21 19.03.2022
3138 Clouds 2 1022 80 10000 1.03 300 12:56 19.03.2022
3139 Clouds 2 1022 80 10000 1.03 300 12:37 19.03.2022
3140 Clouds 1 1023 80 10000 1.54 320 11:47 19.03.2022
3141 Clear 1 1024 80 10000 1.03 270 09:55 19.03.2022
3142 Clouds 2 1024 69 10000 3.6 320 05:48 19.03.2022
3143 Clouds 4 1024 75 10000 4.12 250 02:37 19.03.2022
3144 Clouds 5 1024 60 10000 6.17 230 00:54 19.03.2022
3145 Clouds 5 1023 60 10000 7.2 230 23:22 18.03.2022
3146 Clouds 5 1023 60 10000 7.72 230 22:23 18.03.2022
3147 Clouds 5 1021 75 10000 8.75 230 20:48 18.03.2022
3148 Clouds 5 1020 75 10000 10.8 230 19:49 18.03.2022
3149 Clouds 5 1020 75 10000 10.8 230 19:19 18.03.2022
3150 Clouds 5 1019 65 10000 10.8 230 17:27 18.03.2022
3151 Clouds 4 1019 75 10000 10.8 230 16:45 18.03.2022
3152 Clouds 3 1017 75 10000 9.26 230 14:30 18.03.2022
3153 Clouds 2 1016 80 10000 7.72 230 13:41 18.03.2022
3154 Clouds 2 1015 75 10000 11.32 230 12:19 18.03.2022
3155 Clouds 2 1014 75 10000 7.72 250 10:38 18.03.2022
3156 Clouds 2 1014 80 10000 11.32 250 09:21 18.03.2022
3157 Clouds 2 1013 80 10000 4.12 250 07:45 18.03.2022
3158 Clouds 2 1011 87 10000 7.2 230 05:39 18.03.2022
3159 Snow 2 1010 87 7000 7.72 230 02:44 18.03.2022
3160 Snow 1 1009 93 8000 7.2 240 00:21 18.03.2022
3161 Clouds 2 1007 93 10000 11.32 230 22:56 17.03.2022
3162 Clouds 2 1007 93 10000 11.32 230 22:22 17.03.2022
3163 Clouds 4 1006 75 10000 11.32 240 21:47 17.03.2022
3164 Clouds 4 1006 75 10000 11.32 240 21:19 17.03.2022
3165 Clouds 4 1006 81 10000 9.26 230 20:32 17.03.2022
3166 Rain 4 1005 87 10000 8.23 230 19:41 17.03.2022
3167 Rain 4 1005 87 8000 12.86 230 18:57 17.03.2022
3168 Clouds 5 1005 75 10000 1.03 90 17:55 17.03.2022
3169 Clouds 4 1005 81 10000 3.09 230 16:43 17.03.2022
3170 Drizzle 3 1006 87 10000 4.63 230 15:44 17.03.2022
3171 Drizzle 3 1006 87 10000 4.63 230 15:22 17.03.2022
3172 Rain 3 1005 81 10000 4.63 230 13:49 17.03.2022
3173 Clouds 2 1005 100 10000 2.06 180 12:49 17.03.2022
3174 Clouds 2 1005 100 10000 2.06 180 12:21 17.03.2022
3175 Clouds 3 1004 75 10000 5.14 230 11:25 17.03.2022
3176 Clouds 3 1004 87 10000 5.66 230 09:48 17.03.2022
3177 Clouds 3 1003 81 10000 3.09 270 08:31 17.03.2022
3178 Clouds 3 1003 81 10000 3.6 140 07:32 17.03.2022
3179 Clouds 2 1002 80 10000 4.12 270 05:47 17.03.2022
3180 Rain 3 999 87 7000 7.2 250 00:45 17.03.2022
3181 Rain 4 996 81 7000 6.17 160 22:59 16.03.2022
3182 Rain 4 996 81 7000 6.17 160 22:40 16.03.2022
3183 Rain 4 996 81 7000 6.17 160 22:19 16.03.2022
3184 Drizzle 5 996 81 10000 2.06 140 21:34 16.03.2022
3185 Drizzle 4 994 81 10000 4.12 160 19:27 16.03.2022
3186 Drizzle 4 993 81 10000 4.63 140 18:58 16.03.2022
3187 Drizzle 4 993 81 10000 4.63 140 18:35 16.03.2022
3188 Drizzle 4 992 93 10000 4.12 140 17:41 16.03.2022
3189 Drizzle 5 992 81 10000 1.54 160 16:50 16.03.2022
3190 Rain 4 991 87 10000 0.51 0 15:53 16.03.2022
3191 Rain 4 991 87 10000 1.54 340 14:24 16.03.2022
3192 Rain 3 991 93 10000 3.09 320 13:24 16.03.2022
3193 Rain 3 989 75 6000 2.57 0 11:53 16.03.2022
3194 Drizzle 3 989 75 10000 6.17 140 11:20 16.03.2022
3195 Clouds 3 988 75 10000 6.17 110 10:18 16.03.2022
3196 Clouds 4 987 93 10000 7.72 140 08:38 16.03.2022
3197 Clouds 5 986 93 10000 2.57 90 04:35 16.03.2022
3198 Rain 6 985 93 10000 2.06 140 00:42 16.03.2022
3199 Drizzle 7 986 87 10000 4.12 140 22:37 15.03.2022
3200 Drizzle 8 987 87 10000 4.63 140 21:52 15.03.2022
3201 Rain 8 989 76 10000 1.54 140 19:53 15.03.2022
3202 Rain 7 990 87 10000 1.54 90 18:45 15.03.2022
3203 Rain 7 991 93 10000 1.03 180 16:53 15.03.2022
3204 Rain 7 991 93 10000 1.03 180 16:18 15.03.2022
3205 Rain 7 992 96 339 0.94 213 14:57 15.03.2022
3206 Rain 7 992 96 339 0.94 213 14:31 15.03.2022
3207 Rain 5 991 93 10000 1.54 180 13:27 15.03.2022
3208 Rain 4 990 100 8000 2.06 320 11:57 15.03.2022
3209 Rain 4 990 100 8000 2.06 320 11:19 15.03.2022
3210 Rain 4 991 100 6000 1.54 180 09:37 15.03.2022
3211 Rain 4 991 93 6000 2.57 180 08:32 15.03.2022
3212 Rain 5 992 93 6000 1.54 140 07:50 15.03.2022
3213 Rain 5 993 87 6000 3.6 140 06:51 15.03.2022
3214 Rain 5 997 87 10000 1.54 220 02:38 15.03.2022
3215 Clouds 6 999 75 10000 1.03 210 23:38 14.03.2022
3216 Clouds 6 999 75 10000 1.03 210 23:20 14.03.2022
3217 Clouds 6 1000 75 10000 9.26 230 21:59 14.03.2022
3218 Clouds 6 1000 75 10000 9.26 230 21:22 14.03.2022
3219 Clouds 6 1000 75 10000 11.32 230 20:35 14.03.2022
3220 Clouds 6 1000 87 10000 12.35 230 19:59 14.03.2022
3221 Clouds 5 1001 81 10000 11.83 230 18:31 14.03.2022
3222 Clouds 6 1001 75 10000 13.89 230 17:44 14.03.2022
3223 Clouds 6 1001 70 10000 12.35 230 16:57 14.03.2022
3224 Clouds 6 1001 70 10000 10.8 230 15:34 14.03.2022
3225 Clouds 4 1001 87 10000 8.75 230 14:33 14.03.2022
3226 Rain 2 1000 80 8000 8.23 230 11:53 14.03.2022
3227 Rain 4 1000 65 5000 7.2 230 10:35 14.03.2022
3228 Rain 3 999 70 5000 11.32 230 09:39 14.03.2022
3229 Rain 3 999 70 5000 11.32 230 09:20 14.03.2022
3230 Rain 3 998 75 5000 9.26 230 08:49 14.03.2022
3231 Rain 3 998 75 5000 7.72 230 07:21 14.03.2022
3232 Rain 4 996 75 5000 8.23 230 05:22 14.03.2022
3233 Rain 4 993 87 7000 5.14 230 01:52 14.03.2022
3234 Rain 4 994 93 3000 9.26 230 00:40 14.03.2022
3235 Clouds 7 991 65 10000 17.49 230 21:56 13.03.2022
3236 Clouds 7 991 65 10000 17.49 230 21:28 13.03.2022
3237 Clouds 7 992 70 10000 16.98 230 20:53 13.03.2022
3238 Clouds 7 992 70 10000 16.98 230 20:29 13.03.2022
3239 Drizzle 7 992 61 10000 14.92 230 19:48 13.03.2022
3240 Drizzle 7 992 61 10000 14.92 230 19:25 13.03.2022
3241 Rain 5 992 87 8000 16.46 230 18:50 13.03.2022
3242 Rain 5 992 87 8000 16.46 230 18:30 13.03.2022
3243 Rain 7 991 76 10000 11.32 230 17:40 13.03.2022
3244 Rain 6 990 81 10000 9.26 230 16:49 13.03.2022
3245 Rain 6 990 81 10000 9.26 230 16:27 13.03.2022
3246 Clouds 8 988 57 7000 14.4 230 15:44 13.03.2022
3247 Rain 7 989 85 6636 5.75 266 14:50 13.03.2022
3248 Rain 7 989 85 6636 5.75 266 14:50 13.03.2022
3249 Rain 9 989 87 6063 5.18 275 13:30 13.03.2022
3250 Rain 10 988 93 10000 4.17 321 12:37 13.03.2022
3251 Rain 6 988 89 10000 4.65 305 11:51 13.03.2022
3252 Rain 6 988 89 10000 4.65 305 11:30 13.03.2022
3253 Clouds 10 988 53 10000 8.23 290 10:46 13.03.2022
3254 Clouds 10 989 50 10000 8.23 320 09:53 13.03.2022
3255 Clouds 10 989 50 10000 8.23 320 09:29 13.03.2022
3256 Drizzle 10 990 50 10000 8.75 320 08:40 13.03.2022
3257 Drizzle 10 993 53 10000 6.17 320 07:37 13.03.2022
3258 Clouds 9 998 57 10000 8.23 360 05:39 13.03.2022
3259 Clouds 10 1004 57 10000 5.66 290 01:48 13.03.2022
3260 Clouds 10 1006 71 10000 0 0 23:31 12.03.2022
3261 Clouds 11 1008 58 10000 2.06 140 21:49 12.03.2022
3262 Clouds 11 1008 62 10000 1.54 90 20:29 12.03.2022
3263 Clouds 11 1009 58 10000 1.03 180 19:47 12.03.2022
3264 Clouds 10 1010 62 10000 2.57 140 18:47 12.03.2022
3265 Clouds 10 1010 62 10000 2.57 140 18:21 12.03.2022
3266 Clouds 10 1010 57 10000 2.57 140 17:23 12.03.2022
3267 Clouds 10 1010 50 10000 1.54 90 16:23 12.03.2022
3268 Clouds 9 1011 53 10000 2.57 320 15:22 12.03.2022
3269 Clouds 6 1012 61 10000 4.12 320 13:55 12.03.2022
3270 Clouds 4 1013 75 10000 3.6 340 12:35 12.03.2022
3271 Clouds 5 1013 70 10000 5.14 320 11:56 12.03.2022
3272 Clouds 5 1013 70 10000 5.14 320 11:34 12.03.2022
3273 Clouds 5 1013 70 10000 5.14 320 11:34 12.03.2022
3274 Clouds 6 1013 61 10000 4.63 290 10:43 12.03.2022
3275 Clouds 5 1014 75 10000 3.09 290 09:44 12.03.2022
3276 Clouds 5 1014 70 10000 3.6 320 08:41 12.03.2022
3277 Clear 6 1014 65 10000 5.66 270 06:44 12.03.2022
3278 Clear 8 1015 61 10000 6.69 240 01:44 12.03.2022
3279 Clouds 10 1014 57 10000 9.77 220 23:51 11.03.2022
3280 Clouds 10 1014 57 10000 10.29 220 22:45 11.03.2022
3281 Clouds 11 1014 54 10000 9.26 230 21:26 11.03.2022
3282 Clouds 11 1014 50 10000 9.26 230 20:51 11.03.2022
3283 Clouds 11 1014 50 10000 9.26 230 20:28 11.03.2022
3284 Clouds 11 1013 54 10000 9.77 230 19:36 11.03.2022
3285 Clouds 11 1013 54 10000 11.32 230 18:43 11.03.2022
3286 Clouds 10 1013 66 10000 8.23 230 17:26 11.03.2022
3287 Clouds 10 1013 66 10000 2.06 90 16:26 11.03.2022
3288 Clouds 9 1012 76 10000 7.2 230 15:52 11.03.2022
3289 Clouds 9 1012 76 10000 6.69 230 14:18 11.03.2022
3290 Drizzle 8 1011 93 10000 5.14 230 12:43 11.03.2022
3291 Drizzle 8 1011 93 10000 5.14 230 12:20 11.03.2022
3292 Drizzle 11 1010 76 10000 4.63 180 11:28 11.03.2022
3293 Clouds 12 1009 66 10000 4.12 270 09:36 11.03.2022
3294 Clouds 12 1008 66 10000 4.12 180 08:29 11.03.2022
3295 Clouds 12 1009 66 10000 2.57 140 07:48 11.03.2022
3296 Clouds 12 1009 62 10000 1.54 290 06:55 11.03.2022
3297 Clouds 12 1009 58 10000 7.72 360 04:44 11.03.2022
3298 Clouds 9 1013 76 10000 2.06 320 01:51 11.03.2022
3299 Clear 10 1014 62 10000 6.69 70 22:33 10.03.2022
3300 Clear 11 1015 50 10000 7.2 70 21:58 10.03.2022
3301 Clear 11 1015 50 10000 7.2 70 21:26 10.03.2022
3302 Clear 11 1016 43 10000 5.14 90 20:39 10.03.2022
3303 Clouds 11 1016 46 10000 3.09 90 19:22 10.03.2022
3304 Clouds 10 1017 53 10000 2.06 50 18:19 10.03.2022
3305 Clouds 9 1018 57 10000 5.14 230 16:53 10.03.2022
3306 Clouds 8 1018 66 10000 4.63 200 15:36 10.03.2022
3307 Clouds 8 1017 66 10000 4.12 230 14:19 10.03.2022
3308 Clouds 7 1016 70 10000 2.06 180 12:44 10.03.2022
3309 Clouds 7 1015 76 10000 6.69 230 11:37 10.03.2022
3310 Clouds 7 1014 81 10000 8.23 230 10:19 10.03.2022
3311 Clouds 8 1011 76 10000 12.35 230 08:40 10.03.2022
3312 Clouds 9 1008 76 10000 7.72 230 05:48 10.03.2022
3313 Clouds 8 1008 81 10000 2.57 80 03:33 10.03.2022
3314 Clouds 9 1006 71 10000 7.2 240 00:23 10.03.2022
3315 Clouds 11 1005 66 10000 7.72 220 22:43 09.03.2022
3316 Clouds 10 1004 66 10000 5.66 200 21:48 09.03.2022
3317 Clouds 11 1004 62 10000 2.06 180 20:53 09.03.2022
3318 Clouds 11 1003 58 10000 3.09 180 19:28 09.03.2022
3319 Clouds 9 1002 66 10000 7.2 230 17:57 09.03.2022
3320 Clouds 9 1002 66 10000 7.2 230 17:23 09.03.2022
3321 Clouds 8 1001 66 10000 7.72 230 15:42 09.03.2022
3322 Clouds 8 1000 71 10000 6.17 230 14:27 09.03.2022
3323 Clouds 7 1000 76 10000 7.72 250 13:50 09.03.2022
3324 Drizzle 7 999 76 10000 8.23 230 12:27 09.03.2022
3325 Drizzle 7 998 76 10000 9.26 230 11:48 09.03.2022
3326 Clouds 7 997 76 10000 9.77 230 10:59 09.03.2022
3327 Drizzle 6 995 87 8000 9.77 230 09:40 09.03.2022
3328 Drizzle 6 995 87 8000 10.29 250 08:45 09.03.2022
3329 Rain 6 994 87 7000 11.32 230 06:27 09.03.2022
3330 Rain 7 990 93 5000 12.86 230 01:53 09.03.2022
3331 Rain 8 989 93 4000 11.32 240 00:22 09.03.2022
3332 Rain 11 988 82 10000 6.69 80 22:46 08.03.2022
3333 Clouds 12 988 76 10000 6.17 60 21:51 08.03.2022
3334 Clouds 12 988 76 10000 6.17 60 21:21 08.03.2022
3335 Rain 12 987 76 10000 5.14 70 20:21 08.03.2022
3336 Clouds 13 988 67 10000 6.69 20 19:21 08.03.2022
3337 Clouds 14 998 54 10000 8.75 360 18:22 08.03.2022
3338 Clouds 14 988 62 10000 7.2 360 16:44 08.03.2022
3339 Clouds 13 989 67 10000 6.17 20 14:57 08.03.2022
3340 Clouds 12 989 62 10000 5.66 50 13:45 08.03.2022
3341 Clouds 12 990 50 10000 6.17 360 12:20 08.03.2022
3342 Clouds 11 991 71 10000 6.17 360 11:42 08.03.2022
3343 Clouds 11 991 71 10000 4.63 20 10:28 08.03.2022
3344 Drizzle 10 994 71 10000 6.17 20 08:57 08.03.2022
3345 Clouds 10 996 62 10000 4.63 360 06:30 08.03.2022
3346 Clouds 8 998 66 10000 7.72 340 02:37 08.03.2022
3347 Clouds 11 999 54 10000 2.57 180 22:43 07.03.2022
3348 Clouds 12 999 47 10000 2.57 160 21:44 07.03.2022
3349 Clouds 11 1000 54 10000 3.09 110 20:56 07.03.2022
3350 Clouds 11 1000 54 10000 3.09 110 20:33 07.03.2022
3351 Clouds 10 1000 62 10000 4.12 90 19:49 07.03.2022
3352 Clouds 10 1001 57 10000 3.6 90 18:57 07.03.2022
3353 Clouds 10 1001 57 10000 3.6 90 18:29 07.03.2022
3354 Clouds 9 1002 71 10000 2.57 90 17:31 07.03.2022
3355 Clouds 8 1002 76 10000 3.09 90 16:43 07.03.2022
3356 Clouds 6 1003 81 10000 0 0 14:51 07.03.2022
3357 Clouds 3 1003 81 10000 1.54 320 12:34 07.03.2022
3358 Clouds 3 1002 81 10000 1.54 270 11:34 07.03.2022
3359 Clouds 3 1002 87 10000 1.03 230 10:31 07.03.2022
3360 Clouds 4 1002 87 10000 2.06 320 08:34 07.03.2022
3361 Clouds 4 1002 87 10000 2.06 320 08:34 07.03.2022
3362 Clouds 5 1002 81 10000 4.12 230 02:25 07.03.2022
3363 Clouds 5 1001 87 10000 2.06 70 00:20 07.03.2022
3364 Clouds 5 1001 87 10000 2.06 70 00:20 07.03.2022
3365 Clouds 5 1001 87 10000 2.57 110 23:23 06.03.2022
3366 Drizzle 5 1001 87 10000 6.17 140 22:27 06.03.2022
3367 Clouds 6 1000 81 10000 2.57 140 21:37 06.03.2022
3368 Clouds 6 1000 81 10000 2.06 140 20:29 06.03.2022
3369 Clouds 6 1000 75 10000 0 0 19:39 06.03.2022
3370 Clouds 5 1001 81 10000 0 0 18:50 06.03.2022
3371 Drizzle 4 1001 93 8000 1.03 360 17:46 06.03.2022
3372 Drizzle 4 1001 93 8000 1.03 360 17:19 06.03.2022
3373 Drizzle 4 1001 93 8000 0 0 16:39 06.03.2022
3374 Rain 4 1000 93 5000 1.54 0 15:26 06.03.2022
3375 Rain 5 1000 81 5000 2.57 140 14:42 06.03.2022
3376 Rain 5 999 81 5000 3.09 140 13:49 06.03.2022
3377 Drizzle 6 999 81 10000 3.6 180 12:40 06.03.2022
3378 Clouds 6 998 81 10000 6.17 230 11:46 06.03.2022
3379 Drizzle 5 998 87 10000 8.75 230 10:40 06.03.2022
3380 Drizzle 5 997 81 10000 10.29 230 09:18 06.03.2022
3381 Drizzle 5 996 81 10000 10.29 230 08:28 06.03.2022
3382 Drizzle 6 997 70 10000 2.57 270 07:26 06.03.2022
3383 Clouds 6 996 75 10000 7.72 230 02:45 06.03.2022
3384 Drizzle 6 995 81 10000 11.32 230 00:36 06.03.2022
3385 Drizzle 6 995 81 10000 11.32 230 00:18 06.03.2022
3386 Drizzle 7 995 76 10000 10.29 230 23:19 05.03.2022
3387 Drizzle 7 994 81 10000 12.86 230 22:35 05.03.2022
3388 Clouds 9 994 61 10000 11.32 230 21:30 05.03.2022
3389 Clouds 9 993 61 10000 10.8 230 20:38 05.03.2022
3390 Clouds 9 993 61 10000 11.32 230 19:22 05.03.2022
3391 Clouds 9 992 61 10000 10.29 230 18:39 05.03.2022
3392 Clouds 9 992 61 10000 8.75 230 17:35 05.03.2022
3393 Clouds 8 992 66 10000 9.26 230 16:19 05.03.2022
3394 Clouds 8 991 66 10000 11.83 230 15:20 05.03.2022
3395 Clouds 8 991 66 10000 11.83 230 15:20 05.03.2022
3396 Clouds 7 991 70 10000 11.83 230 14:36 05.03.2022
3397 Clouds 7 991 70 10000 11.32 230 13:44 05.03.2022
3398 Clouds 7 990 76 10000 7.72 230 12:45 05.03.2022
3399 Drizzle 7 990 76 10000 9.26 230 11:21 05.03.2022
3400 Clouds 7 990 76 10000 8.75 230 10:53 05.03.2022
3401 Clouds 7 990 76 10000 9.77 230 09:37 05.03.2022
3402 Clouds 7 989 76 10000 8.75 230 08:31 05.03.2022
3403 Drizzle 7 989 81 10000 10.29 230 07:23 05.03.2022
3404 Drizzle 7 989 93 10000 9.26 230 05:39 05.03.2022
3405 Drizzle 8 986 87 10000 7.72 230 00:51 05.03.2022
3406 Drizzle 9 985 81 10000 8.23 230 23:21 04.03.2022
3407 Drizzle 9 984 81 10000 8.75 230 22:39 04.03.2022
3408 Clouds 10 984 71 10000 8.23 230 21:43 04.03.2022
3409 Clouds 10 983 71 10000 7.72 230 20:48 04.03.2022
3410 Clouds 12 983 58 10000 3.09 230 19:39 04.03.2022
3411 Clouds 12 983 58 10000 2.06 140 18:59 04.03.2022
3412 Clouds 12 983 58 10000 2.06 140 18:36 04.03.2022
3413 Clouds 11 984 58 10000 2.57 140 17:29 04.03.2022
3414 Clouds 11 984 62 10000 2.57 140 16:26 04.03.2022
3415 Clouds 11 984 62 10000 2.06 140 15:27 04.03.2022
3416 Clouds 11 984 62 10000 2.06 140 15:27 04.03.2022
3417 Clouds 8 984 76 10000 2.57 270 13:38 04.03.2022
3418 Clouds 7 985 70 10000 1.03 0 12:51 04.03.2022
3419 Clouds 7 984 70 10000 2.57 70 11:38 04.03.2022
3420 Clouds 7 984 70 10000 2.57 140 10:30 04.03.2022
3421 Clouds 8 985 71 10000 2.57 90 09:28 04.03.2022
3422 Clouds 8 985 71 10000 0 0 08:20 04.03.2022
3423 Clouds 8 986 71 10000 3.6 140 06:55 04.03.2022
3424 Clouds 9 987 66 10000 2.57 290 03:28 04.03.2022
3425 Clouds 11 987 66 10000 3.09 20 00:19 04.03.2022
3426 Clouds 12 986 66 10000 3.6 50 22:19 03.03.2022
3427 Clouds 14 986 54 10000 3.09 50 21:37 03.03.2022
3428 Clouds 12 986 66 10000 5.66 360 20:56 03.03.2022
3429 Clouds 11 987 82 10000 1.03 0 19:42 03.03.2022
3430 Clouds 11 987 76 10000 0.51 90 18:49 03.03.2022
3431 Clouds 11 988 76 10000 2.57 200 17:46 03.03.2022
3432 Clouds 11 988 76 10000 2.57 200 17:26 03.03.2022
3433 Clouds 9 989 81 10000 1.54 250 15:47 03.03.2022
3434 Clouds 8 989 87 8000 7.72 230 14:53 03.03.2022
3435 Clouds 8 989 87 8000 7.72 230 14:32 03.03.2022
3436 Rain 8 989 93 8000 1.54 290 12:52 03.03.2022
3437 Drizzle 9 988 93 10000 3.09 270 11:39 03.03.2022
3438 Drizzle 9 989 87 10000 2.57 90 10:40 03.03.2022
3439 Rain 8 992 97 2031 3.17 14 08:45 03.03.2022
3440 Drizzle 9 992 81 10000 2.06 290 07:25 03.03.2022
3441 Rain 10 992 71 10000 3.09 320 06:33 03.03.2022
3442 Clouds 10 994 71 10000 6.69 360 01:21 03.03.2022
3443 Clouds 12 994 50 10000 5.66 360 23:29 02.03.2022
3444 Clouds 12 995 54 10000 6.69 360 22:50 02.03.2022
3445 Clouds 12 995 54 10000 8.75 320 21:29 02.03.2022
3446 Clouds 12 996 50 10000 6.69 320 20:44 02.03.2022
3447 Clouds 12 996 50 10000 6.69 320 20:22 02.03.2022
3448 Clouds 12 997 50 10000 6.17 340 19:34 02.03.2022
3449 Clouds 11 998 62 10000 3.6 320 18:44 02.03.2022
3450 Clouds 12 998 58 10000 1.54 160 17:59 02.03.2022
3451 Clouds 12 998 58 10000 1.54 160 17:23 02.03.2022
3452 Clouds 9 999 81 10000 1.54 200 16:45 02.03.2022
3453 Clouds 8 1000 76 10000 2.06 360 14:44 02.03.2022
3454 Clouds 6 1000 87 10000 4.63 70 13:24 02.03.2022
3455 Clouds 5 1001 87 10000 3.09 360 12:42 02.03.2022
3456 Clouds 5 1001 87 10000 2.57 320 11:40 02.03.2022
3457 Clouds 5 1001 87 10000 2.57 320 11:22 02.03.2022
3458 Clouds 5 1001 81 10000 3.09 360 09:41 02.03.2022
3459 Clouds 5 1001 81 10000 3.6 270 08:54 02.03.2022
3460 Clouds 6 1000 75 10000 2.57 290 07:38 02.03.2022
3461 Clear 6 1000 81 10000 3.09 270 06:51 02.03.2022
3462 Clouds 9 995 71 10000 3.09 270 01:33 02.03.2022
3463 Clouds 10 992 66 10000 2.06 70 23:49 01.03.2022
3464 Clouds 10 990 50 10000 3.09 50 22:45 01.03.2022
3465 Clouds 9 988 76 10000 2.57 20 21:58 01.03.2022
3466 Clouds 9 988 76 10000 2.57 20 21:24 01.03.2022
3467 Clouds 8 987 81 10000 2.06 360 20:30 01.03.2022
3468 Clouds 8 987 81 10000 2.06 360 20:30 01.03.2022
3469 Clouds 8 986 76 10000 2.06 50 19:44 01.03.2022
3470 Drizzle 7 985 87 10000 2.06 360 18:50 01.03.2022
3471 Drizzle 7 985 87 10000 2.06 360 18:21 01.03.2022
3472 Drizzle 6 985 93 10000 2.57 50 17:30 01.03.2022
3473 Drizzle 6 983 93 10000 3.09 140 16:34 01.03.2022
3474 Drizzle 6 983 93 10000 3.09 140 15:41 01.03.2022
3475 Rain 6 982 87 10000 7.2 230 14:40 01.03.2022
3476 Rain 6 981 93 800 2.06 140 13:58 01.03.2022
3477 Rain 6 981 93 800 2.06 140 13:25 01.03.2022
3478 Drizzle 7 980 76 10000 0.51 220 12:33 01.03.2022
3479 Clouds 9 979 57 10000 9.77 320 10:37 01.03.2022
3480 Clouds 9 982 53 10000 8.75 360 08:45 01.03.2022
3481 Clouds 8 984 57 10000 8.75 360 07:54 01.03.2022
3482 Clouds 8 985 53 10000 10.29 360 06:26 01.03.2022
3483 Clouds 7 991 65 10000 4.63 70 02:44 01.03.2022
3484 Clouds 8 992 61 10000 1.54 180 00:39 01.03.2022
3485 Clouds 8 993 61 10000 4.12 230 23:33 28.02.2022
3486 Clouds 9 994 57 10000 5.14 230 22:24 28.02.2022
3487 Clouds 8 994 61 10000 9.77 230 21:41 28.02.2022
3488 Clouds 8 994 57 10000 11.32 230 20:28 28.02.2022
3489 Clouds 9 995 61 10000 10.8 230 19:41 28.02.2022
3490 Clouds 8 995 61 10000 7.72 230 18:49 28.02.2022
3491 Clouds 7 995 70 10000 9.26 230 17:33 28.02.2022
3492 Clouds 7 995 76 10000 9.77 230 16:54 28.02.2022
3493 Clouds 6 995 75 10000 8.23 230 15:58 28.02.2022
3494 Clouds 5 994 81 10000 11.32 230 14:32 28.02.2022
3495 Clouds 5 994 87 10000 7.72 250 13:48 28.02.2022
3496 Drizzle 5 993 87 10000 10.29 230 12:53 28.02.2022
3497 Clouds 5 992 81 10000 9.26 230 11:59 28.02.2022
3498 Clouds 5 992 81 10000 9.26 230 11:19 28.02.2022
3499 Clouds 6 991 75 10000 10.29 230 10:22 28.02.2022
3500 Clouds 6 990 81 10000 9.26 230 09:43 28.02.2022
3501 Clouds 6 989 81 10000 8.23 230 08:51 28.02.2022
3502 Clouds 6 988 81 10000 5.14 250 07:57 28.02.2022
3503 Clouds 5 987 87 10000 2.06 320 05:53 28.02.2022
3504 Clouds 6 986 87 10000 1.54 360 04:30 28.02.2022
3505 Clouds 7 984 70 10000 6.17 70 00:42 28.02.2022
3506 Clouds 7 983 81 10000 8.23 90 22:44 27.02.2022
3507 Clouds 7 983 81 10000 8.23 90 22:26 27.02.2022
3508 Clouds 8 982 76 10000 9.26 70 21:37 27.02.2022
3509 Clouds 8 982 76 10000 10.29 70 20:43 27.02.2022
3510 Clouds 8 982 76 10000 10.29 70 20:18 27.02.2022
3511 Clouds 8 983 76 10000 7.2 70 19:43 27.02.2022
3512 Clouds 8 983 76 10000 7.2 70 19:21 27.02.2022
3513 Drizzle 8 983 93 10000 2.57 90 18:24 27.02.2022
3514 Drizzle 8 984 81 10000 3.6 90 17:45 27.02.2022
3515 Clouds 8 984 76 10000 1.54 90 16:23 27.02.2022
3516 Clouds 6 985 93 10000 2.57 230 14:29 27.02.2022
3517 Clouds 6 986 81 10000 2.57 240 12:36 27.02.2022
3518 Drizzle 6 986 81 10000 7.2 230 11:51 27.02.2022
3519 Drizzle 6 985 87 10000 9.77 230 10:37 27.02.2022
3520 Clouds 7 985 81 10000 12.35 230 09:58 27.02.2022
3521 Clouds 7 985 81 10000 12.35 230 09:23 27.02.2022
3522 Clouds 9 985 61 10000 2.06 0 08:45 27.02.2022
3523 Clouds 9 985 61 10000 2.06 0 08:45 27.02.2022
3524 Clouds 10 987 50 10000 4.12 320 05:45 27.02.2022
3525 Clouds 11 988 43 10000 6.17 320 03:35 27.02.2022
3526 Clouds 13 989 47 10000 4.12 250 23:52 26.02.2022
3527 Clouds 14 989 44 10000 5.14 270 22:43 26.02.2022
3528 Clouds 15 990 41 10000 5.66 250 21:29 26.02.2022
3529 Clouds 14 990 47 10000 6.69 250 20:43 26.02.2022
3530 Clouds 15 991 41 10000 5.14 360 19:57 26.02.2022
3531 Clouds 15 991 41 10000 5.14 360 19:33 26.02.2022
3532 Clouds 13 991 50 10000 5.14 360 18:33 26.02.2022
3533 Clouds 12 992 54 10000 2.57 140 17:36 26.02.2022
3534 Clouds 11 993 62 10000 2.06 90 16:39 26.02.2022
3535 Clouds 11 993 71 10000 2.06 90 15:38 26.02.2022
3536 Clouds 11 993 71 10000 2.06 90 15:19 26.02.2022
3537 Clouds 10 993 76 10000 2.57 360 14:42 26.02.2022
3538 Clouds 8 994 87 10000 0 0 13:53 26.02.2022
3539 Clouds 6 994 87 10000 2.57 360 12:53 26.02.2022
3540 Clouds 6 995 87 10000 1.03 320 11:53 26.02.2022
3541 Clouds 6 995 87 10000 1.03 320 11:26 26.02.2022
3542 Clouds 6 995 87 10000 2.06 360 10:19 26.02.2022
3543 Clouds 7 995 81 10000 2.06 270 08:35 26.02.2022
3544 Clouds 8 995 81 10000 3.09 270 06:40 26.02.2022
3545 Clouds 10 993 71 10000 9.77 230 00:25 26.02.2022
3546 Clouds 12 993 62 10000 10.29 230 22:43 25.02.2022
3547 Clouds 14 993 54 10000 5.66 180 21:33 25.02.2022
3548 Clouds 14 993 58 10000 2.06 140 20:56 25.02.2022
3549 Clouds 14 993 58 10000 2.06 140 20:27 25.02.2022
3550 Drizzle 11 993 76 10000 9.26 230 18:18 25.02.2022
3551 Clouds 12 1002 76 10000 1.54 0 17:20 25.02.2022
3552 Clouds 11 994 82 10000 2.06 0 16:19 25.02.2022
3553 Clouds 10 995 93 6000 1.54 140 15:24 25.02.2022
3554 Clouds 10 995 93 6000 1.54 140 15:24 25.02.2022
3555 Mist 9 995 100 1500 2.06 140 14:56 25.02.2022
3556 Mist 9 995 100 1500 2.06 140 14:37 25.02.2022
3557 Mist 8 995 100 1500 2.57 70 13:30 25.02.2022
3558 Fog 8 995 100 300 1.03 360 12:42 25.02.2022
3559 Mist 9 995 93 500 1.54 230 11:23 25.02.2022
3560 Clouds 8 996 100 5000 2.57 230 10:25 25.02.2022
3561 Clouds 8 995 100 6000 1.03 270 09:52 25.02.2022
3562 Clouds 9 996 93 10000 1.54 20 08:44 25.02.2022
3563 Clouds 9 996 100 10000 1.54 70 07:36 25.02.2022
3564 Clouds 10 997 93 10000 1.54 270 05:45 25.02.2022
3565 Clouds 10 998 87 10000 4.63 90 02:49 25.02.2022
3566 Clouds 14 997 67 10000 9.77 230 22:56 24.02.2022
3567 Clouds 15 996 63 10000 10.8 240 21:54 24.02.2022
3568 Clouds 15 996 63 10000 10.8 240 21:31 24.02.2022
3569 Clouds 15 996 63 10000 9.77 230 20:57 24.02.2022
3570 Clouds 17 997 55 10000 6.17 230 19:38 24.02.2022
3571 Clouds 17 998 55 10000 2.06 90 18:37 24.02.2022
3572 Clouds 17 998 55 10000 2.06 90 18:18 24.02.2022
3573 Clouds 16 998 59 10000 2.06 90 17:33 24.02.2022
3574 Clouds 16 998 59 10000 2.06 90 17:33 24.02.2022
3575 Clouds 14 998 67 10000 2.06 70 16:29 24.02.2022
3576 Clouds 15 998 63 10000 3.6 70 15:47 24.02.2022
3577 Clouds 16 998 63 10000 2.06 20 14:53 24.02.2022
3578 Clouds 16 998 63 10000 2.06 20 14:24 24.02.2022
3579 Clouds 13 999 76 10000 2.57 290 13:39 24.02.2022
3580 Clouds 14 999 67 10000 8.23 360 12:33 24.02.2022
3581 Clouds 14 1000 67 10000 7.72 360 10:40 24.02.2022
3582 Clouds 13 1001 71 10000 2.06 320 08:58 24.02.2022
3583 Clouds 13 1001 71 10000 2.06 320 08:39 24.02.2022
3584 Clouds 12 1004 76 10000 1.03 270 05:52 24.02.2022
3585 Clear 14 1006 67 10000 1.54 20 01:56 24.02.2022
3586 Clear 16 1007 55 10000 4.12 70 22:38 23.02.2022
3587 Clear 16 1007 55 10000 4.12 70 22:38 23.02.2022
3588 Clear 15 1008 58 10000 3.09 70 21:37 23.02.2022
3589 Clear 15 1009 58 10000 0 0 20:31 23.02.2022
3590 Clouds 13 1010 62 10000 3.09 90 19:44 23.02.2022
3591 Clouds 12 1010 62 10000 3.09 70 18:32 23.02.2022
3592 Clouds 11 1011 66 10000 2.57 70 17:30 23.02.2022
3593 Clouds 8 1013 81 10000 2.57 70 14:42 23.02.2022
3594 Clouds 6 1014 93 10000 2.57 340 12:42 23.02.2022
3595 Clouds 5 1014 87 10000 2.57 320 11:34 23.02.2022
3596 Clouds 5 1014 87 10000 3.6 320 10:31 23.02.2022
3597 Clouds 6 1014 81 10000 3.09 320 08:59 23.02.2022
3598 Clouds 7 1014 70 10000 4.12 230 07:58 23.02.2022
3599 Clouds 9 1014 66 10000 6.17 250 03:49 23.02.2022
3600 Clouds 10 1013 66 10000 10.29 230 00:28 23.02.2022
3601 Clouds 11 1012 62 10000 10.8 230 23:36 22.02.2022
3602 Clouds 11 1013 58 10000 10.8 230 22:31 22.02.2022
3603 Clouds 12 1013 66 10000 10.29 230 21:49 22.02.2022
3604 Clouds 12 1013 66 10000 10.29 230 21:30 22.02.2022
3605 Clouds 11 1013 76 10000 11.32 240 20:55 22.02.2022
3606 Clouds 11 1013 76 10000 11.32 240 20:29 22.02.2022
3607 Clouds 12 1013 71 10000 10.29 230 19:42 22.02.2022
3608 Clouds 12 1013 71 10000 10.29 230 19:19 22.02.2022
3609 Clouds 11 1013 76 10000 10.29 230 17:48 22.02.2022
3610 Clouds 11 1013 76 10000 10.29 230 17:21 22.02.2022
3611 Clouds 11 1013 82 10000 10.29 230 16:37 22.02.2022
3612 Clouds 11 1013 82 10000 8.23 230 15:40 22.02.2022
3613 Rain 10 1014 87 10000 9.26 230 14:44 22.02.2022
3614 Clouds 10 1014 87 10000 8.23 230 12:31 22.02.2022
3615 Clouds 12 1014 71 10000 8.75 230 10:52 22.02.2022
3616 Drizzle 10 1015 93 10000 9.26 230 08:41 22.02.2022
3617 Clouds 10 1015 93 10000 9.26 230 07:26 22.02.2022
3618 Drizzle 11 1016 100 10000 10.8 230 04:59 22.02.2022
3619 Drizzle 13 1016 82 10000 11.32 230 01:45 22.02.2022
3620 Clouds 16 1017 59 10000 10.8 230 22:46 21.02.2022
3621 Clouds 16 1017 44 10000 9.77 230 21:33 21.02.2022
3622 Clouds 16 1018 41 10000 6.17 230 20:35 21.02.2022
3623 Clouds 16 1019 41 10000 6.69 230 18:46 21.02.2022
3624 Clear 15 1021 47 10000 2.57 230 16:58 21.02.2022
3625 Clear 13 1022 62 10000 2.06 160 15:20 21.02.2022
3626 Clear 11 1022 76 10000 1.54 180 14:21 21.02.2022
3627 Clear 11 1022 76 10000 1.54 180 14:21 21.02.2022
3628 Clear 9 1023 81 10000 0 0 13:22 21.02.2022
3629 Clear 7 1023 87 10000 0 0 12:23 21.02.2022
3630 Clear 6 1024 87 10000 1.54 320 11:19 21.02.2022
3631 Clear 7 1025 76 10000 3.09 230 09:34 21.02.2022
3632 Clear 7 1027 87 10000 2.57 90 05:35 21.02.2022
3633 Clear 12 1028 47 10000 4.12 230 23:44 20.02.2022
3634 Clear 13 1028 44 10000 2.57 230 22:25 20.02.2022
3635 Clouds 14 1029 44 10000 0 0 21:42 20.02.2022
3636 Clouds 12 1029 47 10000 1.54 90 20:53 20.02.2022
3637 Clouds 12 1029 47 10000 1.54 90 20:35 20.02.2022
3638 Clouds 12 1029 50 10000 0 0 19:32 20.02.2022
3639 Clouds 11 1030 50 10000 0 0 18:50 20.02.2022
3640 Clouds 11 1030 50 10000 0 0 18:31 20.02.2022
3641 Clouds 11 1030 50 10000 0 0 18:31 20.02.2022
3642 Clouds 9 1030 61 10000 0 0 17:48 20.02.2022
3643 Clouds 8 1031 66 10000 2.57 180 15:37 20.02.2022
3644 Clear 8 1031 71 10000 0 0 14:42 20.02.2022
3645 Clear 7 1030 76 10000 0 0 13:23 20.02.2022
3646 Clear 4 1030 81 10000 2.57 320 12:28 20.02.2022
3647 Clouds 4 1029 81 10000 1.54 360 10:38 20.02.2022
3648 Clouds 4 1029 81 10000 1.54 360 10:19 20.02.2022
3649 Clouds 4 1029 93 10000 2.06 270 08:50 20.02.2022
3650 Clouds 7 1026 65 10000 5.14 140 00:54 20.02.2022
3651 Clouds 7 1026 65 10000 5.14 140 00:54 20.02.2022
3652 Clouds 7 1026 65 10000 5.14 140 00:29 20.02.2022
3653 Clouds 8 1025 61 10000 4.12 140 22:47 19.02.2022
3654 Clouds 8 1025 61 10000 4.12 140 22:22 19.02.2022
3655 Clouds 9 1024 49 10000 2.06 140 20:51 19.02.2022
3656 Clouds 9 1024 49 10000 2.57 180 19:53 19.02.2022
3657 Clouds 9 1024 49 10000 2.57 180 19:28 19.02.2022
3658 Clouds 9 1023 49 10000 1.54 180 18:33 19.02.2022
3659 Clouds 9 1023 46 10000 3.6 180 17:35 19.02.2022
3660 Clouds 8 1022 49 10000 5.66 230 16:22 19.02.2022
3661 Clouds 7 1021 49 10000 3.09 140 14:56 19.02.2022
3662 Clouds 7 1021 49 10000 3.09 140 14:37 19.02.2022
3663 Clouds 4 1021 73 10000 1.05 214 13:22 19.02.2022
3664 Clouds 5 1019 56 10000 5.66 270 11:37 19.02.2022
3665 Clouds 5 1018 56 10000 2.57 270 09:45 19.02.2022
3666 Clouds 5 1015 52 10000 4.12 230 06:54 19.02.2022
3667 Clouds 5 1013 70 10000 6.17 230 03:38 19.02.2022
3668 Clouds 8 1008 61 10000 11.83 230 23:29 18.02.2022
3669 Clouds 9 1006 53 10000 9.77 230 21:49 18.02.2022
3670 Clouds 9 1005 53 10000 10.29 230 20:42 18.02.2022
3671 Clouds 9 1004 61 10000 10.29 230 19:53 18.02.2022
3672 Clouds 9 1004 61 10000 10.29 230 18:50 18.02.2022
3673 Clouds 9 1004 61 10000 10.29 230 18:20 18.02.2022
3674 Clouds 8 1004 71 10000 9.26 230 17:38 18.02.2022
3675 Clouds 7 1003 81 10000 7.2 230 14:50 18.02.2022
3676 Clouds 7 1003 81 10000 7.2 230 14:50 18.02.2022
3677 Clouds 7 1002 87 10000 7.2 230 13:55 18.02.2022
3678 Clouds 7 1002 87 10000 6.17 230 12:53 18.02.2022
3679 Clouds 7 1002 87 10000 6.17 230 12:32 18.02.2022
3680 Clouds 8 1002 81 10000 5.14 200 11:22 18.02.2022
3681 Clouds 9 1001 76 10000 2.57 0 09:52 18.02.2022
3682 Clouds 10 1000 71 10000 8.75 230 06:54 18.02.2022
3683 Clouds 10 1000 76 10000 7.72 230 05:39 18.02.2022
3684 Clouds 12 996 62 10000 11.83 230 23:24 17.02.2022
3685 Clouds 12 995 62 10000 12.86 230 21:44 17.02.2022
3686 Clouds 12 995 62 10000 12.86 230 21:19 17.02.2022
3687 Clouds 14 995 54 10000 12.86 230 20:36 17.02.2022
3688 Clouds 14 994 58 10000 12.35 230 19:48 17.02.2022
3689 Clouds 14 993 58 10000 14.4 230 18:41 17.02.2022
3690 Clouds 14 994 58 10000 12.35 230 17:50 17.02.2022
3691 Clouds 14 993 58 10000 12.35 230 16:25 17.02.2022
3692 Clouds 14 993 58 10000 12.86 230 15:30 17.02.2022
3693 Drizzle 13 992 71 10000 10.29 230 14:25 17.02.2022
3694 Drizzle 14 990 67 10000 8.23 230 12:35 17.02.2022
3695 Clouds 14 989 62 10000 9.26 230 11:21 17.02.2022
3696 Clouds 11 990 71 10000 1.54 140 08:45 17.02.2022
3697 Clouds 12 995 54 10000 2.57 0 00:31 17.02.2022
3698 Clouds 12 996 50 10000 6.69 320 23:19 16.02.2022
3699 Clouds 12 996 43 10000 8.75 290 21:31 16.02.2022
3700 Clouds 10 998 50 10000 8.23 320 19:46 16.02.2022
3701 Clouds 10 1000 50 10000 7.72 320 18:38 16.02.2022
3702 Clouds 10 1000 46 10000 5.14 290 17:53 16.02.2022
3703 Clouds 8 1002 49 10000 3.09 340 15:38 16.02.2022
3704 Clouds 7 1002 65 10000 0 0 14:59 16.02.2022
3705 Clouds 4 1003 81 10000 3.09 340 12:35 16.02.2022
3706 Clouds 3 1002 87 10000 3.09 320 11:58 16.02.2022
3707 Clouds 3 1002 87 10000 3.09 320 11:24 16.02.2022
3708 Clouds 3 1002 81 10000 2.57 320 10:33 16.02.2022
3709 Clouds 4 1000 81 10000 5.14 230 07:21 16.02.2022
3710 Drizzle 4 998 81 10000 9.77 230 05:20 16.02.2022
3711 Rain 7 992 81 10000 16.46 230 23:44 15.02.2022
3712 Rain 9 991 57 10000 14.92 230 22:28 15.02.2022
3713 Clouds 10 990 53 10000 5.14 180 21:46 15.02.2022
3714 Clouds 10 990 53 10000 5.14 180 21:27 15.02.2022
3715 Clouds 9 990 61 10000 7.2 230 20:56 15.02.2022
3716 Clouds 8 990 71 10000 10.29 230 19:57 15.02.2022
3717 Clouds 7 991 70 10000 7.2 230 18:56 15.02.2022
3718 Clouds 7 991 70 10000 7.2 230 18:21 15.02.2022
3719 Clouds 6 990 75 10000 7.72 230 17:49 15.02.2022
3720 Rain 5 990 81 8000 11.32 230 16:38 15.02.2022
3721 Clouds 6 990 70 10000 10.29 230 15:26 15.02.2022
3722 Rain 6 988 75 10000 13.38 230 13:27 15.02.2022
3723 Clouds 6 987 75 10000 6.69 230 11:58 15.02.2022
3724 Clouds 6 987 75 10000 6.69 230 11:27 15.02.2022
3725 Clouds 6 987 70 10000 3.6 230 09:31 15.02.2022
3726 Clouds 7 988 70 10000 4.63 230 06:52 15.02.2022
3727 Drizzle 8 988 71 10000 9.26 230 04:54 15.02.2022
3728 Clouds 11 989 50 10000 7.72 320 23:33 14.02.2022
3729 Clouds 12 990 43 10000 7.72 360 21:36 14.02.2022
3730 Clouds 12 992 40 10000 8.23 340 20:40 14.02.2022
3731 Clouds 11 993 40 10000 9.26 320 19:36 14.02.2022
3732 Clouds 11 994 40 10000 6.69 320 18:44 14.02.2022
3733 Clouds 11 994 40 10000 6.69 320 18:22 14.02.2022
3734 Clouds 10 995 46 10000 7.2 320 17:26 14.02.2022
3735 Clouds 10 997 46 10000 4.12 320 16:24 14.02.2022
3736 Clouds 8 998 76 10000 8.75 360 14:31 14.02.2022
3737 Clouds 4 999 93 10000 6.17 360 13:33 14.02.2022
3738 Clouds 4 1001 100 10000 4.12 320 12:52 14.02.2022
3739 Clouds 4 1002 100 10000 2.06 90 11:54 14.02.2022
3740 Clouds 4 1003 93 10000 1.54 180 10:56 14.02.2022
3741 Clouds 4 1004 87 10000 4.12 340 08:45 14.02.2022
3742 Clouds 4 1005 81 10000 3.09 320 07:32 14.02.2022
3743 Clouds 5 1005 75 10000 9.26 230 05:56 14.02.2022
3744 Rain 4 1002 87 5000 12.35 230 22:43 13.02.2022
3745 Rain 4 1002 87 8000 14.4 230 22:25 13.02.2022
3746 Rain 5 998 81 10000 16.98 230 21:32 13.02.2022
3747 Rain 5 998 81 8000 11.83 230 20:40 13.02.2022
3748 Rain 4 998 91 3521 14.34 225 19:51 13.02.2022
3749 Rain 8 988 76 5000 21.61 230 18:54 13.02.2022
3750 Rain 8 988 76 5000 21.61 230 18:35 13.02.2022
3751 Clouds 14 982 41 10000 11.83 230 16:38 13.02.2022
3752 Clouds 13 981 44 10000 13.89 230 15:27 13.02.2022
3753 Clouds 12 980 50 10000 13.89 230 14:37 13.02.2022
3754 Clouds 13 981 62 10000 9.26 230 12:52 13.02.2022
3755 Clouds 13 981 62 10000 9.26 230 12:18 13.02.2022
3756 Clouds 9 984 61 10000 4.63 360 10:38 13.02.2022
3757 Clouds 8 986 66 10000 6.17 360 09:49 13.02.2022
3758 Clouds 7 991 70 10000 3.09 270 07:52 13.02.2022
3759 Clouds 9 1005 53 10000 10.8 230 00:49 13.02.2022
3760 Clouds 9 1005 53 10000 10.8 230 00:20 13.02.2022
3761 Clouds 9 1004 53 10000 16.46 230 22:34 12.02.2022
3762 Clouds 9 1004 53 10000 19.03 230 21:40 12.02.2022
3763 Clouds 9 1004 53 10000 16.98 230 20:52 12.02.2022
3764 Clouds 8 1002 61 10000 19.03 230 19:49 12.02.2022
3765 Clouds 9 1000 61 10000 19.55 230 18:53 12.02.2022
3766 Clouds 9 1000 61 10000 19.55 230 18:35 12.02.2022
3767 Clouds 9 1000 61 10000 18.01 230 17:38 12.02.2022
3768 Drizzle 8 1001 61 10000 18.01 230 16:44 12.02.2022
3769 Clouds 9 1000 57 10000 18.01 230 15:52 12.02.2022
3770 Clouds 9 1000 57 10000 18.01 230 15:20 12.02.2022
3771 Clouds 9 999 61 10000 18.01 230 14:25 12.02.2022
3772 Clouds 8 994 71 10000 21.61 230 11:26 12.02.2022
3773 Clouds 9 993 76 10000 22.12 230 10:29 12.02.2022
3774 Clouds 10 991 66 10000 20.06 230 09:36 12.02.2022
3775 Clouds 11 990 62 10000 23.15 200 08:46 12.02.2022
3776 Clouds 12 988 58 10000 21.61 230 06:52 12.02.2022
3777 Clouds 11 991 93 10000 5.66 290 04:44 12.02.2022
3778 Rain 10 993 100 6000 3.09 140 02:19 12.02.2022
3779 Drizzle 13 997 67 8000 2.57 230 23:20 11.02.2022
3780 Drizzle 14 999 58 10000 4.63 230 22:21 11.02.2022
3781 Clouds 14 1001 67 10000 5.66 230 21:32 11.02.2022
3782 Clouds 13 1002 67 10000 9.26 230 20:26 11.02.2022
3783 Clouds 13 1003 67 10000 11.83 230 19:28 11.02.2022
3784 Clouds 12 1003 66 10000 13.38 230 18:29 11.02.2022
3785 Clouds 13 1004 62 10000 9.26 250 17:27 11.02.2022
3786 Clouds 12 1006 58 10000 4.63 340 16:39 11.02.2022
3787 Clouds 10 1006 57 10000 4.12 340 15:19 11.02.2022
3788 Clouds 9 1006 66 10000 4.63 340 14:37 11.02.2022
3789 Clouds 9 1006 66 10000 4.63 340 14:19 11.02.2022
3790 Clouds 8 1007 71 10000 5.14 340 13:40 11.02.2022
3791 Clouds 8 1007 71 10000 5.14 340 13:21 11.02.2022
3792 Clouds 6 1009 70 10000 5.14 290 10:55 11.02.2022
3793 Clouds 7 1009 57 10000 8.23 230 09:32 11.02.2022
3794 Clouds 7 1009 61 10000 11.32 230 08:31 11.02.2022
3795 Clouds 7 1009 70 10000 12.35 230 07:40 11.02.2022
3796 Clouds 7 1009 76 10000 12.86 230 06:22 11.02.2022
3797 Clouds 8 1008 76 10000 12.86 230 02:21 11.02.2022
3798 Drizzle 8 1005 81 10000 10.8 230 23:45 10.02.2022
3799 Clouds 8 1004 81 10000 12.86 230 22:26 10.02.2022
3800 Clouds 8 1002 71 10000 13.38 230 21:41 10.02.2022
3801 Clouds 8 1001 71 10000 13.89 230 20:50 10.02.2022
3802 Clouds 9 1000 76 10000 13.38 230 19:51 10.02.2022
3803 Clouds 9 1000 76 10000 13.38 230 19:22 10.02.2022
3804 Clouds 8 1000 76 10000 12.86 230 18:22 10.02.2022
3805 Drizzle 7 999 81 10000 12.86 230 17:21 10.02.2022
3806 Drizzle 7 998 81 10000 13.89 230 16:39 10.02.2022
3807 Drizzle 7 997 87 10000 13.89 230 15:40 10.02.2022
3808 Drizzle 7 997 87 10000 13.89 230 15:21 10.02.2022
3809 Drizzle 8 996 76 10000 8.75 230 14:35 10.02.2022
3810 Drizzle 8 996 71 10000 5.66 230 13:40 10.02.2022
3811 Drizzle 8 996 71 10000 5.66 230 13:19 10.02.2022
3812 Drizzle 7 994 70 10000 9.77 230 11:52 10.02.2022
3813 Drizzle 7 994 70 10000 9.77 230 11:30 10.02.2022
3814 Drizzle 8 994 49 10000 3.09 230 10:23 10.02.2022
3815 Clouds 4 995 95 4271 3.3 341 09:44 10.02.2022
3816 Clouds 8 992 49 10000 5.66 320 08:25 10.02.2022
3817 Clouds 8 992 49 10000 9.77 320 06:32 10.02.2022
3818 Clouds 9 993 46 10000 9.26 320 02:43 10.02.2022
3819 Clouds 10 993 46 10000 8.75 320 00:53 10.02.2022
3820 Clouds 10 993 46 10000 8.75 320 00:30 10.02.2022
3821 Clouds 10 992 50 10000 7.2 290 23:58 09.02.2022
3822 Clouds 11 992 46 10000 6.17 290 22:54 09.02.2022
3823 Clouds 11 992 46 10000 6.17 290 22:30 09.02.2022
3824 Clouds 11 991 46 10000 7.72 290 21:46 09.02.2022
3825 Clouds 11 991 46 10000 7.72 290 21:26 09.02.2022
3826 Clouds 12 991 43 10000 8.23 290 20:42 09.02.2022
3827 Clouds 12 991 43 10000 8.23 290 20:22 09.02.2022
3828 Clouds 13 990 41 10000 6.69 250 19:40 09.02.2022
3829 Clouds 14 989 35 10000 6.17 290 18:31 09.02.2022
3830 Clouds 14 989 47 10000 4.63 320 16:55 09.02.2022
3831 Clouds 12 990 62 10000 2.06 90 15:59 09.02.2022
3832 Clouds 12 990 62 10000 2.06 90 15:22 09.02.2022
3833 Rain 8 992 81 10000 5.14 20 12:43 09.02.2022
3834 Drizzle 9 993 66 10000 6.17 360 11:23 09.02.2022
3835 Drizzle 9 994 71 10000 5.66 360 10:33 09.02.2022
3836 Drizzle 9 996 66 10000 5.14 360 09:47 09.02.2022
3837 Drizzle 9 996 66 10000 5.14 360 09:21 09.02.2022
3838 Drizzle 10 996 57 10000 10.29 360 08:43 09.02.2022
3839 Clouds 8 1001 76 10000 5.14 50 05:55 09.02.2022
3840 Clouds 9 1004 71 10000 2.57 140 03:51 09.02.2022
3841 Clouds 10 1004 57 10000 5.14 230 01:55 09.02.2022
3842 Clouds 12 1004 54 10000 7.2 230 23:42 08.02.2022
3843 Clouds 12 1004 54 10000 7.2 230 23:18 08.02.2022
3844 Clouds 12 1004 54 10000 7.72 230 22:38 08.02.2022
3845 Clouds 12 1004 54 10000 7.72 230 22:18 08.02.2022
3846 Rain 11 1003 62 10000 10.29 230 21:22 08.02.2022
3847 Rain 11 1003 62 10000 10.29 230 21:22 08.02.2022
3848 Clouds 13 1002 47 10000 5.66 230 20:57 08.02.2022
3849 Clouds 13 1002 47 10000 5.66 230 20:34 08.02.2022
3850 Clouds 13 1002 47 10000 8.23 230 19:18 08.02.2022
3851 Clouds 10 1000 71 10000 9.77 230 17:57 08.02.2022
3852 Clouds 10 1000 71 10000 10.29 230 16:55 08.02.2022
3853 Clouds 9 998 81 10000 10.29 230 15:45 08.02.2022
3854 Clouds 9 997 81 10000 9.77 230 14:58 08.02.2022
3855 Clouds 8 997 87 10000 11.83 230 13:39 08.02.2022
3856 Drizzle 8 996 87 10000 11.83 230 12:21 08.02.2022
3857 Clouds 9 993 81 10000 2.57 270 10:48 08.02.2022
3858 Clouds 9 992 87 10000 4.12 180 09:47 08.02.2022
3859 Rain 9 990 87 10000 5.14 230 08:38 08.02.2022
3860 Rain 8 988 93 10000 19.03 230 06:24 08.02.2022
3861 Rain 13 990 94 10000 2.57 200 04:40 08.02.2022
3862 Rain 13 990 94 10000 2.57 200 04:22 08.02.2022
3863 Rain 15 990 82 10000 2.06 320 03:36 08.02.2022
3864 Rain 15 990 82 10000 2.06 320 03:18 08.02.2022
3865 Rain 16 991 67 10000 3.6 20 02:59 08.02.2022
3866 Rain 16 991 67 10000 3.6 20 02:36 08.02.2022
3867 Rain 16 991 67 10000 3.6 20 02:18 08.02.2022
3868 Rain 15 993 92 10000 1.8 10 01:44 08.02.2022
3869 Rain 16 993 86 10000 1.69 3 01:25 08.02.2022
3870 Clouds 17 992 59 10000 2.57 70 00:55 08.02.2022
3871 Clouds 17 992 59 10000 2.57 70 00:19 08.02.2022
3872 Clouds 20 993 56 10000 2.06 0 23:43 07.02.2022
3873 Clouds 20 993 56 10000 2.06 0 23:18 07.02.2022
3874 Clouds 21 994 49 10000 2.06 0 22:59 07.02.2022
3875 Clouds 21 994 49 10000 2.06 0 22:18 07.02.2022
3876 Clouds 21 995 49 10000 4.63 230 21:50 07.02.2022
3877 Clouds 21 995 49 10000 4.63 230 21:27 07.02.2022
3878 Clear 23 996 43 10000 3.09 230 20:43 07.02.2022
3879 Clear 23 996 43 10000 3.09 230 20:24 07.02.2022
3880 Clear 22 997 43 10000 2.06 180 19:47 07.02.2022
3881 Clear 21 996 49 10000 3.6 140 18:34 07.02.2022
3882 Clear 20 998 52 10000 2.06 90 16:53 07.02.2022
3883 Clear 20 998 52 10000 2.06 90 16:24 07.02.2022
3884 Clear 21 998 49 10000 2.06 90 15:48 07.02.2022
3885 Clear 19 999 52 10000 0 0 13:39 07.02.2022
3886 Clear 19 999 52 10000 0 0 13:21 07.02.2022
3887 Clouds 20 1000 37 10000 8.23 360 11:58 07.02.2022
3888 Clouds 20 1000 37 10000 8.23 360 11:38 07.02.2022
3889 Clouds 20 1000 40 10000 8.23 320 10:54 07.02.2022
3890 Clouds 20 1000 40 10000 8.23 320 10:36 07.02.2022
3891 Clouds 19 1001 52 10000 3.09 320 09:53 07.02.2022
3892 Clouds 19 1001 52 10000 3.09 320 09:18 07.02.2022
3893 Clouds 18 1002 55 10000 7.2 320 08:44 07.02.2022
3894 Clouds 16 1002 67 10000 2.06 320 07:34 07.02.2022
3895 Clouds 17 1004 63 10000 5.66 20 06:34 07.02.2022
3896 Clouds 16 1005 67 10000 6.69 20 04:22 07.02.2022
3897 Clouds 16 1007 63 10000 3.09 290 01:29 07.02.2022
3898 Clouds 16 1007 63 10000 4.63 340 23:50 06.02.2022
3899 Clouds 16 1007 63 10000 4.63 340 23:19 06.02.2022
3900 Clouds 16 1007 63 10000 4.12 50 22:39 06.02.2022
3901 Clouds 18 1007 55 10000 8.23 340 21:37 06.02.2022
3902 Clouds 18 1007 55 10000 8.23 340 21:18 06.02.2022
3903 Clouds 19 1007 48 10000 6.17 320 20:37 06.02.2022
3904 Clouds 16 1007 59 10000 7.72 360 19:50 06.02.2022
3905 Clouds 13 1008 58 10000 2.57 230 18:52 06.02.2022
3906 Clouds 13 1008 58 10000 2.57 230 18:27 06.02.2022
3907 Drizzle 11 1008 62 10000 2.06 180 17:29 06.02.2022
3908 Clouds 12 1010 54 10000 1.54 90 16:50 06.02.2022
3909 Clear 12 1010 58 10000 1.54 90 15:51 06.02.2022
3910 Clear 12 1010 58 10000 1.54 90 15:28 06.02.2022
3911 Clear 11 1011 66 10000 2.06 90 14:59 06.02.2022
3912 Clear 9 1012 71 10000 1.03 140 13:57 06.02.2022
3913 Clear 9 1012 71 10000 1.03 140 13:20 06.02.2022
3914 Clear 7 1012 81 10000 1.54 70 12:19 06.02.2022
3915 Clear 6 1013 81 10000 5.14 360 10:33 06.02.2022
3916 Clear 6 1012 70 10000 3.09 360 09:36 06.02.2022
3917 Clear 7 1012 70 10000 2.57 320 08:41 06.02.2022
3918 Clouds 10 1012 53 10000 3.6 270 06:31 06.02.2022
3919 Clouds 10 1012 71 10000 5.66 270 05:28 06.02.2022
3920 Clouds 10 1012 71 10000 5.66 270 05:28 06.02.2022
3921 Clouds 10 1010 57 10000 8.23 230 02:25 06.02.2022
3922 Clouds 12 1007 58 10000 13.38 230 00:32 06.02.2022
3923 Clouds 12 1006 58 10000 10.8 230 23:38 05.02.2022
3924 Rain 12 1005 82 10000 12.35 230 21:47 05.02.2022
3925 Rain 15 1004 55 10000 10.8 230 20:41 05.02.2022
3926 Rain 15 1004 55 10000 10.8 230 20:20 05.02.2022
3927 Clouds 18 1003 45 10000 6.69 270 19:42 05.02.2022
3928 Clouds 17 1003 39 10000 5.66 320 18:30 05.02.2022
3929 Clouds 16 1003 41 10000 3.6 230 17:35 05.02.2022
3930 Clear 16 1005 41 10000 9.77 360 15:51 05.02.2022
3931 Clear 16 1005 41 10000 9.77 360 15:29 05.02.2022
3932 Clear 15 1007 38 10000 7.72 320 13:38 05.02.2022
3933 Clear 13 1008 44 10000 9.77 360 12:46 05.02.2022
3934 Clear 13 1009 44 10000 10.29 360 11:45 05.02.2022
3935 Clear 11 1009 54 10000 8.75 320 10:43 05.02.2022
3936 Clear 6 1010 87 10000 2.57 0 09:50 05.02.2022
3937 Clear 6 1011 93 10000 4.12 90 08:39 05.02.2022
3938 Clear 7 1013 87 10000 2.57 20 06:59 05.02.2022
3939 Clear 7 1013 87 10000 2.57 20 06:27 05.02.2022
3940 Clear 10 1015 66 10000 5.66 240 02:40 05.02.2022
3941 Clear 11 1016 62 10000 5.14 230 01:18 05.02.2022
3942 Clear 12 1016 58 10000 5.66 230 00:36 05.02.2022
3943 Clear 12 1016 54 10000 7.72 230 23:33 04.02.2022
3944 Clear 12 1016 50 10000 6.69 230 22:39 04.02.2022
3945 Clear 12 1017 54 10000 6.17 230 21:36 04.02.2022
3946 Clear 12 1017 54 10000 6.17 230 21:18 04.02.2022
3947 Clear 12 1017 50 10000 7.2 230 20:36 04.02.2022
3948 Clear 11 1017 54 10000 6.17 230 19:18 04.02.2022
3949 Clear 10 1018 50 10000 7.72 230 16:22 04.02.2022
3950 Clouds 9 1018 49 10000 4.63 230 15:18 04.02.2022
3951 Clouds 7 1019 53 10000 4.63 230 14:40 04.02.2022
3952 Clouds 6 1018 61 10000 3.09 290 12:43 04.02.2022
3953 Clouds 3 1019 75 10000 4.12 270 11:45 04.02.2022
3954 Clouds 3 1018 75 10000 4.12 290 10:55 04.02.2022
3955 Clouds 4 1018 75 10000 4.63 250 09:35 04.02.2022
3956 Clouds 5 1017 70 10000 6.69 230 07:56 04.02.2022
3957 Clouds 6 1015 70 10000 10.29 230 03:31 04.02.2022
3958 Clouds 7 1014 65 10000 9.26 230 02:34 04.02.2022
3959 Clouds 8 1012 66 10000 8.75 230 23:35 03.02.2022
3960 Clouds 8 1012 57 10000 9.77 230 22:50 03.02.2022
3961 Clouds 9 1011 57 10000 6.69 230 21:51 03.02.2022
3962 Clouds 9 1011 57 10000 6.69 230 21:22 03.02.2022
3963 Clouds 8 1011 61 10000 8.75 230 20:21 03.02.2022
3964 Clouds 8 1011 61 10000 6.69 230 19:36 03.02.2022
3965 Clouds 8 1010 57 10000 7.72 230 18:56 03.02.2022
3966 Clouds 8 1010 61 10000 7.2 230 17:55 03.02.2022
3967 Clouds 7 1010 65 10000 8.75 230 16:48 03.02.2022
3968 Clouds 6 1009 65 10000 6.69 230 14:59 03.02.2022
3969 Clouds 6 1008 61 10000 6.17 230 13:19 03.02.2022
3970 Clouds 5 1008 65 10000 5.66 270 11:47 03.02.2022
3971 Clouds 5 1006 65 10000 9.26 200 08:55 03.02.2022
3972 Clouds 6 1006 56 10000 10.29 230 07:41 03.02.2022
3973 Clouds 7 1001 61 10000 10.8 230 00:35 03.02.2022
3974 Clouds 7 1001 57 10000 11.32 230 23:47 02.02.2022
3975 Clouds 8 1000 57 10000 9.26 230 22:38 02.02.2022
3976 Clouds 9 1000 57 10000 7.72 230 21:45 02.02.2022
3977 Clouds 9 1000 57 10000 7.72 230 21:27 02.02.2022
3978 Clouds 8 998 61 10000 11.32 230 20:20 02.02.2022
3979 Clouds 7 997 65 10000 13.38 230 19:46 02.02.2022
3980 Clouds 7 997 65 10000 9.26 230 18:55 02.02.2022
3981 Clouds 7 997 65 10000 9.26 230 18:24 02.02.2022
3982 Clouds 7 996 65 10000 11.32 230 17:20 02.02.2022
3983 Clouds 7 996 65 10000 11.32 230 16:54 02.02.2022
3984 Clouds 7 996 70 10000 9.77 230 14:42 02.02.2022
3985 Clouds 6 995 70 10000 13.38 230 12:29 02.02.2022
3986 Clouds 6 994 65 10000 13.38 230 11:44 02.02.2022
3987 Clouds 6 994 65 10000 13.38 230 11:24 02.02.2022
3988 Clouds 6 993 70 10000 13.89 230 08:27 02.02.2022
3989 Clouds 6 990 75 10000 18.52 220 01:46 02.02.2022
3990 Rain 6 987 87 8000 19.55 230 22:29 01.02.2022
3991 Rain 6 987 81 8000 13.89 230 20:50 01.02.2022
3992 Rain 6 985 87 10000 15.43 230 18:55 01.02.2022
3993 Clouds 6 984 81 10000 12.35 230 16:57 01.02.2022
3994 Clouds 6 984 81 10000 12.35 230 16:19 01.02.2022
3995 Rain 4 982 87 10000 7.72 230 12:57 01.02.2022
3996 Rain 4 981 93 10000 8.75 230 11:57 01.02.2022
3997 Drizzle 5 978 87 10000 9.77 230 08:51 01.02.2022
3998 Drizzle 5 980 87 10000 7.72 230 02:20 01.02.2022
3999 Clouds 6 980 81 10000 14.4 230 23:37 31.01.2022
4000 Clouds 8 980 76 10000 12.35 230 22:33 31.01.2022
4001 Clouds 10 981 66 10000 10.29 230 21:34 31.01.2022
4002 Clouds 9 981 66 10000 14.92 230 20:34 31.01.2022
4003 Clouds 9 981 66 10000 14.92 230 20:34 31.01.2022
4004 Clouds 9 982 71 10000 14.4 230 19:57 31.01.2022
4005 Clouds 10 982 66 10000 13.89 230 18:32 31.01.2022
4006 Clouds 9 983 71 10000 15.43 230 17:55 31.01.2022
4007 Clouds 9 983 71 10000 15.43 230 17:18 31.01.2022
4008 Clouds 8 985 71 10000 12.35 230 16:21 31.01.2022
4009 Clouds 9 988 66 10000 11.83 230 14:50 31.01.2022
4010 Clouds 9 989 66 10000 12.86 230 13:29 31.01.2022
4011 Clouds 7 990 70 10000 14.92 230 12:37 31.01.2022
4012 Clouds 7 992 70 10000 10.29 230 11:20 31.01.2022
4013 Clouds 7 993 76 10000 12.86 230 10:47 31.01.2022
4014 Rain 7 993 81 10000 9.77 230 09:36 31.01.2022
4015 Rain 5 994 75 9000 8.23 250 08:56 31.01.2022
4016 Rain 5 994 75 9000 8.23 250 08:20 31.01.2022
4017 Drizzle 6 994 75 10000 3.6 320 07:37 31.01.2022
4018 Clouds 7 996 70 10000 3.6 320 05:24 31.01.2022
4019 Clouds 7 999 70 10000 12.86 230 00:23 31.01.2022
4020 Clouds 9 999 61 10000 14.92 230 22:33 30.01.2022
4021 Drizzle 9 999 61 10000 12.86 230 21:46 30.01.2022
4022 Drizzle 9 999 61 10000 12.86 230 21:24 30.01.2022
4023 Drizzle 9 999 71 10000 13.38 230 20:51 30.01.2022
4024 Drizzle 9 999 71 10000 13.38 230 20:31 30.01.2022
4025 Drizzle 8 998 76 10000 10.29 230 19:56 30.01.2022
4026 Clouds 9 999 66 10000 11.32 230 18:51 30.01.2022
4027 Clouds 9 999 66 10000 11.32 230 18:22 30.01.2022
4028 Clouds 9 998 66 10000 10.29 230 17:31 30.01.2022
4029 Drizzle 8 998 71 10000 11.32 230 16:42 30.01.2022
4030 Drizzle 8 998 71 10000 11.32 230 16:23 30.01.2022
4031 Clouds 8 998 71 10000 12.35 230 15:54 30.01.2022
4032 Clouds 8 998 71 10000 12.35 230 15:33 30.01.2022
4033 Clouds 8 998 71 10000 9.77 230 14:47 30.01.2022
4034 Clouds 7 998 70 10000 11.83 230 13:47 30.01.2022
4035 Clouds 7 998 70 10000 11.32 230 12:46 30.01.2022
4036 Clouds 6 997 81 10000 10.29 230 10:47 30.01.2022
4037 Clouds 6 997 81 10000 10.29 230 10:25 30.01.2022
4038 Clouds 7 997 81 10000 8.75 230 09:23 30.01.2022
4039 Clouds 6 997 93 10000 2.06 270 07:59 30.01.2022
4040 Rain 7 998 87 8000 0 0 02:44 30.01.2022
4041 Rain 7 997 87 8000 2.06 270 01:54 30.01.2022
4042 Rain 7 996 93 5000 8.23 250 23:49 29.01.2022
4043 Rain 8 996 87 5000 5.14 180 22:57 29.01.2022
4044 Rain 8 994 93 5000 11.32 230 21:35 29.01.2022
4045 Rain 10 994 87 10000 9.26 230 20:57 29.01.2022
4046 Rain 10 994 87 10000 7.72 250 19:52 29.01.2022
4047 Drizzle 13 994 76 10000 6.17 140 19:31 29.01.2022
4048 Drizzle 14 994 67 10000 3.6 230 18:44 29.01.2022
4049 Drizzle 15 993 67 10000 3.6 230 17:55 29.01.2022
4050 Clouds 15 994 67 10000 1.54 140 16:59 29.01.2022
4051 Clouds 15 994 72 10000 3.09 90 15:35 29.01.2022
4052 Clear 14 995 72 10000 5.14 90 13:58 29.01.2022
4053 Clear 14 995 72 10000 5.14 90 13:28 29.01.2022
4054 Clear 12 996 66 10000 4.12 50 12:59 29.01.2022
4055 Clouds 12 996 66 10000 4.12 70 11:39 29.01.2022
4056 Clouds 12 996 66 10000 4.12 70 11:39 29.01.2022
4057 Clouds 12 996 66 10000 2.06 360 10:33 29.01.2022
4058 Clouds 13 997 67 10000 0 0 08:20 29.01.2022
4059 Clouds 12 1001 76 10000 2.57 250 02:48 29.01.2022
4060 Clouds 16 1002 59 10000 1.54 10 00:32 29.01.2022
4061 Clouds 16 1002 59 10000 1.54 10 00:32 29.01.2022
4062 Clouds 18 1002 48 10000 1.03 80 23:31 28.01.2022
4063 Clouds 18 1003 52 10000 2.06 70 22:47 28.01.2022
4064 Clouds 18 1003 52 10000 2.06 70 22:19 28.01.2022
4065 Clouds 15 1004 63 10000 1.54 70 20:41 28.01.2022
4066 Clouds 14 1004 67 10000 2.06 90 19:57 28.01.2022
4067 Clouds 14 1005 72 10000 1.03 90 18:52 28.01.2022
4068 Clouds 12 1006 76 10000 1.54 360 17:53 28.01.2022
4069 Clouds 11 1007 82 10000 3.09 50 15:52 28.01.2022
4070 Clouds 11 1007 76 10000 3.6 50 14:54 28.01.2022
4071 Clouds 8 1009 66 10000 3.6 50 12:42 28.01.2022
4072 Clouds 7 1009 76 10000 2.57 50 11:49 28.01.2022
4073 Clouds 7 1010 96 10000 2.54 350 10:26 28.01.2022
4074 Clouds 7 1010 96 10000 2.54 350 09:46 28.01.2022
4075 Clouds 8 1011 92 10000 1.77 345 07:41 28.01.2022
4076 Clouds 8 1011 94 10000 1.77 342 05:31 28.01.2022
4077 Clouds 10 1012 81 10000 2.06 180 03:51 28.01.2022
4078 Clouds 10 1012 81 10000 2.57 250 02:25 28.01.2022
4079 Clouds 11 1013 71 10000 4.63 200 01:37 28.01.2022
4080 Clouds 10 1012 76 10000 7.2 180 00:42 28.01.2022
4081 Clouds 11 1012 71 10000 7.2 230 22:20 27.01.2022
4082 Clouds 11 1012 76 10000 8.23 230 21:34 27.01.2022
4083 Clouds 11 1013 76 10000 8.23 230 20:59 27.01.2022
4084 Clouds 12 1013 71 10000 8.23 230 19:37 27.01.2022
4085 Clouds 10 1012 81 10000 8.23 230 18:19 27.01.2022
4086 Drizzle 10 1013 81 10000 11.32 230 16:45 27.01.2022
4087 Drizzle 9 1013 87 10000 9.26 230 13:57 27.01.2022
4088 Drizzle 9 1013 87 8000 9.77 230 12:49 27.01.2022
4089 Drizzle 9 1013 87 8000 9.77 230 11:53 27.01.2022
4090 Rain 8 1012 97 10000 1.04 264 09:48 27.01.2022
4091 Rain 8 1012 97 10000 1.04 264 09:48 27.01.2022
4092 Rain 8 1012 97 10000 1.08 254 08:40 27.01.2022
4093 Rain 8 1012 97 10000 1.1 259 07:31 27.01.2022
4094 Clouds 10 1011 76 10000 11.32 230 03:34 27.01.2022
4095 Clouds 11 1010 71 10000 14.4 230 00:23 27.01.2022
4096 Clouds 11 1010 71 10000 12.86 230 22:27 26.01.2022
4097 Clouds 12 1010 66 10000 11.83 220 21:44 26.01.2022
4098 Clouds 11 1009 71 10000 13.89 220 20:49 26.01.2022
4099 Clouds 11 1009 71 10000 13.89 220 20:31 26.01.2022
4100 Clouds 11 1010 66 10000 14.4 230 19:38 26.01.2022
4101 Clouds 11 1010 66 10000 13.38 240 18:47 26.01.2022
4102 Clouds 11 1010 66 10000 13.38 240 18:18 26.01.2022
4103 Clouds 12 1010 62 10000 12.86 230 17:33 26.01.2022
4104 Clouds 11 1010 66 10000 11.32 240 16:49 26.01.2022
4105 Clouds 11 1010 66 10000 11.32 240 16:22 26.01.2022
4106 Clouds 10 1012 53 10000 2.06 0 14:40 26.01.2022
4107 Clouds 6 1013 75 10000 3.09 360 12:20 26.01.2022
4108 Clouds 7 1014 65 10000 7.2 250 10:52 26.01.2022
4109 Clouds 2 1015 94 10000 2.56 332 09:52 26.01.2022
4110 Clouds 3 1015 93 10000 2.07 324 08:49 26.01.2022
4111 Clouds 2 1015 96 10000 1.75 307 06:36 26.01.2022
4112 Drizzle 6 1010 81 10000 11.83 230 00:24 26.01.2022
4113 Drizzle 6 1009 81 10000 12.86 230 23:41 25.01.2022
4114 Drizzle 7 1006 81 10000 11.32 230 22:48 25.01.2022
4115 Drizzle 7 1006 81 10000 11.32 230 22:18 25.01.2022
4116 Drizzle 6 1006 81 10000 15.43 230 21:27 25.01.2022
4117 Drizzle 6 1006 87 10000 12.86 230 20:45 25.01.2022
4118 Drizzle 7 1005 70 10000 9.77 230 19:54 25.01.2022
4119 Drizzle 7 1005 70 10000 9.77 230 19:28 25.01.2022
4120 Drizzle 6 1003 81 10000 12.35 230 17:56 25.01.2022
4121 Drizzle 6 1003 81 10000 12.35 230 17:20 25.01.2022
4122 Clouds 6 1001 81 10000 12.35 230 16:34 25.01.2022
4123 Drizzle 6 1001 81 10000 12.35 230 15:39 25.01.2022
4124 Drizzle 6 1001 81 10000 12.35 230 15:19 25.01.2022
4125 Drizzle 6 1000 81 10000 11.83 230 14:51 25.01.2022
4126 Clouds 5 999 81 10000 9.77 230 12:20 25.01.2022
4127 Rain 4 997 99 159 2.19 215 09:25 25.01.2022
4128 Rain 4 996 99 141 2.01 220 07:52 25.01.2022
4129 Rain 4 995 99 191 1.64 227 07:20 25.01.2022
4130 Rain 4 995 97 4193 1.93 251 05:23 25.01.2022
4131 Rain 4 995 97 4193 1.93 251 05:23 25.01.2022
4132 Drizzle 6 991 87 10000 14.4 230 00:31 25.01.2022
4133 Drizzle 8 989 71 10000 14.92 230 23:36 24.01.2022
4134 Drizzle 8 989 71 10000 14.92 230 23:18 24.01.2022
4135 Drizzle 9 989 66 10000 12.86 230 22:42 24.01.2022
4136 Drizzle 9 989 66 10000 12.86 230 22:19 24.01.2022
4137 Drizzle 10 988 62 10000 12.35 230 21:40 24.01.2022
4138 Drizzle 10 988 62 10000 12.35 230 21:19 24.01.2022
4139 Drizzle 11 988 62 10000 9.26 230 20:26 24.01.2022
4140 Drizzle 11 988 62 10000 9.26 230 20:26 24.01.2022
4141 Drizzle 11 989 71 10000 1.54 230 19:38 24.01.2022
4142 Drizzle 11 990 71 10000 2.06 270 18:50 24.01.2022
4143 Drizzle 10 989 76 10000 3.6 230 17:39 24.01.2022
4144 Drizzle 10 989 76 10000 3.6 230 17:21 24.01.2022
4145 Drizzle 10 990 66 10000 6.17 230 16:31 24.01.2022
4146 Clouds 10 990 71 10000 5.14 230 15:25 24.01.2022
4147 Clouds 9 991 71 10000 9.26 230 13:58 24.01.2022
4148 Clouds 7 991 70 10000 12.86 230 12:34 24.01.2022
4149 Clouds 7 990 70 10000 12.86 230 11:41 24.01.2022
4150 Clouds 5 991 91 10000 1.76 266 10:19 24.01.2022
4151 Clouds 5 991 91 10000 1.76 266 09:44 24.01.2022
4152 Clouds 6 990 94 10000 1.82 245 08:18 24.01.2022
4153 Clouds 11 986 76 10000 4.63 210 01:39 24.01.2022
4154 Rain 11 986 66 10000 7.72 220 00:55 24.01.2022
4155 Rain 11 986 66 10000 7.72 220 00:30 24.01.2022
4156 Clouds 11 986 66 10000 9.77 230 23:39 23.01.2022
4157 Clouds 13 985 58 10000 10.8 220 22:20 23.01.2022
4158 Clouds 14 986 54 10000 2.06 80 21:40 23.01.2022
4159 Clouds 14 986 54 10000 2.06 80 21:20 23.01.2022
4160 Clouds 15 986 51 10000 2.57 70 20:22 23.01.2022
4161 Clouds 14 987 62 10000 3.09 70 18:56 23.01.2022
4162 Clouds 14 987 62 10000 3.09 70 18:24 23.01.2022
4163 Clouds 13 988 67 10000 2.57 90 16:56 23.01.2022
4164 Clouds 10 989 81 10000 2.57 140 15:59 23.01.2022
4165 Clouds 9 990 93 10000 0 0 14:52 23.01.2022
4166 Clouds 9 990 93 10000 0 0 14:18 23.01.2022
4167 Clouds 8 991 87 10000 0 0 12:46 23.01.2022
4168 Clouds 8 991 87 10000 0 0 12:20 23.01.2022
4169 Clouds 8 991 93 10000 0 0 11:26 23.01.2022
4170 Clouds 8 991 87 10000 0 0 10:57 23.01.2022
4171 Clouds 8 991 87 10000 0 0 10:25 23.01.2022
4172 Clouds 8 991 93 10000 2.06 120 09:32 23.01.2022
4173 Clouds 8 992 93 10000 0 0 08:49 23.01.2022
4174 Clouds 8 994 93 10000 7.2 90 03:49 23.01.2022
4175 Clouds 9 994 87 10000 6.69 90 01:38 23.01.2022
4176 Clouds 9 993 81 10000 8.75 90 00:47 23.01.2022
4177 Clouds 9 993 81 10000 8.75 90 00:18 23.01.2022
4178 Clouds 10 993 81 10000 9.26 90 22:55 22.01.2022
4179 Clouds 10 993 81 10000 9.26 90 22:33 22.01.2022
4180 Clouds 10 993 81 10000 8.23 90 20:46 22.01.2022
4181 Rain 10 994 81 9000 8.23 70 19:46 22.01.2022
4182 Rain 9 994 87 9000 7.72 70 18:41 22.01.2022
4183 Rain 9 994 87 9000 9.26 70 17:49 22.01.2022
4184 Rain 9 994 87 9000 9.26 70 17:31 22.01.2022
4185 Clouds 10 994 81 10000 8.75 70 16:54 22.01.2022
4186 Clouds 11 994 76 10000 6.69 70 15:45 22.01.2022
4187 Clouds 12 994 82 10000 2.57 90 14:56 22.01.2022
4188 Clouds 10 994 76 10000 3.09 180 13:31 22.01.2022
4189 Clouds 10 993 87 10000 3.6 230 12:40 22.01.2022
4190 Clouds 10 993 87 10000 3.6 230 12:22 22.01.2022
4191 Clouds 10 993 81 10000 6.17 230 10:55 22.01.2022
4192 Clouds 10 993 81 10000 6.17 230 10:27 22.01.2022
4193 Clouds 10 993 95 10000 0.47 265 09:43 22.01.2022
4194 Clouds 9 993 95 10000 0.46 231 08:51 22.01.2022
4195 Clouds 10 993 96 10000 0.87 13 07:27 22.01.2022
4196 Clouds 10 992 87 10000 5.14 60 04:50 22.01.2022
4197 Rain 13 993 71 10000 7.72 130 00:57 22.01.2022
4198 Clouds 14 993 67 10000 9.77 130 23:21 21.01.2022
4199 Clouds 17 993 51 10000 5.14 150 22:19 21.01.2022
4200 Clouds 16 994 55 10000 4.12 220 19:55 21.01.2022
4201 Clouds 14 994 67 10000 4.63 230 18:23 21.01.2022
4202 Clear 18 994 52 10000 0 0 16:58 21.01.2022
4203 Clear 17 995 55 10000 0 0 15:26 21.01.2022
4204 Clear 13 997 76 10000 0 0 13:18 21.01.2022
4205 Clear 12 998 76 10000 0 0 12:26 21.01.2022
4206 Clear 10 999 76 10000 0 0 11:26 21.01.2022
4207 Clouds 9 1000 92 10000 2.4 2 09:34 21.01.2022
4208 Clouds 9 1002 94 10000 2.27 3 08:22 21.01.2022
4209 Clear 12 1003 66 10000 2.57 250 04:37 21.01.2022
4210 Clear 23 1005 28 10000 3.6 200 23:20 20.01.2022
4211 Clear 23 1006 33 10000 2.06 150 21:50 20.01.2022
4212 Clear 23 1006 33 10000 2.06 150 21:32 20.01.2022
4213 Clear 22 1007 33 10000 1.54 140 20:31 20.01.2022
4214 Clear 22 1008 35 10000 1.54 100 19:19 20.01.2022
4215 Clear 20 1008 34 10000 1.6 291 18:18 20.01.2022
4216 Clear 16 1011 44 10000 1.54 60 16:40 20.01.2022
4217 Clear 13 1012 58 10000 2.06 40 15:40 20.01.2022
4218 Clear 13 1012 67 10000 2.06 90 14:40 20.01.2022
4219 Clear 11 1014 71 10000 2.06 70 13:33 20.01.2022
4220 Clear 9 1014 87 10000 0 0 12:32 20.01.2022
4221 Clear 8 1015 87 10000 0 0 11:50 20.01.2022
4222 Clear 7 1015 87 10000 0 0 10:38 20.01.2022
4223 Clear 7 1016 83 10000 2.39 341 09:34 20.01.2022
4224 Clear 7 1017 85 10000 2.49 350 07:50 20.01.2022
4225 Clear 12 1020 58 10000 7.72 230 00:44 20.01.2022
4226 Clear 13 1020 54 10000 7.2 230 22:54 19.01.2022
4227 Clear 13 1020 54 10000 7.72 230 21:48 19.01.2022
4228 Clear 13 1020 54 10000 7.72 230 21:23 19.01.2022
4229 Clouds 12 1021 58 10000 7.2 230 20:46 19.01.2022
4230 Clouds 12 1021 58 10000 7.72 230 19:42 19.01.2022
4231 Clouds 12 1021 54 10000 8.23 230 18:18 19.01.2022
4232 Clouds 11 1022 62 10000 7.72 230 17:44 19.01.2022
4233 Clouds 10 1022 62 10000 7.72 230 16:46 19.01.2022
4234 Clouds 10 1022 57 10000 8.23 230 14:42 19.01.2022
4235 Clouds 8 1021 76 10000 7.2 230 12:41 19.01.2022
4236 Clouds 7 1020 81 10000 9.26 230 11:39 19.01.2022
4237 Clouds 8 1020 76 10000 7.2 230 10:20 19.01.2022
4238 Clouds 8 1019 76 10000 9.26 230 09:34 19.01.2022
4239 Clouds 7 1018 87 10000 8.23 230 06:35 19.01.2022
4240 Clouds 9 1015 76 10000 10.29 230 02:38 19.01.2022
4241 Clouds 10 1012 81 10000 14.4 230 23:19 18.01.2022
4242 Clouds 11 1011 76 10000 17.49 230 22:19 18.01.2022
4243 Clouds 14 1010 62 10000 15.43 230 20:58 18.01.2022
4244 Clouds 13 1011 71 10000 13.89 230 19:54 18.01.2022
4245 Clouds 13 1011 71 10000 13.89 230 19:36 18.01.2022
4246 Clouds 12 1011 71 10000 13.89 230 18:51 18.01.2022
4247 Clouds 12 1011 71 10000 13.38 230 17:58 18.01.2022
4248 Clouds 11 1012 71 10000 13.89 230 16:50 18.01.2022
4249 Clouds 12 1011 71 10000 11.83 230 15:41 18.01.2022
4250 Clouds 12 1011 71 10000 11.83 230 15:21 18.01.2022
4251 Clouds 11 1013 71 10000 8.75 230 12:33 18.01.2022
4252 Clouds 9 1013 81 10000 13.89 230 10:47 18.01.2022
4253 Clouds 9 1012 81 10000 12.86 230 08:59 18.01.2022
4254 Clouds 9 1013 76 10000 12.86 230 07:51 18.01.2022
4255 Clouds 8 1013 71 10000 10.29 230 02:34 18.01.2022
4256 Clouds 8 1014 71 10000 10.29 230 23:38 17.01.2022
4257 Clouds 9 1014 61 10000 11.32 230 22:26 17.01.2022
4258 Clouds 9 1014 61 10000 10.29 230 21:34 17.01.2022
4259 Clouds 8 1015 66 10000 11.83 230 20:24 17.01.2022
4260 Clouds 8 1015 57 10000 11.32 230 18:30 17.01.2022
4261 Clouds 7 1015 65 10000 11.83 230 17:44 17.01.2022
4262 Clouds 7 1016 61 10000 12.35 230 16:40 17.01.2022
4263 Clouds 6 1016 70 10000 12.35 230 15:19 17.01.2022
4264 Clouds 6 1016 70 10000 12.35 230 14:55 17.01.2022
4265 Clouds 6 1016 70 10000 10.29 230 13:22 17.01.2022
4266 Clouds 5 1016 65 10000 11.32 230 12:55 17.01.2022
4267 Clouds 5 1016 65 10000 9.77 240 11:49 17.01.2022
4268 Clouds 4 1015 70 10000 8.75 240 10:21 17.01.2022
4269 Clouds 4 1015 70 10000 8.75 240 10:21 17.01.2022
4270 Clouds 4 1015 70 10000 8.75 240 09:34 17.01.2022
4271 Clouds 4 1015 75 10000 8.75 230 07:24 17.01.2022
4272 Clouds 4 1014 75 10000 8.23 250 02:59 17.01.2022
4273 Drizzle 4 1014 75 10000 6.17 200 00:55 17.01.2022
4274 Clouds 6 1013 61 10000 8.23 180 22:29 16.01.2022
4275 Clouds 5 1013 70 10000 3.6 200 20:36 16.01.2022
4276 Clouds 6 1013 61 10000 5.14 180 18:51 16.01.2022
4277 Clouds 6 1012 61 10000 10.8 140 17:59 16.01.2022
4278 Clouds 6 1012 61 10000 10.8 140 17:21 16.01.2022
4279 Clouds 5 1012 65 10000 7.72 140 16:33 16.01.2022
4280 Clouds 5 1010 70 10000 7.72 140 14:31 16.01.2022
4281 Drizzle 5 1009 75 10000 11.32 140 13:46 16.01.2022
4282 Drizzle 5 1007 81 10000 14.92 140 12:46 16.01.2022
4283 Rain 5 1005 81 9000 12.35 140 11:42 16.01.2022
4284 Rain 5 1004 81 9000 11.83 140 10:54 16.01.2022
4285 Rain 5 1004 81 9000 11.83 140 10:19 16.01.2022
4286 Rain 5 1003 87 9000 8.75 140 09:40 16.01.2022
4287 Rain 5 1003 87 9000 8.75 140 09:22 16.01.2022
4288 Rain 5 1000 87 9000 7.72 140 07:33 16.01.2022
4289 Clouds 4 992 93 10000 6.17 230 00:42 16.01.2022
4290 Rain 4 991 93 9000 6.69 230 23:40 15.01.2022
4291 Rain 6 990 87 8000 3.09 250 21:37 15.01.2022
4292 Rain 6 990 87 8000 3.09 250 21:19 15.01.2022
4293 Rain 6 990 81 8000 3.6 280 20:39 15.01.2022
4294 Rain 6 991 87 8000 2.06 320 19:29 15.01.2022
4295 Rain 6 992 87 8000 4.12 90 18:37 15.01.2022
4296 Rain 7 994 87 8000 2.06 320 16:57 15.01.2022
4297 Rain 7 994 70 8000 4.12 360 15:42 15.01.2022
4298 Drizzle 8 995 71 10000 5.66 90 13:39 15.01.2022
4299 Drizzle 7 997 70 10000 6.17 20 11:46 15.01.2022
4300 Clouds 7 998 65 10000 6.69 360 10:25 15.01.2022
4301 Clear 4 1001 87 10000 2.57 360 06:40 15.01.2022
4302 Clouds 9 1002 61 10000 2.06 70 23:49 14.01.2022
4303 Clouds 9 1002 49 10000 7.2 230 21:37 14.01.2022
4304 Clouds 9 1002 53 10000 9.26 240 20:37 14.01.2022
4305 Clouds 9 1002 49 10000 8.23 230 19:58 14.01.2022
4306 Rain 9 1002 49 10000 7.2 230 18:46 14.01.2022
4307 Clouds 10 1002 46 10000 8.23 230 17:54 14.01.2022
4308 Clouds 9 1002 49 10000 7.2 200 16:47 14.01.2022
4309 Clouds 8 1002 53 10000 3.6 200 15:33 14.01.2022
4310 Clouds 8 1002 53 10000 3.6 200 15:33 14.01.2022
4311 Clouds 7 1002 57 10000 5.14 200 14:30 14.01.2022
4312 Clouds 6 1002 65 10000 4.63 200 13:27 14.01.2022
4313 Clouds 5 1002 65 10000 7.72 230 12:24 14.01.2022
4314 Clouds 4 1002 70 10000 2.57 290 10:47 14.01.2022
4315 Clouds 1 1002 92 10000 0.84 292 08:54 14.01.2022
4316 Clouds 2 1002 93 10000 0.76 283 07:56 14.01.2022
4317 Clouds 7 1000 70 10000 8.75 230 03:50 14.01.2022
4318 Rain 8 998 66 10000 10.8 240 00:44 14.01.2022
4319 Clouds 10 998 57 10000 10.8 230 22:35 13.01.2022
4320 Clouds 10 997 57 10000 11.83 230 21:30 13.01.2022
4321 Clouds 9 997 66 10000 13.89 220 20:54 13.01.2022
4322 Clouds 12 997 50 10000 9.77 220 19:32 13.01.2022
4323 Clouds 12 998 50 10000 4.63 200 18:57 13.01.2022
4324 Clouds 11 998 54 10000 7.2 180 17:25 13.01.2022
4325 Clouds 11 999 50 10000 3.6 140 16:19 13.01.2022
4326 Clouds 10 999 53 10000 2.57 140 15:35 13.01.2022
4327 Clouds 8 1000 71 10000 2.06 140 13:47 13.01.2022
4328 Clouds 6 1000 61 10000 0 0 12:25 13.01.2022
4329 Clouds 1 1003 88 10000 2.22 337 09:38 13.01.2022
4330 Clouds 1 1003 91 10000 2.27 329 08:54 13.01.2022
4331 Clouds 1 1003 91 10000 2.16 326 08:24 13.01.2022
4332 Clouds 1 1002 90 10000 1.96 325 07:21 13.01.2022
4333 Clouds 1 1002 90 10000 1.87 318 05:57 13.01.2022
4334 Clouds 2 1002 90 10000 1.36 314 05:18 13.01.2022
4335 Clouds 7 999 65 10000 8.75 230 01:53 13.01.2022
4336 Clouds 7 998 70 10000 15.43 220 00:40 13.01.2022
4337 Clouds 8 997 61 10000 14.4 220 23:45 12.01.2022
4338 Clouds 11 995 40 10000 14.4 220 22:57 12.01.2022
4339 Clouds 11 994 43 10000 16.98 220 21:56 12.01.2022
4340 Clouds 11 994 43 10000 16.98 220 21:21 12.01.2022
4341 Clouds 11 994 43 10000 13.89 210 20:56 12.01.2022
4342 Clouds 9 993 66 10000 16.46 220 19:35 12.01.2022
4343 Clouds 10 992 50 10000 14.4 230 18:30 12.01.2022
4344 Clouds 9 996 61 10000 16.98 230 16:59 12.01.2022
4345 Clouds 9 996 61 10000 16.98 230 16:26 12.01.2022
4346 Clouds 8 988 71 10000 16.98 230 14:48 12.01.2022
4347 Drizzle 10 987 57 10000 10.29 270 12:58 12.01.2022
4348 Clouds 8 986 66 10000 0 0 10:38 12.01.2022
4349 Clouds 5 988 93 10000 3.36 336 08:37 12.01.2022
4350 Clouds 4 990 94 10000 3.23 348 07:34 12.01.2022
4351 Clouds 3 991 95 10000 2.93 359 06:49 12.01.2022
4352 Clouds 8 996 66 10000 10.29 200 23:31 11.01.2022
4353 Clouds 7 996 70 10000 12.86 200 22:49 11.01.2022
4354 Clouds 7 996 70 10000 12.86 200 22:21 11.01.2022
4355 Clouds 8 994 66 10000 16.98 230 20:51 11.01.2022
4356 Clouds 8 994 71 10000 16.46 230 19:45 11.01.2022
4357 Clouds 8 994 66 10000 15.43 230 18:31 11.01.2022
4358 Clouds 7 994 70 10000 13.89 230 17:24 11.01.2022
4359 Clouds 6 994 75 10000 17.49 230 16:37 11.01.2022
4360 Clouds 6 994 75 10000 7.72 230 15:35 11.01.2022
4361 Rain 4 994 81 8000 16.46 230 14:41 11.01.2022
4362 Rain 4 993 87 7000 12.35 230 13:55 11.01.2022
4363 Rain 4 993 87 7000 12.35 230 13:34 11.01.2022
4364 Rain 4 992 87 10000 9.26 230 12:42 11.01.2022
4365 Clouds 3 992 87 10000 9.26 230 11:40 11.01.2022
4366 Rain 3 990 97 3322 3.73 249 09:29 11.01.2022
4367 Rain 3 988 97 1753 3.37 244 06:37 11.01.2022
4368 Rain 5 984 81 10000 15.95 230 00:31 11.01.2022
4369 Rain 6 983 70 10000 14.92 230 23:41 10.01.2022
4370 Rain 9 982 53 10000 17.49 230 22:51 10.01.2022
4371 Rain 9 982 53 10000 17.49 230 22:19 10.01.2022
4372 Clouds 9 983 49 10000 8.23 230 21:54 10.01.2022
4373 Clouds 9 983 49 10000 8.23 230 21:20 10.01.2022
4374 Clouds 7 982 61 10000 8.23 250 20:56 10.01.2022
4375 Clouds 7 982 61 10000 8.23 250 20:28 10.01.2022
4376 Clouds 6 981 70 10000 11.83 250 19:42 10.01.2022
4377 Rain 6 981 70 10000 11.83 250 19:20 10.01.2022
4378 Drizzle 6 979 75 10000 18.01 230 18:48 10.01.2022
4379 Drizzle 7 979 70 10000 15.43 230 17:41 10.01.2022
4380 Drizzle 11 976 40 10000 11.32 230 16:42 10.01.2022
4381 Rain 8 976 76 10000 13.89 230 15:45 10.01.2022
4382 Rain 11 975 66 10000 7.2 230 14:30 10.01.2022
4383 Clouds 11 977 46 10000 8.75 270 11:58 10.01.2022
4384 Clouds 11 977 46 10000 8.75 270 11:25 10.01.2022
4385 Rain 6 981 90 10000 5.56 333 09:50 10.01.2022
4386 Rain 6 988 91 10000 3.77 335 07:18 10.01.2022
4387 Clouds 5 990 88 10000 3.1 343 05:49 10.01.2022
4388 Clouds 5 990 88 10000 3.1 343 05:49 10.01.2022
4389 Clouds 7 997 70 10000 0 0 01:30 10.01.2022
4390 Clouds 7 998 70 10000 3.6 230 00:25 10.01.2022
4391 Clouds 8 999 61 10000 4.63 230 23:40 09.01.2022
4392 Clouds 8 1000 61 10000 5.66 230 22:38 09.01.2022
4393 Clouds 8 1001 61 10000 6.69 230 21:46 09.01.2022
4394 Clouds 8 1001 61 10000 6.69 230 21:23 09.01.2022
4395 Clouds 8 1000 61 10000 9.77 230 20:52 09.01.2022
4396 Clouds 8 1000 61 10000 9.77 230 20:34 09.01.2022
4397 Clouds 9 1001 53 10000 10.29 230 19:45 09.01.2022
4398 Clouds 9 1001 53 10000 10.29 230 19:23 09.01.2022
4399 Clouds 9 1001 49 10000 12.86 230 18:56 09.01.2022
4400 Clouds 9 1001 49 10000 12.86 230 18:34 09.01.2022
4401 Clouds 8 1002 49 10000 11.83 230 17:40 09.01.2022
4402 Clouds 8 1002 49 10000 11.83 230 17:20 09.01.2022
4403 Clouds 8 1002 66 10000 11.83 230 15:58 09.01.2022
4404 Clouds 8 1002 66 10000 11.83 230 15:35 09.01.2022
4405 Drizzle 7 1002 81 10000 15.43 230 14:40 09.01.2022
4406 Clouds 7 1002 87 10000 11.32 230 13:51 09.01.2022
4407 Clouds 7 1002 87 10000 11.32 230 13:22 09.01.2022
4408 Clouds 7 1003 76 10000 3.09 270 11:54 09.01.2022
4409 Clouds 6 1002 75 10000 6.17 230 10:53 09.01.2022
4410 Rain 5 1002 97 447 0.6 286 09:50 09.01.2022
4411 Clouds 5 1002 93 10000 0.83 258 08:52 09.01.2022
4412 Clouds 4 1002 94 10000 1.57 300 05:38 09.01.2022
4413 Clouds 7 1001 81 10000 10.29 230 01:24 09.01.2022
4414 Clouds 10 1000 62 10000 9.26 230 23:47 08.01.2022
4415 Clouds 10 1000 62 10000 9.26 230 23:26 08.01.2022
4416 Clouds 10 999 57 10000 13.89 230 22:30 08.01.2022
4417 Clouds 11 997 46 10000 14.4 230 21:26 08.01.2022
4418 Clouds 12 996 40 10000 12.35 200 20:42 08.01.2022
4419 Clouds 12 996 40 10000 12.35 200 20:21 08.01.2022
4420 Clouds 11 994 43 10000 15.95 230 18:45 08.01.2022
4421 Clouds 10 992 50 10000 16.98 230 17:23 08.01.2022
4422 Drizzle 8 991 66 10000 15.43 230 15:58 08.01.2022
4423 Drizzle 8 992 71 10000 14.92 230 14:46 08.01.2022
4424 Clouds 10 989 46 10000 11.83 230 13:41 08.01.2022
4425 Clouds 10 987 43 10000 13.38 230 11:30 08.01.2022
4426 Clouds 10 986 46 10000 8.75 230 10:31 08.01.2022
4427 Clouds 11 985 50 10000 7.2 230 09:54 08.01.2022
4428 Clouds 11 985 50 10000 7.2 230 09:28 08.01.2022
4429 Clouds 9 988 81 10000 3.6 180 04:25 08.01.2022
4430 Rain 11 994 66 8000 7.2 360 00:58 08.01.2022
4431 Clouds 12 997 58 10000 4.12 360 22:54 07.01.2022
4432 Rain 13 999 50 10000 6.17 360 21:34 07.01.2022
4433 Rain 13 1000 50 10000 6.17 360 20:23 07.01.2022
4434 Clouds 13 1001 44 10000 2.06 90 19:26 07.01.2022
4435 Clouds 13 1001 44 10000 2.06 90 19:26 07.01.2022
4436 Clouds 13 1002 44 10000 2.57 50 18:45 07.01.2022
4437 Clouds 12 1003 50 10000 1.54 70 17:28 07.01.2022
4438 Clear 12 1004 54 10000 3.09 90 16:41 07.01.2022
4439 Clear 10 1006 66 10000 1.03 50 14:50 07.01.2022
4440 Clear 11 1007 54 10000 1.54 140 13:50 07.01.2022
4441 Clear 8 1008 76 10000 0 0 12:50 07.01.2022
4442 Clouds 4 1008 100 10000 4.12 360 09:48 07.01.2022
4443 Clouds 10 1005 50 10000 10.8 230 02:58 07.01.2022
4444 Clouds 10 1005 50 10000 10.8 230 02:21 07.01.2022
4445 Clear 11 1004 50 10000 11.32 230 01:45 07.01.2022
4446 Clear 11 1004 50 10000 11.32 230 01:23 07.01.2022
4447 Clear 12 1004 50 10000 11.32 230 00:28 07.01.2022
4448 Clouds 13 1000 62 10000 14.4 230 21:40 06.01.2022
4449 Clouds 14 998 62 10000 15.43 230 20:37 06.01.2022
4450 Clouds 14 997 67 10000 11.32 203 19:54 06.01.2022
4451 Clouds 14 997 67 10000 11.32 203 19:29 06.01.2022
4452 Clouds 14 997 77 10000 1.54 50 17:51 06.01.2022
4453 Clouds 14 997 77 10000 1.54 50 17:19 06.01.2022
4454 Clouds 12 996 76 10000 2.06 70 16:22 06.01.2022
4455 Clouds 12 996 71 10000 3.6 90 15:41 06.01.2022
4456 Clouds 12 996 71 10000 3.6 90 15:20 06.01.2022
4457 Rain 10 997 76 10000 4.12 110 14:19 06.01.2022
4458 Rain 9 998 66 10000 4.12 270 12:59 06.01.2022
4459 Clouds 8 999 85 10000 2.78 358 12:20 06.01.2022
4460 Rain 8 998 81 10000 3.6 270 11:29 06.01.2022
4461 Clouds 6 1000 87 10000 3.6 270 09:50 06.01.2022
4462 Clouds 5 1003 87 10000 2.24 358 05:55 06.01.2022
4463 Clouds 11 1000 50 10000 13.89 230 00:27 06.01.2022
4464 Clouds 12 999 50 10000 14.4 230 23:22 05.01.2022
4465 Clouds 12 998 50 10000 15.43 200 22:42 05.01.2022
4466 Clouds 12 998 50 10000 15.43 200 22:18 05.01.2022
4467 Clouds 13 997 47 10000 13.38 200 21:23 05.01.2022
4468 Clouds 12 996 50 10000 15.43 200 20:30 05.01.2022
4469 Clouds 12 996 54 10000 15.95 230 19:29 05.01.2022
4470 Clouds 12 996 54 10000 15.43 220 18:20 05.01.2022
4471 Clouds 11 995 58 10000 13.89 220 16:56 05.01.2022
4472 Clouds 11 995 58 10000 13.89 220 16:18 05.01.2022
4473 Clouds 9 995 66 10000 11.83 230 14:56 05.01.2022
4474 Clouds 9 995 61 10000 10.8 230 13:34 05.01.2022
4475 Clouds 8 996 61 10000 4.12 270 12:20 05.01.2022
4476 Clouds 5 996 70 10000 4.12 180 08:29 05.01.2022
4477 Clouds 3 999 93 10000 1.03 320 06:37 05.01.2022
4478 Clouds 5 1002 75 10000 9.77 230 01:24 05.01.2022
4479 Clouds 7 1002 49 10000 8.75 230 23:43 04.01.2022
4480 Clouds 7 1002 49 10000 8.75 230 23:21 04.01.2022
4481 Clouds 8 1001 49 10000 11.32 200 21:41 04.01.2022
4482 Clouds 8 1001 49 10000 10.8 200 20:42 04.01.2022
4483 Clouds 6 1001 61 10000 12.35 220 18:39 04.01.2022
4484 Clouds 6 1001 65 10000 10.8 230 17:30 04.01.2022
4485 Clouds 6 1001 61 10000 13.89 220 16:33 04.01.2022
4486 Rain 6 1000 65 10000 13.89 220 15:20 04.01.2022
4487 Rain 6 1000 52 10000 10.8 230 14:37 04.01.2022
4488 Rain 5 999 65 10000 12.86 220 13:55 04.01.2022
4489 Rain 5 998 70 10000 13.38 220 12:22 04.01.2022
4490 Rain 4 996 100 10000 19.55 230 10:23 04.01.2022
4491 Clouds 5 994 87 10000 11.83 230 08:57 04.01.2022
4492 Clouds 5 993 81 10000 11.32 230 06:28 04.01.2022
4493 Clouds 7 988 49 10000 11.83 230 00:43 04.01.2022
4494 Clouds 8 987 46 10000 8.75 230 23:56 03.01.2022
4495 Clouds 8 986 49 10000 13.38 230 22:22 03.01.2022
4496 Clouds 9 984 46 10000 11.32 200 21:39 03.01.2022
4497 Clouds 9 984 43 10000 12.35 200 20:41 03.01.2022
4498 Clouds 9 984 43 10000 13.38 200 19:38 03.01.2022
4499 Clouds 10 983 66 10000 11.83 200 18:31 03.01.2022
4500 Clouds 9 983 43 10000 12.86 200 17:21 03.01.2022
4501 Clouds 8 983 42 10000 12.35 230 16:53 03.01.2022
4502 Clouds 6 983 56 10000 11.83 230 14:32 03.01.2022
4503 Clouds 5 983 52 10000 11.32 230 12:53 03.01.2022
4504 Clouds 5 984 52 10000 12.35 230 11:50 03.01.2022
4505 Clouds 4 984 52 10000 8.75 230 10:52 03.01.2022
4506 Clouds 4 984 52 10000 4.63 230 09:28 03.01.2022
4507 Clouds 4 998 65 10000 12.35 230 07:54 03.01.2022
4508 Clouds 5 984 56 10000 8.23 230 03:22 03.01.2022
4509 Clouds 6 980 56 10000 17.49 200 23:32 02.01.2022
4510 Drizzle 5 980 70 10000 14.92 220 22:56 02.01.2022
4511 Drizzle 5 980 70 10000 14.92 220 22:20 02.01.2022
4512 Drizzle 5 979 70 10000 16.98 230 20:52 02.01.2022
4513 Drizzle 5 979 70 10000 16.98 230 20:30 02.01.2022
4514 Drizzle 5 979 70 10000 16.98 230 20:30 02.01.2022
4515 Clouds 7 977 57 10000 17.49 220 19:32 02.01.2022
4516 Clouds 7 975 53 10000 19.55 220 18:56 02.01.2022
4517 Clouds 7 975 53 10000 19.55 220 18:23 02.01.2022
4518 Drizzle 5 975 75 10000 19.55 220 17:42 02.01.2022
4519 Drizzle 5 975 75 10000 19.55 220 17:21 02.01.2022
4520 Drizzle 6 975 70 10000 18.52 230 16:28 02.01.2022
4521 Drizzle 6 973 61 10000 18.52 230 15:18 02.01.2022
4522 Drizzle 5 972 70 10000 15.95 230 13:38 02.01.2022
4523 Drizzle 5 971 70 10000 15.95 230 12:32 02.01.2022
4524 Clouds 5 972 75 10000 7.72 230 11:55 02.01.2022
4525 Clouds 5 970 75 9000 11.32 230 10:55 02.01.2022
4526 Rain 5 970 81 10000 12.86 230 09:58 02.01.2022
4527 Clouds 5 968 75 10000 15.43 230 07:35 02.01.2022
4528 Rain 7 966 70 10000 16.98 230 02:56 02.01.2022
4529 Rain 9 967 76 10000 8.23 350 23:50 01.01.2022
4530 Rain 9 967 76 10000 8.23 350 23:27 01.01.2022
4531 Rain 11 967 66 10000 3.6 230 22:25 01.01.2022
4532 Rain 12 967 58 10000 4.12 360 21:54 01.01.2022
4533 Rain 12 967 58 10000 4.12 360 21:36 01.01.2022
4534 Rain 11 968 62 10000 7.72 360 20:27 01.01.2022
4535 Rain 12 969 50 10000 6.17 360 19:36 01.01.2022
4536 Rain 13 969 44 10000 7.72 360 18:51 01.01.2022
4537 Drizzle 12 971 50 10000 7.2 360 17:41 01.01.2022
4538 Drizzle 13 972 47 10000 4.63 320 16:35 01.01.2022
4539 Drizzle 11 973 40 10000 5.66 360 15:42 01.01.2022
4540 Drizzle 10 975 46 10000 5.14 320 14:39 01.01.2022
4541 Drizzle 8 976 46 10000 5.66 360 13:41 01.01.2022
4542 Rain 6 979 88 10000 5.82 358 12:25 01.01.2022
4543 Drizzle 8 978 53 10000 6.69 360 11:26 01.01.2022
4544 Clouds 7 979 53 10000 7.2 320 10:58 01.01.2022
4545 Rain 8 980 46 10000 4.12 50 09:48 01.01.2022
4546 Clouds 7 981 70 10000 6.69 360 08:39 01.01.2022
4547 Clouds 8 982 46 10000 8.23 320 07:57 01.01.2022
4548 Clouds 8 982 46 10000 8.23 320 07:38 01.01.2022
4549 Clouds 6 982 81 10000 5.66 320 06:44 01.01.2022
4550 Clouds 6 983 70 10000 2.06 50 04:40 01.01.2022
4551 Rain 7 983 61 10000 3.09 230 03:52 01.01.2022
4552 Rain 9 982 53 10000 11.32 230 00:23 01.01.2022
4553 Rain 8 981 57 10000 13.38 220 22:30 31.12.2021
4554 Rain 8 980 71 10000 12.86 220 21:47 31.12.2021
4555 Rain 7 978 65 10000 15.43 230 19:48 31.12.2021
4556 Rain 7 978 65 10000 15.43 230 19:28 31.12.2021
4557 Rain 9 979 66 10000 6.17 200 18:18 31.12.2021
4558 Rain 9 978 61 10000 11.83 220 17:28 31.12.2021
4559 Rain 9 977 66 10000 13.38 230 16:52 31.12.2021
4560 Rain 9 977 66 10000 13.38 230 16:18 31.12.2021
4561 Rain 10 978 66 10000 9.26 230 15:50 31.12.2021
4562 Rain 10 978 66 10000 9.26 230 15:27 31.12.2021
4563 Rain 12 979 54 10000 2.57 50 14:41 31.12.2021
4564 Rain 12 979 58 10000 3.6 140 13:55 31.12.2021
4565 Clouds 10 980 62 10000 2.06 230 12:53 31.12.2021
4566 Clouds 10 980 62 10000 2.06 230 12:26 31.12.2021
4567 Clouds 9 980 71 10000 4.12 230 11:42 31.12.2021
4568 Drizzle 9 981 57 10000 4.12 230 10:56 31.12.2021
4569 Drizzle 9 981 57 10000 4.12 230 10:28 31.12.2021
4570 Clouds 10 981 62 10000 5.14 180 09:35 31.12.2021
4571 Clouds 10 982 57 10000 5.14 360 08:54 31.12.2021
4572 Clouds 10 982 57 10000 5.14 360 08:23 31.12.2021
4573 Clouds 9 984 57 10000 1.54 180 06:24 31.12.2021
4574 Clouds 13 989 44 10000 5.66 320 23:19 30.12.2021
4575 Clouds 13 989 50 10000 1.54 220 22:32 30.12.2021
4576 Clouds 13 990 47 10000 3.6 230 21:40 30.12.2021
4577 Clouds 13 990 47 10000 3.6 230 21:20 30.12.2021
4578 Clouds 13 990 47 10000 4.12 200 20:40 30.12.2021
4579 Clouds 14 990 41 10000 4.63 320 19:58 30.12.2021
4580 Clouds 14 990 41 10000 4.63 320 19:36 30.12.2021
4581 Clouds 15 990 44 10000 2.57 170 18:29 30.12.2021
4582 Clouds 14 990 47 10000 3.09 100 17:34 30.12.2021
4583 Rain 13 991 50 10000 3.6 180 15:55 30.12.2021
4584 Rain 13 991 50 10000 3.6 180 15:36 30.12.2021
4585 Clouds 12 991 50 10000 2.57 140 14:36 30.12.2021
4586 Clouds 11 992 54 10000 2.06 230 13:31 30.12.2021
4587 Clouds 9 992 66 10000 3.09 140 11:58 30.12.2021
4588 Clouds 7 992 53 10000 3.09 90 10:44 30.12.2021
4589 Clouds 6 992 65 10000 2.57 180 09:50 30.12.2021
4590 Clouds 6 992 65 10000 1.03 230 07:42 30.12.2021
4591 Clouds 6 993 65 10000 2.06 140 06:38 30.12.2021
4592 Clouds 6 993 56 10000 6.69 230 03:41 30.12.2021
4593 Clouds 7 992 81 10000 10.8 230 02:38 30.12.2021
4594 Rain 8 989 61 10000 13.38 230 23:41 29.12.2021
4595 Rain 8 988 71 10000 12.86 230 22:59 29.12.2021
4596 Rain 8 988 71 10000 12.86 230 22:18 29.12.2021
4597 Rain 9 987 71 10000 15.43 230 21:27 29.12.2021
4598 Rain 12 985 54 10000 12.86 230 20:31 29.12.2021
4599 Rain 12 984 58 10000 9.26 230 19:44 29.12.2021
4600 Rain 13 984 54 10000 3.09 0 18:47 29.12.2021
4601 Rain 10 985 71 10000 8.23 230 17:54 29.12.2021
4602 Rain 10 985 71 10000 8.23 230 17:27 29.12.2021
4603 Rain 10 984 71 10000 10.8 230 16:24 29.12.2021
4604 Rain 10 984 76 10000 10.8 230 15:45 29.12.2021
4605 Rain 10 984 87 10000 1.54 230 13:55 29.12.2021
4606 Rain 10 985 87 10000 2.57 180 12:37 29.12.2021
4607 Drizzle 10 986 81 10000 4.12 230 11:35 29.12.2021
4608 Rain 8 989 96 5443 3.74 4 09:58 29.12.2021
4609 Drizzle 12 992 54 10000 3.6 50 07:51 29.12.2021
4610 Drizzle 12 995 47 10000 8.23 320 06:38 29.12.2021
4611 Drizzle 12 995 47 10000 8.23 320 06:18 29.12.2021
4612 Clouds 12 996 40 10000 6.17 320 05:36 29.12.2021
4613 Rain 12 1000 50 10000 6.17 340 02:46 29.12.2021
4614 Clouds 13 1001 44 10000 3.09 340 00:23 29.12.2021
4615 Clouds 13 1002 44 10000 2.06 50 23:34 28.12.2021
4616 Clouds 13 1002 47 10000 1.54 140 22:42 28.12.2021
4617 Clouds 13 1002 47 10000 1.54 140 22:24 28.12.2021
4618 Clouds 13 1003 41 10000 1.54 210 21:37 28.12.2021
4619 Clouds 12 1004 40 10000 3.6 220 20:39 28.12.2021
4620 Clouds 12 1004 43 10000 4.63 230 19:24 28.12.2021
4621 Clouds 11 1004 54 10000 7.2 230 18:39 28.12.2021
4622 Clouds 10 1004 62 10000 7.2 230 17:59 28.12.2021
4623 Clouds 9 1004 66 10000 8.75 230 16:34 28.12.2021
4624 Rain 8 1004 71 10000 7.72 230 15:50 28.12.2021
4625 Rain 8 1004 71 10000 7.72 230 15:21 28.12.2021
4626 Rain 7 1004 76 10000 8.23 230 14:48 28.12.2021
4627 Rain 7 1004 76 10000 8.23 230 14:21 28.12.2021
4628 Drizzle 7 1003 76 10000 7.2 230 13:42 28.12.2021
4629 Drizzle 7 1003 76 10000 7.2 230 13:24 28.12.2021
4630 Rain 6 1003 75 10000 4.63 230 12:49 28.12.2021
4631 Drizzle 6 1003 75 10000 3.09 270 11:46 28.12.2021
4632 Clouds 6 1001 75 10000 2.57 250 08:35 28.12.2021
4633 Rain 5 1001 87 10000 6.17 230 06:42 28.12.2021
4634 Drizzle 7 997 76 10000 9.26 230 00:34 28.12.2021
4635 Drizzle 6 996 81 10000 7.2 230 23:24 27.12.2021
4636 Clouds 8 994 71 10000 10.29 230 21:42 27.12.2021
4637 Clouds 8 994 71 10000 10.29 230 21:21 27.12.2021
4638 Clouds 8 993 66 10000 13.38 230 20:24 27.12.2021
4639 Clouds 8 993 71 10000 14.4 230 19:42 27.12.2021
4640 Drizzle 8 992 71 10000 14.92 230 18:52 27.12.2021
4641 Drizzle 10 991 62 10000 16.46 230 17:49 27.12.2021
4642 Rain 11 991 58 10000 10.29 230 16:55 27.12.2021
4643 Rain 10 991 57 10000 7.2 230 15:52 27.12.2021
4644 Rain 8 992 71 10000 8.75 230 14:33 27.12.2021
4645 Rain 7 991 81 10000 6.17 230 13:40 27.12.2021
4646 Drizzle 6 991 87 10000 8.75 230 12:47 27.12.2021
4647 Drizzle 8 990 71 10000 6.17 230 10:32 27.12.2021
4648 Drizzle 8 990 76 10000 4.63 230 09:57 27.12.2021
4649 Drizzle 8 990 71 10000 4.63 230 08:39 27.12.2021
4650 Drizzle 8 991 76 10000 6.17 230 07:32 27.12.2021
4651 Clouds 11 995 46 10000 5.14 230 02:24 27.12.2021
4652 Clouds 12 995 47 10000 8.23 230 00:23 27.12.2021
4653 Clouds 13 995 47 10000 10.29 230 23:41 26.12.2021
4654 Clouds 14 994 44 10000 11.83 230 22:47 26.12.2021
4655 Clouds 13 994 44 10000 11.32 230 21:29 26.12.2021
4656 Clouds 14 993 38 10000 12.35 230 19:49 26.12.2021
4657 Clouds 14 993 41 10000 13.38 230 18:25 26.12.2021
4658 Clouds 14 994 38 10000 11.83 230 17:44 26.12.2021
4659 Clouds 13 993 54 10000 10.29 230 14:38 26.12.2021
4660 Rain 15 993 47 10000 5.14 270 13:43 26.12.2021
4661 Rain 15 993 47 10000 5.14 270 13:21 26.12.2021
4662 Rain 14 992 44 10000 10.29 290 12:34 26.12.2021
4663 Rain 14 992 44 10000 8.75 290 11:18 26.12.2021
4664 Rain 13 993 44 10000 7.2 290 09:30 26.12.2021
4665 Rain 12 994 50 10000 1.03 0 08:44 26.12.2021
4666 Clouds 12 994 50 10000 1.03 0 08:23 26.12.2021
4667 Clouds 13 996 44 10000 5.66 230 01:45 26.12.2021
4668 Clouds 14 996 44 10000 2.06 230 00:28 26.12.2021
4669 Clouds 15 997 44 10000 2.06 180 23:35 25.12.2021
4670 Clouds 13 997 44 10000 3.09 230 22:29 25.12.2021
4671 Clouds 14 997 47 10000 6.17 230 21:30 25.12.2021
4672 Clouds 14 997 47 10000 5.66 230 20:18 25.12.2021
4673 Clouds 14 998 47 10000 7.72 230 19:18 25.12.2021
4674 Clouds 14 997 51 10000 7.2 230 18:29 25.12.2021
4675 Clouds 13 998 62 10000 8.75 230 16:50 25.12.2021
4676 Clouds 13 998 62 10000 9.26 230 15:34 25.12.2021
4677 Clouds 12 997 66 10000 7.2 230 14:23 25.12.2021
4678 Clouds 11 997 71 10000 4.63 250 12:21 25.12.2021
4679 Clouds 10 997 76 10000 4.63 270 10:46 25.12.2021
4680 Clouds 10 996 71 10000 6.17 230 09:49 25.12.2021
4681 Clouds 10 996 71 10000 7.2 250 07:27 25.12.2021
4682 Clouds 17 997 45 10000 8.23 300 01:42 25.12.2021
4683 Clouds 17 997 48 10000 1.54 150 00:22 25.12.2021
4684 Clouds 17 999 42 10000 4.12 230 21:59 24.12.2021
4685 Clouds 14 999 54 10000 10.8 230 19:27 24.12.2021
4686 Clouds 14 1000 54 10000 8.23 230 18:56 24.12.2021
4687 Clouds 14 1000 58 10000 5.14 230 16:49 24.12.2021
4688 Clouds 15 1000 58 10000 5.14 230 15:52 24.12.2021
4689 Clouds 15 1000 58 10000 5.14 230 15:32 24.12.2021
4690 Clouds 14 1001 62 10000 5.14 230 14:35 24.12.2021
4691 Clouds 12 1001 82 10000 5.14 230 13:59 24.12.2021
4692 Clouds 12 1001 82 10000 5.14 230 13:32 24.12.2021
4693 Clouds 11 1001 87 10000 0 0 12:47 24.12.2021
4694 Drizzle 10 1001 93 10000 0 0 11:47 24.12.2021
4695 Drizzle 10 1001 93 10000 0 0 11:24 24.12.2021
4696 Clouds 10 1001 87 10000 0 0 10:45 24.12.2021
4697 Clouds 10 1001 87 10000 0 0 09:25 24.12.2021
4698 Clouds 10 1001 87 10000 1.54 50 08:19 24.12.2021
4699 Drizzle 9 1001 93 10000 1.54 140 07:44 24.12.2021
4700 Clouds 12 1001 76 10000 4.63 230 01:30 24.12.2021
4701 Clouds 13 1001 71 10000 6.69 230 23:55 23.12.2021
4702 Drizzle 14 1002 62 10000 7.2 230 22:54 23.12.2021
4703 Drizzle 14 1002 62 10000 7.2 230 22:27 23.12.2021
4704 Drizzle 14 1002 62 10000 7.72 230 21:59 23.12.2021
4705 Drizzle 14 1002 58 10000 5.66 230 20:54 23.12.2021
4706 Clouds 15 1002 51 10000 2.06 230 19:39 23.12.2021
4707 Clouds 16 1003 41 10000 1.54 90 18:34 23.12.2021
4708 Clear 15 1003 47 10000 2.06 230 17:55 23.12.2021
4709 Clear 14 1003 54 10000 4.63 230 16:43 23.12.2021
4710 Clear 14 1003 54 10000 4.63 230 16:23 23.12.2021
4711 Clear 12 1004 58 10000 5.66 230 15:31 23.12.2021
4712 Clear 12 1004 58 10000 5.66 230 15:31 23.12.2021
4713 Clouds 12 1004 62 10000 7.2 230 14:49 23.12.2021
4714 Clouds 12 1004 62 10000 7.2 230 14:30 23.12.2021
4715 Clear 12 1005 40 10000 5.66 270 12:53 23.12.2021
4716 Clouds 11 1004 40 10000 7.2 250 10:43 23.12.2021
4717 Clouds 11 1004 35 10000 7.2 250 09:35 23.12.2021
4718 Clouds 12 1004 32 10000 5.66 270 08:59 23.12.2021
4719 Clouds 12 1003 32 10000 8.75 250 06:51 23.12.2021
4720 Clouds 12 1003 40 10000 9.26 230 04:30 23.12.2021
4721 Clouds 15 1004 47 10000 6.69 230 22:57 22.12.2021
4722 Clouds 15 1004 47 10000 6.69 230 22:39 22.12.2021
4723 Clouds 15 1005 44 10000 6.69 230 21:54 22.12.2021
4724 Clouds 15 1005 44 10000 6.69 230 21:29 22.12.2021
4725 Clear 15 1006 41 10000 8.75 230 20:44 22.12.2021
4726 Clear 15 1006 41 10000 8.75 230 20:25 22.12.2021
4727 Clear 14 1006 44 10000 8.23 230 19:19 22.12.2021
4728 Clear 12 1008 58 10000 8.75 230 17:42 22.12.2021
4729 Clear 13 1009 50 10000 8.75 230 16:38 22.12.2021
4730 Clear 12 1009 50 10000 9.26 230 15:39 22.12.2021
4731 Clouds 11 1009 54 10000 10.29 230 13:32 22.12.2021
4732 Clouds 10 1009 57 10000 10.8 230 12:39 22.12.2021
4733 Clouds 8 1007 71 10000 15.43 230 09:54 22.12.2021
4734 Clouds 8 1007 71 10000 15.43 230 09:35 22.12.2021
4735 Clouds 9 1005 76 10000 18.01 230 07:25 22.12.2021
4736 Clouds 8 1003 81 10000 14.92 230 05:42 22.12.2021
4737 Clouds 8 1003 81 10000 14.92 230 05:24 22.12.2021
4738 Clouds 9 1002 76 10000 14.4 230 04:49 22.12.2021
4739 Clouds 9 1002 76 10000 14.4 230 04:24 22.12.2021
4740 Clouds 9 1000 76 10000 15.95 230 03:32 22.12.2021
4741 Clouds 10 997 71 10000 17.49 230 00:33 22.12.2021
4742 Clouds 11 995 66 10000 16.98 220 22:52 21.12.2021
4743 Clouds 11 995 66 10000 16.98 220 22:28 21.12.2021
4744 Clouds 12 995 62 10000 17.49 220 21:44 21.12.2021
4745 Rain 12 994 62 10000 16.98 230 20:55 21.12.2021
4746 Clouds 12 994 62 10000 16.98 230 20:21 21.12.2021
4747 Clouds 13 993 62 10000 18.52 230 19:42 21.12.2021
4748 Clouds 13 992 62 10000 15.95 230 18:46 21.12.2021
4749 Clouds 13 992 62 10000 15.95 230 18:21 21.12.2021
4750 Clouds 12 994 66 10000 13.38 230 17:41 21.12.2021
4751 Clouds 11 995 62 10000 11.32 240 15:59 21.12.2021
4752 Clouds 11 995 62 10000 11.32 240 15:20 21.12.2021
4753 Clouds 10 996 57 10000 13.89 220 13:50 21.12.2021
4754 Clouds 10 996 57 10000 13.89 220 13:30 21.12.2021
4755 Clouds 9 997 61 10000 15.95 220 11:49 21.12.2021
4756 Clouds 8 997 61 10000 15.43 230 10:24 21.12.2021
4757 Clouds 8 996 66 10000 16.46 230 09:23 21.12.2021
4758 Clouds 8 995 71 10000 21.61 230 07:58 21.12.2021
4759 Clouds 8 995 71 10000 21.61 230 07:27 21.12.2021
4760 Clouds 8 996 71 10000 15.95 230 05:31 21.12.2021
4761 Clouds 8 994 76 10000 14.92 230 02:51 21.12.2021
4762 Clouds 10 990 71 10000 16.98 230 23:59 20.12.2021
4763 Clouds 10 990 71 10000 16.98 230 23:29 20.12.2021
4764 Clouds 11 990 62 10000 16.98 230 22:30 20.12.2021
4765 Clouds 10 991 62 10000 17.49 230 21:47 20.12.2021
4766 Rain 10 991 62 10000 17.49 230 21:23 20.12.2021
4767 Rain 10 990 66 10000 17.49 230 20:44 20.12.2021
4768 Rain 10 990 62 10000 16.46 230 19:53 20.12.2021
4769 Rain 10 990 62 10000 16.46 230 19:31 20.12.2021
4770 Drizzle 11 991 66 10000 14.92 230 18:54 20.12.2021
4771 Drizzle 11 992 58 10000 14.92 230 17:52 20.12.2021
4772 Drizzle 11 992 58 10000 14.92 230 17:25 20.12.2021
4773 Rain 11 993 66 10000 4.12 270 16:40 20.12.2021
4774 Rain 10 993 66 10000 6.17 230 15:51 20.12.2021
4775 Rain 9 994 76 10000 8.23 230 14:51 20.12.2021
4776 Rain 7 995 76 10000 1.54 270 12:53 20.12.2021
4777 Rain 6 996 87 10000 2.06 50 11:19 20.12.2021
4778 Drizzle 5 998 75 10000 2.06 340 09:47 20.12.2021
4779 Drizzle 5 998 75 10000 2.06 340 09:29 20.12.2021
4780 Drizzle 5 999 75 10000 1.54 10 08:42 20.12.2021
4781 Drizzle 5 1000 70 10000 1.54 0 07:50 20.12.2021
4782 Drizzle 5 1000 70 10000 1.54 0 07:29 20.12.2021
4783 Drizzle 4 1004 75 10000 3.09 320 04:24 20.12.2021
4784 Rain 3 1007 87 10000 3.09 230 23:58 19.12.2021
4785 Drizzle 4 1006 81 10000 8.23 230 22:45 19.12.2021
4786 Drizzle 6 1006 87 10000 8.23 230 21:50 19.12.2021
4787 Drizzle 6 1006 87 10000 8.23 230 21:29 19.12.2021
4788 Drizzle 8 1004 71 10000 9.77 230 20:31 19.12.2021
4789 Drizzle 8 1004 71 10000 9.77 230 19:49 19.12.2021
4790 Drizzle 8 1004 71 10000 9.77 230 19:22 19.12.2021
4791 Drizzle 6 1003 70 10000 12.35 230 18:29 19.12.2021
4792 Drizzle 6 1003 70 10000 12.35 230 18:29 19.12.2021
4793 Rain 9 1002 46 10000 15.95 230 17:52 19.12.2021
4794 Clouds 9 1002 46 10000 9.26 230 17:19 19.12.2021
4795 Clouds 7 1004 70 10000 9.26 230 16:26 19.12.2021
4796 Drizzle 6 1004 75 10000 12.35 230 15:42 19.12.2021
4797 Drizzle 6 1004 75 10000 12.35 230 15:20 19.12.2021
4798 Drizzle 6 1004 56 10000 13.38 230 14:41 19.12.2021
4799 Drizzle 6 1004 56 10000 13.89 230 13:22 19.12.2021
4800 Clouds 6 1004 56 10000 11.83 230 12:42 19.12.2021
4801 Clouds 6 1004 56 10000 11.83 230 12:18 19.12.2021
4802 Clouds 6 1003 56 10000 10.8 230 11:19 19.12.2021
4803 Clouds 6 1002 52 10000 16.46 230 10:25 19.12.2021
4804 Drizzle 6 1002 75 10000 15.43 230 09:41 19.12.2021
4805 Rain 7 1001 76 10000 13.89 230 08:25 19.12.2021
4806 Rain 11 999 82 10000 14.4 230 04:45 19.12.2021
4807 Rain 11 999 82 10000 14.4 230 04:45 19.12.2021
4808 Clouds 15 1000 58 10000 11.32 230 01:22 19.12.2021
4809 Clouds 17 1000 51 10000 10.8 230 00:52 19.12.2021
4810 Clouds 18 1002 45 10000 7.72 230 22:36 18.12.2021
4811 Clear 18 1003 48 10000 5.14 220 21:57 18.12.2021
4812 Clear 18 1003 48 10000 5.14 220 21:35 18.12.2021
4813 Clear 21 1005 37 10000 2.57 190 20:44 18.12.2021
4814 Clear 20 1006 42 10000 3.6 180 19:59 18.12.2021
4815 Clear 20 1006 42 10000 3.6 180 19:20 18.12.2021
4816 Clear 19 1008 52 10000 2.06 180 18:21 18.12.2021
4817 Clouds 19 1009 52 10000 2.57 80 17:48 18.12.2021
4818 Clear 17 1011 55 10000 0 0 16:26 18.12.2021
4819 Clear 15 1012 63 10000 0 0 15:27 18.12.2021
4820 Clear 13 1013 67 10000 0 0 14:38 18.12.2021
4821 Clear 11 1014 76 10000 0 0 13:21 18.12.2021
4822 Clear 10 1016 87 10000 0 0 11:22 18.12.2021
4823 Clouds 8 1017 87 10000 0 0 09:40 18.12.2021
4824 Clear 8 1017 87 10000 2.57 320 08:47 18.12.2021
4825 Clear 8 1017 87 10000 2.57 320 08:23 18.12.2021
4826 Clouds 10 1019 76 10000 5.66 230 03:42 18.12.2021
4827 Clouds 11 1017 76 10000 9.77 230 00:29 18.12.2021
4828 Clouds 12 1017 71 10000 9.26 230 23:44 17.12.2021
4829 Clouds 14 1016 62 10000 5.66 210 21:57 17.12.2021
4830 Clouds 14 1016 62 10000 5.66 210 21:18 17.12.2021
4831 Clouds 14 1016 62 10000 7.2 230 20:38 17.12.2021
4832 Clouds 14 1016 67 10000 5.66 220 19:24 17.12.2021
4833 Clouds 15 1015 63 10000 3.09 190 18:38 17.12.2021
4834 Clouds 14 1015 72 10000 1.54 160 17:31 17.12.2021
4835 Clouds 11 1015 87 10000 0 0 16:46 17.12.2021
4836 Clouds 11 1015 87 10000 0 0 16:22 17.12.2021
4837 Clouds 9 1015 93 10000 0 0 15:25 17.12.2021
4838 Clouds 8 1014 100 10000 0 0 14:40 17.12.2021
4839 Clouds 8 1013 100 10000 0 0 12:47 17.12.2021
4840 Clouds 8 1013 93 10000 0 0 11:46 17.12.2021
4841 Clouds 7 1012 100 10000 0 0 10:37 17.12.2021
4842 Clouds 7 1012 93 10000 1.54 90 09:33 17.12.2021
4843 Rain 7 1011 93 10000 2.06 90 08:30 17.12.2021
4844 Clouds 7 1011 100 10000 1.03 90 06:22 17.12.2021
4845 Drizzle 8 1010 87 10000 3.09 230 02:53 17.12.2021
4846 Clouds 11 1008 46 10000 9.77 230 23:25 16.12.2021
4847 Clouds 12 1008 40 10000 10.8 230 22:24 16.12.2021
4848 Clouds 12 1008 40 10000 10.8 230 22:24 16.12.2021
4849 Clouds 12 1008 40 10000 10.8 230 22:24 16.12.2021
4850 Clouds 12 1008 40 10000 10.8 230 22:24 16.12.2021
4851 Clouds 12 1008 40 10000 10.8 230 22:23 16.12.2021
4852 Clouds 12 1008 40 10000 10.8 230 22:23 16.12.2021
4853 Clouds 12 1008 40 10000 10.29 230 21:44 16.12.2021
4854 Clouds 13 1008 41 10000 11.83 230 20:55 16.12.2021
4855 Clouds 13 1008 41 10000 11.83 230 20:27 16.12.2021
4856 Clouds 13 1008 44 10000 10.8 230 19:33 16.12.2021
4857 Clear 12 1008 47 10000 11.32 230 18:37 16.12.2021
4858 Clear 11 1007 46 10000 12.86 230 17:48 16.12.2021
4859 Clouds 11 1008 43 10000 12.35 230 16:44 16.12.2021
4860 Clouds 11 1008 43 10000 12.35 230 16:18 16.12.2021
4861 Clouds 9 1007 49 10000 14.92 230 14:32 16.12.2021
4862 Clouds 8 1006 57 10000 16.46 210 12:34 16.12.2021
4863 Clouds 7 1005 61 10000 13.89 220 11:19 16.12.2021
4864 Clouds 7 1005 61 10000 13.89 220 11:19 16.12.2021
4865 Clouds 5 1004 75 10000 18.01 230 10:45 16.12.2021
4866 Clouds 6 1004 75 10000 15.95 230 09:51 16.12.2021
4867 Clouds 6 1000 75 10000 19.03 230 07:19 16.12.2021
4868 Clouds 7 999 61 10000 21.09 230 06:19 16.12.2021
4869 Clouds 11 994 62 10000 18.01 220 00:44 16.12.2021
4870 Clouds 12 995 62 10000 14.4 230 23:21 15.12.2021
4871 Clouds 12 995 62 10000 14.4 230 22:22 15.12.2021
4872 Clouds 13 995 62 10000 14.92 230 21:46 15.12.2021
4873 Clouds 13 995 62 10000 14.92 230 21:26 15.12.2021
4874 Clouds 12 996 66 10000 12.86 230 19:55 15.12.2021
4875 Clouds 12 996 66 10000 12.86 230 19:19 15.12.2021
4876 Clouds 12 997 66 10000 8.23 250 18:26 15.12.2021
4877 Rain 11 998 76 10000 3.6 320 17:47 15.12.2021
4878 Rain 11 998 76 10000 3.6 320 17:27 15.12.2021
4879 Drizzle 11 999 76 10000 4.12 230 16:25 15.12.2021
4880 Drizzle 9 1000 81 10000 5.14 230 15:42 15.12.2021
4881 Drizzle 9 1000 81 10000 5.14 230 15:24 15.12.2021
4882 Drizzle 10 1002 66 10000 4.12 230 13:58 15.12.2021
4883 Clouds 9 1002 61 10000 8.23 230 11:57 15.12.2021
4884 Clouds 10 1002 57 10000 9.77 230 10:23 15.12.2021
4885 Clouds 10 1002 57 10000 9.26 250 08:34 15.12.2021
4886 Clouds 9 1003 66 10000 10.29 230 05:59 15.12.2021
4887 Clouds 11 1002 58 10000 11.83 220 00:47 15.12.2021
4888 Clouds 11 1002 58 10000 12.35 220 23:41 14.12.2021
4889 Clouds 12 1002 50 10000 11.83 230 22:47 14.12.2021
4890 Clouds 12 1002 50 10000 14.4 230 21:48 14.12.2021
4891 Clouds 13 1001 47 10000 13.89 220 20:26 14.12.2021
4892 Clouds 13 1002 47 10000 11.32 220 19:40 14.12.2021
4893 Clouds 13 1002 47 10000 8.75 230 18:42 14.12.2021
4894 Clouds 13 1003 44 10000 9.77 220 17:58 14.12.2021
4895 Clouds 13 1003 44 10000 9.77 220 17:27 14.12.2021
4896 Clouds 12 1004 47 10000 8.75 230 16:38 14.12.2021
4897 Clouds 11 1005 62 10000 3.09 230 14:52 14.12.2021
4898 Clouds 10 1006 62 10000 1.54 360 13:31 14.12.2021
4899 Clear 8 1006 61 10000 4.12 320 11:57 14.12.2021
4900 Clear 8 1006 61 10000 4.12 320 11:23 14.12.2021
4901 Clear 4 1006 81 10000 4.63 320 09:56 14.12.2021
4902 Clear 4 1006 81 10000 4.63 320 09:34 14.12.2021
4903 Clouds 2 1008 93 10000 2.09 329 08:23 14.12.2021
4904 Clouds 5 1007 75 10000 4.63 340 07:43 14.12.2021
4905 Clouds 7 1006 70 10000 8.23 230 02:25 14.12.2021
4906 Drizzle 8 1004 61 10000 8.75 230 22:50 13.12.2021
4907 Drizzle 9 1003 57 10000 10.29 230 21:52 13.12.2021
4908 Drizzle 9 1002 57 10000 10.29 230 20:59 13.12.2021
4909 Drizzle 9 1002 57 10000 10.29 230 20:34 13.12.2021
4910 Drizzle 9 1002 57 10000 8.23 230 19:52 13.12.2021
4911 Drizzle 8 1002 61 10000 4.63 180 17:56 13.12.2021
4912 Rain 8 1002 61 10000 4.63 180 17:24 13.12.2021
4913 Clouds 7 1002 61 10000 6.17 230 15:50 13.12.2021
4914 Clouds 7 1002 61 10000 6.17 230 15:19 13.12.2021
4915 Clouds 6 1001 65 10000 7.2 230 13:38 13.12.2021
4916 Clouds 6 1001 61 10000 7.72 230 12:42 13.12.2021
4917 Clouds 5 1001 70 10000 8.75 230 11:54 13.12.2021
4918 Clouds 5 1001 70 10000 8.75 230 11:35 13.12.2021
4919 Clouds 5 1000 65 10000 3.09 270 10:43 13.12.2021
4920 Clouds 3 1000 81 10000 3.09 270 08:57 13.12.2021
4921 Clouds 3 1000 87 10000 2.57 270 07:46 13.12.2021
4922 Clouds 1 1001 94 10000 1.28 258 05:35 13.12.2021
4923 Clouds 7 997 53 10000 12.35 230 00:43 13.12.2021
4924 Drizzle 6 995 61 10000 12.86 230 22:22 12.12.2021
4925 Drizzle 7 994 61 10000 10.8 230 21:38 12.12.2021
4926 Drizzle 8 992 71 10000 13.38 230 19:47 12.12.2021
4927 Clouds 8 991 71 10000 10.8 230 18:35 12.12.2021
4928 Drizzle 8 989 71 10000 15.43 230 17:26 12.12.2021
4929 Rain 8 989 71 10000 14.4 230 16:27 12.12.2021
4930 Rain 8 988 76 10000 14.92 230 15:45 12.12.2021
4931 Rain 8 988 76 10000 14.92 230 15:25 12.12.2021
4932 Rain 8 988 76 10000 11.83 230 14:34 12.12.2021
4933 Rain 8 989 93 10000 8.75 230 13:22 12.12.2021
4934 Rain 8 989 93 10000 8.23 230 12:27 12.12.2021
4935 Rain 9 990 87 10000 4.63 230 11:44 12.12.2021
4936 Clouds 9 990 87 10000 4.63 230 11:20 12.12.2021
4937 Clouds 9 990 87 10000 4.63 230 10:22 12.12.2021
4938 Clouds 9 991 87 10000 6.69 230 08:58 12.12.2021
4939 Clouds 9 992 87 10000 3.09 250 07:32 12.12.2021
4940 Clouds 10 994 76 10000 2.57 190 05:57 12.12.2021
4941 Clouds 10 996 81 10000 3.09 230 04:56 12.12.2021
4942 Clouds 11 996 76 10000 3.6 270 03:27 12.12.2021
4943 Clouds 14 998 62 10000 1.54 190 23:39 11.12.2021
4944 Clouds 16 998 51 10000 2.06 140 22:22 11.12.2021
4945 Clouds 17 999 45 10000 1.54 90 21:51 11.12.2021
4946 Clouds 18 1000 42 10000 2.57 70 20:51 11.12.2021
4947 Clouds 16 1001 51 10000 3.09 70 19:23 11.12.2021
4948 Clouds 17 1002 48 10000 4.12 70 18:52 11.12.2021
4949 Clouds 17 1002 48 10000 4.12 70 18:19 11.12.2021
4950 Clouds 16 1003 48 10000 4.63 70 17:20 11.12.2021
4951 Clouds 15 1004 51 10000 3.6 70 15:53 11.12.2021
4952 Clouds 15 1004 51 10000 3.6 70 15:27 11.12.2021
4953 Clouds 10 1006 81 10000 1.54 230 12:50 11.12.2021
4954 Clouds 10 1006 81 10000 1.54 230 12:50 11.12.2021
4955 Clouds 9 1006 87 10000 1.54 230 11:25 11.12.2021
4956 Clouds 8 1007 87 10000 1.54 270 09:45 11.12.2021
4957 Clouds 8 1008 87 10000 1.03 270 08:23 11.12.2021
4958 Clouds 8 1010 87 10000 7.2 90 02:23 11.12.2021
4959 Clouds 10 1009 76 10000 7.72 70 23:58 10.12.2021
4960 Clouds 10 1009 76 10000 7.72 70 23:20 10.12.2021
4961 Clouds 12 1009 62 10000 2.57 230 21:56 10.12.2021
4962 Clouds 12 1009 62 10000 2.57 230 21:28 10.12.2021
4963 Clouds 13 1009 58 10000 5.14 230 19:21 10.12.2021
4964 Clouds 13 1009 62 10000 6.17 230 18:19 10.12.2021
4965 Clouds 11 1010 71 10000 2.06 180 16:56 10.12.2021
4966 Clouds 11 1010 71 10000 2.06 180 16:28 10.12.2021
4967 Clouds 11 1010 76 10000 2.06 180 15:40 10.12.2021
4968 Clouds 11 1010 76 10000 2.06 180 15:21 10.12.2021
4969 Clouds 9 1010 87 10000 2.57 360 13:51 10.12.2021
4970 Clouds 9 1010 87 10000 2.57 360 13:26 10.12.2021
4971 Clouds 9 1010 76 10000 2.06 360 12:39 10.12.2021
4972 Clouds 8 1010 81 10000 2.06 90 11:28 10.12.2021
4973 Clouds 7 1010 81 10000 1.03 30 10:37 10.12.2021
4974 Clouds 7 1010 81 10000 3.6 330 08:57 10.12.2021
4975 Clouds 8 1011 71 10000 2.06 350 06:50 10.12.2021
4976 Clouds 12 1010 50 10000 7.72 240 02:48 10.12.2021
4977 Clouds 12 1010 50 10000 7.72 240 02:48 10.12.2021
4978 Clouds 13 1010 47 10000 9.77 230 00:38 10.12.2021
4979 Clouds 14 1009 44 10000 12.35 230 23:22 09.12.2021
4980 Clouds 15 1009 38 10000 10.29 230 22:26 09.12.2021
4981 Clouds 15 1008 44 10000 11.32 230 21:59 09.12.2021
4982 Clouds 15 1008 44 10000 11.32 230 21:18 09.12.2021
4983 Clouds 15 1008 44 10000 12.35 230 20:28 09.12.2021
4984 Clouds 15 1008 44 10000 11.32 230 19:21 09.12.2021
4985 Clouds 15 1009 47 10000 10.8 230 18:48 09.12.2021
4986 Clouds 14 1009 51 10000 11.32 230 17:56 09.12.2021
4987 Clouds 14 1009 51 10000 11.32 230 17:26 09.12.2021
4988 Clouds 14 1009 54 10000 11.32 230 16:55 09.12.2021
4989 Clouds 14 1008 58 10000 10.8 230 15:57 09.12.2021
4990 Clouds 14 1008 58 10000 8.75 230 14:50 09.12.2021
4991 Clouds 17 1008 45 10000 4.63 230 13:25 09.12.2021
4992 Clouds 18 1007 48 10000 5.66 270 12:42 09.12.2021
4993 Clouds 17 1007 45 10000 7.72 320 11:24 09.12.2021
4994 Clouds 16 1006 41 10000 8.75 320 09:44 09.12.2021
4995 Clouds 13 1008 50 10000 4.63 360 06:51 09.12.2021
4996 Clouds 12 1012 58 10000 8.23 340 03:43 09.12.2021
4997 Clouds 14 1015 35 10000 11.32 320 23:45 08.12.2021
4998 Clouds 14 1015 35 10000 11.32 320 23:21 08.12.2021
4999 Clear 13 1016 38 10000 6.69 320 22:49 08.12.2021
5000 Clear 13 1016 44 10000 2.06 180 21:46 08.12.2021
5001 Clear 13 1016 44 10000 2.06 180 21:28 08.12.2021
5002 Clear 14 1017 30 10000 6.69 320 20:18 08.12.2021
5003 Clear 14 1019 33 10000 0 0 19:37 08.12.2021
5004 Clear 13 1019 35 10000 4.12 360 18:53 08.12.2021
5005 Clear 11 1020 46 10000 5.66 360 17:47 08.12.2021
5006 Clouds 10 1021 50 10000 1.54 140 15:58 08.12.2021
5007 Clouds 10 1021 50 10000 1.54 140 15:29 08.12.2021
5008 Clear 9 1022 57 10000 1.03 180 14:50 08.12.2021
5009 Clear 8 1022 57 10000 2.57 50 12:32 08.12.2021
5010 Clear 4 1022 65 10000 3.6 340 10:32 08.12.2021
5011 Clear 4 1022 60 10000 2.57 340 09:30 08.12.2021
5012 Clear 4 1021 65 10000 4.12 340 07:34 08.12.2021
5013 Clouds 6 1019 56 10000 4.12 250 04:58 08.12.2021
5014 Clouds 8 1012 53 10000 10.29 230 23:48 07.12.2021
5015 Clouds 8 1010 53 10000 8.75 230 22:27 07.12.2021
5016 Drizzle 5 1009 65 10000 8.23 230 21:24 07.12.2021
5017 Drizzle 6 1007 61 10000 13.38 230 20:24 07.12.2021
5018 Clouds 8 1004 71 10000 8.75 230 18:56 07.12.2021
5019 Clouds 8 1004 71 10000 8.75 230 18:18 07.12.2021
5020 Clouds 8 1001 71 10000 13.89 230 17:20 07.12.2021
5021 Clouds 8 1001 61 10000 11.32 210 16:36 07.12.2021
5022 Drizzle 7 999 57 10000 13.38 210 15:35 07.12.2021
5023 Drizzle 7 999 65 10000 14.4 220 14:36 07.12.2021
5024 Clouds 8 998 57 10000 8.75 210 13:18 07.12.2021
5025 Clouds 7 998 61 10000 8.75 260 12:21 07.12.2021
5026 Rain 6 995 81 10000 14.4 230 10:44 07.12.2021
5027 Rain 8 992 66 10000 12.35 230 08:46 07.12.2021
5028 Clouds 9 991 66 10000 10.8 230 06:22 07.12.2021
5029 Drizzle 9 991 81 10000 6.69 230 05:42 07.12.2021
5030 Clouds 14 991 44 10000 2.57 230 00:54 07.12.2021
5031 Clouds 14 991 44 10000 7.72 290 23:18 06.12.2021
5032 Clouds 15 991 41 10000 10.8 320 22:39 06.12.2021
5033 Clouds 14 992 47 10000 7.72 290 21:54 06.12.2021
5034 Clouds 13 994 54 10000 9.77 340 20:44 06.12.2021
5035 Rain 13 994 54 10000 9.77 340 20:26 06.12.2021
5036 Rain 11 996 58 10000 10.29 340 19:23 06.12.2021
5037 Drizzle 9 997 61 10000 10.29 340 18:29 06.12.2021
5038 Drizzle 7 999 70 10000 10.8 340 17:52 06.12.2021
5039 Drizzle 7 1002 70 10000 7.72 10 16:56 06.12.2021
5040 Drizzle 7 1003 65 10000 6.69 10 15:49 06.12.2021
5041 Clouds 7 1007 65 10000 2.57 90 13:47 06.12.2021
5042 Clear 7 1009 76 10000 1.54 60 12:40 06.12.2021
5043 Clear 6 1010 65 10000 0.51 0 11:54 06.12.2021
5044 Clouds 4 1013 70 10000 1.54 320 09:35 06.12.2021
5045 Clouds 6 1013 65 10000 5.66 270 06:59 06.12.2021
5046 Clouds 9 1010 53 10000 11.32 230 00:33 06.12.2021
5047 Drizzle 8 1008 71 10000 13.89 230 21:53 05.12.2021
5048 Drizzle 8 1008 71 10000 13.89 230 21:25 05.12.2021
5049 Drizzle 8 1007 71 10000 8.23 230 20:20 05.12.2021
5050 Drizzle 8 1005 71 10000 14.92 230 19:57 05.12.2021
5051 Drizzle 8 1005 71 10000 14.92 230 19:22 05.12.2021
5052 Clouds 8 1006 71 10000 8.23 230 18:25 05.12.2021
5053 Drizzle 9 1006 66 10000 10.29 230 17:49 05.12.2021
5054 Clouds 9 1006 66 10000 11.32 230 16:57 05.12.2021
5055 Clouds 9 1006 66 10000 11.32 230 16:28 05.12.2021
5056 Clouds 9 1005 66 10000 9.26 230 15:58 05.12.2021
5057 Rain 9 1006 66 10000 9.26 230 14:45 05.12.2021
5058 Rain 9 1006 66 10000 9.26 230 14:27 05.12.2021
5059 Rain 8 1005 71 10000 7.72 230 13:28 05.12.2021
5060 Rain 6 1006 87 5000 9.26 230 12:40 05.12.2021
5061 Rain 6 1006 87 5000 9.26 230 12:21 05.12.2021
5062 Rain 7 1004 76 10000 4.12 200 11:37 05.12.2021
5063 Rain 7 1004 76 10000 6.69 220 10:21 05.12.2021
5064 Clouds 8 1004 61 10000 1.03 290 08:50 05.12.2021
5065 Clouds 8 1004 61 10000 8.75 220 04:56 05.12.2021
5066 Clouds 10 1002 53 10000 9.77 230 01:23 05.12.2021
5067 Clouds 12 1001 50 10000 9.77 230 22:32 04.12.2021
5068 Clouds 16 1000 33 10000 9.26 230 21:36 04.12.2021
5069 Clouds 17 1001 29 10000 5.14 270 20:40 04.12.2021
5070 Clouds 17 1001 29 10000 7.72 320 19:33 04.12.2021
5071 Clouds 17 1001 27 10000 6.17 320 18:43 04.12.2021
5072 Clouds 15 1002 31 10000 6.69 270 17:47 04.12.2021
5073 Clouds 15 1002 31 10000 6.69 270 17:20 04.12.2021
5074 Clouds 15 1002 29 10000 8.23 290 16:46 04.12.2021
5075 Clouds 15 1002 29 10000 8.23 290 16:27 04.12.2021
5076 Clear 11 1004 62 10000 2.06 160 12:44 04.12.2021
5077 Clear 10 1004 50 10000 0 0 11:39 04.12.2021
5078 Clouds 8 1004 53 10000 4.12 230 10:57 04.12.2021
5079 Clouds 8 1003 49 10000 2.57 230 09:42 04.12.2021
5080 Clouds 10 1003 46 10000 6.17 230 08:29 04.12.2021
5081 Clouds 11 999 54 10000 7.72 250 04:43 04.12.2021
5082 Clouds 13 998 41 10000 8.75 320 00:56 04.12.2021
5083 Clouds 13 999 44 10000 8.23 320 23:43 03.12.2021
5084 Clouds 14 1000 38 10000 7.72 320 22:53 03.12.2021
5085 Clouds 14 1000 38 10000 9.26 230 21:54 03.12.2021
5086 Clouds 14 1000 38 10000 9.26 230 21:23 03.12.2021
5087 Clouds 15 1000 36 10000 7.72 320 20:42 03.12.2021
5088 Clouds 16 1002 33 10000 4.12 320 19:28 03.12.2021
5089 Clouds 15 1003 38 10000 3.09 180 18:24 03.12.2021
5090 Clear 11 1004 54 10000 0 0 17:31 03.12.2021
5091 Clouds 10 1008 62 10000 2.06 360 13:40 03.12.2021
5092 Clouds 8 1009 66 10000 3.09 290 12:44 03.12.2021
5093 Clouds 8 1009 66 10000 3.09 270 11:23 03.12.2021
5094 Clouds 8 1008 61 10000 5.66 250 09:25 03.12.2021
5095 Clouds 8 1008 66 10000 5.66 250 08:20 03.12.2021
5096 Clouds 8 1009 61 10000 6.17 250 07:23 03.12.2021
5097 Clouds 9 1007 66 10000 11.32 230 01:43 03.12.2021
5098 Clouds 9 1006 61 10000 12.35 230 00:34 03.12.2021
5099 Clouds 10 1006 53 10000 10.29 230 23:40 02.12.2021
5100 Clouds 11 1005 58 10000 7.72 230 21:42 02.12.2021
5101 Clouds 11 1004 62 10000 6.69 230 20:49 02.12.2021
5102 Clouds 11 1004 62 10000 6.69 230 20:29 02.12.2021
5103 Clear 10 1004 62 10000 7.72 230 19:23 02.12.2021
5104 Clear 10 1004 71 10000 6.69 230 17:36 02.12.2021
5105 Clouds 11 1004 46 10000 6.69 220 15:42 02.12.2021
5106 Clouds 11 1004 46 10000 6.69 220 14:57 02.12.2021
5107 Clouds 10 1004 57 10000 2.06 230 13:54 02.12.2021
5108 Clouds 9 1004 66 10000 1.03 90 12:52 02.12.2021
5109 Clouds 9 1004 66 10000 1.03 90 12:52 02.12.2021
5110 Clouds 7 1004 76 10000 1.54 50 11:56 02.12.2021
5111 Clouds 5 1003 75 10000 1.03 360 09:34 02.12.2021
5112 Clouds 4 1004 100 10000 3.6 360 08:35 02.12.2021
5113 Clouds 7 1002 70 10000 8.75 230 04:54 02.12.2021
5114 Rain 10 998 53 10000 8.75 230 00:52 02.12.2021
5115 Rain 12 997 43 10000 10.29 230 23:19 01.12.2021
5116 Rain 13 997 41 10000 8.23 230 22:23 01.12.2021
5117 Rain 12 995 40 10000 9.77 230 20:36 01.12.2021
5118 Rain 12 994 40 10000 9.26 230 19:53 01.12.2021
5119 Rain 12 994 40 10000 9.26 230 19:25 01.12.2021
5120 Clouds 11 995 50 10000 5.66 230 17:45 01.12.2021
5121 Rain 11 995 54 10000 2.06 230 16:42 01.12.2021
5122 Rain 9 994 71 10000 7.2 230 14:52 01.12.2021
5123 Rain 8 994 81 10000 7.2 230 13:44 01.12.2021
5124 Clouds 9 994 76 10000 10.29 230 12:37 01.12.2021
5125 Clouds 9 993 76 10000 5.14 230 10:42 01.12.2021
5126 Clouds 12 993 47 10000 4.63 360 09:20 01.12.2021
5127 Clouds 12 993 47 10000 5.66 360 08:29 01.12.2021
5128 Clouds 12 993 47 10000 4.63 360 07:33 01.12.2021
5129 Clouds 12 994 47 10000 5.14 320 06:34 01.12.2021
5130 Clouds 13 994 44 10000 8.23 290 03:45 01.12.2021
5131 Clouds 15 994 38 10000 8.23 290 00:56 01.12.2021
5132 Clouds 16 994 33 10000 9.26 320 23:54 30.11.2021
5133 Clouds 16 994 33 10000 9.26 320 23:24 30.11.2021
5134 Clouds 17 995 34 10000 8.75 320 21:39 30.11.2021
5135 Clouds 15 996 38 10000 8.23 320 20:44 30.11.2021
5136 Clouds 14 996 47 10000 2.06 180 19:53 30.11.2021
5137 Clouds 14 996 47 10000 2.06 180 19:34 30.11.2021
5138 Clouds 14 996 47 10000 4.63 90 18:37 30.11.2021
5139 Clouds 11 998 58 10000 4.12 120 16:50 30.11.2021
5140 Clouds 10 999 66 10000 3.09 120 15:44 30.11.2021
5141 Clouds 8 999 81 10000 3.09 100 14:20 30.11.2021
5142 Clouds 8 1000 76 10000 2.06 60 13:27 30.11.2021
5143 Clouds 7 1000 76 10000 3.09 130 12:46 30.11.2021
5144 Clouds 7 1000 76 10000 1.54 350 11:50 30.11.2021
5145 Clouds 7 1000 76 10000 1.54 350 11:23 30.11.2021
5146 Clouds 6 1000 81 10000 3.09 320 10:33 30.11.2021
5147 Clouds 6 1000 75 10000 3.6 340 08:53 30.11.2021
5148 Clouds 6 1000 75 10000 3.6 340 08:26 30.11.2021
5149 Clouds 6 999 75 10000 3.6 330 07:47 30.11.2021
5150 Clouds 7 997 65 10000 12.86 230 02:41 30.11.2021
5151 Clouds 8 998 42 10000 6.17 230 01:42 30.11.2021
5152 Clouds 8 998 42 10000 7.72 250 00:33 30.11.2021
5153 Clouds 8 998 46 10000 6.69 230 23:25 29.11.2021
5154 Clouds 7 997 61 10000 9.77 250 22:57 29.11.2021
5155 Clouds 7 997 61 10000 9.77 250 22:34 29.11.2021
5156 Drizzle 6 996 75 10000 9.26 250 21:39 29.11.2021
5157 Drizzle 6 996 75 10000 9.26 250 21:18 29.11.2021
5158 Drizzle 6 995 75 5000 9.77 230 20:41 29.11.2021
5159 Drizzle 6 995 81 5000 11.83 230 19:56 29.11.2021
5160 Drizzle 6 995 81 5000 11.83 230 19:36 29.11.2021
5161 Drizzle 8 993 66 7000 10.8 230 18:52 29.11.2021
5162 Clouds 9 993 52 10000 6.92 247 18:26 29.11.2021
5163 Rain 9 992 56 6237 6.27 247 17:20 29.11.2021
5164 Rain 9 992 56 6237 6.27 247 16:32 29.11.2021
5165 Clouds 8 991 58 10000 5.31 249 15:52 29.11.2021
5166 Clouds 8 991 63 10000 4.7 250 14:43 29.11.2021
5167 Rain 6 990 75 10000 3.85 249 13:36 29.11.2021
5168 Rain 5 990 84 1373 1.99 260 12:42 29.11.2021
5169 Rain 5 990 92 1436 1.58 292 11:43 29.11.2021
5170 Rain 4 989 89 10000 1.51 297 10:59 29.11.2021
5171 Rain 5 986 70 10000 7.72 210 09:50 29.11.2021
5172 Rain 4 986 87 10000 2.57 250 06:22 29.11.2021
5173 Rain 4 986 93 10000 7.2 230 03:46 29.11.2021
5174 Rain 6 986 81 10000 6.69 230 00:44 29.11.2021
5175 Rain 6 986 81 10000 10.8 230 23:44 28.11.2021
5176 Rain 6 986 81 10000 10.8 230 23:25 28.11.2021
5177 Rain 8 985 71 10000 9.26 230 21:53 28.11.2021
5178 Rain 8 985 71 10000 9.26 230 21:26 28.11.2021
5179 Rain 9 986 66 10000 15.95 230 20:35 28.11.2021
5180 Clouds 12 986 40 10000 10.29 320 19:28 28.11.2021
5181 Clouds 11 986 46 10000 9.26 270 18:38 28.11.2021
5182 Clouds 11 986 54 10000 7.72 200 17:56 28.11.2021
5183 Clouds 11 986 54 10000 7.72 200 17:32 28.11.2021
5184 Clouds 13 986 41 10000 6.17 230 16:44 28.11.2021
5185 Rain 13 986 41 10000 6.17 230 16:22 28.11.2021
5186 Rain 13 986 41 10000 8.23 290 15:33 28.11.2021
5187 Rain 12 986 54 10000 2.06 140 14:49 28.11.2021
5188 Rain 10 987 71 10000 4.63 230 13:49 28.11.2021
5189 Rain 9 987 71 10000 5.14 230 12:52 28.11.2021
5190 Drizzle 11 988 58 10000 5.66 300 11:19 28.11.2021
5191 Clouds 11 989 46 10000 6.17 330 10:22 28.11.2021
5192 Clouds 11 990 46 10000 6.17 330 09:40 28.11.2021
5193 Clouds 11 992 50 10000 7.2 350 08:19 28.11.2021
5194 Clear 11 1002 43 10000 1.54 0 00:39 28.11.2021
5195 Clear 13 1005 41 10000 0 0 21:40 27.11.2021
5196 Clear 12 1006 40 10000 2.57 180 19:49 27.11.2021
5197 Clouds 12 1007 40 10000 2.57 180 18:20 27.11.2021
5198 Clouds 9 1008 49 10000 5.66 230 15:59 27.11.2021
5199 Clouds 8 1008 53 10000 8.23 230 14:30 27.11.2021
5200 Clouds 6 1008 70 10000 8.23 230 12:58 27.11.2021
5201 Clouds 5 1007 75 10000 6.69 230 10:57 27.11.2021
5202 Clouds 5 1006 70 10000 6.69 240 09:54 27.11.2021
5203 Clouds 5 1005 75 10000 1.54 0 08:45 27.11.2021
5204 Clouds 5 1004 81 10000 1.03 290 06:35 27.11.2021
5205 Drizzle 6 1003 81 10000 7.72 230 03:52 27.11.2021
5206 Clouds 10 1000 46 10000 9.26 320 00:19 27.11.2021
5207 Clouds 11 999 43 10000 6.69 320 22:41 26.11.2021
5208 Clouds 11 999 43 10000 6.69 320 22:19 26.11.2021
5209 Clouds 11 1000 43 10000 7.72 320 21:22 26.11.2021
5210 Clouds 11 999 46 10000 8.75 320 20:40 26.11.2021
5211 Clouds 11 1000 46 10000 7.2 320 19:55 26.11.2021
5212 Clouds 10 1000 40 10000 7.72 320 18:45 26.11.2021
5213 Clouds 10 1000 43 10000 9.26 320 17:26 26.11.2021
5214 Clouds 10 1001 43 10000 7.72 360 16:45 26.11.2021
5215 Clouds 9 1002 49 10000 3.6 360 14:57 26.11.2021
5216 Clouds 7 1003 70 10000 3.09 90 13:35 26.11.2021
5217 Clouds 2 1004 80 10000 2.57 290 10:44 26.11.2021
5218 Clouds 3 1004 81 10000 3.6 340 09:53 26.11.2021
5219 Clouds 4 1004 75 10000 3.6 320 08:50 26.11.2021
5220 Clouds 4 1004 75 10000 3.6 320 08:20 26.11.2021
5221 Clouds 4 1004 75 10000 3.6 290 06:30 26.11.2021
5222 Clouds 5 1003 75 10000 8.23 230 05:35 26.11.2021
5223 Clouds 5 1002 70 10000 11.83 230 03:39 26.11.2021
5224 Rain 7 999 70 10000 13.38 230 23:49 25.11.2021
5225 Rain 8 998 71 10000 11.83 230 22:34 25.11.2021
5226 Rain 10 996 57 10000 2.57 270 20:45 25.11.2021
5227 Rain 9 996 61 10000 3.09 180 19:35 25.11.2021
5228 Drizzle 9 996 66 10000 1.03 180 18:35 25.11.2021
5229 Rain 10 996 53 10000 2.57 180 17:28 25.11.2021
5230 Rain 9 997 61 10000 3.09 180 16:47 25.11.2021
5231 Rain 9 997 61 10000 3.09 180 16:25 25.11.2021
5232 Clouds 8 997 76 10000 2.06 140 14:44 25.11.2021
5233 Clouds 6 998 87 10000 2.06 230 13:21 25.11.2021
5234 Drizzle 5 998 87 10000 1.03 320 12:19 25.11.2021
5235 Rain 5 998 81 10000 2.06 290 10:50 25.11.2021
5236 Clear 5 997 75 10000 2.06 330 08:30 25.11.2021
5237 Clouds 7 998 70 10000 6.69 250 03:42 25.11.2021
5238 Clouds 7 998 70 10000 6.69 250 02:44 25.11.2021
5239 Clouds 9 997 66 10000 11.32 230 22:43 24.11.2021
5240 Clouds 9 997 66 10000 11.32 230 22:20 24.11.2021
5241 Clouds 10 997 62 10000 10.8 230 21:26 24.11.2021
5242 Clouds 10 996 57 10000 11.83 230 20:28 24.11.2021
5243 Clouds 10 996 53 10000 9.77 230 19:46 24.11.2021
5244 Clouds 10 996 53 10000 10.29 230 18:29 24.11.2021
5245 Clouds 9 996 61 10000 8.23 230 16:53 24.11.2021
5246 Clouds 9 996 61 10000 7.2 230 15:22 24.11.2021
5247 Clouds 7 995 81 10000 6.17 230 14:31 24.11.2021
5248 Clouds 7 996 81 10000 8.75 230 13:51 24.11.2021
5249 Clouds 6 995 81 10000 2.06 360 11:49 24.11.2021
5250 Clouds 6 995 81 10000 2.06 360 11:19 24.11.2021
5251 Clouds 5 994 87 10000 3.09 330 10:38 24.11.2021
5252 Clouds 6 994 75 10000 2.06 310 09:40 24.11.2021
5253 Clouds 6 993 81 10000 2.57 320 07:42 24.11.2021
5254 Clouds 6 993 81 10000 3.09 320 06:21 24.11.2021
5255 Rain 6 993 81 10000 4.63 250 03:48 24.11.2021
5256 Rain 7 992 81 10000 4.12 210 23:42 23.11.2021
5257 Drizzle 7 992 70 10000 3.6 230 22:39 23.11.2021
5258 Drizzle 7 991 70 10000 3.6 230 21:46 23.11.2021
5259 Drizzle 7 990 70 10000 2.57 180 20:47 23.11.2021
5260 Drizzle 7 990 65 10000 2.57 50 19:37 23.11.2021
5261 Drizzle 7 991 61 10000 2.57 140 18:37 23.11.2021
5262 Drizzle 7 991 61 10000 6.17 360 17:57 23.11.2021
5263 Drizzle 6 991 65 10000 8.75 360 16:54 23.11.2021
5264 Drizzle 6 991 65 10000 8.75 360 16:54 23.11.2021
5265 Drizzle 6 992 61 10000 8.75 360 15:57 23.11.2021
5266 Drizzle 6 992 61 10000 8.75 360 15:19 23.11.2021
5267 Clouds 4 995 81 10000 6.69 360 13:43 23.11.2021
5268 Clouds 2 999 80 10000 4.63 360 10:41 23.11.2021
5269 Clouds 2 1000 80 10000 5.14 20 09:57 23.11.2021
5270 Clouds 2 1001 80 10000 3.09 340 08:43 23.11.2021
5271 Clouds 4 1004 70 10000 5.14 250 05:57 23.11.2021
5272 Clouds 4 1006 70 10000 7.72 230 03:42 23.11.2021
5273 Clouds 4 1006 70 10000 9.26 230 00:28 23.11.2021
5274 Clouds 5 1006 65 10000 8.23 230 23:20 22.11.2021
5275 Clouds 6 1006 56 10000 12.35 230 22:32 22.11.2021
5276 Clouds 6 1005 61 10000 11.83 230 21:46 22.11.2021
5277 Clouds 6 1005 61 10000 11.83 230 21:26 22.11.2021
5278 Clouds 5 1006 70 10000 13.38 230 20:50 22.11.2021
5279 Clouds 4 1005 81 7000 14.4 230 19:31 22.11.2021
5280 Rain 5 1005 70 10000 14.92 230 18:58 22.11.2021
5281 Rain 5 1005 70 10000 14.92 230 18:35 22.11.2021
5282 Snow 2 1005 93 8000 13.89 230 16:56 22.11.2021
5283 Snow 1 1004 93 10000 10.29 230 15:42 22.11.2021
5284 Snow 0 1003 100 1000 11.83 230 13:57 22.11.2021
5285 Snow 0 1001 93 2000 9.77 230 11:41 22.11.2021
5286 Snow 0 1000 86 10000 9.26 230 10:38 22.11.2021
5287 Snow 0 1000 86 10000 8.75 250 09:24 22.11.2021
5288 Snow 0 999 93 2000 12.35 230 08:36 22.11.2021
5289 Rain 2 997 80 8000 13.89 230 04:32 22.11.2021
5290 Rain 4 997 70 10000 9.77 230 23:23 21.11.2021
5291 Rain 4 998 70 10000 10.29 230 22:46 21.11.2021
5292 Rain 4 998 75 10000 12.35 230 21:48 21.11.2021
5293 Rain 5 997 70 5000 12.86 230 20:41 21.11.2021
5294 Rain 4 998 75 10000 10.8 230 19:46 21.11.2021
5295 Snow 4 999 81 7000 11.32 230 17:59 21.11.2021
5296 Rain 4 999 81 7000 11.32 230 17:37 21.11.2021
5297 Snow 3 999 75 10000 11.32 230 15:28 21.11.2021
5298 Drizzle 3 999 75 10000 12.35 230 14:45 21.11.2021
5299 Rain 3 999 75 10000 14.92 230 13:40 21.11.2021
5300 Rain 3 998 75 10000 12.86 230 12:35 21.11.2021
5301 Snow 2 998 80 3000 13.89 230 11:42 21.11.2021
5302 Snow 2 998 80 3000 13.89 230 11:23 21.11.2021
5303 Snow 1 997 93 8000 18.52 230 10:18 21.11.2021
5304 Snow 1 996 86 3000 14.92 230 08:42 21.11.2021
5305 Snow 1 996 86 3000 14.92 230 08:22 21.11.2021
5306 Snow 1 996 93 1800 13.89 230 07:43 21.11.2021
5307 Snow 1 995 93 8000 11.32 230 05:49 21.11.2021
5308 Snow 1 995 93 8000 11.32 230 05:25 21.11.2021
5309 Snow 1 993 93 4000 10.8 230 03:19 21.11.2021
5310 Snow 1 993 93 1000 9.26 230 02:51 21.11.2021
5311 Snow 2 990 87 2000 14.4 240 00:56 21.11.2021
5312 Snow 2 990 93 5000 9.26 240 23:47 20.11.2021
5313 Snow 4 987 65 2000 14.4 230 21:41 20.11.2021
5314 Snow 4 987 65 2000 14.4 230 21:23 20.11.2021
5315 Rain 4 984 65 10000 9.77 230 18:46 20.11.2021
5316 Rain 4 984 65 10000 9.77 230 18:26 20.11.2021
5317 Drizzle 4 982 70 8000 18.01 230 17:26 20.11.2021
5318 Rain 7 984 42 10000 11.32 230 16:57 20.11.2021
5319 Snow 5 985 70 10000 14.92 230 14:47 20.11.2021
5320 Snow 5 985 70 10000 14.92 230 14:25 20.11.2021
5321 Rain 4 986 70 5000 11.32 270 12:23 20.11.2021
5322 Rain 2 986 93 7000 10.29 220 10:52 20.11.2021
5323 Drizzle 4 986 65 10000 8.23 230 09:39 20.11.2021
5324 Drizzle 4 986 81 10000 7.72 230 07:37 20.11.2021
5325 Clouds 4 987 75 10000 12.86 220 05:28 20.11.2021
5326 Clouds 5 988 65 10000 14.4 230 04:50 20.11.2021
5327 Clouds 6 989 65 10000 12.86 230 01:58 20.11.2021
5328 Clouds 7 988 57 10000 14.4 230 00:40 20.11.2021
5329 Clouds 7 990 61 10000 16.46 230 23:41 19.11.2021
5330 Clouds 8 987 57 10000 18.01 230 22:39 19.11.2021
5331 Clouds 9 987 61 10000 14.92 230 20:59 19.11.2021
5332 Clouds 9 987 61 10000 14.92 230 20:37 19.11.2021
5333 Clouds 11 986 58 10000 16.46 230 19:56 19.11.2021
5334 Clouds 10 987 62 10000 15.43 230 18:55 19.11.2021
5335 Clouds 10 987 62 10000 15.43 230 18:24 19.11.2021
5336 Clouds 11 987 58 10000 13.89 230 17:36 19.11.2021
5337 Clouds 10 988 57 10000 13.89 230 15:58 19.11.2021
5338 Drizzle 8 989 71 10000 15.43 230 13:55 19.11.2021
5339 Clouds 8 988 76 10000 15.95 230 10:30 19.11.2021
5340 Clouds 7 990 76 10000 8.23 250 09:38 19.11.2021
5341 Clouds 8 990 76 10000 11.83 230 08:24 19.11.2021
5342 Rain 6 992 81 10000 3.09 270 04:54 19.11.2021
5343 Drizzle 7 994 81 10000 7.2 230 02:40 19.11.2021
5344 Drizzle 9 995 61 10000 2.06 140 23:52 18.11.2021
5345 Clouds 9 996 61 10000 2.57 140 22:21 18.11.2021
5346 Clouds 8 999 61 10000 6.69 230 20:50 18.11.2021
5347 Clouds 8 999 61 10000 6.69 230 20:32 18.11.2021
5348 Clouds 9 1000 57 10000 6.69 230 19:55 18.11.2021
5349 Clouds 9 1000 57 10000 6.69 230 19:34 18.11.2021
5350 Clouds 9 1001 61 10000 9.77 230 18:34 18.11.2021
5351 Clouds 9 1002 61 10000 9.77 230 17:51 18.11.2021
5352 Clouds 8 1003 61 10000 10.29 230 16:45 18.11.2021
5353 Clouds 8 1003 61 10000 10.29 230 16:45 18.11.2021
5354 Clouds 8 1004 57 10000 10.29 230 15:51 18.11.2021
5355 Clouds 6 1004 70 10000 15.43 230 13:59 18.11.2021
5356 Clouds 4 1004 81 10000 15.43 230 12:34 18.11.2021
5357 Clouds 4 1004 81 10000 13.38 230 11:43 18.11.2021
5358 Clouds 4 1004 81 10000 13.38 230 11:25 18.11.2021
5359 Clouds 4 1004 81 10000 15.95 220 10:19 18.11.2021
5360 Clouds 3 1002 87 10000 14.4 210 07:39 18.11.2021
5361 Rain 3 1002 87 10000 13.38 220 05:59 18.11.2021
5362 Rain 3 1002 87 10000 13.38 220 05:39 18.11.2021
5363 Clouds 2 1000 87 10000 8.23 230 01:24 18.11.2021
5364 Clouds 3 999 87 8000 13.38 230 23:25 17.11.2021
5365 Rain 4 999 75 10000 11.32 230 22:34 17.11.2021
5366 Rain 5 998 75 10000 11.32 230 21:55 17.11.2021
5367 Rain 5 998 75 10000 11.32 230 21:35 17.11.2021
5368 Rain 6 996 65 8000 11.32 230 19:27 17.11.2021
5369 Rain 5 993 70 10000 12.86 230 17:31 17.11.2021
5370 Drizzle 4 991 87 10000 13.38 230 15:54 17.11.2021
5371 Rain 5 987 93 10000 6.17 200 12:56 17.11.2021
5372 Rain 5 987 93 10000 6.17 200 12:36 17.11.2021
5373 Drizzle 5 988 93 10000 3.6 220 10:51 17.11.2021
5374 Drizzle 6 989 81 10000 1.54 300 09:37 17.11.2021
5375 Rain 6 991 75 10000 5.66 240 07:46 17.11.2021
5376 Drizzle 6 991 81 10000 9.77 230 06:53 17.11.2021
5377 Drizzle 8 989 71 10000 14.92 230 02:47 17.11.2021
5378 Clouds 11 989 46 10000 8.75 320 23:46 16.11.2021
5379 Clouds 12 989 43 10000 9.26 320 22:25 16.11.2021
5380 Clouds 11 992 43 10000 9.26 320 20:19 16.11.2021
5381 Clouds 9 994 46 10000 9.26 360 19:37 16.11.2021
5382 Clouds 9 994 43 10000 11.83 340 18:43 16.11.2021
5383 Drizzle 9 996 46 10000 11.83 320 17:56 16.11.2021
5384 Drizzle 8 996 49 10000 9.77 320 16:59 16.11.2021
5385 Drizzle 8 996 49 10000 9.77 320 16:19 16.11.2021
5386 Drizzle 8 998 53 10000 11.83 360 15:42 16.11.2021
5387 Clouds 9 1002 49 10000 6.17 320 13:42 16.11.2021
5388 Clouds 6 1007 65 10000 1.03 90 10:22 16.11.2021
5389 Clouds 6 1008 65 10000 0 0 09:39 16.11.2021
5390 Clouds 7 1009 61 10000 0 0 07:47 16.11.2021
5391 Clouds 7 1010 61 10000 0 0 06:43 16.11.2021
5392 Clouds 9 1009 53 10000 10.29 230 23:26 15.11.2021
5393 Clouds 9 1009 53 10000 11.83 230 22:41 15.11.2021
5394 Clouds 9 1009 53 10000 11.83 230 22:19 15.11.2021
5395 Clouds 8 1009 57 10000 12.35 230 21:31 15.11.2021
5396 Clouds 8 1009 57 10000 12.86 230 20:43 15.11.2021
5397 Clouds 7 1008 65 10000 13.38 230 19:26 15.11.2021
5398 Clouds 7 1008 61 10000 9.77 230 17:33 15.11.2021
5399 Drizzle 4 1007 60 10000 13.89 230 15:52 15.11.2021
5400 Drizzle 4 1007 60 10000 13.89 230 15:33 15.11.2021
5401 Clouds 4 1007 60 10000 9.77 230 14:32 15.11.2021
5402 Drizzle 3 1005 65 10000 9.77 230 12:38 15.11.2021
5403 Clouds 3 1001 70 10000 10.29 230 10:33 15.11.2021
5404 Rain 3 1000 75 10000 8.75 200 09:22 15.11.2021
5405 Rain 3 997 87 10000 9.77 230 07:23 15.11.2021
5406 Mist 6 989 87 4000 4.63 180 02:34 15.11.2021
5407 Drizzle 7 983 87 10000 5.66 180 22:45 14.11.2021
5408 Drizzle 7 983 87 10000 5.66 180 22:19 14.11.2021
5409 Rain 9 981 61 10000 8.23 230 19:24 14.11.2021
5410 Drizzle 11 981 54 10000 2.57 230 18:55 14.11.2021
5411 Drizzle 11 981 54 10000 2.57 230 18:37 14.11.2021
5412 Drizzle 11 981 54 10000 2.57 230 18:18 14.11.2021
5413 Rain 6 983 96 64 3.47 173 17:58 14.11.2021
5414 Rain 6 983 96 64 3.47 173 17:40 14.11.2021
5415 Rain 9 983 73 10000 2.43 163 17:22 14.11.2021
5416 Rain 12 982 54 10000 2.57 90 16:59 14.11.2021
5417 Rain 12 982 54 10000 2.57 90 16:40 14.11.2021
5418 Clouds 12 982 54 10000 2.57 90 16:19 14.11.2021
5419 Clouds 11 983 58 10000 2.06 120 15:20 14.11.2021
5420 Clouds 10 984 57 10000 2.06 140 14:45 14.11.2021
5421 Clouds 10 984 57 10000 2.06 140 14:22 14.11.2021
5422 Clouds 9 984 71 10000 0 0 13:52 14.11.2021
5423 Clouds 9 984 71 10000 0 0 13:28 14.11.2021
5424 Clouds 9 985 71 10000 0 0 12:23 14.11.2021
5425 Rain 8 986 66 10000 0 0 11:28 14.11.2021
5426 Rain 8 987 71 10000 0 0 10:39 14.11.2021
5427 Rain 8 988 76 10000 3.09 320 09:41 14.11.2021
5428 Rain 8 989 81 10000 3.09 340 08:51 14.11.2021
5429 Clouds 7 991 87 10000 4.12 50 06:51 14.11.2021
5430 Clouds 15 996 29 10000 4.12 290 23:27 13.11.2021
5431 Clouds 15 997 33 10000 4.12 320 22:21 13.11.2021
5432 Clouds 15 997 36 10000 5.14 230 21:36 13.11.2021
5433 Clouds 16 998 33 10000 6.69 250 20:46 13.11.2021
5434 Clouds 16 999 31 10000 4.12 270 19:33 13.11.2021
5435 Clouds 16 999 31 10000 5.66 320 18:32 13.11.2021
5436 Clouds 16 1000 31 10000 8.75 320 17:41 13.11.2021
5437 Clouds 16 1002 33 10000 9.26 320 16:29 13.11.2021
5438 Clouds 15 1003 38 10000 6.17 320 14:45 13.11.2021
5439 Clouds 11 1004 62 10000 1.54 180 13:56 13.11.2021
5440 Clouds 8 1005 87 10000 3.09 180 12:45 13.11.2021
5441 Clouds 7 1006 93 10000 0 0 11:57 13.11.2021
5442 Clouds 7 1006 93 10000 0 0 11:24 13.11.2021
5443 Clouds 6 1006 87 10000 1.03 180 10:39 13.11.2021
5444 Clouds 6 1007 93 10000 1.03 90 09:50 13.11.2021
5445 Clouds 6 1007 93 10000 1.03 90 09:31 13.11.2021
5446 Clouds 6 1008 87 10000 2.06 20 08:49 13.11.2021
5447 Clouds 6 1008 87 10000 1.54 270 07:54 13.11.2021
5448 Clouds 7 1011 87 10000 3.6 90 04:43 13.11.2021
5449 Clouds 7 1011 87 10000 3.6 90 04:20 13.11.2021
5450 Clouds 11 1012 62 10000 3.6 50 00:19 13.11.2021
5451 Clouds 12 1012 58 10000 7.2 230 22:42 12.11.2021
5452 Clouds 13 1012 54 10000 6.69 230 20:55 12.11.2021
5453 Clouds 12 1012 58 10000 7.2 230 19:40 12.11.2021
5454 Clouds 12 1012 58 10000 7.2 230 19:22 12.11.2021
5455 Clouds 13 1012 54 10000 6.17 160 18:20 12.11.2021
5456 Clouds 14 1013 51 10000 2.57 60 16:19 12.11.2021
5457 Clouds 11 1014 66 10000 5.14 70 14:46 12.11.2021
5458 Clear 8 1013 76 10000 1.03 140 11:31 12.11.2021
5459 Clouds 8 1013 71 10000 0 0 10:48 12.11.2021
5460 Clouds 8 1013 71 10000 1.03 180 09:27 12.11.2021
5461 Clouds 9 1012 57 10000 1.54 180 08:35 12.11.2021
5462 Clouds 12 1012 37 10000 4.12 320 02:19 12.11.2021
5463 Clouds 4 1011 65 10000 8.23 320 23:31 11.11.2021
5464 Clouds 14 1010 28 10000 7.2 320 22:28 11.11.2021
5465 Clouds 14 1010 30 10000 7.72 270 21:26 11.11.2021
5466 Clouds 15 1010 31 10000 7.2 270 20:38 11.11.2021
5467 Clouds 14 1010 30 10000 8.23 320 18:55 11.11.2021
5468 Clouds 14 1010 38 10000 8.23 320 17:42 11.11.2021
5469 Clouds 13 1010 38 10000 9.26 310 16:38 11.11.2021
5470 Clouds 12 1009 37 10000 6.69 310 14:45 11.11.2021
5471 Clouds 12 1009 37 10000 6.69 310 14:26 11.11.2021
5472 Clouds 11 1009 43 10000 6.17 310 13:37 11.11.2021
5473 Clouds 9 1009 53 10000 2.57 360 12:48 11.11.2021
5474 Clouds 8 1008 76 10000 4.12 90 10:35 11.11.2021
5475 Clouds 5 1008 93 10000 2.06 90 09:33 11.11.2021
5476 Clear 5 1007 93 10000 1.03 270 07:38 11.11.2021
5477 Clouds 8 1006 81 10000 7.72 90 02:36 11.11.2021
5478 Clear 12 1004 58 10000 3.09 230 22:59 10.11.2021
5479 Clear 12 1004 58 10000 3.09 230 22:22 10.11.2021
5480 Clear 12 1004 58 10000 3.09 230 22:22 10.11.2021
5481 Clear 13 1004 50 10000 5.66 230 21:21 10.11.2021
5482 Clear 13 1003 50 10000 6.69 230 20:45 10.11.2021
5483 Clouds 13 1003 54 10000 2.57 180 19:46 10.11.2021
5484 Clouds 13 1003 54 10000 5.14 90 17:50 10.11.2021
5485 Clouds 12 1003 62 10000 4.12 80 16:34 10.11.2021
5486 Rain 9 1002 76 10000 2.06 180 14:52 10.11.2021
5487 Rain 8 1002 81 10000 3.09 220 13:41 10.11.2021
5488 Clouds 8 1001 76 9000 4.12 220 12:47 10.11.2021
5489 Mist 7 999 81 10000 4.63 140 10:39 10.11.2021
5490 Clouds 7 998 87 10000 6.17 90 08:45 10.11.2021
5491 Clear 8 998 76 10000 6.17 90 07:32 10.11.2021
5492 Clear 8 998 76 10000 6.17 90 07:32 10.11.2021
5493 Clear 8 996 76 10000 5.14 90 06:26 10.11.2021
5494 Clear 10 995 66 10000 4.63 180 05:51 10.11.2021
5495 Clear 19 993 34 10000 7.72 360 23:53 09.11.2021
5496 Clear 20 995 24 10000 8.75 330 21:48 09.11.2021
5497 Clear 20 996 28 10000 8.23 340 20:32 09.11.2021
5498 Clear 19 997 26 10000 7.72 340 19:25 09.11.2021
5499 Clear 16 1000 36 10000 6.69 330 17:44 09.11.2021
5500 Clear 13 1002 47 10000 2.06 360 15:45 09.11.2021
5501 Clear 11 1003 46 10000 6.69 360 14:43 09.11.2021
5502 Clear 8 1006 61 10000 2.57 189 12:53 09.11.2021
5503 Clear 8 1006 61 10000 2.57 189 12:53 09.11.2021
5504 Clear 8 1007 61 10000 4.63 180 11:56 09.11.2021
5505 Clear 7 1009 70 10000 6.17 360 10:45 09.11.2021
5506 Clear 5 1010 87 10000 3.6 320 09:28 09.11.2021
5507 Clear 5 1010 87 10000 1.03 0 08:26 09.11.2021
5508 Clouds 7 1013 70 10000 2.06 110 05:56 09.11.2021
5509 Clouds 8 1014 71 10000 2.57 270 02:23 09.11.2021
5510 Clouds 8 1014 71 10000 5.14 230 01:46 09.11.2021
5511 Clouds 10 1014 62 10000 8.75 230 23:58 08.11.2021
5512 Clouds 10 1013 57 10000 8.23 230 22:50 08.11.2021
5513 Clouds 10 1013 57 10000 8.23 230 22:27 08.11.2021
5514 Clouds 10 1013 57 10000 8.23 230 20:56 08.11.2021
5515 Clouds 10 1012 53 10000 5.14 180 19:52 08.11.2021
5516 Clouds 10 1012 66 10000 2.57 180 18:56 08.11.2021
5517 Clouds 10 1012 62 10000 2.57 140 16:34 08.11.2021
5518 Clouds 10 1012 62 10000 3.09 180 15:26 08.11.2021
5519 Clouds 10 1012 62 10000 0 0 14:42 08.11.2021
5520 Clouds 7 1013 61 10000 2.06 90 13:49 08.11.2021
5521 Clouds 5 1013 70 10000 2.57 360 12:20 08.11.2021
5522 Clouds 4 1013 81 10000 2.57 360 11:20 08.11.2021
5523 Clouds 5 1013 75 10000 0 0 09:47 08.11.2021
5524 Clouds 5 1012 81 10000 3.09 320 08:55 08.11.2021
5525 Clouds 5 1012 81 10000 2.57 320 07:36 08.11.2021
5526 Clouds 5 1012 81 10000 2.57 340 04:55 08.11.2021
5527 Clouds 6 1012 75 10000 3.6 270 03:30 08.11.2021
5528 Clouds 8 1010 71 10000 6.69 230 23:47 07.11.2021
5529 Clouds 9 1010 61 10000 8.23 230 22:20 07.11.2021
5530 Clouds 9 1009 61 10000 6.69 230 21:20 07.11.2021
5531 Clouds 7 1008 81 10000 10.29 230 19:54 07.11.2021
5532 Drizzle 6 1008 87 10000 10.29 230 18:22 07.11.2021
5533 Drizzle 6 1007 93 8000 9.26 230 17:35 07.11.2021
5534 Rain 5 1006 93 9000 8.75 220 15:54 07.11.2021
5535 Drizzle 5 1006 93 9000 6.69 230 14:34 07.11.2021
5536 Drizzle 5 1006 100 3500 5.66 230 13:54 07.11.2021
5537 Rain 5 1006 100 6000 1.03 0 11:44 07.11.2021
5538 Drizzle 5 1005 93 7000 2.06 140 09:58 07.11.2021
5539 Drizzle 5 1005 93 6000 2.06 140 08:45 07.11.2021
5540 Drizzle 6 1006 93 8000 1.54 70 02:43 07.11.2021
5541 Drizzle 7 1005 87 10000 2.06 180 23:40 06.11.2021
5542 Drizzle 7 1005 81 10000 4.63 230 22:50 06.11.2021
5543 Drizzle 8 1005 71 10000 5.66 230 21:34 06.11.2021
5544 Drizzle 9 1005 66 10000 5.14 230 20:52 06.11.2021
5545 Clouds 9 1004 53 10000 6.69 230 18:56 06.11.2021
5546 Clouds 10 1004 50 10000 7.2 230 17:18 06.11.2021
5547 Clouds 8 1004 66 10000 9.77 240 15:21 06.11.2021
5548 Clouds 7 1003 76 10000 10.8 240 13:38 06.11.2021
5549 Clouds 7 1003 76 10000 10.29 240 12:29 06.11.2021
5550 Clouds 9 1001 61 10000 2.06 230 09:39 06.11.2021
5551 Clouds 10 1000 57 10000 3.09 180 07:57 06.11.2021
5552 Clouds 12 1000 43 10000 7.2 320 02:40 06.11.2021
5553 Clouds 13 1001 44 10000 9.26 320 23:38 05.11.2021
5554 Clouds 14 1002 41 10000 11.32 320 22:39 05.11.2021
5555 Clouds 14 1002 38 10000 10.29 310 21:54 05.11.2021
5556 Rain 13 1003 38 10000 11.83 290 20:20 05.11.2021
5557 Rain 12 1004 40 10000 10.8 300 19:48 05.11.2021
5558 Rain 13 1004 38 10000 12.35 300 18:41 05.11.2021
5559 Clouds 12 1006 40 10000 9.77 290 17:30 05.11.2021
5560 Clouds 11 1007 40 10000 7.2 270 15:48 05.11.2021
5561 Clear 9 1008 49 10000 0 0 13:55 05.11.2021
5562 Clear 6 1008 70 10000 4.63 360 11:31 05.11.2021
5563 Clouds 5 1008 60 10000 6.17 230 08:41 05.11.2021
5564 Clouds 4 1008 70 10000 7.2 230 07:39 05.11.2021
5565 Clouds 4 1008 70 10000 7.2 230 07:39 05.11.2021
5566 Rain 4 1005 81 10000 9.26 230 05:33 05.11.2021
5567 Rain 5 1001 87 10000 9.26 200 02:26 05.11.2021
5568 Rain 5 998 87 7000 11.83 230 00:52 05.11.2021
5569 Rain 6 996 81 5000 12.35 230 23:24 04.11.2021
5570 Rain 6 995 75 10000 16.46 220 22:20 04.11.2021
5571 Rain 7 994 81 9000 12.86 230 21:43 04.11.2021
5572 Rain 10 992 57 5000 16.46 220 20:53 04.11.2021
5573 Rain 10 992 57 5000 16.46 220 20:22 04.11.2021
5574 Rain 13 992 44 10000 3.6 200 19:47 04.11.2021
5575 Clouds 13 992 44 10000 3.6 160 18:52 04.11.2021
5576 Clouds 13 992 44 10000 3.6 160 18:18 04.11.2021
5577 Clouds 9 993 53 10000 3.6 90 16:53 04.11.2021
5578 Clouds 9 994 56 10000 2.4 342 15:18 04.11.2021
5579 Clouds 7 996 70 10000 4.63 90 12:53 04.11.2021
5580 Clouds 7 998 53 10000 4.63 320 09:50 04.11.2021
5581 Drizzle 5 997 60 10000 7.2 230 08:31 04.11.2021
5582 Rain 5 997 56 10000 7.72 230 07:35 04.11.2021
5583 Rain 5 998 60 10000 7.72 230 06:18 04.11.2021
5584 Clouds 9 994 61 10000 10.8 230 22:53 03.11.2021
5585 Clouds 9 993 66 10000 10.29 230 21:50 03.11.2021
5586 Clouds 9 993 66 10000 10.29 230 21:31 03.11.2021
5587 Clouds 9 992 66 10000 12.86 230 20:38 03.11.2021
5588 Clouds 9 992 66 10000 12.86 230 20:18 03.11.2021
5589 Clouds 9 991 71 10000 13.89 230 19:19 03.11.2021
5590 Clouds 11 990 62 10000 12.35 230 18:25 03.11.2021
5591 Clouds 14 989 54 10000 7.72 230 17:36 03.11.2021
5592 Clouds 18 990 39 10000 2.06 90 16:27 03.11.2021
5593 Clouds 16 990 44 10000 2.57 180 15:44 03.11.2021
5594 Clouds 14 990 54 10000 3.6 230 14:25 03.11.2021
5595 Clear 12 992 66 10000 3.09 360 12:33 03.11.2021
5596 Clouds 9 992 76 10000 6.17 360 11:27 03.11.2021
5597 Clouds 9 993 81 10000 1.54 0 10:49 03.11.2021
5598 Clouds 9 993 81 10000 1.54 0 10:49 03.11.2021
5599 Clouds 9 994 81 10000 3.09 40 09:31 03.11.2021
5600 Clouds 9 994 81 10000 3.09 40 09:31 03.11.2021
5601 Clouds 9 995 87 10000 2.06 60 08:24 03.11.2021
5602 Rain 9 996 87 10000 2.57 110 07:39 03.11.2021
5603 Clouds 12 997 62 10000 4.12 350 05:44 03.11.2021
5604 Clouds 12 998 62 10000 1.03 180 03:19 03.11.2021
5605 Clouds 16 997 39 10000 7.2 320 23:57 02.11.2021
5606 Clouds 15 997 44 10000 4.63 360 22:48 02.11.2021
5607 Clouds 15 997 51 10000 3.09 90 21:45 02.11.2021
5608 Clouds 16 997 48 10000 2.06 90 20:34 02.11.2021
5609 Clouds 17 997 48 10000 3.09 70 19:55 02.11.2021
5610 Clouds 17 997 48 10000 3.09 70 19:18 02.11.2021
5611 Clouds 16 998 48 10000 2.57 70 18:26 02.11.2021
5612 Clouds 15 998 51 10000 3.09 70 17:43 02.11.2021
5613 Clear 14 998 54 10000 2.57 110 16:33 02.11.2021
5614 Clouds 13 999 58 10000 2.57 180 15:48 02.11.2021
5615 Clouds 12 1000 62 10000 2.57 360 14:31 02.11.2021
5616 Clouds 12 1000 62 10000 0 0 13:28 02.11.2021
5617 Clear 9 1001 81 10000 1.54 360 12:45 02.11.2021
5618 Clear 7 1001 87 10000 1.54 50 11:38 02.11.2021
5619 Clear 6 1002 87 10000 5.14 90 10:54 02.11.2021
5620 Clear 6 1002 87 10000 5.14 90 10:30 02.11.2021
5621 Clear 7 1003 81 10000 5.14 50 08:45 02.11.2021
5622 Clear 7 1004 93 10000 4.12 50 07:45 02.11.2021
5623 Clear 10 1005 62 10000 1.54 320 04:39 02.11.2021
5624 Clear 11 1005 58 10000 5.14 50 02:49 02.11.2021
5625 Clear 13 1005 47 10000 7.72 360 23:32 01.11.2021
5626 Clouds 14 1005 44 10000 9.26 360 21:28 01.11.2021
5627 Clouds 16 1005 46 10000 2.89 357 20:40 01.11.2021
5628 Clear 16 1006 36 10000 9.26 360 19:58 01.11.2021
5629 Clear 16 1006 36 10000 9.26 360 19:35 01.11.2021
5630 Clear 16 1007 33 10000 3.09 320 18:23 01.11.2021
5631 Clear 15 1008 36 10000 4.12 360 17:35 01.11.2021
5632 Clear 16 1008 39 10000 6.69 340 16:50 01.11.2021
5633 Clear 14 1008 41 10000 5.66 20 15:56 01.11.2021
5634 Clear 14 1008 41 10000 5.66 20 15:27 01.11.2021
5635 Clear 13 1009 38 10000 4.12 70 14:43 01.11.2021
5636 Clear 13 1009 38 10000 4.12 70 14:23 01.11.2021
5637 Clear 13 1010 38 10000 4.63 50 13:49 01.11.2021
5638 Clear 11 1011 43 10000 0 0 12:33 01.11.2021
5639 Clear 8 1011 49 10000 2.06 110 10:36 01.11.2021
5640 Clear 10 1012 37 10000 2.57 50 09:43 01.11.2021
5641 Clear 10 1013 43 10000 4.63 310 07:50 01.11.2021
5642 Clear 10 1013 43 10000 4.63 310 07:30 01.11.2021
5643 Clear 8 1016 71 10000 1.54 230 03:45 01.11.2021
5644 Clear 9 1017 71 10000 3.09 90 00:41 01.11.2021
5645 Clear 13 1018 44 10000 3.09 70 22:31 31.10.2021
5646 Clear 14 1019 38 10000 0 0 20:50 31.10.2021
5647 Clear 14 1020 41 10000 0 0 19:20 31.10.2021
5648 Clear 12 1020 50 10000 0 0 18:38 31.10.2021
5649 Clear 11 1021 50 10000 1.54 140 17:32 31.10.2021
5650 Clear 10 1022 62 10000 0 0 15:50 31.10.2021
5651 Clear 7 1023 76 10000 0 0 13:58 31.10.2021
5652 Clear 6 1023 70 10000 2.06 320 12:49 31.10.2021
5653 Clear 4 1023 75 10000 4.63 360 11:40 31.10.2021
5654 Clear 4 1023 75 10000 2.06 320 10:42 31.10.2021
5655 Clear 5 1023 70 10000 0 0 09:21 31.10.2021
5656 Clear 5 1023 70 10000 2.06 320 08:19 31.10.2021
5657 Clear 11 1023 46 10000 8.23 230 00:58 31.10.2021
5658 Clear 11 1023 50 10000 8.75 230 22:45 30.10.2021
5659 Clear 11 1023 46 10000 8.23 230 21:35 30.10.2021
5660 Clear 10 1024 53 10000 8.23 230 20:44 30.10.2021
5661 Clear 10 1024 53 10000 6.69 230 18:45 30.10.2021
5662 Clear 9 1024 49 10000 9.77 230 17:25 30.10.2021
5663 Clear 7 1024 57 10000 8.75 270 14:54 30.10.2021
5664 Clear 6 1024 56 10000 2.57 270 13:39 30.10.2021
5665 Clear 6 1024 56 10000 2.57 270 13:21 30.10.2021
5666 Clear 5 1024 56 10000 3.09 270 12:46 30.10.2021
5667 Clear 3 1023 75 10000 4.12 290 11:42 30.10.2021
5668 Clear 4 1023 70 10000 4.63 320 10:32 30.10.2021
5669 Clear 4 1021 75 10000 4.63 270 08:52 30.10.2021
5670 Clear 4 1021 75 10000 7.2 250 07:25 30.10.2021
5671 Clouds 5 1019 70 10000 9.26 230 05:39 30.10.2021
5672 Clouds 7 1011 49 10000 11.83 230 00:47 30.10.2021
5673 Clouds 9 1007 46 10000 12.35 230 22:43 29.10.2021
5674 Clouds 9 1007 46 10000 12.35 230 22:20 29.10.2021
5675 Clouds 9 1004 53 10000 13.38 230 20:46 29.10.2021
5676 Rain 7 1003 61 10000 13.38 230 19:56 29.10.2021
5677 Rain 7 1002 61 10000 12.35 230 18:33 29.10.2021
5678 Rain 7 999 70 10000 13.89 230 16:52 29.10.2021
5679 Clouds 12 996 43 10000 4.12 0 14:38 29.10.2021
5680 Clouds 12 995 43 10000 2.57 360 11:56 29.10.2021
5681 Clouds 13 995 41 10000 2.06 360 10:44 29.10.2021
5682 Clouds 13 995 47 10000 1.54 360 08:38 29.10.2021
5683 Clouds 16 999 33 10000 5.66 290 00:37 29.10.2021
5684 Clouds 16 999 36 10000 6.17 320 23:25 28.10.2021
5685 Clouds 17 999 34 10000 7.72 320 22:18 28.10.2021
5686 Clouds 17 1000 31 10000 7.2 320 20:54 28.10.2021
5687 Clouds 16 999 36 10000 9.26 320 19:51 28.10.2021
5688 Clouds 16 999 39 10000 8.75 320 18:26 28.10.2021
5689 Clouds 15 1000 44 10000 7.72 320 17:18 28.10.2021
5690 Clouds 13 1000 47 10000 8.75 320 16:19 28.10.2021
5691 Clouds 13 1000 47 10000 8.23 320 14:25 28.10.2021
5692 Clouds 12 1000 43 10000 8.23 320 13:29 28.10.2021
5693 Clouds 10 1000 46 10000 6.69 320 12:41 28.10.2021
5694 Clear 8 1000 57 10000 7.72 320 10:57 28.10.2021
5695 Clear 8 1000 57 10000 4.63 320 09:39 28.10.2021
5696 Clear 8 1000 57 10000 4.63 320 09:20 28.10.2021
5697 Clear 7 999 61 10000 0 0 08:35 28.10.2021
5698 Clear 7 1000 61 10000 4.63 320 07:40 28.10.2021
5699 Clouds 10 995 50 10000 11.83 220 00:33 28.10.2021
5700 Clouds 10 993 57 10000 9.26 220 22:31 27.10.2021
5701 Clouds 10 992 62 10000 11.32 230 21:34 27.10.2021
5702 Clouds 11 990 40 10000 13.38 210 20:54 27.10.2021
5703 Clouds 11 990 40 10000 13.38 210 20:34 27.10.2021
5704 Clouds 13 989 41 10000 6.69 240 19:42 27.10.2021
5705 Clouds 13 988 41 10000 4.63 0 18:53 27.10.2021
5706 Clouds 10 988 57 10000 2.57 180 16:38 27.10.2021
5707 Clouds 10 988 57 10000 2.57 180 16:20 27.10.2021
5708 Clouds 9 988 57 10000 5.66 360 15:23 27.10.2021
5709 Clouds 4 989 70 10000 2.57 270 12:57 27.10.2021
5710 Clouds 1 992 87 10000 2.95 353 10:59 27.10.2021
5711 Clouds 0 992 87 10000 2.66 350 10:01 27.10.2021
5712 Clouds 0 992 87 10000 2.88 348 08:58 27.10.2021
5713 Clear 4 990 65 10000 2.06 360 07:36 27.10.2021
5714 Clouds 5 989 60 10000 3.09 270 05:36 27.10.2021
5715 Rain 6 986 65 10000 9.26 230 01:18 27.10.2021
5716 Rain 6 985 75 10000 9.77 230 00:33 27.10.2021
5717 Rain 6 982 81 10000 13.89 230 23:51 26.10.2021
5718 Rain 6 982 87 6000 11.32 230 22:42 26.10.2021
5719 Rain 7 981 81 9000 10.8 220 22:19 26.10.2021
5720 Clouds 9 977 66 10000 4.63 210 20:59 26.10.2021
5721 Clouds 9 977 66 10000 5.14 220 19:33 26.10.2021
5722 Clouds 7 977 76 10000 6.17 220 18:53 26.10.2021
5723 Clouds 6 976 75 10000 8.75 200 17:36 26.10.2021
5724 Clouds 6 975 65 10000 3.6 180 15:40 26.10.2021
5725 Rain 2 978 75 10000 9.77 360 11:50 26.10.2021
5726 Rain 8 979 42 10000 7.72 360 10:46 26.10.2021
5727 Clouds 1 981 75 10000 3.6 270 08:24 26.10.2021
5728 Clouds 1 982 75 10000 2.57 360 07:21 26.10.2021
5729 Snow 1 986 93 7000 9.77 230 23:53 25.10.2021
5730 Snow 1 986 93 3000 10.8 230 23:20 25.10.2021
5731 Snow 2 985 80 5000 11.83 230 22:21 25.10.2021
5732 Snow 2 985 80 5000 7.2 230 21:42 25.10.2021
5733 Snow 1 985 86 1200 10.8 250 20:26 25.10.2021
5734 Snow 2 983 80 1200 12.35 230 19:43 25.10.2021
5735 Snow 2 983 80 1200 12.35 230 19:21 25.10.2021
5736 Snow 1 982 86 3000 13.38 230 18:35 25.10.2021
5737 Snow 0 981 100 1200 11.83 230 16:43 25.10.2021
5738 Snow 0 979 100 10000 10.29 230 14:47 25.10.2021
5739 Snow 0 976 100 1200 9.26 230 12:31 25.10.2021
5740 Snow 1 972 86 3500 10.29 230 10:46 25.10.2021
5741 Snow 0 970 86 3500 5.14 230 08:57 25.10.2021
5742 Snow 1 970 80 7000 6.17 250 06:27 25.10.2021
5743 Drizzle 2 969 69 10000 7.72 270 03:18 25.10.2021
5744 Snow 1 968 80 8000 3.6 230 00:49 25.10.2021
5745 Snow 1 968 80 400 9.26 230 00:31 25.10.2021
5746 Snow 2 966 64 400 11.83 230 23:33 24.10.2021
5747 Snow 1 996 93 4000 8.75 230 22:38 24.10.2021
5748 Snow 1 966 93 7000 12.86 230 22:19 24.10.2021
5749 Snow 3 963 93 1200 13.89 220 20:54 24.10.2021
5750 Snow 3 963 93 1200 13.89 220 20:29 24.10.2021
5751 Snow 3 963 93 1000 18.01 220 19:36 24.10.2021
5752 Rain 9 963 49 10000 6.69 330 18:29 24.10.2021
5753 Rain 6 964 65 10000 3.6 360 17:43 24.10.2021
5754 Rain 4 967 75 10000 7.72 360 15:56 24.10.2021
5755 Rain 2 969 93 10000 7.72 360 14:41 24.10.2021
5756 Clouds 1 972 64 10000 5.14 90 12:58 24.10.2021
5757 Clouds 1 975 86 10000 1.03 180 11:44 24.10.2021
5758 Clouds 1 975 86 10000 1.03 180 11:25 24.10.2021
5759 Clouds 1 977 80 10000 3.6 200 10:27 24.10.2021
5760 Clouds 1 982 86 10000 3.6 50 07:47 24.10.2021
5761 Snow 1 984 93 2000 9.77 230 01:21 24.10.2021
5762 Snow 1 983 93 3000 8.23 230 23:48 23.10.2021
5763 Snow 4 981 60 10000 8.75 250 22:18 23.10.2021
5764 Snow 2 979 93 5000 12.86 210 20:37 23.10.2021
5765 Snow 3 979 87 2000 10.8 230 18:59 23.10.2021
5766 Snow 3 979 87 2000 10.8 230 18:30 23.10.2021
5767 Rain 7 978 49 10000 6.69 290 17:43 23.10.2021
5768 Rain 6 979 56 10000 5.66 250 16:24 23.10.2021
5769 Clouds 3 983 75 8000 3.09 0 14:32 23.10.2021
5770 Drizzle 2 982 80 10000 10.8 230 09:45 23.10.2021
5771 Rain 11 976 43 10000 5.66 320 00:22 23.10.2021
5772 Clouds 11 977 43 10000 6.17 320 23:18 22.10.2021
5773 Clouds 10 981 46 10000 8.75 320 20:50 22.10.2021
5774 Clouds 10 985 50 10000 10.8 320 18:45 22.10.2021
5775 Clouds 9 988 46 10000 8.23 340 17:44 22.10.2021
5776 Clouds 8 992 46 10000 9.77 320 15:37 22.10.2021
5777 Clouds 5 996 70 10000 2.06 0 13:54 22.10.2021
5778 Clouds 4 1000 70 10000 3.09 140 11:33 22.10.2021
5779 Clear 3 1001 81 10000 3.6 140 10:48 22.10.2021
5780 Clear 3 1003 81 10000 0 0 09:56 22.10.2021
5781 Clear 3 1004 81 10000 2.57 360 08:36 22.10.2021
5782 Clear 3 1006 81 10000 1.54 90 07:25 22.10.2021
5783 Clouds 4 1008 81 10000 6.69 230 03:32 22.10.2021
5784 Clouds 5 1006 81 10000 13.38 230 00:19 22.10.2021
5785 Clouds 5 1005 81 10000 12.86 220 23:39 21.10.2021
5786 Rain 5 1005 81 10000 11.32 230 22:21 21.10.2021
5787 Clouds 7 1003 65 10000 11.32 220 20:53 21.10.2021
5788 Clouds 7 1003 65 10000 11.32 220 20:19 21.10.2021
5789 Clouds 7 1002 65 10000 12.86 220 19:30 21.10.2021
5790 Clouds 7 1001 61 10000 16.46 220 18:52 21.10.2021
5791 Clouds 7 1001 61 10000 16.46 220 18:19 21.10.2021
5792 Clouds 5 1001 70 10000 14.92 230 17:39 21.10.2021
5793 Rain 10 1001 62 10000 2.51 221 16:18 21.10.2021
5794 Drizzle 7 1000 70 10000 12.86 230 15:21 21.10.2021
5795 Drizzle 7 999 61 10000 11.83 230 14:39 21.10.2021
5796 Clouds 6 990 65 10000 8.75 230 13:20 21.10.2021
5797 Clouds 7 997 53 10000 0 0 11:27 21.10.2021
5798 Clouds 8 997 42 10000 5.66 320 08:59 21.10.2021
5799 Clouds 8 998 42 10000 5.14 340 07:29 21.10.2021
5800 Clouds 8 999 42 10000 5.14 320 03:49 21.10.2021
5801 Clouds 13 998 38 10000 3.09 0 23:45 20.10.2021
5802 Clouds 13 997 41 10000 3.6 180 22:21 20.10.2021
5803 Clouds 10 996 43 10000 7.72 230 21:43 20.10.2021
5804 Clouds 11 996 43 10000 6.69 230 20:56 20.10.2021
5805 Clouds 11 996 43 10000 6.69 230 20:35 20.10.2021
5806 Clouds 10 995 46 10000 9.26 220 19:59 20.10.2021
5807 Clouds 9 994 53 10000 10.29 210 18:56 20.10.2021
5808 Clouds 9 994 57 10000 7.72 220 17:51 20.10.2021
5809 Clouds 8 993 71 10000 8.75 210 15:47 20.10.2021
5810 Clouds 14 990 47 10000 6.17 250 12:33 20.10.2021
5811 Clouds 8 991 81 10000 2.57 140 09:19 20.10.2021
5812 Clouds 6 996 81 10000 4.12 230 05:23 20.10.2021
5813 Clouds 15 998 47 10000 5.14 230 00:48 20.10.2021
5814 Clouds 15 998 47 10000 5.14 230 00:22 20.10.2021
5815 Clouds 17 995 45 10000 9.77 320 21:47 19.10.2021
5816 Clouds 17 995 45 10000 9.77 320 21:27 19.10.2021
5817 Clouds 15 996 47 10000 9.77 320 20:25 19.10.2021
5818 Clouds 14 996 44 10000 12.86 320 19:45 19.10.2021
5819 Clouds 14 996 44 10000 12.86 320 19:21 19.10.2021
5820 Clouds 13 998 47 10000 10.29 320 17:59 19.10.2021
5821 Clouds 7 1000 84 10000 5.42 353 16:24 19.10.2021
5822 Clouds 11 999 50 10000 10.8 320 15:20 19.10.2021
5823 Rain 9 1000 53 10000 7.72 340 14:27 19.10.2021
5824 Rain 9 1000 53 10000 7.72 340 14:27 19.10.2021
5825 Rain 6 1002 81 10000 2.06 250 13:43 19.10.2021
5826 Clouds 5 1004 70 10000 1.03 90 11:37 19.10.2021
5827 Clear 5 1004 70 10000 1.54 90 10:39 19.10.2021
5828 Clouds 6 1005 61 10000 3.09 340 08:59 19.10.2021
5829 Clouds 6 1005 61 10000 3.09 270 07:50 19.10.2021
5830 Clouds 8 1002 61 10000 12.35 230 00:27 19.10.2021
5831 Clouds 8 1000 61 10000 12.86 210 23:56 18.10.2021
5832 Clouds 8 1000 61 10000 12.86 210 23:20 18.10.2021
5833 Clouds 9 1000 57 10000 13.89 210 22:54 18.10.2021
5834 Clouds 9 999 66 10000 15.95 210 21:54 18.10.2021
5835 Clouds 10 998 57 10000 13.89 210 20:42 18.10.2021
5836 Clouds 10 998 57 10000 13.89 210 20:20 18.10.2021
5837 Clouds 9 997 57 10000 15.43 210 19:30 18.10.2021
5838 Clouds 10 996 50 10000 17.49 210 18:58 18.10.2021
5839 Clouds 8 994 61 10000 11.83 230 15:56 18.10.2021
5840 Clouds 9 994 57 10000 14.4 230 14:33 18.10.2021
5841 Clouds 8 992 76 10000 9.26 230 11:44 18.10.2021
5842 Clouds 9 992 71 10000 3.09 320 09:42 18.10.2021
5843 Clouds 8 991 76 10000 3.6 90 06:39 18.10.2021
5844 Clouds 8 996 76 10000 4.12 90 23:52 17.10.2021
5845 Clouds 8 997 76 10000 5.14 140 22:23 17.10.2021
5846 Clouds 6 998 52 10000 2.06 90 21:42 17.10.2021
5847 Clouds 6 1000 75 10000 2.57 360 20:49 17.10.2021
5848 Clouds 6 1001 75 10000 1.54 50 19:56 17.10.2021
5849 Clouds 6 1001 75 10000 1.54 50 19:38 17.10.2021
5850 Clouds 10 1002 65 10000 2.6 290 18:28 17.10.2021
5851 Clouds 5 1003 81 10000 2.57 120 16:38 17.10.2021
5852 Drizzle 3 1004 87 9000 3.6 160 14:39 17.10.2021
5853 Drizzle 4 1005 70 10000 2.06 90 13:59 17.10.2021
5854 Drizzle 4 1005 70 10000 2.06 90 13:33 17.10.2021
5855 Clouds 1 1006 86 10000 5.66 360 11:31 17.10.2021
5856 Clouds 2 1006 80 10000 5.66 360 10:19 17.10.2021
5857 Clouds 2 1007 75 10000 5.14 270 08:29 17.10.2021
5858 Snow 0 1006 93 7000 5.14 250 03:21 17.10.2021
5859 Snow 1 1003 93 1500 12.86 230 00:31 17.10.2021
5860 Rain 2 999 75 10000 14.4 230 22:54 16.10.2021
5861 Snow 0 997 93 10000 16.46 230 20:45 16.10.2021
5862 Snow 0 997 93 10000 16.46 230 20:27 16.10.2021
5863 Snow 0 996 93 2000 16.46 230 19:40 16.10.2021
5864 Snow 0 996 93 2000 16.46 230 19:19 16.10.2021
5865 Snow 0 996 93 2000 16.46 230 19:19 16.10.2021
5866 Snow -1 994 93 1500 11.32 230 18:44 16.10.2021
5867 Snow -1 994 93 1500 11.32 230 18:23 16.10.2021
5868 Snow 0 993 93 1200 9.26 230 17:33 16.10.2021
5869 Snow 0 992 86 1200 9.26 250 16:20 16.10.2021
5870 Snow -1 990 93 1200 12.35 230 13:26 16.10.2021
5871 Snow 1 985 80 10000 12.86 230 11:25 16.10.2021
5872 Snow 1 983 93 1000 18.01 230 09:35 16.10.2021
5873 Drizzle 3 972 87 10000 5.14 230 04:33 16.10.2021
5874 Rain 8 973 71 8000 10.8 320 01:22 16.10.2021
5875 Rain 10 975 50 10000 8.75 330 23:27 15.10.2021
5876 Rain 11 977 46 10000 7.2 290 22:21 15.10.2021
5877 Rain 11 978 46 10000 7.72 310 21:41 15.10.2021
5878 Rain 11 979 43 10000 6.69 320 20:54 15.10.2021
5879 Rain 11 979 43 10000 6.69 320 20:35 15.10.2021
5880 Clouds 10 981 53 10000 5.66 330 19:20 15.10.2021
5881 Clouds 11 982 46 10000 7.2 330 18:22 15.10.2021
5882 Clouds 10 984 57 10000 2.06 140 16:19 15.10.2021
5883 Clouds 6 987 70 10000 1.03 180 14:26 15.10.2021
5884 Clouds 5 987 75 10000 3.09 180 12:26 15.10.2021
5885 Clouds 6 988 56 10000 2.06 0 11:19 15.10.2021
5886 Clouds 6 988 52 10000 1.54 0 10:32 15.10.2021
5887 Clouds 6 989 45 10000 5.66 250 08:21 15.10.2021
5888 Clouds 5 991 52 10000 2.57 270 04:46 15.10.2021
5889 Clouds 7 993 53 10000 4.63 230 00:25 15.10.2021
5890 Clouds 7 994 53 10000 8.23 230 23:26 14.10.2021
5891 Clouds 6 994 56 10000 8.23 230 22:22 14.10.2021
5892 Clouds 6 994 56 10000 9.26 230 21:37 14.10.2021
5893 Clouds 6 994 65 10000 10.29 230 20:21 14.10.2021
5894 Drizzle 6 994 61 10000 10.8 230 19:49 14.10.2021
5895 Clouds 6 994 49 10000 8.75 230 18:44 14.10.2021
5896 Rain 6 994 56 10000 9.26 230 16:59 14.10.2021
5897 Rain 6 994 56 10000 9.26 230 16:33 14.10.2021
5898 Clouds 5 994 60 10000 7.2 230 15:20 14.10.2021
5899 Clouds 5 994 60 10000 2.57 230 14:30 14.10.2021
5900 Clouds 5 994 60 10000 2.57 230 14:30 14.10.2021
5901 Clouds 3 993 75 10000 3.09 340 13:35 14.10.2021
5902 Clouds 3 992 70 10000 5.66 230 11:35 14.10.2021
5903 Clear 3 992 81 10000 5.14 230 09:28 14.10.2021
5904 Clouds 0 992 91 10000 2.85 340 06:27 14.10.2021
5905 Rain 3 989 96 4038 0.63 23 00:49 14.10.2021
5906 Rain 5 985 87 10000 12.35 230 22:46 13.10.2021
5907 Rain 7 982 70 10000 19.03 230 21:37 13.10.2021
5908 Rain 13 982 33 10000 9.26 290 20:45 13.10.2021
5909 Rain 13 981 38 10000 9.77 290 19:41 13.10.2021
5910 Clouds 11 981 50 10000 6.17 290 18:48 13.10.2021
5911 Clouds 9 981 61 10000 3.6 230 17:28 13.10.2021
5912 Drizzle 10 979 57 10000 8.23 340 14:55 13.10.2021
5913 Drizzle 10 979 57 10000 8.23 340 14:34 13.10.2021
5914 Clouds 13 978 30 10000 12.86 300 12:48 13.10.2021
5915 Clouds 14 979 19 10000 9.77 320 11:51 13.10.2021
5916 Clouds 15 980 23 10000 6.17 320 10:21 13.10.2021
5917 Clouds 12 985 40 10000 6.17 290 07:54 13.10.2021
5918 Clouds 10 987 57 10000 5.66 320 05:40 13.10.2021
5919 Clouds 11 990 50 10000 5.14 360 02:23 13.10.2021
5920 Clouds 13 993 38 10000 8.23 330 23:51 12.10.2021
5921 Clouds 13 993 38 10000 8.23 330 23:27 12.10.2021
5922 Clouds 12 994 40 10000 4.12 290 22:41 12.10.2021
5923 Clouds 13 995 41 10000 9.26 310 20:55 12.10.2021
5924 Clouds 13 995 41 10000 9.26 310 20:31 12.10.2021
5925 Drizzle 13 995 38 10000 8.75 320 19:45 12.10.2021
5926 Drizzle 13 996 44 10000 9.77 340 18:26 12.10.2021
5927 Clouds 12 996 43 10000 8.23 340 17:29 12.10.2021
5928 Clouds 12 997 40 10000 9.26 320 16:24 12.10.2021
5929 Clouds 11 997 50 10000 6.17 320 15:35 12.10.2021
5930 Clouds 11 998 50 10000 5.14 360 14:20 12.10.2021
5931 Clouds 10 998 53 10000 6.69 360 13:41 12.10.2021
5932 Clouds 9 999 53 10000 7.2 320 11:31 12.10.2021
5933 Clouds 9 999 53 10000 7.2 320 11:30 12.10.2021
5934 Clouds 9 998 57 10000 3.09 320 09:41 12.10.2021
5935 Clouds 8 999 61 10000 6.69 360 08:31 12.10.2021
5936 Clouds 8 999 66 10000 4.63 320 06:46 12.10.2021
5937 Clouds 8 999 61 10000 3.6 20 04:49 12.10.2021
5938 Clouds 8 999 61 10000 3.6 20 04:28 12.10.2021
5939 Clouds 11 997 46 10000 7.72 290 23:56 11.10.2021
5940 Clouds 11 997 46 10000 7.72 290 23:36 11.10.2021
5941 Clouds 12 997 40 10000 9.26 290 22:52 11.10.2021
5942 Clouds 13 997 41 10000 9.26 290 21:27 11.10.2021
5943 Clouds 13 997 41 10000 7.72 310 20:28 11.10.2021
5944 Clouds 12 998 40 10000 8.23 310 19:35 11.10.2021
5945 Clouds 12 998 40 10000 8.23 320 18:23 11.10.2021
5946 Clouds 10 999 46 10000 7.72 300 16:41 11.10.2021
5947 Clouds 10 999 46 10000 7.72 300 16:21 11.10.2021
5948 Clouds 10 999 46 10000 7.72 300 16:21 11.10.2021
5949 Clouds 9 1000 53 10000 3.6 330 15:44 11.10.2021
5950 Clouds 7 1000 76 10000 1.54 350 14:54 11.10.2021
5951 Clouds 7 1000 76 10000 1.54 350 14:22 11.10.2021
5952 Clouds 5 1000 93 10000 2.57 80 13:35 11.10.2021
5953 Clouds 4 1000 81 10000 3.09 230 11:24 11.10.2021
5954 Clouds 4 999 81 10000 7.72 230 09:47 11.10.2021
5955 Clouds 4 999 81 10000 2.06 90 08:40 11.10.2021
5956 Drizzle 8 998 61 10000 11.32 230 01:47 11.10.2021
5957 Rain 10 997 40 10000 5.66 290 00:59 11.10.2021
5958 Rain 10 997 40 10000 5.66 290 00:59 11.10.2021
5959 Rain 10 997 40 10000 5.66 290 00:41 11.10.2021
5960 Rain 11 996 35 10000 10.8 290 22:42 10.10.2021
5961 Clouds 11 996 32 10000 11.83 290 21:50 10.10.2021
5962 Clouds 11 996 32 10000 11.83 290 21:20 10.10.2021
5963 Clouds 11 996 32 10000 13.38 290 20:40 10.10.2021
5964 Clouds 11 996 32 10000 13.38 290 20:40 10.10.2021
5965 Clouds 11 996 32 10000 13.38 290 20:19 10.10.2021
5966 Clouds 10 996 32 10000 8.23 320 19:49 10.10.2021
5967 Clouds 10 996 32 10000 8.23 320 19:30 10.10.2021
5968 Clouds 10 998 32 10000 9.26 320 18:23 10.10.2021
5969 Clear 8 998 49 10000 2.06 0 15:54 10.10.2021
5970 Clear 8 998 49 10000 2.06 0 15:35 10.10.2021
5971 Clear 5 998 70 10000 2.57 360 13:41 10.10.2021
5972 Clear 3 997 81 10000 2.57 320 12:43 10.10.2021
5973 Clouds 4 997 81 10000 2.57 320 11:59 10.10.2021
5974 Clouds 4 996 87 10000 3.09 270 10:30 10.10.2021
5975 Clouds 5 995 70 10000 7.72 180 09:19 10.10.2021
5976 Drizzle 5 995 81 10000 7.72 230 08:51 10.10.2021
5977 Rain 5 991 87 10000 4.63 230 04:57 10.10.2021
5978 Drizzle 7 989 87 10000 11.32 230 02:20 10.10.2021
5979 Drizzle 10 987 71 10000 12.86 230 00:50 10.10.2021
5980 Rain 12 987 62 10000 6.17 300 23:45 09.10.2021
5981 Rain 11 988 66 10000 3.09 0 22:20 09.10.2021
5982 Rain 11 988 66 10000 3.09 0 22:20 09.10.2021
5983 Rain 11 989 62 10000 4.12 0 21:30 09.10.2021
5984 Rain 13 989 50 10000 7.2 340 20:42 09.10.2021
5985 Rain 10 990 62 10000 4.12 180 19:41 09.10.2021
5986 Rain 8 991 66 10000 3.09 0 18:48 09.10.2021
5987 Rain 8 991 66 10000 3.09 0 18:26 09.10.2021
5988 Rain 8 994 53 10000 9.26 340 16:21 09.10.2021
5989 Rain 6 998 56 10000 7.2 360 14:37 09.10.2021
5990 Rain 6 998 49 10000 9.77 340 13:39 09.10.2021
5991 Rain 6 1000 49 10000 6.69 340 12:35 09.10.2021
5992 Clear 3 1002 75 10000 7.2 360 10:47 09.10.2021
5993 Clouds 1 1004 85 10000 4.32 0 10:21 09.10.2021
5994 Clear 3 1003 75 10000 3.6 320 09:23 09.10.2021
5995 Clear 3 1004 75 10000 3.09 360 08:20 09.10.2021
5996 Clear 3 1004 75 10000 3.09 360 08:20 09.10.2021
5997 Clouds 3 1005 75 10000 5.14 320 06:46 09.10.2021
5998 Clouds 3 1005 81 10000 5.14 270 05:20 09.10.2021
5999 Clouds 5 1003 65 10000 9.77 260 02:47 09.10.2021
6000 Rain 4 1000 81 10000 1.54 0 00:43 09.10.2021
6001 Rain 4 999 81 7000 13.89 230 23:35 08.10.2021
6002 Rain 5 995 70 10000 13.38 230 22:47 08.10.2021
6003 Clouds 7 994 57 10000 10.8 230 21:45 08.10.2021
6004 Clouds 8 993 57 10000 12.86 230 20:30 08.10.2021
6005 Rain 7 990 76 7000 14.4 200 18:23 08.10.2021
6006 Rain 5 990 87 10000 7.2 230 17:18 08.10.2021
6007 Rain 5 990 87 10000 7.2 230 17:18 08.10.2021
6008 Rain 9 988 66 5000 13.89 230 16:44 08.10.2021
6009 Rain 9 988 66 5000 13.89 230 16:22 08.10.2021
6010 Clouds 9 988 49 10000 8.23 290 13:48 08.10.2021
6011 Clouds 9 990 46 10000 7.72 320 11:56 08.10.2021
6012 Clouds 4 991 92 10000 4.3 350 10:47 08.10.2021
6013 Clouds 3 992 93 10000 4.46 350 10:25 08.10.2021
6014 Clouds 9 995 46 10000 7.72 360 06:49 08.10.2021
6015 Clear 9 1004 53 10000 2.57 180 23:28 07.10.2021
6016 Clear 9 1005 46 10000 2.06 180 22:55 07.10.2021
6017 Clear 10 1006 43 10000 2.57 200 21:30 07.10.2021
6018 Clear 10 1006 43 10000 3.09 180 20:42 07.10.2021
6019 Clear 10 1007 43 10000 2.06 140 19:38 07.10.2021
6020 Clear 9 1007 43 10000 1.54 50 18:54 07.10.2021
6021 Clouds 7 1008 53 10000 3.09 320 17:35 07.10.2021
6022 Clouds 7 1008 49 10000 2.06 320 16:42 07.10.2021
6023 Clouds 4 1008 60 10000 4.12 290 14:56 07.10.2021
6024 Clouds 3 1009 75 10000 4.12 340 13:44 07.10.2021
6025 Clouds 3 1009 75 10000 4.12 340 13:20 07.10.2021
6026 Clouds 5 1008 65 10000 9.26 230 11:26 07.10.2021
6027 Clouds 5 1008 65 10000 10.8 230 10:47 07.10.2021
6028 Clouds 5 1007 65 10000 14.92 230 09:47 07.10.2021
6029 Clouds 5 1008 70 10000 12.86 230 08:55 07.10.2021
6030 Clouds 5 1008 70 10000 12.86 230 08:20 07.10.2021
6031 Clouds 5 1008 75 10000 13.38 230 07:39 07.10.2021
6032 Clouds 5 1008 75 10000 13.38 230 06:47 07.10.2021
6033 Rain 7 998 87 8000 12.35 230 00:55 07.10.2021
6034 Rain 7 998 87 10000 6.69 230 23:30 06.10.2021
6035 Rain 8 998 76 10000 13.89 220 22:40 06.10.2021
6036 Clouds 11 998 54 10000 2.57 0 21:40 06.10.2021
6037 Clouds 10 999 62 10000 1.54 190 20:33 06.10.2021
6038 Clouds 10 999 53 10000 2.06 100 19:23 06.10.2021
6039 Clouds 8 1001 66 10000 2.57 140 17:41 06.10.2021
6040 Clouds 7 1002 70 10000 1.54 160 15:44 06.10.2021
6041 Clouds 7 1002 70 10000 1.54 160 15:18 06.10.2021
6042 Clouds 5 1004 75 10000 2.57 110 13:31 06.10.2021
6043 Clouds 4 1005 87 10000 2.06 110 12:47 06.10.2021
6044 Clouds 4 1005 87 10000 2.06 110 12:28 06.10.2021
6045 Clouds 4 1005 75 10000 3.09 360 11:38 06.10.2021
6046 Clouds 3 1007 70 10000 5.66 90 09:40 06.10.2021
6047 Clouds 3 1008 70 10000 4.63 90 08:59 06.10.2021
6048 Clouds 3 1008 70 10000 4.63 90 08:31 06.10.2021
6049 Clouds 4 1011 60 10000 3.09 360 06:18 06.10.2021
6050 Clear 5 1016 60 10000 4.12 230 02:52 06.10.2021
6051 Clear 6 1016 56 10000 7.2 230 00:24 06.10.2021
6052 Clear 7 1016 53 10000 7.72 230 23:51 05.10.2021
6053 Clear 7 1016 53 10000 7.72 230 23:31 05.10.2021
6054 Clear 7 1016 53 10000 9.26 230 22:35 05.10.2021
6055 Clear 7 1017 53 10000 10.29 240 21:57 05.10.2021
6056 Clear 7 1017 53 10000 10.29 240 21:57 05.10.2021
6057 Clear 7 1017 53 10000 10.29 240 21:20 05.10.2021
6058 Clouds 7 1017 53 10000 11.32 230 20:31 05.10.2021
6059 Clouds 6 1017 56 10000 12.86 220 19:51 05.10.2021
6060 Clouds 6 1017 56 10000 12.86 220 19:24 05.10.2021
6061 Clouds 6 1018 61 10000 12.86 220 18:21 05.10.2021
6062 Clouds 4 1017 56 10000 11.32 230 15:36 05.10.2021
6063 Clouds 3 1016 65 10000 9.77 250 13:52 05.10.2021
6064 Clouds 3 1016 65 10000 9.77 250 13:23 05.10.2021
6065 Clouds 3 1015 60 10000 10.29 230 12:34 05.10.2021
6066 Clouds 3 1015 65 10000 12.35 230 11:41 05.10.2021
6067 Clouds 3 1014 70 10000 11.32 230 10:37 05.10.2021
6068 Clouds 3 1011 87 10000 8.23 250 07:59 05.10.2021
6069 Rain 4 1004 75 10000 9.77 230 01:46 05.10.2021
6070 Rain 6 1000 65 10000 11.83 230 22:56 04.10.2021
6071 Rain 5 999 75 10000 15.43 230 21:27 04.10.2021
6072 Rain 5 997 65 10000 14.92 230 18:51 04.10.2021
6073 Clouds 5 996 65 10000 12.35 230 17:29 04.10.2021
6074 Clouds 5 994 65 10000 16.98 230 15:34 04.10.2021
6075 Clouds 5 995 65 10000 15.95 230 14:46 04.10.2021
6076 Clouds 5 995 65 10000 15.95 230 14:18 04.10.2021
6077 Clouds 3 996 87 10000 12.86 230 13:32 04.10.2021
6078 Clouds 3 995 81 10000 13.89 230 12:50 04.10.2021
6079 Clouds 3 994 81 10000 16.46 230 11:34 04.10.2021
6080 Clouds 3 994 81 10000 14.4 230 10:47 04.10.2021
6081 Drizzle 3 993 87 10000 15.43 220 09:44 04.10.2021
6082 Drizzle 3 993 81 10000 8.23 240 07:54 04.10.2021
6083 Drizzle 3 992 81 10000 8.23 230 06:50 04.10.2021
6084 Rain 5 989 75 10000 16.46 230 23:38 03.10.2021
6085 Clouds 7 988 81 10000 10.8 230 22:30 03.10.2021
6086 Rain 8 987 76 10000 12.35 230 21:34 03.10.2021
6087 Rain 9 988 61 10000 10.29 230 20:49 03.10.2021
6088 Rain 11 988 43 10000 6.69 320 19:49 03.10.2021
6089 Clouds 11 988 43 10000 7.72 340 18:30 03.10.2021
6090 Clouds 9 989 53 10000 4.63 320 17:37 03.10.2021
6091 Clouds 7 992 65 10000 2.57 290 15:30 03.10.2021
6092 Clouds 6 993 70 10000 4.63 340 14:31 03.10.2021
6093 Clouds 6 993 70 10000 4.63 340 14:31 03.10.2021
6094 Clouds 5 994 75 10000 0 0 13:36 03.10.2021
6095 Clouds 4 995 81 10000 1.54 250 12:47 03.10.2021
6096 Clouds 3 996 81 10000 2.57 360 11:40 03.10.2021
6097 Clouds 3 998 81 10000 2.57 230 10:21 03.10.2021
6098 Clouds 4 1000 81 10000 3.6 360 06:42 03.10.2021
6099 Rain 7 999 65 10000 5.66 200 22:59 02.10.2021
6100 Clouds 7 998 65 10000 6.17 200 21:59 02.10.2021
6101 Clouds 9 998 53 10000 1.54 140 20:34 02.10.2021
6102 Clouds 6 998 56 10000 3.09 140 18:57 02.10.2021
6103 Clouds 6 998 56 10000 3.09 140 18:20 02.10.2021
6104 Clouds 6 998 49 10000 2.06 140 17:38 02.10.2021
6105 Clouds 6 999 52 10000 3.09 140 16:39 02.10.2021
6106 Clouds -2 1003 98 1310 0.98 318 07:51 02.10.2021
6107 Rain 5 992 65 10000 9.26 230 15:37 30.09.2021
6108 Clouds 4 991 65 10000 6.69 230 14:22 30.09.2021
6109 Rain 4 989 65 10000 6.17 250 11:58 30.09.2021
6110 Rain 4 988 70 10000 5.14 240 10:55 30.09.2021
6111 Rain 4 988 70 10000 5.14 240 10:25 30.09.2021
6112 Rain 4 988 70 10000 5.14 240 10:25 30.09.2021
6113 Rain 4 987 70 10000 10.8 230 08:32 30.09.2021
6114 Rain 4 987 75 10000 4.63 230 07:45 30.09.2021
6115 Rain 4 987 87 10000 5.66 240 05:25 30.09.2021
6116 Clouds 5 986 81 10000 9.77 220 02:33 30.09.2021
6117 Clouds 5 985 81 10000 9.77 230 00:31 30.09.2021
6118 Clouds 9 985 49 10000 5.14 230 22:41 29.09.2021
6119 Clouds 9 985 49 10000 4.63 320 21:28 29.09.2021
6120 Clouds 9 985 49 10000 7.72 320 20:30 29.09.2021
6121 Drizzle 9 985 46 10000 9.26 320 19:58 29.09.2021
6122 Drizzle 9 985 46 10000 9.26 320 19:18 29.09.2021
6123 Drizzle 9 985 34 10000 9.26 320 17:58 29.09.2021
6124 Drizzle 9 985 49 10000 9.26 320 16:55 29.09.2021
6125 Drizzle 9 985 49 10000 9.26 320 16:22 29.09.2021
6126 Drizzle 8 984 49 10000 11.32 290 14:42 29.09.2021
6127 Drizzle 8 984 49 10000 11.32 290 14:18 29.09.2021
6128 Clouds 9 984 43 10000 8.23 290 13:32 29.09.2021
6129 Clouds 9 984 43 10000 6.17 290 12:38 29.09.2021
6130 Clouds 10 983 43 10000 7.72 320 10:57 29.09.2021
6131 Clouds 10 983 43 10000 7.72 320 10:25 29.09.2021
6132 Clouds 10 983 43 10000 7.72 320 09:39 29.09.2021
6133 Clouds 9 985 46 10000 10.8 320 07:48 29.09.2021
6134 Clouds 8 987 46 10000 8.75 320 05:50 29.09.2021
6135 Clouds 9 992 43 10000 8.75 320 23:36 28.09.2021
6136 Clouds 9 992 46 10000 7.2 290 22:24 28.09.2021
6137 Clouds 10 993 43 10000 9.77 320 21:45 28.09.2021
6138 Clouds 8 995 46 10000 9.77 320 20:44 28.09.2021
6139 Clouds 8 995 46 10000 6.69 320 19:47 28.09.2021
6140 Clouds 8 995 49 10000 6.69 320 18:53 28.09.2021
6141 Clouds 8 995 49 10000 6.69 320 18:27 28.09.2021
6142 Clouds 6 996 52 10000 2.06 0 16:42 28.09.2021
6143 Clouds 4 998 65 10000 0 0 14:52 28.09.2021
6144 Clouds 3 998 70 10000 1.03 0 13:22 28.09.2021
6145 Clouds 3 999 60 10000 2.06 140 12:22 28.09.2021
6146 Clouds 2 998 80 10000 3.09 50 11:47 28.09.2021
6147 Clouds 2 998 80 10000 3.09 50 11:25 28.09.2021
6148 Clouds 2 999 87 10000 0 0 10:26 28.09.2021
6149 Clouds 2 999 87 10000 1.54 50 09:25 28.09.2021
6150 Clouds 3 1000 87 10000 2.57 360 08:43 28.09.2021
6151 Clouds 3 1000 93 10000 2.06 270 07:49 28.09.2021
6152 Rain 4 1000 93 10000 3.6 270 06:23 28.09.2021
6153 Drizzle 6 998 81 10000 6.17 230 01:29 28.09.2021
6154 Drizzle 8 998 57 10000 10.29 230 00:28 28.09.2021
6155 Rain 9 998 49 10000 7.72 270 23:48 27.09.2021
6156 Clouds 9 998 49 10000 7.72 270 23:23 27.09.2021
6157 Clouds 11 997 40 10000 7.2 320 22:20 27.09.2021
6158 Clouds 11 998 40 10000 5.14 320 20:54 27.09.2021
6159 Clouds 11 998 40 10000 5.14 320 20:24 27.09.2021
6160 Clouds 9 998 53 10000 2.57 140 19:36 27.09.2021
6161 Clouds 8 999 61 10000 1.54 90 18:52 27.09.2021
6162 Clouds 8 999 61 10000 1.54 90 18:52 27.09.2021
6163 Clouds 8 999 61 10000 1.54 90 18:52 27.09.2021
6164 Clouds 8 999 61 10000 3.6 110 17:37 27.09.2021
6165 Clouds 7 1000 65 10000 2.57 90 16:53 27.09.2021
6166 Clouds 7 1000 65 10000 2.57 90 16:33 27.09.2021
6167 Clouds 6 1000 75 10000 3.6 90 15:36 27.09.2021
6168 Clouds 4 1000 87 10000 4.12 110 13:44 27.09.2021
6169 Clouds 4 1001 87 10000 3.09 110 12:22 27.09.2021
6170 Clear 3 1001 93 10000 3.09 100 10:48 27.09.2021
6171 Clear 4 1002 81 10000 2.06 150 09:40 27.09.2021
6172 Clear 4 1002 75 10000 2.06 110 07:44 27.09.2021
6173 Clear 5 1004 87 10000 3.09 280 03:31 27.09.2021
6174 Clouds 8 1005 46 10000 2.06 90 23:42 26.09.2021
6175 Clouds 8 1005 46 10000 3.09 180 21:57 26.09.2021
6176 Clouds 8 1005 46 10000 3.09 180 21:27 26.09.2021
6177 Clouds 8 1005 46 10000 3.09 180 21:27 26.09.2021
6178 Clouds 9 1006 43 10000 2.57 360 20:25 26.09.2021
6179 Clouds 8 1006 46 10000 4.12 360 19:54 26.09.2021
6180 Clouds 8 1006 46 10000 4.12 360 19:25 26.09.2021
6181 Clouds 8 1006 46 10000 4.12 360 19:25 26.09.2021
6182 Clouds 8 1006 46 10000 4.12 360 19:25 26.09.2021
6183 Clouds 8 1006 46 10000 4.12 360 19:25 26.09.2021
6184 Clouds 7 1007 61 10000 2.57 90 18:41 26.09.2021
6185 Clouds 6 1008 65 10000 1.54 90 17:38 26.09.2021
6186 Clouds 6 1008 65 10000 1.54 90 17:20 26.09.2021
6187 Clear 5 1008 53 10000 1.85 341 16:23 26.09.2021
6188 Clouds 4 1008 65 10000 3.09 50 15:27 26.09.2021
6189 Clouds 2 1008 75 10000 4.12 360 14:22 26.09.2021
6190 Clouds 1 1008 80 10000 4.63 340 13:42 26.09.2021
6191 Clouds 1 1008 100 10000 3.09 270 12:31 26.09.2021
6192 Clear 1 1008 75 10000 4.12 320 11:56 26.09.2021
6193 Clear 1 1008 75 10000 4.12 320 11:26 26.09.2021
6194 Clouds 2 1008 75 10000 3.09 270 09:51 26.09.2021
6195 Clouds 3 1008 65 10000 3.6 270 08:41 26.09.2021
6196 Rain 6 1002 61 10000 8.75 230 00:30 26.09.2021
6197 Rain 6 1001 65 10000 7.72 230 23:47 25.09.2021
6198 Clouds 7 1001 57 10000 8.75 230 22:39 25.09.2021
6199 Clouds 7 1001 57 10000 8.75 230 22:19 25.09.2021
6200 Clouds 7 1001 57 10000 8.75 230 22:19 25.09.2021
6201 Clouds 7 1000 57 10000 7.2 230 21:46 25.09.2021
6202 Rain 7 1000 57 10000 6.69 230 20:52 25.09.2021
6203 Rain 7 1000 61 10000 6.17 230 19:41 25.09.2021
6204 Rain 6 999 65 10000 8.23 230 18:28 25.09.2021
6205 Rain 6 999 65 10000 6.69 230 17:45 25.09.2021
6206 Clouds 3 998 75 10000 2.06 320 14:39 25.09.2021
6207 Clouds 2 998 80 10000 3.6 320 13:55 25.09.2021
6208 Clouds 2 997 80 10000 4.12 320 12:46 25.09.2021
6209 Rain 2 996 80 10000 3.09 320 11:27 25.09.2021
6210 Rain 2 996 87 10000 3.6 320 10:20 25.09.2021
6211 Rain 3 995 81 10000 4.12 270 09:22 25.09.2021
6212 Rain 3 994 81 10000 5.14 230 07:49 25.09.2021
6213 Drizzle 5 989 93 8000 2.06 140 00:56 25.09.2021
6214 Rain 5 987 93 4000 3.6 140 23:25 24.09.2021
6215 Drizzle 7 985 81 10000 7.2 230 21:34 24.09.2021
6216 Rain 11 985 62 10000 6.17 180 20:32 24.09.2021
6217 Rain 11 985 62 10000 5.66 180 19:32 24.09.2021
6218 Rain 11 985 62 10000 5.66 180 19:32 24.09.2021
6219 Clouds 12 985 54 10000 2.57 90 18:21 24.09.2021
6220 Clouds 13 985 50 10000 5.66 310 17:53 24.09.2021
6221 Clouds 13 985 50 10000 5.66 310 17:34 24.09.2021
6222 Clouds 11 984 54 10000 2.06 0 15:59 24.09.2021
6223 Clouds 9 984 57 10000 5.14 360 13:28 24.09.2021
6224 Clouds 9 985 57 10000 2.57 290 12:44 24.09.2021
6225 Clouds 9 985 57 10000 2.57 290 12:25 24.09.2021
6226 Clouds 7 986 70 10000 2.57 180 10:56 24.09.2021
6227 Rain 7 987 76 10000 6.17 180 09:57 24.09.2021
6228 Drizzle 7 989 76 10000 4.12 250 08:24 24.09.2021
6229 Drizzle 7 990 70 10000 2.57 0 07:30 24.09.2021
6230 Rain 7 992 65 10000 7.2 350 06:23 24.09.2021
6231 Drizzle 7 997 61 10000 7.72 340 04:52 24.09.2021
6232 Clouds 10 1000 32 10000 8.23 320 22:44 23.09.2021
6233 Clouds 10 1000 34 10000 9.26 270 21:59 23.09.2021
6234 Clouds 10 1000 34 10000 9.26 270 21:37 23.09.2021
6235 Clouds 10 1000 34 10000 11.83 270 20:32 23.09.2021
6236 Clouds 10 1000 43 10000 7.2 320 18:56 23.09.2021
6237 Clouds 8 1000 42 10000 8.75 270 16:49 23.09.2021
6238 Clouds 7 1000 53 10000 2.06 180 15:20 23.09.2021
6239 Clouds 6 1000 49 10000 5.66 270 14:58 23.09.2021
6240 Clouds 5 1000 52 10000 4.63 320 13:40 23.09.2021
6241 Clouds 5 1000 52 10000 4.63 320 13:18 23.09.2021
6242 Clouds 5 1000 48 10000 5.14 320 12:46 23.09.2021
6243 Clouds 5 1000 48 10000 5.14 320 12:21 23.09.2021
6244 Clear 4 999 70 10000 3.09 320 10:42 23.09.2021
6245 Clear 4 999 70 10000 3.09 320 10:19 23.09.2021
6246 Clear 4 999 70 10000 3.6 320 09:48 23.09.2021
6247 Clouds 4 999 87 10000 1.54 180 06:32 23.09.2021
6248 Drizzle 5 994 87 10000 12.86 230 00:28 23.09.2021
6249 Clouds 10 990 66 5000 18.01 230 22:54 22.09.2021
6250 Rain 10 990 66 10000 9.77 230 22:23 22.09.2021
6251 Rain 10 990 71 10000 10.8 230 21:46 22.09.2021
6252 Rain 10 990 71 10000 10.8 230 21:46 22.09.2021
6253 Clouds 13 990 54 10000 5.14 230 20:58 22.09.2021
6254 Clouds 13 990 54 10000 5.14 230 20:38 22.09.2021
6255 Clouds 14 990 51 10000 1.54 180 19:27 22.09.2021
6256 Clouds 14 990 51 10000 2.57 320 18:36 22.09.2021
6257 Clouds 13 990 59 10000 4.15 327 17:38 22.09.2021
6258 Clouds 11 992 74 10000 4.42 356 15:53 22.09.2021
6259 Clouds 7 994 87 10000 2.06 200 14:37 22.09.2021
6260 Clouds 7 996 87 10000 0 0 13:24 22.09.2021
6261 Drizzle 7 999 87 10000 1.03 360 11:34 22.09.2021
6262 Drizzle 7 1001 87 10000 2.57 360 10:18 22.09.2021
6263 Rain 6 1004 93 10000 4.12 360 08:52 22.09.2021
6264 Rain 6 1005 87 10000 6.69 50 07:49 22.09.2021
6265 Clouds 6 1006 93 10000 6.17 90 06:56 22.09.2021
6266 Clouds 7 1008 87 10000 0 0 05:49 22.09.2021
6267 Clouds 7 1008 87 10000 0 0 05:23 22.09.2021
6268 Clouds 7 1009 81 10000 2.57 270 03:34 22.09.2021
6269 Clouds 9 1008 76 10000 0 0 00:20 22.09.2021
6270 Clouds 10 1008 76 10000 3.6 230 22:43 21.09.2021
6271 Clouds 10 1008 76 10000 3.6 230 21:31 21.09.2021
6272 Clouds 10 1008 79 10000 1.5 309 19:39 21.09.2021
6273 Clouds 10 1008 77 10000 1.91 289 19:20 21.09.2021
6274 Drizzle 10 1006 81 10000 0 0 16:59 21.09.2021
6275 Drizzle 10 1006 81 10000 0 0 16:29 21.09.2021
6276 Rain 8 1006 93 10000 0 0 15:31 21.09.2021
6277 Clouds 7 1006 93 10000 1.54 360 14:56 21.09.2021
6278 Clouds 7 1006 93 10000 0 0 13:40 21.09.2021
6279 Rain 8 1006 87 10000 2.06 0 12:58 21.09.2021
6280 Rain 6 1007 95 10000 2.22 343 11:19 21.09.2021
6281 Clouds 8 1004 87 10000 4.63 230 09:54 21.09.2021
6282 Clouds 9 1004 71 10000 2.06 10 07:51 21.09.2021
6283 Rain 8 1002 76 10000 1.54 0 06:38 21.09.2021
6284 Drizzle 8 1006 66 10000 4.12 90 23:58 20.09.2021
6285 Clouds 7 1007 70 10000 3.09 140 22:18 20.09.2021
6286 Clouds 7 1007 65 10000 2.06 140 21:36 20.09.2021
6287 Clouds 6 1008 65 10000 4.63 90 20:29 20.09.2021
6288 Clouds 5 1009 65 10000 2.57 90 19:28 20.09.2021
6289 Clouds 5 1010 70 10000 2.06 90 17:39 20.09.2021
6290 Clouds 5 1010 65 10000 2.06 90 16:33 20.09.2021
6291 Clouds 1 1011 80 10000 2.06 320 15:49 20.09.2021
6292 Clouds 4 1012 77 10000 2.56 352 15:22 20.09.2021
6293 Clear 2 1011 69 10000 2.06 320 13:43 20.09.2021
6294 Clear 2 1011 75 10000 4.12 340 12:35 20.09.2021
6295 Clear 4 1012 65 10000 4.12 290 11:23 20.09.2021
6296 Clouds 4 1011 75 10000 9.77 230 09:57 20.09.2021
6297 Clouds 4 1011 75 10000 9.77 230 09:36 20.09.2021
6298 Clouds 4 1011 81 10000 9.26 230 08:58 20.09.2021
6299 Clouds 4 1007 81 10000 13.89 230 06:55 20.09.2021
6300 Rain 9 1002 57 10000 3.6 230 23:45 19.09.2021
6301 Clouds 10 1003 50 10000 6.17 320 22:26 19.09.2021
6302 Clouds 11 1003 43 10000 6.69 320 21:40 19.09.2021
6303 Clouds 11 1003 43 10000 6.69 320 20:34 19.09.2021
6304 Clouds 10 1004 50 10000 10.8 360 19:22 19.09.2021
6305 Clouds 9 1004 49 10000 6.69 320 18:29 19.09.2021
6306 Clouds 9 1005 49 10000 6.69 320 17:23 19.09.2021
6307 Clouds 9 1006 49 10000 7.72 340 15:55 19.09.2021
6308 Clouds 9 1006 49 10000 7.72 340 15:29 19.09.2021
6309 Clouds 7 1007 57 10000 7.72 360 14:46 19.09.2021
6310 Clouds 7 1008 57 10000 8.23 340 13:24 19.09.2021
6311 Clouds 6 1008 65 10000 8.75 320 12:50 19.09.2021
6312 Clouds 5 1009 70 10000 3.6 340 11:28 19.09.2021
6313 Clouds 2 1009 93 10000 1.54 0 10:47 19.09.2021
6314 Clouds 3 1010 87 10000 1.03 0 09:40 19.09.2021
6315 Clouds 3 1011 81 10000 1.03 0 08:35 19.09.2021
6316 Clouds 3 1012 93 10000 3.09 90 06:42 19.09.2021
6317 Clouds 7 1012 57 10000 0 0 23:43 18.09.2021
6318 Clouds 7 1013 70 10000 0 0 22:23 18.09.2021
6319 Clear 6 1013 70 10000 0 0 20:52 18.09.2021
6320 Clear 6 1013 70 10000 0 0 20:32 18.09.2021
6321 Clear 6 1013 70 10000 0 0 19:39 18.09.2021
6322 Clear 6 1013 70 10000 0 0 19:20 18.09.2021
6323 Clear 5 1014 75 10000 0 0 18:32 18.09.2021
6324 Clear 4 1014 81 10000 0 0 17:34 18.09.2021
6325 Clear 3 1014 87 10000 0 0 16:20 18.09.2021
6326 Clouds 1 1014 80 10000 2.57 290 13:49 18.09.2021
6327 Clouds 1 1014 80 10000 2.57 290 13:29 18.09.2021
6328 Clouds 0 1014 86 10000 1.54 290 12:49 18.09.2021
6329 Clear 1 1014 80 10000 1.03 230 11:41 18.09.2021
6330 Clear 1 1014 80 10000 0 0 10:32 18.09.2021
6331 Clear 2 1014 75 10000 0 0 09:35 18.09.2021
6332 Clear 2 1014 75 10000 0 0 08:59 18.09.2021
6333 Clouds 0 1014 88 10000 2.24 351 05:49 18.09.2021
6334 Clouds 3 1012 82 10000 0.31 249 00:41 18.09.2021
6335 Clouds 3 1012 84 10000 0.44 292 23:49 17.09.2021
6336 Clouds 4 1011 81 10000 0.35 313 22:38 17.09.2021
6337 Clouds 4 1010 74 10000 0.69 326 22:19 17.09.2021
6338 Clouds 5 1010 70 10000 0 0 20:51 17.09.2021
6339 Clouds 4 1009 70 10000 0 0 19:22 17.09.2021
6340 Clouds 3 1009 75 10000 1.03 140 17:25 17.09.2021
6341 Clouds 2 1009 93 10000 1.03 360 16:27 17.09.2021
6342 Clouds 1 1007 86 10000 2.06 360 13:29 17.09.2021
6343 Clouds 1 1006 86 10000 1.54 290 10:53 17.09.2021
6344 Clouds 1 1006 86 10000 2.06 270 08:52 17.09.2021
6345 Snow 1 1006 80 10000 2.57 270 07:19 17.09.2021
6346 Clouds 2 1005 69 10000 5.14 360 03:54 17.09.2021
6347 Clouds 3 1004 60 10000 0 0 23:25 16.09.2021
6348 Clouds 3 1004 65 10000 4.12 360 22:28 16.09.2021
6349 Clouds 3 1004 65 10000 5.14 90 21:51 16.09.2021
6350 Clouds 3 1004 65 10000 5.14 90 21:24 16.09.2021
6351 Clouds 3 1004 65 10000 3.6 90 20:18 16.09.2021
6352 Clouds 3 1005 60 10000 0 0 18:21 16.09.2021
6353 Clouds 4 1006 41 10000 2.06 340 17:33 16.09.2021
6354 Clouds 0 1006 80 10000 3.09 320 14:58 16.09.2021
6355 Clouds 0 1006 80 10000 3.09 320 14:26 16.09.2021
6356 Clouds 0 1006 74 10000 3.6 290 12:51 16.09.2021
6357 Clouds 0 1006 74 10000 3.6 290 12:51 16.09.2021
6358 Clouds 0 1006 74 10000 3.6 290 12:29 16.09.2021
6359 Clouds 0 1006 80 10000 3.09 290 11:26 16.09.2021
6360 Clouds 1 1005 80 10000 5.66 250 10:33 16.09.2021
6361 Clouds 0 1004 93 10000 9.26 240 09:57 16.09.2021
6362 Snow 0 1004 93 10000 12.35 230 08:42 16.09.2021
6363 Snow -1 1003 93 10000 14.4 220 07:36 16.09.2021
6364 Snow -2 1002 93 10000 11.83 220 06:46 16.09.2021
6365 Snow -2 1002 93 10000 15.43 230 05:40 16.09.2021
6366 Snow -2 1002 93 500 11.83 230 01:41 16.09.2021
6367 Snow -1 999 86 1200 8.23 230 23:47 15.09.2021
6368 Snow -1 997 86 400 13.38 230 22:47 15.09.2021
6369 Snow -1 997 86 400 13.38 230 22:47 15.09.2021
6370 Snow -2 995 100 100 14.92 230 21:48 15.09.2021
6371 Snow -2 995 100 100 14.92 230 21:29 15.09.2021
6372 Snow -2 994 93 400 9.26 230 19:58 15.09.2021
6373 Snow -2 994 93 400 9.26 230 19:27 15.09.2021
6374 Snow -2 993 100 1200 12.35 230 18:20 15.09.2021
6375 Snow -2 991 100 1200 15.43 230 16:59 15.09.2021
6376 Snow 0 989 93 400 12.35 230 15:46 15.09.2021
6377 Snow -1 989 93 400 7.72 250 14:45 15.09.2021
6378 Snow -1 989 93 400 7.72 250 14:45 15.09.2021
6379 Snow -1 988 100 8000 3.09 310 13:55 15.09.2021
6380 Snow -1 988 100 8000 3.09 310 13:37 15.09.2021
6381 Snow -1 988 100 1200 6.17 250 13:18 15.09.2021
6382 Snow 0 988 80 8000 5.66 230 11:52 15.09.2021
6383 Snow 0 988 80 8000 5.66 230 11:32 15.09.2021
6384 Snow 0 989 80 8000 6.69 230 10:55 15.09.2021
6385 Snow 0 989 80 10000 6.17 230 09:30 15.09.2021
6386 Snow 0 989 80 10000 4.12 250 08:20 15.09.2021
6387 Clouds 0 990 80 10000 3.09 230 05:37 15.09.2021
6388 Snow 2 988 55 10000 10.29 270 23:54 14.09.2021
6389 Snow 2 985 87 300 16.98 230 21:42 14.09.2021
6390 Drizzle 4 984 65 10000 11.83 230 20:39 14.09.2021
6391 Clouds 4 983 70 10000 10.8 230 19:42 14.09.2021
6392 Rain 2 982 93 10000 17.49 230 17:45 14.09.2021
6393 Rain 2 982 93 10000 17.49 230 17:27 14.09.2021
6394 Rain 5 979 81 1500 19.03 230 15:37 14.09.2021
6395 Drizzle 7 979 57 10000 9.77 230 14:31 14.09.2021
6396 Rain 8 980 49 10000 10.8 290 12:45 14.09.2021
6397 Rain 5 982 75 10000 7.2 360 10:54 14.09.2021
6398 Rain 4 983 81 10000 0 0 09:51 14.09.2021
6399 Clouds 4 985 81 10000 3.6 360 08:41 14.09.2021
6400 Clouds 5 988 70 10000 3.09 320 06:24 14.09.2021
6401 Clouds 6 985 65 10000 14.92 220 00:33 14.09.2021
6402 Clouds 5 986 73 10000 3.44 258 22:53 13.09.2021
6403 Clouds 5 986 70 10000 4.25 253 22:24 13.09.2021
6404 Rain 6 982 70 10000 12.86 220 21:51 13.09.2021
6405 Rain 6 982 70 10000 6.69 210 20:50 13.09.2021
6406 Rain 5 981 75 10000 5.66 240 19:22 13.09.2021
6407 Rain 4 982 81 8000 6.17 250 18:39 13.09.2021
6408 Rain 4 981 81 8000 6.69 250 16:50 13.09.2021
6409 Rain 4 981 75 8000 2.06 0 15:31 13.09.2021
6410 Rain 3 980 65 10000 4.63 180 12:54 13.09.2021
6411 Clouds 3 981 60 10000 5.14 230 10:58 13.09.2021
6412 Clouds 3 981 65 10000 2.06 270 09:40 13.09.2021
6413 Rain 4 981 65 10000 12.35 230 04:59 13.09.2021
6414 Clouds 6 979 65 10000 12.35 230 23:41 12.09.2021
6415 Clouds 8 979 46 10000 8.75 230 22:25 12.09.2021
6416 Clouds 8 979 46 10000 0 0 21:37 12.09.2021
6417 Clear 6 979 61 10000 0 0 20:29 12.09.2021
6418 Clear 7 980 61 10000 0 0 19:51 12.09.2021
6419 Clear 7 980 61 10000 0 0 19:19 12.09.2021
6420 Clear 6 981 70 10000 0 0 18:20 12.09.2021
6421 Clouds 5 982 60 10000 1.54 0 16:32 12.09.2021
6422 Clouds 5 983 52 10000 5.14 20 14:54 12.09.2021
6423 Clear 6 983 45 10000 1.54 100 13:45 12.09.2021
6424 Clouds 6 984 42 10000 8.23 360 11:31 12.09.2021
6425 Clouds 6 985 39 10000 5.14 340 09:27 12.09.2021
6426 Clouds 6 985 39 10000 6.17 360 08:38 12.09.2021
6427 Clouds 6 989 45 10000 1.03 50 01:50 12.09.2021
6428 Clouds 8 989 42 10000 4.12 320 23:28 11.09.2021
6429 Clouds 7 990 45 10000 5.66 320 21:50 11.09.2021
6430 Clouds 7 990 45 10000 6.69 320 20:31 11.09.2021
6431 Clouds 7 990 57 10000 3.6 230 19:21 11.09.2021
6432 Clouds 8 991 46 10000 3.09 160 17:34 11.09.2021
6433 Clouds 5 991 65 10000 1.03 0 15:48 11.09.2021
6434 Clouds 3 991 65 10000 0.51 0 13:49 11.09.2021
6435 Clouds 3 991 60 10000 1.54 340 12:50 11.09.2021
6436 Clouds 4 991 70 10000 1.03 50 11:19 11.09.2021
6437 Clouds 3 991 87 10000 1.54 230 09:38 11.09.2021
6438 Clouds 3 991 87 10000 1.54 180 07:45 11.09.2021
6439 Clouds 3 991 87 10000 2.06 230 06:50 11.09.2021
6440 Rain 4 991 87 10000 1.54 140 23:37 10.09.2021
6441 Rain 4 991 87 10000 1.03 270 22:24 10.09.2021
6442 Rain 2 991 93 5000 12.86 230 21:54 10.09.2021
6443 Clouds 5 989 81 10000 18.01 230 20:24 10.09.2021
6444 Clouds 11 990 35 10000 7.72 320 18:27 10.09.2021
6445 Clouds 10 992 43 10000 6.69 310 16:52 10.09.2021
6446 Clouds 9 994 43 10000 6.17 340 14:49 10.09.2021
6447 Clouds 7 996 65 10000 2.06 0 12:22 10.09.2021
6448 Clouds 8 999 49 10000 6.17 320 08:48 10.09.2021
6449 Clouds 8 1000 49 10000 8.23 320 07:50 10.09.2021
6450 Clouds 9 1003 49 10000 6.17 340 02:27 10.09.2021
6451 Clouds 10 1004 43 10000 6.17 320 22:32 09.09.2021
6452 Clouds 10 1004 43 10000 8.23 320 21:45 09.09.2021
6453 Clouds 11 1004 43 10000 6.17 320 20:46 09.09.2021
6454 Clouds 9 1004 43 10000 7.72 320 19:54 09.09.2021
6455 Clouds 9 1005 43 10000 8.75 320 18:32 09.09.2021
6456 Clouds 6 1006 70 10000 0 0 16:40 09.09.2021
6457 Clear 5 1006 81 10000 2.06 140 15:42 09.09.2021
6458 Clear 4 1007 93 10000 0 0 12:53 09.09.2021
6459 Clear 4 1007 93 10000 1.03 0 11:45 09.09.2021
6460 Clear 4 1007 87 10000 1.03 0 09:50 09.09.2021
6461 Clouds 4 1008 87 10000 4.12 330 08:47 09.09.2021
6462 Clear 5 1008 87 10000 2.06 0 06:26 09.09.2021
6463 Rain 8 1007 76 10000 5.14 260 02:36 09.09.2021
6464 Rain 8 1007 76 10000 5.14 260 02:36 09.09.2021
6465 Clouds 9 1004 71 10000 13.38 230 22:42 08.09.2021
6466 Clouds 12 1003 58 10000 2.06 270 21:31 08.09.2021
6467 Clouds 14 1002 44 10000 6.69 320 19:56 08.09.2021
6468 Clouds 14 1002 44 10000 6.69 320 19:22 08.09.2021
6469 Clouds 14 1001 44 10000 10.29 320 18:29 08.09.2021
6470 Clouds 14 1002 47 10000 9.26 290 17:56 08.09.2021
6471 Clouds 13 1002 54 10000 9.26 290 16:34 08.09.2021
6472 Clouds 11 1002 58 10000 8.75 360 14:26 08.09.2021
6473 Clouds 11 1003 50 10000 4.12 180 12:47 08.09.2021
6474 Clouds 11 1003 50 10000 4.12 180 12:27 08.09.2021
6475 Clouds 11 1004 46 10000 4.12 340 11:30 08.09.2021
6476 Clouds 11 1005 46 10000 7.72 360 10:38 08.09.2021
6477 Clouds 11 1005 46 10000 7.72 360 10:20 08.09.2021
6478 Clouds 11 1006 46 10000 6.17 360 08:36 08.09.2021
6479 Clouds 10 1007 50 10000 7.72 360 07:38 08.09.2021
6480 Clear 11 1009 43 10000 5.14 350 05:34 08.09.2021
6481 Clear 14 1012 38 10000 7.2 360 22:46 07.09.2021
6482 Clear 14 1012 35 10000 8.75 360 21:59 07.09.2021
6483 Clouds 12 1013 47 10000 6.17 360 19:54 07.09.2021
6484 Clouds 13 1013 47 10000 6.17 360 18:45 07.09.2021
6485 Clouds 13 1013 47 10000 6.17 360 18:18 07.09.2021
6486 Clouds 12 1014 54 10000 8.23 360 16:42 07.09.2021
6487 Clouds 10 1014 62 10000 2.06 90 15:37 07.09.2021
6488 Clouds 11 1014 50 10000 4.63 290 14:42 07.09.2021
6489 Clouds 5 1015 100 10000 1.54 50 12:43 07.09.2021
6490 Clear 4 1015 81 10000 1.54 360 11:45 07.09.2021
6491 Clear 3 1016 87 10000 4.12 20 10:41 07.09.2021
6492 Clear 4 1017 81 10000 1.54 360 08:39 07.09.2021
6493 Clear 4 1017 81 10000 3.09 360 07:44 07.09.2021
6494 Clear 4 1017 81 10000 2.06 10 05:41 07.09.2021
6495 Clouds 7 1016 70 10000 3.6 280 02:38 07.09.2021
6496 Clouds 8 1015 71 10000 5.66 230 00:52 07.09.2021
6497 Clouds 9 1014 66 10000 5.14 230 23:35 06.09.2021
6498 Clouds 9 1014 71 10000 6.69 230 22:54 06.09.2021
6499 Clouds 9 1014 71 10000 6.69 230 22:35 06.09.2021
6500 Clouds 10 1014 62 10000 6.69 230 21:25 06.09.2021
6501 Clouds 10 1013 62 10000 6.17 230 19:31 06.09.2021
6502 Clouds 10 1013 62 10000 9.77 230 18:53 06.09.2021
6503 Clouds 10 1013 62 10000 9.77 230 18:24 06.09.2021
6504 Clear 9 1013 66 10000 7.2 230 17:36 06.09.2021
6505 Clouds 7 1012 70 10000 0 0 15:55 06.09.2021
6506 Clouds 6 1012 75 10000 0 0 14:25 06.09.2021
6507 Clouds 5 1011 81 10000 2.57 90 12:48 06.09.2021
6508 Clear 6 1010 75 10000 3.09 230 10:54 06.09.2021
6509 Clear 6 1010 75 10000 2.57 230 09:59 06.09.2021
6510 Clear 7 1010 70 10000 2.06 0 07:21 06.09.2021
6511 Clouds 11 1010 58 10000 0.51 0 23:40 05.09.2021
6512 Clouds 11 1010 58 10000 0.51 0 23:18 05.09.2021
6513 Clouds 11 1010 58 10000 1.03 0 22:29 05.09.2021
6514 Clouds 11 1010 58 10000 1.54 80 21:49 05.09.2021
6515 Clouds 10 1010 62 10000 2.06 60 20:50 05.09.2021
6516 Clear 9 1010 66 10000 2.06 50 18:59 05.09.2021
6517 Clear 8 1010 66 10000 1.03 50 17:34 05.09.2021
6518 Clear 5 1011 87 10000 1.03 90 15:40 05.09.2021
6519 Clear 4 1010 87 10000 1.03 270 14:37 05.09.2021
6520 Clear 3 1010 93 10000 3.6 320 12:34 05.09.2021
6521 Clouds 5 1010 87 10000 3.09 360 10:59 05.09.2021
6522 Clouds 5 1010 87 10000 3.09 360 10:34 05.09.2021
6523 Clouds 5 1009 87 10000 2.57 50 09:25 05.09.2021
6524 Clouds 5 1009 87 10000 2.57 50 08:22 05.09.2021
6525 Clouds 7 1008 70 10000 1.54 230 03:20 05.09.2021
6526 Clouds 8 1007 71 10000 5.14 230 00:32 05.09.2021
6527 Clouds 9 1006 61 10000 5.66 230 23:46 04.09.2021
6528 Clouds 11 1006 58 10000 5.66 180 22:36 04.09.2021
6529 Clouds 11 1005 58 10000 2.06 90 21:59 04.09.2021
6530 Clouds 11 1005 54 10000 2.57 140 19:54 04.09.2021
6531 Clouds 11 1005 54 10000 2.57 140 19:29 04.09.2021
6532 Clouds 9 1005 61 10000 2.06 140 16:27 04.09.2021
6533 Clouds 7 1004 70 10000 3.6 110 13:49 04.09.2021
6534 Clouds 7 1004 70 10000 4.12 120 11:21 04.09.2021
6535 Clouds 8 1004 61 10000 2.06 140 09:33 04.09.2021
6536 Clouds 7 1004 76 10000 2.06 70 06:55 04.09.2021
6537 Clouds 9 1004 61 10000 3.09 140 00:28 04.09.2021
6538 Clouds 9 1004 61 10000 1.54 140 23:32 03.09.2021
6539 Clouds 9 1004 66 10000 2.57 140 22:45 03.09.2021
6540 Clouds 10 1005 62 10000 1.54 140 21:36 03.09.2021
6541 Clouds 8 1005 71 10000 0 0 20:52 03.09.2021
6542 Clouds 8 1006 71 10000 0 0 19:56 03.09.2021
6543 Clouds 8 1006 71 10000 0 0 19:29 03.09.2021
6544 Clouds 7 1006 76 10000 1.54 180 17:57 03.09.2021
6545 Clouds 7 1006 70 10000 1.54 50 16:40 03.09.2021
6546 Clouds 6 1007 81 10000 3.09 230 15:34 03.09.2021
6547 Clouds 7 1005 65 10000 1.03 360 12:59 03.09.2021
6548 Clouds 7 1004 65 10000 1.03 230 10:43 03.09.2021
6549 Clouds 8 1004 57 10000 3.6 230 09:19 03.09.2021
6550 Clouds 8 1003 61 10000 7.72 320 07:51 03.09.2021
6551 Clouds 8 1003 57 10000 9.26 320 06:21 03.09.2021
6552 Clear 8 1008 57 10000 2.06 140 23:25 02.09.2021
6553 Clear 8 1010 53 10000 2.06 90 21:42 02.09.2021
6554 Clear 7 1010 61 10000 3.6 90 20:24 02.09.2021
6555 Clear 6 1013 56 10000 2.06 50 17:33 02.09.2021
6556 Clear 4 1013 70 10000 2.57 360 16:19 02.09.2021
6557 Clear 2 1013 75 10000 1.54 360 14:36 02.09.2021
6558 Clear 2 1014 80 10000 2.06 360 12:58 02.09.2021
6559 Clear 3 1014 70 10000 1.54 320 11:40 02.09.2021
6560 Clear 3 1014 70 10000 2.06 360 10:37 02.09.2021
6561 Clear 3 1014 75 10000 1.54 360 08:40 02.09.2021
6562 Clear 3 1015 75 10000 2.57 270 07:20 02.09.2021
6563 Clear 3 1015 75 10000 2.57 270 07:20 02.09.2021
6564 Clear 4 1015 70 10000 2.06 310 05:31 02.09.2021
6565 Clear 5 1015 65 10000 3.6 280 02:35 02.09.2021
6566 Clear 6 1015 61 10000 3.09 260 01:34 02.09.2021
6567 Clear 7 1014 61 10000 7.72 240 23:40 01.09.2021
6568 Clear 7 1015 61 10000 6.69 230 22:42 01.09.2021
6569 Clouds 8 1014 57 10000 4.12 230 21:41 01.09.2021
6570 Clouds 8 1014 57 10000 7.72 220 20:54 01.09.2021
6571 Clouds 7 1014 57 10000 4.63 230 19:23 01.09.2021
6572 Clear 6 1014 56 10000 3.09 360 17:50 01.09.2021
6573 Clear 4 1014 60 10000 7.2 360 16:48 01.09.2021
6574 Clear 4 1014 60 10000 7.2 360 16:21 01.09.2021
6575 Clouds 1 1013 80 10000 4.63 270 13:40 01.09.2021
6576 Clouds 1 1012 64 10000 5.14 360 11:46 01.09.2021
6577 Clouds 0 1012 80 10000 2.57 360 09:25 01.09.2021
6578 Clouds 0 1013 74 10000 2.06 290 07:57 01.09.2021
6579 Clouds 1 1012 55 10000 3.09 360 05:40 01.09.2021
6580 Snow 1 1007 86 4000 11.83 230 23:19 31.08.2021
6581 Clouds 2 1004 100 10000 10.8 230 21:41 31.08.2021
6582 Rain 4 1000 75 10000 12.35 230 19:49 31.08.2021
6583 Drizzle 2 999 93 10000 12.35 230 18:44 31.08.2021
6584 Drizzle 3 999 87 10000 8.75 230 17:39 31.08.2021
6585 Drizzle 3 999 87 10000 8.75 230 17:20 31.08.2021
6586 Rain 3 998 87 10000 11.32 230 16:24 31.08.2021
6587 Clouds 4 997 81 10000 3.09 270 13:46 31.08.2021
6588 Clear 4 996 70 10000 4.12 180 11:36 31.08.2021
6589 Clear 4 996 70 10000 2.06 230 10:56 31.08.2021
6590 Clear 4 997 70 10000 3.09 230 09:45 31.08.2021
6591 Clear 4 998 65 10000 2.57 140 08:41 31.08.2021
6592 Clear 4 998 70 10000 0 0 07:38 31.08.2021
6593 Clouds 5 998 65 10000 0.51 70 05:55 31.08.2021
6594 Clouds 6 1000 45 10000 5.14 340 23:35 30.08.2021
6595 Clouds 6 1000 45 10000 5.14 50 21:53 30.08.2021
6596 Clouds 6 1000 45 10000 5.14 50 21:32 30.08.2021
6597 Clouds 6 1001 39 10000 9.26 360 20:32 30.08.2021
6598 Clouds 6 1002 42 10000 10.8 350 19:29 30.08.2021
6599 Clear 7 1003 36 10000 9.26 340 18:44 30.08.2021
6600 Clear 6 1004 100 10000 3.09 0 17:47 30.08.2021
6601 Clear 4 1005 60 10000 2.06 70 16:24 30.08.2021
6602 Clear 2 1006 80 10000 3.09 270 15:39 30.08.2021
6603 Clear 1 1007 69 10000 1.54 0 13:46 30.08.2021
6604 Clouds 1 1008 75 10000 3.09 360 12:40 30.08.2021
6605 Clear 1 1009 80 10000 2.06 320 10:34 30.08.2021
6606 Drizzle 4 1005 81 10000 7.72 230 23:29 29.08.2021
6607 Clear 8 1003 46 10000 2.57 180 21:33 29.08.2021
6608 Clear 8 1003 49 10000 3.09 140 20:34 29.08.2021
6609 Clear 7 1004 49 10000 3.09 180 19:20 29.08.2021
6610 Clouds 6 1005 49 10000 2.57 90 17:58 29.08.2021
6611 Clouds 2 1005 75 10000 1.54 140 15:49 29.08.2021
6612 Clouds 2 1004 60 10000 2.57 140 14:21 29.08.2021
6613 Clouds 2 1004 64 10000 1.03 230 13:44 29.08.2021
6614 Clouds 2 1004 64 10000 1.03 230 13:44 29.08.2021
6615 Clouds 2 1004 69 10000 1.03 90 12:41 29.08.2021
6616 Clouds 2 1004 75 10000 1.54 330 11:51 29.08.2021
6617 Clouds 2 1004 75 10000 1.54 330 11:27 29.08.2021
6618 Clouds 2 1004 75 10000 1.54 160 10:46 29.08.2021
6619 Clouds 2 1004 75 10000 1.54 160 10:26 29.08.2021
6620 Clouds 2 1004 75 10000 2.06 350 09:21 29.08.2021
6621 Rain 6 998 65 10000 3.09 270 00:40 29.08.2021
6622 Clear 8 996 57 10000 4.12 230 21:58 28.08.2021
6623 Clouds 9 995 57 10000 2.06 180 20:29 28.08.2021
6624 Clouds 8 995 61 10000 1.54 90 18:51 28.08.2021
6625 Clouds 8 995 61 10000 1.54 90 18:21 28.08.2021
6626 Clouds 7 994 61 10000 4.12 140 17:27 28.08.2021
6627 Clouds 5 992 65 10000 3.09 140 15:57 28.08.2021
6628 Clouds 4 992 70 10000 2.57 180 14:42 28.08.2021
6629 Clouds 2 992 100 10000 2.57 140 13:46 28.08.2021
6630 Clouds 2 992 100 10000 1.54 230 12:44 28.08.2021
6631 Clouds 3 991 87 10000 0 0 11:57 28.08.2021
6632 Clouds 3 991 87 10000 1.54 250 10:43 28.08.2021
6633 Clouds 3 991 93 10000 2.57 320 09:24 28.08.2021
6634 Drizzle 4 992 81 10000 5.66 50 07:25 28.08.2021
6635 Clouds 4 997 52 10000 4.63 350 22:48 27.08.2021
6636 Clouds 5 998 52 10000 7.2 350 21:24 27.08.2021
6637 Clouds 5 1000 48 10000 6.17 350 20:33 27.08.2021
6638 Clouds 5 1002 52 10000 7.72 320 18:58 27.08.2021
6639 Clouds 5 1002 52 10000 7.72 320 18:38 27.08.2021
6640 Clouds 4 1003 48 10000 2.06 200 17:27 27.08.2021
6641 Clear 1 1004 75 10000 1.54 260 15:57 27.08.2021
6642 Clear 0 1005 80 10000 0 0 14:43 27.08.2021
6643 Clear 0 1006 80 10000 1.54 20 12:55 27.08.2021
6644 Clear -1 1006 86 10000 0.51 270 11:37 27.08.2021
6645 Clear -1 1007 80 10000 1.03 360 10:44 27.08.2021
6646 Clear 0 1007 74 10000 1.03 320 09:51 27.08.2021
6647 Clear 0 1008 74 10000 1.03 320 08:48 27.08.2021
6648 Clear 0 1008 74 10000 3.09 320 07:39 27.08.2021
6649 Clear 1 1008 69 10000 3.09 320 05:31 27.08.2021
6650 Clear 2 1008 64 10000 3.09 320 00:37 27.08.2021
6651 Clear 5 1008 56 10000 0 0 23:19 26.08.2021
6652 Clear 5 1008 52 10000 0 0 22:19 26.08.2021
6653 Clear 5 1008 52 10000 0 0 22:19 26.08.2021
6654 Clear 5 1008 52 10000 0 0 22:19 26.08.2021
6655 Clear 5 1007 56 10000 0 0 20:44 26.08.2021
6656 Clear 3 1007 56 10000 1.54 180 18:53 26.08.2021
6657 Clear 1 1007 75 10000 1.03 270 17:45 26.08.2021
6658 Clouds 0 1006 86 10000 1.54 270 16:44 26.08.2021
6659 Clouds 0 1006 86 10000 1.54 270 16:26 26.08.2021
6660 Clouds -1 1005 100 10000 2.57 270 13:53 26.08.2021
6661 Clear -1 1004 74 10000 1.54 320 12:57 26.08.2021
6662 Clear -1 1004 74 10000 1.54 320 12:31 26.08.2021
6663 Clear -1 1003 80 10000 1.54 320 10:22 26.08.2021
6664 Clear 0 1002 69 10000 1.54 320 08:35 26.08.2021
6665 Clouds 0 1002 69 10000 2.57 270 07:47 26.08.2021
6666 Clear 4 997 52 10000 1.54 180 22:55 25.08.2021
6667 Clear 4 997 52 10000 1.54 180 22:36 25.08.2021
6668 Clear 4 997 52 10000 2.06 180 21:54 25.08.2021
6669 Clear 4 997 52 10000 3.09 140 20:49 25.08.2021
6670 Clear 4 997 52 10000 3.09 140 20:28 25.08.2021
6671 Clear 4 997 52 10000 1.03 140 18:45 25.08.2021
6672 Clouds 3 997 56 10000 2.57 210 17:43 25.08.2021
6673 Clear 1 997 69 10000 1.54 310 15:45 25.08.2021
6674